<?xml version="1.0" encoding="UTF-8" standalone="no" ?>
<gpx xmlns="http://www.topografix.com/GPX/1/1" xmlns:xsi="http://www.w3.org/2001/XMLSchema-instance" xsi:schemaLocation="http://www.topografix.com/GPX/1/1 http://www.topografix.com/GPX/1/1/gpx.xsd" version="1.1" creator="VisuGPX - https://www.visugpx.com">
  <metadata>
    <name>18 km autour de Clairefontaine</name>
    <desc><![CDATA[18 Km autour de Clairefontaine en partant de Moutiers (Village de Boullion)]]></desc>
  </metadata>
  <trk>
    <name><![CDATA[13-JAN-18 04:54:35 PM]]></name>
    <trkseg>
      <trkpt lat="48.6079" lon="1.97438">
        <ele>108.77</ele>
        <time>2018-01-13T08:21:40Z</time>
      </trkpt>
      <trkpt lat="48.60791" lon="1.97438">
        <ele>107.32</ele>
        <time>2018-01-13T08:21:47Z</time>
      </trkpt>
      <trkpt lat="48.60787" lon="1.97452">
        <ele>108.77</ele>
        <time>2018-01-13T08:22:22Z</time>
      </trkpt>
      <trkpt lat="48.60786" lon="1.97451">
        <ele>108.77</ele>
        <time>2018-01-13T08:22:23Z</time>
      </trkpt>
      <trkpt lat="48.60787" lon="1.97439">
        <ele>106.84</ele>
        <time>2018-01-13T08:22:36Z</time>
      </trkpt>
      <trkpt lat="48.60788" lon="1.97439">
        <ele>111.17</ele>
        <time>2018-01-13T08:22:37Z</time>
      </trkpt>
      <trkpt lat="48.6079" lon="1.97438">
        <ele>108.29</ele>
        <time>2018-01-13T08:22:43Z</time>
      </trkpt>
      <trkpt lat="48.60791" lon="1.97438">
        <ele>108.29</ele>
        <time>2018-01-13T08:22:52Z</time>
      </trkpt>
      <trkpt lat="48.60792" lon="1.97439">
        <ele>108.29</ele>
        <time>2018-01-13T08:23:06Z</time>
      </trkpt>
      <trkpt lat="48.60791" lon="1.97439">
        <ele>108.77</ele>
        <time>2018-01-13T08:23:12Z</time>
      </trkpt>
      <trkpt lat="48.60789" lon="1.97439">
        <ele>108.77</ele>
        <time>2018-01-13T08:23:19Z</time>
      </trkpt>
      <trkpt lat="48.60786" lon="1.97438">
        <ele>108.77</ele>
        <time>2018-01-13T08:23:25Z</time>
      </trkpt>
      <trkpt lat="48.60779" lon="1.97435">
        <ele>109.25</ele>
        <time>2018-01-13T08:23:32Z</time>
      </trkpt>
      <trkpt lat="48.60779" lon="1.97435">
        <ele>109.25</ele>
        <time>2018-01-13T08:23:33Z</time>
      </trkpt>
      <trkpt lat="48.60772" lon="1.97432">
        <ele>109.25</ele>
        <time>2018-01-13T08:23:39Z</time>
      </trkpt>
      <trkpt lat="48.60763" lon="1.97435">
        <ele>109.73</ele>
        <time>2018-01-13T08:23:47Z</time>
      </trkpt>
      <trkpt lat="48.60758" lon="1.9744">
        <ele>109.73</ele>
        <time>2018-01-13T08:23:54Z</time>
      </trkpt>
      <trkpt lat="48.60751" lon="1.97443">
        <ele>110.21</ele>
        <time>2018-01-13T08:24:01Z</time>
      </trkpt>
      <trkpt lat="48.60745" lon="1.97447">
        <ele>110.21</ele>
        <time>2018-01-13T08:24:08Z</time>
      </trkpt>
      <trkpt lat="48.60743" lon="1.97447">
        <ele>110.21</ele>
        <time>2018-01-13T08:24:09Z</time>
      </trkpt>
      <trkpt lat="48.60735" lon="1.97451">
        <ele>110.69</ele>
        <time>2018-01-13T08:24:16Z</time>
      </trkpt>
      <trkpt lat="48.60726" lon="1.97453">
        <ele>111.65</ele>
        <time>2018-01-13T08:24:24Z</time>
      </trkpt>
      <trkpt lat="48.60719" lon="1.97456">
        <ele>111.65</ele>
        <time>2018-01-13T08:24:30Z</time>
      </trkpt>
      <trkpt lat="48.60717" lon="1.97457">
        <ele>111.65</ele>
        <time>2018-01-13T08:24:32Z</time>
      </trkpt>
      <trkpt lat="48.60715" lon="1.97459">
        <ele>112.13</ele>
        <time>2018-01-13T08:24:35Z</time>
      </trkpt>
      <trkpt lat="48.60712" lon="1.97459">
        <ele>112.13</ele>
        <time>2018-01-13T08:24:38Z</time>
      </trkpt>
      <trkpt lat="48.60708" lon="1.97459">
        <ele>112.61</ele>
        <time>2018-01-13T08:24:42Z</time>
      </trkpt>
      <trkpt lat="48.60702" lon="1.97462">
        <ele>113.09</ele>
        <time>2018-01-13T08:24:48Z</time>
      </trkpt>
      <trkpt lat="48.60695" lon="1.97462">
        <ele>113.09</ele>
        <time>2018-01-13T08:24:54Z</time>
      </trkpt>
      <trkpt lat="48.60688" lon="1.97461">
        <ele>113.57</ele>
        <time>2018-01-13T08:25:00Z</time>
      </trkpt>
      <trkpt lat="48.60683" lon="1.9746">
        <ele>114.05</ele>
        <time>2018-01-13T08:25:05Z</time>
      </trkpt>
      <trkpt lat="48.6068" lon="1.97459">
        <ele>114.05</ele>
        <time>2018-01-13T08:25:10Z</time>
      </trkpt>
      <trkpt lat="48.6068" lon="1.97458">
        <ele>114.05</ele>
        <time>2018-01-13T08:25:11Z</time>
      </trkpt>
      <trkpt lat="48.60676" lon="1.97454">
        <ele>114.53</ele>
        <time>2018-01-13T08:25:17Z</time>
      </trkpt>
      <trkpt lat="48.60673" lon="1.97452">
        <ele>114.53</ele>
        <time>2018-01-13T08:25:19Z</time>
      </trkpt>
      <trkpt lat="48.60669" lon="1.97442">
        <ele>114.53</ele>
        <time>2018-01-13T08:25:25Z</time>
      </trkpt>
      <trkpt lat="48.60665" lon="1.97438">
        <ele>115.01</ele>
        <time>2018-01-13T08:25:29Z</time>
      </trkpt>
      <trkpt lat="48.6066" lon="1.97432">
        <ele>115.01</ele>
        <time>2018-01-13T08:25:34Z</time>
      </trkpt>
      <trkpt lat="48.60653" lon="1.97425">
        <ele>115.5</ele>
        <time>2018-01-13T08:25:41Z</time>
      </trkpt>
      <trkpt lat="48.60648" lon="1.97417">
        <ele>115.98</ele>
        <time>2018-01-13T08:25:48Z</time>
      </trkpt>
      <trkpt lat="48.60642" lon="1.97409">
        <ele>115.98</ele>
        <time>2018-01-13T08:25:54Z</time>
      </trkpt>
      <trkpt lat="48.60637" lon="1.97404">
        <ele>116.46</ele>
        <time>2018-01-13T08:25:58Z</time>
      </trkpt>
      <trkpt lat="48.6063" lon="1.97396">
        <ele>116.94</ele>
        <time>2018-01-13T08:26:05Z</time>
      </trkpt>
      <trkpt lat="48.60628" lon="1.97394">
        <ele>116.94</ele>
        <time>2018-01-13T08:26:07Z</time>
      </trkpt>
      <trkpt lat="48.60627" lon="1.97389">
        <ele>117.42</ele>
        <time>2018-01-13T08:26:10Z</time>
      </trkpt>
      <trkpt lat="48.60624" lon="1.9738">
        <ele>117.42</ele>
        <time>2018-01-13T08:26:16Z</time>
      </trkpt>
      <trkpt lat="48.6062" lon="1.97375">
        <ele>117.9</ele>
        <time>2018-01-13T08:26:21Z</time>
      </trkpt>
      <trkpt lat="48.60617" lon="1.97373">
        <ele>117.9</ele>
        <time>2018-01-13T08:26:23Z</time>
      </trkpt>
      <trkpt lat="48.60613" lon="1.97369">
        <ele>117.9</ele>
        <time>2018-01-13T08:26:28Z</time>
      </trkpt>
      <trkpt lat="48.60611" lon="1.97365">
        <ele>118.38</ele>
        <time>2018-01-13T08:26:32Z</time>
      </trkpt>
      <trkpt lat="48.60608" lon="1.97362">
        <ele>118.38</ele>
        <time>2018-01-13T08:26:38Z</time>
      </trkpt>
      <trkpt lat="48.60606" lon="1.97359">
        <ele>118.38</ele>
        <time>2018-01-13T08:26:41Z</time>
      </trkpt>
      <trkpt lat="48.60598" lon="1.97356">
        <ele>118.38</ele>
        <time>2018-01-13T08:26:47Z</time>
      </trkpt>
      <trkpt lat="48.60595" lon="1.97351">
        <ele>118.86</ele>
        <time>2018-01-13T08:26:52Z</time>
      </trkpt>
      <trkpt lat="48.6059" lon="1.97343">
        <ele>119.34</ele>
        <time>2018-01-13T08:26:59Z</time>
      </trkpt>
      <trkpt lat="48.60585" lon="1.97337">
        <ele>119.34</ele>
        <time>2018-01-13T08:27:05Z</time>
      </trkpt>
      <trkpt lat="48.60583" lon="1.97334">
        <ele>119.34</ele>
        <time>2018-01-13T08:27:08Z</time>
      </trkpt>
      <trkpt lat="48.6058" lon="1.9733">
        <ele>119.82</ele>
        <time>2018-01-13T08:27:11Z</time>
      </trkpt>
      <trkpt lat="48.60574" lon="1.97322">
        <ele>119.82</ele>
        <time>2018-01-13T08:27:18Z</time>
      </trkpt>
      <trkpt lat="48.60563" lon="1.97313">
        <ele>120.3</ele>
        <time>2018-01-13T08:27:27Z</time>
      </trkpt>
      <trkpt lat="48.60557" lon="1.97307">
        <ele>120.78</ele>
        <time>2018-01-13T08:27:34Z</time>
      </trkpt>
      <trkpt lat="48.60551" lon="1.97307">
        <ele>120.78</ele>
        <time>2018-01-13T08:27:42Z</time>
      </trkpt>
      <trkpt lat="48.60548" lon="1.97304">
        <ele>121.26</ele>
        <time>2018-01-13T08:27:48Z</time>
      </trkpt>
      <trkpt lat="48.60544" lon="1.97299">
        <ele>121.74</ele>
        <time>2018-01-13T08:27:54Z</time>
      </trkpt>
      <trkpt lat="48.60543" lon="1.97298">
        <ele>121.74</ele>
        <time>2018-01-13T08:27:55Z</time>
      </trkpt>
      <trkpt lat="48.60535" lon="1.97296">
        <ele>121.74</ele>
        <time>2018-01-13T08:28:01Z</time>
      </trkpt>
      <trkpt lat="48.60529" lon="1.97293">
        <ele>122.22</ele>
        <time>2018-01-13T08:28:07Z</time>
      </trkpt>
      <trkpt lat="48.60521" lon="1.97285">
        <ele>122.71</ele>
        <time>2018-01-13T08:28:15Z</time>
      </trkpt>
      <trkpt lat="48.60512" lon="1.9728">
        <ele>123.19</ele>
        <time>2018-01-13T08:28:23Z</time>
      </trkpt>
      <trkpt lat="48.60509" lon="1.97278">
        <ele>123.19</ele>
        <time>2018-01-13T08:28:25Z</time>
      </trkpt>
      <trkpt lat="48.60499" lon="1.97274">
        <ele>123.67</ele>
        <time>2018-01-13T08:28:32Z</time>
      </trkpt>
      <trkpt lat="48.60496" lon="1.97273">
        <ele>123.67</ele>
        <time>2018-01-13T08:28:34Z</time>
      </trkpt>
      <trkpt lat="48.60486" lon="1.97271">
        <ele>124.15</ele>
        <time>2018-01-13T08:28:43Z</time>
      </trkpt>
      <trkpt lat="48.60482" lon="1.97268">
        <ele>124.63</ele>
        <time>2018-01-13T08:28:49Z</time>
      </trkpt>
      <trkpt lat="48.60477" lon="1.97263">
        <ele>124.63</ele>
        <time>2018-01-13T08:28:56Z</time>
      </trkpt>
      <trkpt lat="48.60472" lon="1.97257">
        <ele>125.11</ele>
        <time>2018-01-13T08:29:05Z</time>
      </trkpt>
      <trkpt lat="48.60465" lon="1.97252">
        <ele>125.11</ele>
        <time>2018-01-13T08:29:13Z</time>
      </trkpt>
      <trkpt lat="48.6046" lon="1.97246">
        <ele>125.59</ele>
        <time>2018-01-13T08:29:20Z</time>
      </trkpt>
      <trkpt lat="48.60455" lon="1.97244">
        <ele>126.07</ele>
        <time>2018-01-13T08:29:26Z</time>
      </trkpt>
      <trkpt lat="48.60451" lon="1.97241">
        <ele>126.07</ele>
        <time>2018-01-13T08:29:30Z</time>
      </trkpt>
      <trkpt lat="48.60444" lon="1.97236">
        <ele>126.55</ele>
        <time>2018-01-13T08:29:36Z</time>
      </trkpt>
      <trkpt lat="48.60438" lon="1.9723">
        <ele>126.55</ele>
        <time>2018-01-13T08:29:42Z</time>
      </trkpt>
      <trkpt lat="48.60432" lon="1.97223">
        <ele>127.03</ele>
        <time>2018-01-13T08:29:49Z</time>
      </trkpt>
      <trkpt lat="48.60426" lon="1.97214">
        <ele>127.51</ele>
        <time>2018-01-13T08:29:57Z</time>
      </trkpt>
      <trkpt lat="48.60422" lon="1.97211">
        <ele>127.51</ele>
        <time>2018-01-13T08:30:01Z</time>
      </trkpt>
      <trkpt lat="48.60415" lon="1.97205">
        <ele>127.99</ele>
        <time>2018-01-13T08:30:09Z</time>
      </trkpt>
      <trkpt lat="48.60411" lon="1.97198">
        <ele>127.99</ele>
        <time>2018-01-13T08:30:16Z</time>
      </trkpt>
      <trkpt lat="48.60408" lon="1.97197">
        <ele>128.47</ele>
        <time>2018-01-13T08:30:21Z</time>
      </trkpt>
      <trkpt lat="48.60406" lon="1.97191">
        <ele>128.47</ele>
        <time>2018-01-13T08:30:27Z</time>
      </trkpt>
      <trkpt lat="48.60402" lon="1.97183">
        <ele>128.47</ele>
        <time>2018-01-13T08:30:33Z</time>
      </trkpt>
      <trkpt lat="48.60396" lon="1.9718">
        <ele>128.95</ele>
        <time>2018-01-13T08:30:36Z</time>
      </trkpt>
      <trkpt lat="48.60387" lon="1.9717">
        <ele>128.95</ele>
        <time>2018-01-13T08:30:43Z</time>
      </trkpt>
      <trkpt lat="48.60381" lon="1.97161">
        <ele>128.95</ele>
        <time>2018-01-13T08:30:49Z</time>
      </trkpt>
      <trkpt lat="48.6038" lon="1.97157">
        <ele>128.95</ele>
        <time>2018-01-13T08:30:51Z</time>
      </trkpt>
      <trkpt lat="48.60372" lon="1.97144">
        <ele>128.95</ele>
        <time>2018-01-13T08:30:59Z</time>
      </trkpt>
      <trkpt lat="48.60369" lon="1.97136">
        <ele>129.43</ele>
        <time>2018-01-13T08:31:05Z</time>
      </trkpt>
      <trkpt lat="48.60367" lon="1.97133">
        <ele>129.43</ele>
        <time>2018-01-13T08:31:09Z</time>
      </trkpt>
      <trkpt lat="48.60363" lon="1.97129">
        <ele>129.43</ele>
        <time>2018-01-13T08:31:13Z</time>
      </trkpt>
      <trkpt lat="48.60358" lon="1.97122">
        <ele>129.43</ele>
        <time>2018-01-13T08:31:20Z</time>
      </trkpt>
      <trkpt lat="48.60354" lon="1.97118">
        <ele>129.43</ele>
        <time>2018-01-13T08:31:25Z</time>
      </trkpt>
      <trkpt lat="48.60352" lon="1.97116">
        <ele>129.43</ele>
        <time>2018-01-13T08:31:27Z</time>
      </trkpt>
      <trkpt lat="48.60346" lon="1.97113">
        <ele>129.92</ele>
        <time>2018-01-13T08:31:32Z</time>
      </trkpt>
      <trkpt lat="48.60341" lon="1.97105">
        <ele>129.92</ele>
        <time>2018-01-13T08:31:39Z</time>
      </trkpt>
      <trkpt lat="48.60339" lon="1.971">
        <ele>129.92</ele>
        <time>2018-01-13T08:31:44Z</time>
      </trkpt>
      <trkpt lat="48.60338" lon="1.97098">
        <ele>129.92</ele>
        <time>2018-01-13T08:31:46Z</time>
      </trkpt>
      <trkpt lat="48.60335" lon="1.9709">
        <ele>129.92</ele>
        <time>2018-01-13T08:31:53Z</time>
      </trkpt>
      <trkpt lat="48.60331" lon="1.97086">
        <ele>130.4</ele>
        <time>2018-01-13T08:31:59Z</time>
      </trkpt>
      <trkpt lat="48.60331" lon="1.97084">
        <ele>130.4</ele>
        <time>2018-01-13T08:32:00Z</time>
      </trkpt>
      <trkpt lat="48.60327" lon="1.9707">
        <ele>130.4</ele>
        <time>2018-01-13T08:32:07Z</time>
      </trkpt>
      <trkpt lat="48.60325" lon="1.97063">
        <ele>130.4</ele>
        <time>2018-01-13T08:32:11Z</time>
      </trkpt>
      <trkpt lat="48.6032" lon="1.97056">
        <ele>130.88</ele>
        <time>2018-01-13T08:32:16Z</time>
      </trkpt>
      <trkpt lat="48.60319" lon="1.97053">
        <ele>130.88</ele>
        <time>2018-01-13T08:32:19Z</time>
      </trkpt>
      <trkpt lat="48.60316" lon="1.97051">
        <ele>130.88</ele>
        <time>2018-01-13T08:32:21Z</time>
      </trkpt>
      <trkpt lat="48.60314" lon="1.97041">
        <ele>131.36</ele>
        <time>2018-01-13T08:32:28Z</time>
      </trkpt>
      <trkpt lat="48.60313" lon="1.97029">
        <ele>131.84</ele>
        <time>2018-01-13T08:32:35Z</time>
      </trkpt>
      <trkpt lat="48.6031" lon="1.97017">
        <ele>132.32</ele>
        <time>2018-01-13T08:32:42Z</time>
      </trkpt>
      <trkpt lat="48.60307" lon="1.97005">
        <ele>132.32</ele>
        <time>2018-01-13T08:32:49Z</time>
      </trkpt>
      <trkpt lat="48.60305" lon="1.96996">
        <ele>132.32</ele>
        <time>2018-01-13T08:32:55Z</time>
      </trkpt>
      <trkpt lat="48.60297" lon="1.96993">
        <ele>132.32</ele>
        <time>2018-01-13T08:33:00Z</time>
      </trkpt>
      <trkpt lat="48.60293" lon="1.96992">
        <ele>132.8</ele>
        <time>2018-01-13T08:33:07Z</time>
      </trkpt>
      <trkpt lat="48.60294" lon="1.96985">
        <ele>132.8</ele>
        <time>2018-01-13T08:33:13Z</time>
      </trkpt>
      <trkpt lat="48.60292" lon="1.96976">
        <ele>133.28</ele>
        <time>2018-01-13T08:33:18Z</time>
      </trkpt>
      <trkpt lat="48.60291" lon="1.96971">
        <ele>133.28</ele>
        <time>2018-01-13T08:33:21Z</time>
      </trkpt>
      <trkpt lat="48.6029" lon="1.96959">
        <ele>133.76</ele>
        <time>2018-01-13T08:33:28Z</time>
      </trkpt>
      <trkpt lat="48.60289" lon="1.96949">
        <ele>133.76</ele>
        <time>2018-01-13T08:33:34Z</time>
      </trkpt>
      <trkpt lat="48.60285" lon="1.96944">
        <ele>134.24</ele>
        <time>2018-01-13T08:33:39Z</time>
      </trkpt>
      <trkpt lat="48.60285" lon="1.96939">
        <ele>134.24</ele>
        <time>2018-01-13T08:33:42Z</time>
      </trkpt>
      <trkpt lat="48.60282" lon="1.96933">
        <ele>134.24</ele>
        <time>2018-01-13T08:33:47Z</time>
      </trkpt>
      <trkpt lat="48.60279" lon="1.96926">
        <ele>134.72</ele>
        <time>2018-01-13T08:33:52Z</time>
      </trkpt>
      <trkpt lat="48.60274" lon="1.96918">
        <ele>134.72</ele>
        <time>2018-01-13T08:33:58Z</time>
      </trkpt>
      <trkpt lat="48.60272" lon="1.96912">
        <ele>135.2</ele>
        <time>2018-01-13T08:34:01Z</time>
      </trkpt>
      <trkpt lat="48.60269" lon="1.969">
        <ele>135.2</ele>
        <time>2018-01-13T08:34:07Z</time>
      </trkpt>
      <trkpt lat="48.60264" lon="1.96891">
        <ele>135.68</ele>
        <time>2018-01-13T08:34:12Z</time>
      </trkpt>
      <trkpt lat="48.60263" lon="1.96887">
        <ele>135.68</ele>
        <time>2018-01-13T08:34:14Z</time>
      </trkpt>
      <trkpt lat="48.60258" lon="1.96878">
        <ele>135.68</ele>
        <time>2018-01-13T08:34:20Z</time>
      </trkpt>
      <trkpt lat="48.60254" lon="1.96869">
        <ele>136.16</ele>
        <time>2018-01-13T08:34:26Z</time>
      </trkpt>
      <trkpt lat="48.60252" lon="1.96863">
        <ele>136.64</ele>
        <time>2018-01-13T08:34:30Z</time>
      </trkpt>
      <trkpt lat="48.60249" lon="1.96857">
        <ele>136.64</ele>
        <time>2018-01-13T08:34:36Z</time>
      </trkpt>
      <trkpt lat="48.60248" lon="1.96856">
        <ele>136.64</ele>
        <time>2018-01-13T08:34:37Z</time>
      </trkpt>
      <trkpt lat="48.60244" lon="1.96852">
        <ele>137.13</ele>
        <time>2018-01-13T08:34:40Z</time>
      </trkpt>
      <trkpt lat="48.60243" lon="1.96841">
        <ele>137.13</ele>
        <time>2018-01-13T08:34:45Z</time>
      </trkpt>
      <trkpt lat="48.60244" lon="1.96835">
        <ele>137.61</ele>
        <time>2018-01-13T08:34:48Z</time>
      </trkpt>
      <trkpt lat="48.60242" lon="1.96825">
        <ele>138.09</ele>
        <time>2018-01-13T08:34:54Z</time>
      </trkpt>
      <trkpt lat="48.60239" lon="1.96818">
        <ele>138.09</ele>
        <time>2018-01-13T08:34:59Z</time>
      </trkpt>
      <trkpt lat="48.60238" lon="1.96813">
        <ele>138.57</ele>
        <time>2018-01-13T08:35:03Z</time>
      </trkpt>
      <trkpt lat="48.60234" lon="1.96801">
        <ele>139.05</ele>
        <time>2018-01-13T08:35:10Z</time>
      </trkpt>
      <trkpt lat="48.60234" lon="1.96797">
        <ele>139.05</ele>
        <time>2018-01-13T08:35:13Z</time>
      </trkpt>
      <trkpt lat="48.60233" lon="1.96789">
        <ele>139.05</ele>
        <time>2018-01-13T08:35:18Z</time>
      </trkpt>
      <trkpt lat="48.60228" lon="1.96778">
        <ele>139.05</ele>
        <time>2018-01-13T08:35:25Z</time>
      </trkpt>
      <trkpt lat="48.60227" lon="1.96773">
        <ele>139.53</ele>
        <time>2018-01-13T08:35:29Z</time>
      </trkpt>
      <trkpt lat="48.60227" lon="1.96761">
        <ele>139.53</ele>
        <time>2018-01-13T08:35:34Z</time>
      </trkpt>
      <trkpt lat="48.60225" lon="1.96751">
        <ele>139.53</ele>
        <time>2018-01-13T08:35:39Z</time>
      </trkpt>
      <trkpt lat="48.60224" lon="1.96747">
        <ele>139.53</ele>
        <time>2018-01-13T08:35:41Z</time>
      </trkpt>
      <trkpt lat="48.60225" lon="1.96743">
        <ele>139.53</ele>
        <time>2018-01-13T08:35:43Z</time>
      </trkpt>
      <trkpt lat="48.60224" lon="1.9674">
        <ele>140.01</ele>
        <time>2018-01-13T08:35:45Z</time>
      </trkpt>
      <trkpt lat="48.60224" lon="1.9673">
        <ele>140.01</ele>
        <time>2018-01-13T08:35:52Z</time>
      </trkpt>
      <trkpt lat="48.60223" lon="1.96727">
        <ele>140.01</ele>
        <time>2018-01-13T08:35:54Z</time>
      </trkpt>
      <trkpt lat="48.60221" lon="1.96714">
        <ele>140.49</ele>
        <time>2018-01-13T08:36:00Z</time>
      </trkpt>
      <trkpt lat="48.6022" lon="1.96711">
        <ele>140.49</ele>
        <time>2018-01-13T08:36:02Z</time>
      </trkpt>
      <trkpt lat="48.60219" lon="1.96703">
        <ele>140.49</ele>
        <time>2018-01-13T08:36:07Z</time>
      </trkpt>
      <trkpt lat="48.60217" lon="1.96701">
        <ele>140.97</ele>
        <time>2018-01-13T08:36:09Z</time>
      </trkpt>
      <trkpt lat="48.60212" lon="1.96693">
        <ele>140.97</ele>
        <time>2018-01-13T08:36:16Z</time>
      </trkpt>
      <trkpt lat="48.60204" lon="1.96682">
        <ele>140.97</ele>
        <time>2018-01-13T08:36:22Z</time>
      </trkpt>
      <trkpt lat="48.60201" lon="1.96672">
        <ele>141.45</ele>
        <time>2018-01-13T08:36:28Z</time>
      </trkpt>
      <trkpt lat="48.602" lon="1.96662">
        <ele>141.93</ele>
        <time>2018-01-13T08:36:35Z</time>
      </trkpt>
      <trkpt lat="48.60198" lon="1.9665">
        <ele>141.93</ele>
        <time>2018-01-13T08:36:42Z</time>
      </trkpt>
      <trkpt lat="48.60199" lon="1.96642">
        <ele>142.41</ele>
        <time>2018-01-13T08:36:49Z</time>
      </trkpt>
      <trkpt lat="48.60199" lon="1.96632">
        <ele>142.89</ele>
        <time>2018-01-13T08:36:55Z</time>
      </trkpt>
      <trkpt lat="48.60198" lon="1.96626">
        <ele>143.37</ele>
        <time>2018-01-13T08:36:59Z</time>
      </trkpt>
      <trkpt lat="48.60197" lon="1.96622">
        <ele>143.37</ele>
        <time>2018-01-13T08:37:01Z</time>
      </trkpt>
      <trkpt lat="48.60195" lon="1.96619">
        <ele>143.85</ele>
        <time>2018-01-13T08:37:05Z</time>
      </trkpt>
      <trkpt lat="48.60194" lon="1.96616">
        <ele>143.85</ele>
        <time>2018-01-13T08:37:08Z</time>
      </trkpt>
      <trkpt lat="48.60194" lon="1.96605">
        <ele>144.34</ele>
        <time>2018-01-13T08:37:14Z</time>
      </trkpt>
      <trkpt lat="48.60194" lon="1.966">
        <ele>144.34</ele>
        <time>2018-01-13T08:37:16Z</time>
      </trkpt>
      <trkpt lat="48.60193" lon="1.96588">
        <ele>144.82</ele>
        <time>2018-01-13T08:37:23Z</time>
      </trkpt>
      <trkpt lat="48.60192" lon="1.96577">
        <ele>145.3</ele>
        <time>2018-01-13T08:37:29Z</time>
      </trkpt>
      <trkpt lat="48.60193" lon="1.96569">
        <ele>145.78</ele>
        <time>2018-01-13T08:37:33Z</time>
      </trkpt>
      <trkpt lat="48.60193" lon="1.96559">
        <ele>145.78</ele>
        <time>2018-01-13T08:37:39Z</time>
      </trkpt>
      <trkpt lat="48.60192" lon="1.96547">
        <ele>146.26</ele>
        <time>2018-01-13T08:37:45Z</time>
      </trkpt>
      <trkpt lat="48.60192" lon="1.96532">
        <ele>146.74</ele>
        <time>2018-01-13T08:37:53Z</time>
      </trkpt>
      <trkpt lat="48.60192" lon="1.96525">
        <ele>146.74</ele>
        <time>2018-01-13T08:37:57Z</time>
      </trkpt>
      <trkpt lat="48.60192" lon="1.96521">
        <ele>146.74</ele>
        <time>2018-01-13T08:37:59Z</time>
      </trkpt>
      <trkpt lat="48.60191" lon="1.96514">
        <ele>147.22</ele>
        <time>2018-01-13T08:38:04Z</time>
      </trkpt>
      <trkpt lat="48.60191" lon="1.96511">
        <ele>147.7</ele>
        <time>2018-01-13T08:38:06Z</time>
      </trkpt>
      <trkpt lat="48.6019" lon="1.96507">
        <ele>147.7</ele>
        <time>2018-01-13T08:38:09Z</time>
      </trkpt>
      <trkpt lat="48.60187" lon="1.96498">
        <ele>148.66</ele>
        <time>2018-01-13T08:38:16Z</time>
      </trkpt>
      <trkpt lat="48.60186" lon="1.96491">
        <ele>148.66</ele>
        <time>2018-01-13T08:38:21Z</time>
      </trkpt>
      <trkpt lat="48.60185" lon="1.96485">
        <ele>149.62</ele>
        <time>2018-01-13T08:38:24Z</time>
      </trkpt>
      <trkpt lat="48.60181" lon="1.96475">
        <ele>149.14</ele>
        <time>2018-01-13T08:38:30Z</time>
      </trkpt>
      <trkpt lat="48.60183" lon="1.96462">
        <ele>149.62</ele>
        <time>2018-01-13T08:38:35Z</time>
      </trkpt>
      <trkpt lat="48.60183" lon="1.96452">
        <ele>150.1</ele>
        <time>2018-01-13T08:38:39Z</time>
      </trkpt>
      <trkpt lat="48.60181" lon="1.96442">
        <ele>150.1</ele>
        <time>2018-01-13T08:38:47Z</time>
      </trkpt>
      <trkpt lat="48.60181" lon="1.9644">
        <ele>150.58</ele>
        <time>2018-01-13T08:38:48Z</time>
      </trkpt>
      <trkpt lat="48.60181" lon="1.96426">
        <ele>150.58</ele>
        <time>2018-01-13T08:38:54Z</time>
      </trkpt>
      <trkpt lat="48.6018" lon="1.96421">
        <ele>151.06</ele>
        <time>2018-01-13T08:38:57Z</time>
      </trkpt>
      <trkpt lat="48.60181" lon="1.96408">
        <ele>151.54</ele>
        <time>2018-01-13T08:39:03Z</time>
      </trkpt>
      <trkpt lat="48.60181" lon="1.96402">
        <ele>151.54</ele>
        <time>2018-01-13T08:39:06Z</time>
      </trkpt>
      <trkpt lat="48.60186" lon="1.96383">
        <ele>151.54</ele>
        <time>2018-01-13T08:39:12Z</time>
      </trkpt>
      <trkpt lat="48.60183" lon="1.96376">
        <ele>151.54</ele>
        <time>2018-01-13T08:39:18Z</time>
      </trkpt>
      <trkpt lat="48.60182" lon="1.96371">
        <ele>151.54</ele>
        <time>2018-01-13T08:39:22Z</time>
      </trkpt>
      <trkpt lat="48.6018" lon="1.96369">
        <ele>151.06</ele>
        <time>2018-01-13T08:39:24Z</time>
      </trkpt>
      <trkpt lat="48.60176" lon="1.96365">
        <ele>151.06</ele>
        <time>2018-01-13T08:39:27Z</time>
      </trkpt>
      <trkpt lat="48.60172" lon="1.96356">
        <ele>150.58</ele>
        <time>2018-01-13T08:39:34Z</time>
      </trkpt>
      <trkpt lat="48.6017" lon="1.96353">
        <ele>150.1</ele>
        <time>2018-01-13T08:39:36Z</time>
      </trkpt>
      <trkpt lat="48.60169" lon="1.96348">
        <ele>150.1</ele>
        <time>2018-01-13T08:39:39Z</time>
      </trkpt>
      <trkpt lat="48.60167" lon="1.96335">
        <ele>149.14</ele>
        <time>2018-01-13T08:39:47Z</time>
      </trkpt>
      <trkpt lat="48.60164" lon="1.96329">
        <ele>148.66</ele>
        <time>2018-01-13T08:39:51Z</time>
      </trkpt>
      <trkpt lat="48.60163" lon="1.96326">
        <ele>148.66</ele>
        <time>2018-01-13T08:39:53Z</time>
      </trkpt>
      <trkpt lat="48.60162" lon="1.9632">
        <ele>148.66</ele>
        <time>2018-01-13T08:39:56Z</time>
      </trkpt>
      <trkpt lat="48.60161" lon="1.96316">
        <ele>148.18</ele>
        <time>2018-01-13T08:39:59Z</time>
      </trkpt>
      <trkpt lat="48.60159" lon="1.96313">
        <ele>148.18</ele>
        <time>2018-01-13T08:40:02Z</time>
      </trkpt>
      <trkpt lat="48.60156" lon="1.96311">
        <ele>147.7</ele>
        <time>2018-01-13T08:40:04Z</time>
      </trkpt>
      <trkpt lat="48.60155" lon="1.96306">
        <ele>147.22</ele>
        <time>2018-01-13T08:40:08Z</time>
      </trkpt>
      <trkpt lat="48.60155" lon="1.96302">
        <ele>147.22</ele>
        <time>2018-01-13T08:40:11Z</time>
      </trkpt>
      <trkpt lat="48.60153" lon="1.96296">
        <ele>146.74</ele>
        <time>2018-01-13T08:40:14Z</time>
      </trkpt>
      <trkpt lat="48.60152" lon="1.96293">
        <ele>146.74</ele>
        <time>2018-01-13T08:40:16Z</time>
      </trkpt>
      <trkpt lat="48.60152" lon="1.96288">
        <ele>146.26</ele>
        <time>2018-01-13T08:40:19Z</time>
      </trkpt>
      <trkpt lat="48.6015" lon="1.96284">
        <ele>146.26</ele>
        <time>2018-01-13T08:40:21Z</time>
      </trkpt>
      <trkpt lat="48.60153" lon="1.96268">
        <ele>145.3</ele>
        <time>2018-01-13T08:40:26Z</time>
      </trkpt>
      <trkpt lat="48.60156" lon="1.96264">
        <ele>145.3</ele>
        <time>2018-01-13T08:40:27Z</time>
      </trkpt>
      <trkpt lat="48.60157" lon="1.9626">
        <ele>145.3</ele>
        <time>2018-01-13T08:40:29Z</time>
      </trkpt>
      <trkpt lat="48.60155" lon="1.96256">
        <ele>144.82</ele>
        <time>2018-01-13T08:40:32Z</time>
      </trkpt>
      <trkpt lat="48.60154" lon="1.96252">
        <ele>144.34</ele>
        <time>2018-01-13T08:40:34Z</time>
      </trkpt>
      <trkpt lat="48.60147" lon="1.96244">
        <ele>143.85</ele>
        <time>2018-01-13T08:40:40Z</time>
      </trkpt>
      <trkpt lat="48.60144" lon="1.9624">
        <ele>143.85</ele>
        <time>2018-01-13T08:40:45Z</time>
      </trkpt>
      <trkpt lat="48.60144" lon="1.96238">
        <ele>143.37</ele>
        <time>2018-01-13T08:40:50Z</time>
      </trkpt>
      <trkpt lat="48.60144" lon="1.96235">
        <ele>143.37</ele>
        <time>2018-01-13T08:40:55Z</time>
      </trkpt>
      <trkpt lat="48.60144" lon="1.96229">
        <ele>142.89</ele>
        <time>2018-01-13T08:41:00Z</time>
      </trkpt>
      <trkpt lat="48.60145" lon="1.96224">
        <ele>142.41</ele>
        <time>2018-01-13T08:41:05Z</time>
      </trkpt>
      <trkpt lat="48.60145" lon="1.9622">
        <ele>141.93</ele>
        <time>2018-01-13T08:41:09Z</time>
      </trkpt>
      <trkpt lat="48.60145" lon="1.96213">
        <ele>141.45</ele>
        <time>2018-01-13T08:41:14Z</time>
      </trkpt>
      <trkpt lat="48.6015" lon="1.96206">
        <ele>141.45</ele>
        <time>2018-01-13T08:41:20Z</time>
      </trkpt>
      <trkpt lat="48.6015" lon="1.96204">
        <ele>141.45</ele>
        <time>2018-01-13T08:41:27Z</time>
      </trkpt>
      <trkpt lat="48.60152" lon="1.96202">
        <ele>141.45</ele>
        <time>2018-01-13T08:41:37Z</time>
      </trkpt>
      <trkpt lat="48.60155" lon="1.962">
        <ele>141.45</ele>
        <time>2018-01-13T08:41:42Z</time>
      </trkpt>
      <trkpt lat="48.60157" lon="1.96198">
        <ele>141.45</ele>
        <time>2018-01-13T08:41:49Z</time>
      </trkpt>
      <trkpt lat="48.60158" lon="1.96195">
        <ele>141.45</ele>
        <time>2018-01-13T08:41:55Z</time>
      </trkpt>
      <trkpt lat="48.6016" lon="1.96193">
        <ele>141.45</ele>
        <time>2018-01-13T08:42:07Z</time>
      </trkpt>
      <trkpt lat="48.6016" lon="1.96191">
        <ele>141.45</ele>
        <time>2018-01-13T08:42:16Z</time>
      </trkpt>
      <trkpt lat="48.60162" lon="1.96187">
        <ele>141.45</ele>
        <time>2018-01-13T08:42:22Z</time>
      </trkpt>
      <trkpt lat="48.60161" lon="1.96182">
        <ele>140.97</ele>
        <time>2018-01-13T08:42:31Z</time>
      </trkpt>
      <trkpt lat="48.60158" lon="1.9618">
        <ele>140.97</ele>
        <time>2018-01-13T08:42:37Z</time>
      </trkpt>
      <trkpt lat="48.60158" lon="1.96173">
        <ele>140.49</ele>
        <time>2018-01-13T08:42:41Z</time>
      </trkpt>
      <trkpt lat="48.60157" lon="1.96168">
        <ele>140.49</ele>
        <time>2018-01-13T08:42:45Z</time>
      </trkpt>
      <trkpt lat="48.60155" lon="1.96157">
        <ele>140.01</ele>
        <time>2018-01-13T08:42:52Z</time>
      </trkpt>
      <trkpt lat="48.60154" lon="1.96154">
        <ele>139.53</ele>
        <time>2018-01-13T08:42:54Z</time>
      </trkpt>
      <trkpt lat="48.60152" lon="1.96152">
        <ele>139.53</ele>
        <time>2018-01-13T08:42:57Z</time>
      </trkpt>
      <trkpt lat="48.6015" lon="1.96147">
        <ele>139.05</ele>
        <time>2018-01-13T08:43:00Z</time>
      </trkpt>
      <trkpt lat="48.60152" lon="1.9614">
        <ele>139.05</ele>
        <time>2018-01-13T08:43:04Z</time>
      </trkpt>
      <trkpt lat="48.6016" lon="1.9612">
        <ele>138.57</ele>
        <time>2018-01-13T08:43:11Z</time>
      </trkpt>
      <trkpt lat="48.60161" lon="1.96114">
        <ele>138.57</ele>
        <time>2018-01-13T08:43:14Z</time>
      </trkpt>
      <trkpt lat="48.60159" lon="1.96106">
        <ele>137.61</ele>
        <time>2018-01-13T08:43:20Z</time>
      </trkpt>
      <trkpt lat="48.60158" lon="1.96099">
        <ele>137.61</ele>
        <time>2018-01-13T08:43:23Z</time>
      </trkpt>
      <trkpt lat="48.60159" lon="1.96091">
        <ele>137.61</ele>
        <time>2018-01-13T08:43:28Z</time>
      </trkpt>
      <trkpt lat="48.60157" lon="1.96083">
        <ele>137.13</ele>
        <time>2018-01-13T08:43:34Z</time>
      </trkpt>
      <trkpt lat="48.60157" lon="1.96075">
        <ele>137.13</ele>
        <time>2018-01-13T08:43:39Z</time>
      </trkpt>
      <trkpt lat="48.60152" lon="1.96066">
        <ele>137.13</ele>
        <time>2018-01-13T08:43:46Z</time>
      </trkpt>
      <trkpt lat="48.60151" lon="1.96061">
        <ele>137.13</ele>
        <time>2018-01-13T08:43:51Z</time>
      </trkpt>
      <trkpt lat="48.60151" lon="1.9606">
        <ele>137.13</ele>
        <time>2018-01-13T08:43:52Z</time>
      </trkpt>
      <trkpt lat="48.60149" lon="1.96054">
        <ele>136.64</ele>
        <time>2018-01-13T08:43:56Z</time>
      </trkpt>
      <trkpt lat="48.60145" lon="1.96047">
        <ele>136.16</ele>
        <time>2018-01-13T08:44:02Z</time>
      </trkpt>
      <trkpt lat="48.60144" lon="1.96042">
        <ele>136.16</ele>
        <time>2018-01-13T08:44:06Z</time>
      </trkpt>
      <trkpt lat="48.60143" lon="1.96031">
        <ele>135.68</ele>
        <time>2018-01-13T08:44:11Z</time>
      </trkpt>
      <trkpt lat="48.60146" lon="1.96022">
        <ele>135.68</ele>
        <time>2018-01-13T08:44:16Z</time>
      </trkpt>
      <trkpt lat="48.60145" lon="1.96017">
        <ele>135.68</ele>
        <time>2018-01-13T08:44:18Z</time>
      </trkpt>
      <trkpt lat="48.60145" lon="1.96008">
        <ele>135.2</ele>
        <time>2018-01-13T08:44:22Z</time>
      </trkpt>
      <trkpt lat="48.60142" lon="1.95999">
        <ele>135.2</ele>
        <time>2018-01-13T08:44:27Z</time>
      </trkpt>
      <trkpt lat="48.60143" lon="1.95991">
        <ele>135.2</ele>
        <time>2018-01-13T08:44:31Z</time>
      </trkpt>
      <trkpt lat="48.60142" lon="1.95987">
        <ele>134.72</ele>
        <time>2018-01-13T08:44:34Z</time>
      </trkpt>
      <trkpt lat="48.60141" lon="1.95978">
        <ele>134.72</ele>
        <time>2018-01-13T08:44:39Z</time>
      </trkpt>
      <trkpt lat="48.60141" lon="1.95974">
        <ele>134.72</ele>
        <time>2018-01-13T08:44:41Z</time>
      </trkpt>
      <trkpt lat="48.6014" lon="1.95968">
        <ele>134.72</ele>
        <time>2018-01-13T08:44:45Z</time>
      </trkpt>
      <trkpt lat="48.60139" lon="1.95959">
        <ele>134.72</ele>
        <time>2018-01-13T08:44:51Z</time>
      </trkpt>
      <trkpt lat="48.60139" lon="1.9595">
        <ele>134.24</ele>
        <time>2018-01-13T08:44:56Z</time>
      </trkpt>
      <trkpt lat="48.60137" lon="1.95941">
        <ele>134.24</ele>
        <time>2018-01-13T08:45:01Z</time>
      </trkpt>
      <trkpt lat="48.60137" lon="1.95938">
        <ele>133.76</ele>
        <time>2018-01-13T08:45:03Z</time>
      </trkpt>
      <trkpt lat="48.60136" lon="1.9593">
        <ele>133.76</ele>
        <time>2018-01-13T08:45:08Z</time>
      </trkpt>
      <trkpt lat="48.60136" lon="1.95928">
        <ele>133.76</ele>
        <time>2018-01-13T08:45:09Z</time>
      </trkpt>
      <trkpt lat="48.60134" lon="1.95916">
        <ele>133.28</ele>
        <time>2018-01-13T08:45:15Z</time>
      </trkpt>
      <trkpt lat="48.60129" lon="1.95907">
        <ele>133.28</ele>
        <time>2018-01-13T08:45:21Z</time>
      </trkpt>
      <trkpt lat="48.60124" lon="1.95898">
        <ele>133.28</ele>
        <time>2018-01-13T08:45:27Z</time>
      </trkpt>
      <trkpt lat="48.60121" lon="1.9589">
        <ele>132.8</ele>
        <time>2018-01-13T08:45:32Z</time>
      </trkpt>
      <trkpt lat="48.60116" lon="1.95886">
        <ele>132.8</ele>
        <time>2018-01-13T08:45:35Z</time>
      </trkpt>
      <trkpt lat="48.6011" lon="1.95882">
        <ele>133.28</ele>
        <time>2018-01-13T08:45:41Z</time>
      </trkpt>
      <trkpt lat="48.60107" lon="1.95877">
        <ele>133.28</ele>
        <time>2018-01-13T08:45:44Z</time>
      </trkpt>
      <trkpt lat="48.60102" lon="1.95873">
        <ele>133.28</ele>
        <time>2018-01-13T08:45:49Z</time>
      </trkpt>
      <trkpt lat="48.601" lon="1.95871">
        <ele>133.28</ele>
        <time>2018-01-13T08:45:52Z</time>
      </trkpt>
      <trkpt lat="48.60092" lon="1.95864">
        <ele>133.76</ele>
        <time>2018-01-13T08:45:58Z</time>
      </trkpt>
      <trkpt lat="48.60087" lon="1.95856">
        <ele>134.24</ele>
        <time>2018-01-13T08:46:04Z</time>
      </trkpt>
      <trkpt lat="48.60082" lon="1.95848">
        <ele>134.24</ele>
        <time>2018-01-13T08:46:10Z</time>
      </trkpt>
      <trkpt lat="48.60081" lon="1.95846">
        <ele>134.24</ele>
        <time>2018-01-13T08:46:11Z</time>
      </trkpt>
      <trkpt lat="48.60075" lon="1.95833">
        <ele>134.72</ele>
        <time>2018-01-13T08:46:19Z</time>
      </trkpt>
      <trkpt lat="48.60073" lon="1.95827">
        <ele>134.72</ele>
        <time>2018-01-13T08:46:23Z</time>
      </trkpt>
      <trkpt lat="48.6007" lon="1.9582">
        <ele>134.72</ele>
        <time>2018-01-13T08:46:28Z</time>
      </trkpt>
      <trkpt lat="48.60067" lon="1.9581">
        <ele>135.2</ele>
        <time>2018-01-13T08:46:34Z</time>
      </trkpt>
      <trkpt lat="48.60067" lon="1.95809">
        <ele>135.2</ele>
        <time>2018-01-13T08:46:35Z</time>
      </trkpt>
      <trkpt lat="48.60065" lon="1.95803">
        <ele>135.68</ele>
        <time>2018-01-13T08:46:38Z</time>
      </trkpt>
      <trkpt lat="48.60061" lon="1.95795">
        <ele>135.68</ele>
        <time>2018-01-13T08:46:43Z</time>
      </trkpt>
      <trkpt lat="48.60058" lon="1.95788">
        <ele>136.16</ele>
        <time>2018-01-13T08:46:48Z</time>
      </trkpt>
      <trkpt lat="48.60056" lon="1.95784">
        <ele>136.16</ele>
        <time>2018-01-13T08:46:51Z</time>
      </trkpt>
      <trkpt lat="48.60054" lon="1.95781">
        <ele>136.16</ele>
        <time>2018-01-13T08:46:53Z</time>
      </trkpt>
      <trkpt lat="48.60049" lon="1.95771">
        <ele>136.64</ele>
        <time>2018-01-13T08:47:00Z</time>
      </trkpt>
      <trkpt lat="48.60044" lon="1.95762">
        <ele>137.13</ele>
        <time>2018-01-13T08:47:05Z</time>
      </trkpt>
      <trkpt lat="48.60042" lon="1.95759">
        <ele>137.13</ele>
        <time>2018-01-13T08:47:06Z</time>
      </trkpt>
      <trkpt lat="48.60038" lon="1.9575">
        <ele>137.13</ele>
        <time>2018-01-13T08:47:11Z</time>
      </trkpt>
      <trkpt lat="48.60036" lon="1.95744">
        <ele>137.13</ele>
        <time>2018-01-13T08:47:14Z</time>
      </trkpt>
      <trkpt lat="48.60034" lon="1.95735">
        <ele>137.61</ele>
        <time>2018-01-13T08:47:20Z</time>
      </trkpt>
      <trkpt lat="48.60029" lon="1.95726">
        <ele>138.09</ele>
        <time>2018-01-13T08:47:26Z</time>
      </trkpt>
      <trkpt lat="48.60026" lon="1.95723">
        <ele>138.57</ele>
        <time>2018-01-13T08:47:29Z</time>
      </trkpt>
      <trkpt lat="48.6002" lon="1.95713">
        <ele>139.05</ele>
        <time>2018-01-13T08:47:36Z</time>
      </trkpt>
      <trkpt lat="48.60014" lon="1.95704">
        <ele>139.53</ele>
        <time>2018-01-13T08:47:42Z</time>
      </trkpt>
      <trkpt lat="48.60007" lon="1.95699">
        <ele>140.01</ele>
        <time>2018-01-13T08:47:48Z</time>
      </trkpt>
      <trkpt lat="48.59999" lon="1.95693">
        <ele>140.49</ele>
        <time>2018-01-13T08:47:54Z</time>
      </trkpt>
      <trkpt lat="48.59991" lon="1.95689">
        <ele>140.97</ele>
        <time>2018-01-13T08:48:00Z</time>
      </trkpt>
      <trkpt lat="48.59985" lon="1.95685">
        <ele>141.93</ele>
        <time>2018-01-13T08:48:08Z</time>
      </trkpt>
      <trkpt lat="48.59979" lon="1.95683">
        <ele>142.41</ele>
        <time>2018-01-13T08:48:13Z</time>
      </trkpt>
      <trkpt lat="48.59969" lon="1.9568">
        <ele>143.37</ele>
        <time>2018-01-13T08:48:21Z</time>
      </trkpt>
      <trkpt lat="48.59962" lon="1.95678">
        <ele>143.37</ele>
        <time>2018-01-13T08:48:26Z</time>
      </trkpt>
      <trkpt lat="48.59958" lon="1.95678">
        <ele>143.37</ele>
        <time>2018-01-13T08:48:28Z</time>
      </trkpt>
      <trkpt lat="48.59949" lon="1.9568">
        <ele>142.89</ele>
        <time>2018-01-13T08:48:34Z</time>
      </trkpt>
      <trkpt lat="48.59945" lon="1.95679">
        <ele>142.89</ele>
        <time>2018-01-13T08:48:36Z</time>
      </trkpt>
      <trkpt lat="48.59937" lon="1.9568">
        <ele>142.41</ele>
        <time>2018-01-13T08:48:43Z</time>
      </trkpt>
      <trkpt lat="48.59936" lon="1.95679">
        <ele>142.41</ele>
        <time>2018-01-13T08:48:44Z</time>
      </trkpt>
      <trkpt lat="48.59931" lon="1.95679">
        <ele>141.93</ele>
        <time>2018-01-13T08:48:49Z</time>
      </trkpt>
      <trkpt lat="48.59928" lon="1.95679">
        <ele>141.93</ele>
        <time>2018-01-13T08:48:51Z</time>
      </trkpt>
      <trkpt lat="48.59925" lon="1.95681">
        <ele>141.93</ele>
        <time>2018-01-13T08:48:54Z</time>
      </trkpt>
      <trkpt lat="48.5992" lon="1.95682">
        <ele>141.45</ele>
        <time>2018-01-13T08:48:59Z</time>
      </trkpt>
      <trkpt lat="48.5991" lon="1.95683">
        <ele>140.97</ele>
        <time>2018-01-13T08:49:06Z</time>
      </trkpt>
      <trkpt lat="48.59901" lon="1.95683">
        <ele>140.49</ele>
        <time>2018-01-13T08:49:14Z</time>
      </trkpt>
      <trkpt lat="48.59895" lon="1.95686">
        <ele>140.49</ele>
        <time>2018-01-13T08:49:20Z</time>
      </trkpt>
      <trkpt lat="48.5989" lon="1.95688">
        <ele>140.01</ele>
        <time>2018-01-13T08:49:26Z</time>
      </trkpt>
      <trkpt lat="48.59883" lon="1.95684">
        <ele>140.49</ele>
        <time>2018-01-13T08:49:28Z</time>
      </trkpt>
      <trkpt lat="48.59878" lon="1.95684">
        <ele>140.01</ele>
        <time>2018-01-13T08:49:34Z</time>
      </trkpt>
      <trkpt lat="48.59874" lon="1.95685">
        <ele>140.01</ele>
        <time>2018-01-13T08:49:39Z</time>
      </trkpt>
      <trkpt lat="48.59868" lon="1.95681">
        <ele>140.01</ele>
        <time>2018-01-13T08:49:43Z</time>
      </trkpt>
      <trkpt lat="48.59861" lon="1.95682">
        <ele>140.01</ele>
        <time>2018-01-13T08:49:49Z</time>
      </trkpt>
      <trkpt lat="48.59855" lon="1.95683">
        <ele>139.53</ele>
        <time>2018-01-13T08:49:54Z</time>
      </trkpt>
      <trkpt lat="48.59847" lon="1.95687">
        <ele>139.53</ele>
        <time>2018-01-13T08:50:01Z</time>
      </trkpt>
      <trkpt lat="48.59842" lon="1.95686">
        <ele>139.53</ele>
        <time>2018-01-13T08:50:04Z</time>
      </trkpt>
      <trkpt lat="48.59831" lon="1.95687">
        <ele>139.53</ele>
        <time>2018-01-13T08:50:11Z</time>
      </trkpt>
      <trkpt lat="48.59827" lon="1.95688">
        <ele>139.53</ele>
        <time>2018-01-13T08:50:15Z</time>
      </trkpt>
      <trkpt lat="48.59825" lon="1.95689">
        <ele>139.05</ele>
        <time>2018-01-13T08:50:17Z</time>
      </trkpt>
      <trkpt lat="48.59819" lon="1.95688">
        <ele>139.05</ele>
        <time>2018-01-13T08:50:23Z</time>
      </trkpt>
      <trkpt lat="48.59818" lon="1.95689">
        <ele>139.05</ele>
        <time>2018-01-13T08:50:33Z</time>
      </trkpt>
      <trkpt lat="48.59817" lon="1.95689">
        <ele>139.53</ele>
        <time>2018-01-13T08:50:45Z</time>
      </trkpt>
      <trkpt lat="48.59815" lon="1.95689">
        <ele>139.53</ele>
        <time>2018-01-13T08:50:58Z</time>
      </trkpt>
      <trkpt lat="48.59814" lon="1.95692">
        <ele>139.53</ele>
        <time>2018-01-13T08:51:11Z</time>
      </trkpt>
      <trkpt lat="48.59813" lon="1.95692">
        <ele>139.53</ele>
        <time>2018-01-13T08:51:14Z</time>
      </trkpt>
      <trkpt lat="48.59807" lon="1.95692">
        <ele>139.05</ele>
        <time>2018-01-13T08:51:21Z</time>
      </trkpt>
      <trkpt lat="48.59805" lon="1.95692">
        <ele>139.05</ele>
        <time>2018-01-13T08:51:24Z</time>
      </trkpt>
      <trkpt lat="48.59799" lon="1.95689">
        <ele>139.05</ele>
        <time>2018-01-13T08:51:30Z</time>
      </trkpt>
      <trkpt lat="48.59796" lon="1.95689">
        <ele>139.05</ele>
        <time>2018-01-13T08:51:33Z</time>
      </trkpt>
      <trkpt lat="48.59788" lon="1.95687">
        <ele>138.57</ele>
        <time>2018-01-13T08:51:37Z</time>
      </trkpt>
      <trkpt lat="48.59784" lon="1.95684">
        <ele>139.05</ele>
        <time>2018-01-13T08:51:43Z</time>
      </trkpt>
      <trkpt lat="48.59773" lon="1.9568">
        <ele>138.57</ele>
        <time>2018-01-13T08:51:50Z</time>
      </trkpt>
      <trkpt lat="48.59766" lon="1.95676">
        <ele>138.57</ele>
        <time>2018-01-13T08:51:57Z</time>
      </trkpt>
      <trkpt lat="48.59759" lon="1.95672">
        <ele>138.09</ele>
        <time>2018-01-13T08:52:04Z</time>
      </trkpt>
      <trkpt lat="48.59756" lon="1.95671">
        <ele>138.09</ele>
        <time>2018-01-13T08:52:10Z</time>
      </trkpt>
      <trkpt lat="48.59748" lon="1.95667">
        <ele>137.61</ele>
        <time>2018-01-13T08:52:18Z</time>
      </trkpt>
      <trkpt lat="48.59746" lon="1.95667">
        <ele>137.61</ele>
        <time>2018-01-13T08:52:19Z</time>
      </trkpt>
      <trkpt lat="48.59741" lon="1.95663">
        <ele>137.61</ele>
        <time>2018-01-13T08:52:22Z</time>
      </trkpt>
      <trkpt lat="48.59733" lon="1.9566">
        <ele>137.61</ele>
        <time>2018-01-13T08:52:30Z</time>
      </trkpt>
      <trkpt lat="48.5973" lon="1.95659">
        <ele>137.61</ele>
        <time>2018-01-13T08:52:35Z</time>
      </trkpt>
      <trkpt lat="48.59729" lon="1.95659">
        <ele>137.61</ele>
        <time>2018-01-13T08:52:36Z</time>
      </trkpt>
      <trkpt lat="48.59727" lon="1.95657">
        <ele>137.13</ele>
        <time>2018-01-13T08:52:39Z</time>
      </trkpt>
      <trkpt lat="48.59716" lon="1.95655">
        <ele>137.13</ele>
        <time>2018-01-13T08:52:47Z</time>
      </trkpt>
      <trkpt lat="48.59711" lon="1.95653">
        <ele>137.13</ele>
        <time>2018-01-13T08:52:56Z</time>
      </trkpt>
      <trkpt lat="48.59703" lon="1.95651">
        <ele>137.13</ele>
        <time>2018-01-13T08:53:03Z</time>
      </trkpt>
      <trkpt lat="48.59696" lon="1.95651">
        <ele>137.13</ele>
        <time>2018-01-13T08:53:08Z</time>
      </trkpt>
      <trkpt lat="48.59691" lon="1.9565">
        <ele>137.13</ele>
        <time>2018-01-13T08:53:13Z</time>
      </trkpt>
      <trkpt lat="48.59686" lon="1.95647">
        <ele>137.13</ele>
        <time>2018-01-13T08:53:19Z</time>
      </trkpt>
      <trkpt lat="48.59675" lon="1.95643">
        <ele>137.13</ele>
        <time>2018-01-13T08:53:25Z</time>
      </trkpt>
      <trkpt lat="48.59672" lon="1.95643">
        <ele>137.13</ele>
        <time>2018-01-13T08:53:27Z</time>
      </trkpt>
      <trkpt lat="48.59664" lon="1.95641">
        <ele>137.13</ele>
        <time>2018-01-13T08:53:33Z</time>
      </trkpt>
      <trkpt lat="48.59659" lon="1.95642">
        <ele>137.13</ele>
        <time>2018-01-13T08:53:39Z</time>
      </trkpt>
      <trkpt lat="48.59657" lon="1.95642">
        <ele>137.13</ele>
        <time>2018-01-13T08:53:42Z</time>
      </trkpt>
      <trkpt lat="48.59651" lon="1.9564">
        <ele>137.13</ele>
        <time>2018-01-13T08:53:45Z</time>
      </trkpt>
      <trkpt lat="48.59645" lon="1.95639">
        <ele>137.13</ele>
        <time>2018-01-13T08:53:48Z</time>
      </trkpt>
      <trkpt lat="48.59631" lon="1.95637">
        <ele>137.13</ele>
        <time>2018-01-13T08:53:56Z</time>
      </trkpt>
      <trkpt lat="48.5963" lon="1.95637">
        <ele>137.13</ele>
        <time>2018-01-13T08:53:57Z</time>
      </trkpt>
      <trkpt lat="48.59618" lon="1.95641">
        <ele>137.13</ele>
        <time>2018-01-13T08:54:06Z</time>
      </trkpt>
      <trkpt lat="48.59615" lon="1.95642">
        <ele>137.13</ele>
        <time>2018-01-13T08:54:10Z</time>
      </trkpt>
      <trkpt lat="48.59613" lon="1.95643">
        <ele>137.13</ele>
        <time>2018-01-13T08:54:13Z</time>
      </trkpt>
      <trkpt lat="48.5961" lon="1.95644">
        <ele>136.64</ele>
        <time>2018-01-13T08:54:15Z</time>
      </trkpt>
      <trkpt lat="48.59602" lon="1.95644">
        <ele>136.64</ele>
        <time>2018-01-13T08:54:22Z</time>
      </trkpt>
      <trkpt lat="48.59596" lon="1.95642">
        <ele>136.64</ele>
        <time>2018-01-13T08:54:30Z</time>
      </trkpt>
      <trkpt lat="48.59585" lon="1.95638">
        <ele>136.64</ele>
        <time>2018-01-13T08:54:37Z</time>
      </trkpt>
      <trkpt lat="48.59584" lon="1.95638">
        <ele>136.64</ele>
        <time>2018-01-13T08:54:38Z</time>
      </trkpt>
      <trkpt lat="48.59582" lon="1.95637">
        <ele>136.64</ele>
        <time>2018-01-13T08:54:41Z</time>
      </trkpt>
      <trkpt lat="48.59575" lon="1.95636">
        <ele>136.64</ele>
        <time>2018-01-13T08:54:47Z</time>
      </trkpt>
      <trkpt lat="48.59571" lon="1.95635">
        <ele>136.64</ele>
        <time>2018-01-13T08:54:51Z</time>
      </trkpt>
      <trkpt lat="48.59564" lon="1.9563">
        <ele>136.64</ele>
        <time>2018-01-13T08:54:57Z</time>
      </trkpt>
      <trkpt lat="48.59562" lon="1.95627">
        <ele>136.16</ele>
        <time>2018-01-13T08:55:00Z</time>
      </trkpt>
      <trkpt lat="48.5956" lon="1.95625">
        <ele>136.16</ele>
        <time>2018-01-13T08:55:06Z</time>
      </trkpt>
      <trkpt lat="48.59556" lon="1.95624">
        <ele>136.16</ele>
        <time>2018-01-13T08:55:11Z</time>
      </trkpt>
      <trkpt lat="48.59553" lon="1.9562">
        <ele>136.64</ele>
        <time>2018-01-13T08:55:16Z</time>
      </trkpt>
      <trkpt lat="48.59545" lon="1.95617">
        <ele>136.16</ele>
        <time>2018-01-13T08:55:20Z</time>
      </trkpt>
      <trkpt lat="48.5954" lon="1.95615">
        <ele>136.64</ele>
        <time>2018-01-13T08:55:23Z</time>
      </trkpt>
      <trkpt lat="48.59535" lon="1.9561">
        <ele>136.64</ele>
        <time>2018-01-13T08:55:31Z</time>
      </trkpt>
      <trkpt lat="48.59533" lon="1.95606">
        <ele>136.64</ele>
        <time>2018-01-13T08:55:36Z</time>
      </trkpt>
      <trkpt lat="48.59528" lon="1.956">
        <ele>137.13</ele>
        <time>2018-01-13T08:55:42Z</time>
      </trkpt>
      <trkpt lat="48.59524" lon="1.95595">
        <ele>137.13</ele>
        <time>2018-01-13T08:55:47Z</time>
      </trkpt>
      <trkpt lat="48.59523" lon="1.95592">
        <ele>137.13</ele>
        <time>2018-01-13T08:55:53Z</time>
      </trkpt>
      <trkpt lat="48.59515" lon="1.95584">
        <ele>137.13</ele>
        <time>2018-01-13T08:56:00Z</time>
      </trkpt>
      <trkpt lat="48.5951" lon="1.95578">
        <ele>137.13</ele>
        <time>2018-01-13T08:56:05Z</time>
      </trkpt>
      <trkpt lat="48.595" lon="1.9557">
        <ele>137.13</ele>
        <time>2018-01-13T08:56:11Z</time>
      </trkpt>
      <trkpt lat="48.595" lon="1.95568">
        <ele>137.13</ele>
        <time>2018-01-13T08:56:12Z</time>
      </trkpt>
      <trkpt lat="48.59494" lon="1.95562">
        <ele>137.13</ele>
        <time>2018-01-13T08:56:18Z</time>
      </trkpt>
      <trkpt lat="48.59494" lon="1.95561">
        <ele>137.13</ele>
        <time>2018-01-13T08:56:19Z</time>
      </trkpt>
      <trkpt lat="48.5949" lon="1.95555">
        <ele>137.13</ele>
        <time>2018-01-13T08:56:24Z</time>
      </trkpt>
      <trkpt lat="48.59486" lon="1.9555">
        <ele>137.61</ele>
        <time>2018-01-13T08:56:29Z</time>
      </trkpt>
      <trkpt lat="48.59483" lon="1.95548">
        <ele>137.13</ele>
        <time>2018-01-13T08:56:32Z</time>
      </trkpt>
      <trkpt lat="48.59478" lon="1.95541">
        <ele>137.13</ele>
        <time>2018-01-13T08:56:38Z</time>
      </trkpt>
      <trkpt lat="48.59473" lon="1.95536">
        <ele>137.61</ele>
        <time>2018-01-13T08:56:43Z</time>
      </trkpt>
      <trkpt lat="48.59465" lon="1.9553">
        <ele>137.61</ele>
        <time>2018-01-13T08:56:50Z</time>
      </trkpt>
      <trkpt lat="48.59459" lon="1.95523">
        <ele>137.61</ele>
        <time>2018-01-13T08:56:57Z</time>
      </trkpt>
      <trkpt lat="48.59451" lon="1.95517">
        <ele>138.09</ele>
        <time>2018-01-13T08:57:04Z</time>
      </trkpt>
      <trkpt lat="48.59448" lon="1.95515">
        <ele>138.09</ele>
        <time>2018-01-13T08:57:05Z</time>
      </trkpt>
      <trkpt lat="48.59439" lon="1.95508">
        <ele>138.09</ele>
        <time>2018-01-13T08:57:10Z</time>
      </trkpt>
      <trkpt lat="48.59432" lon="1.95502">
        <ele>138.09</ele>
        <time>2018-01-13T08:57:17Z</time>
      </trkpt>
      <trkpt lat="48.59426" lon="1.95495">
        <ele>138.09</ele>
        <time>2018-01-13T08:57:24Z</time>
      </trkpt>
      <trkpt lat="48.59421" lon="1.95492">
        <ele>138.09</ele>
        <time>2018-01-13T08:57:31Z</time>
      </trkpt>
      <trkpt lat="48.59419" lon="1.9549">
        <ele>137.61</ele>
        <time>2018-01-13T08:57:34Z</time>
      </trkpt>
      <trkpt lat="48.5941" lon="1.95483">
        <ele>137.61</ele>
        <time>2018-01-13T08:57:41Z</time>
      </trkpt>
      <trkpt lat="48.59407" lon="1.95478">
        <ele>137.61</ele>
        <time>2018-01-13T08:57:47Z</time>
      </trkpt>
      <trkpt lat="48.59403" lon="1.95471">
        <ele>138.09</ele>
        <time>2018-01-13T08:57:55Z</time>
      </trkpt>
      <trkpt lat="48.594" lon="1.95468">
        <ele>138.09</ele>
        <time>2018-01-13T08:58:02Z</time>
      </trkpt>
      <trkpt lat="48.59399" lon="1.95467">
        <ele>138.09</ele>
        <time>2018-01-13T08:58:03Z</time>
      </trkpt>
      <trkpt lat="48.59393" lon="1.95464">
        <ele>138.09</ele>
        <time>2018-01-13T08:58:08Z</time>
      </trkpt>
      <trkpt lat="48.59387" lon="1.95457">
        <ele>138.57</ele>
        <time>2018-01-13T08:58:13Z</time>
      </trkpt>
      <trkpt lat="48.59382" lon="1.95452">
        <ele>138.57</ele>
        <time>2018-01-13T08:58:20Z</time>
      </trkpt>
      <trkpt lat="48.59381" lon="1.95449">
        <ele>138.57</ele>
        <time>2018-01-13T08:58:22Z</time>
      </trkpt>
      <trkpt lat="48.59379" lon="1.95445">
        <ele>138.57</ele>
        <time>2018-01-13T08:58:28Z</time>
      </trkpt>
      <trkpt lat="48.59373" lon="1.95439">
        <ele>139.05</ele>
        <time>2018-01-13T08:58:34Z</time>
      </trkpt>
      <trkpt lat="48.59371" lon="1.95436">
        <ele>139.05</ele>
        <time>2018-01-13T08:58:40Z</time>
      </trkpt>
      <trkpt lat="48.59369" lon="1.9543">
        <ele>139.05</ele>
        <time>2018-01-13T08:58:45Z</time>
      </trkpt>
      <trkpt lat="48.5936" lon="1.95423">
        <ele>139.05</ele>
        <time>2018-01-13T08:58:51Z</time>
      </trkpt>
      <trkpt lat="48.59351" lon="1.95415">
        <ele>139.53</ele>
        <time>2018-01-13T08:58:56Z</time>
      </trkpt>
      <trkpt lat="48.59341" lon="1.95406">
        <ele>139.53</ele>
        <time>2018-01-13T08:59:03Z</time>
      </trkpt>
      <trkpt lat="48.59333" lon="1.95399">
        <ele>140.01</ele>
        <time>2018-01-13T08:59:10Z</time>
      </trkpt>
      <trkpt lat="48.59329" lon="1.95393">
        <ele>140.01</ele>
        <time>2018-01-13T08:59:15Z</time>
      </trkpt>
      <trkpt lat="48.59326" lon="1.9539">
        <ele>140.01</ele>
        <time>2018-01-13T08:59:18Z</time>
      </trkpt>
      <trkpt lat="48.59315" lon="1.95385">
        <ele>140.49</ele>
        <time>2018-01-13T08:59:25Z</time>
      </trkpt>
      <trkpt lat="48.59311" lon="1.95379">
        <ele>140.49</ele>
        <time>2018-01-13T08:59:31Z</time>
      </trkpt>
      <trkpt lat="48.5931" lon="1.95376">
        <ele>140.97</ele>
        <time>2018-01-13T08:59:36Z</time>
      </trkpt>
      <trkpt lat="48.59307" lon="1.95371">
        <ele>140.97</ele>
        <time>2018-01-13T08:59:43Z</time>
      </trkpt>
      <trkpt lat="48.59304" lon="1.95366">
        <ele>140.97</ele>
        <time>2018-01-13T08:59:47Z</time>
      </trkpt>
      <trkpt lat="48.59293" lon="1.95357">
        <ele>141.45</ele>
        <time>2018-01-13T08:59:53Z</time>
      </trkpt>
      <trkpt lat="48.5929" lon="1.95352">
        <ele>141.45</ele>
        <time>2018-01-13T08:59:58Z</time>
      </trkpt>
      <trkpt lat="48.59288" lon="1.9535">
        <ele>141.93</ele>
        <time>2018-01-13T09:00:01Z</time>
      </trkpt>
      <trkpt lat="48.59283" lon="1.95342">
        <ele>141.93</ele>
        <time>2018-01-13T09:00:07Z</time>
      </trkpt>
      <trkpt lat="48.59277" lon="1.95335">
        <ele>142.41</ele>
        <time>2018-01-13T09:00:14Z</time>
      </trkpt>
      <trkpt lat="48.59272" lon="1.9533">
        <ele>142.41</ele>
        <time>2018-01-13T09:00:21Z</time>
      </trkpt>
      <trkpt lat="48.59265" lon="1.95326">
        <ele>142.41</ele>
        <time>2018-01-13T09:00:28Z</time>
      </trkpt>
      <trkpt lat="48.5926" lon="1.95323">
        <ele>142.41</ele>
        <time>2018-01-13T09:00:33Z</time>
      </trkpt>
      <trkpt lat="48.59252" lon="1.95315">
        <ele>142.89</ele>
        <time>2018-01-13T09:00:39Z</time>
      </trkpt>
      <trkpt lat="48.59248" lon="1.9531">
        <ele>142.89</ele>
        <time>2018-01-13T09:00:44Z</time>
      </trkpt>
      <trkpt lat="48.5924" lon="1.953">
        <ele>142.89</ele>
        <time>2018-01-13T09:00:50Z</time>
      </trkpt>
      <trkpt lat="48.59236" lon="1.95298">
        <ele>143.37</ele>
        <time>2018-01-13T09:00:52Z</time>
      </trkpt>
      <trkpt lat="48.59229" lon="1.95293">
        <ele>143.37</ele>
        <time>2018-01-13T09:00:59Z</time>
      </trkpt>
      <trkpt lat="48.59227" lon="1.95289">
        <ele>143.37</ele>
        <time>2018-01-13T09:01:04Z</time>
      </trkpt>
      <trkpt lat="48.5922" lon="1.95283">
        <ele>143.85</ele>
        <time>2018-01-13T09:01:08Z</time>
      </trkpt>
      <trkpt lat="48.59214" lon="1.95278">
        <ele>143.85</ele>
        <time>2018-01-13T09:01:14Z</time>
      </trkpt>
      <trkpt lat="48.5921" lon="1.95275">
        <ele>143.85</ele>
        <time>2018-01-13T09:01:19Z</time>
      </trkpt>
      <trkpt lat="48.59201" lon="1.95266">
        <ele>144.34</ele>
        <time>2018-01-13T09:01:25Z</time>
      </trkpt>
      <trkpt lat="48.592" lon="1.95265">
        <ele>144.34</ele>
        <time>2018-01-13T09:01:26Z</time>
      </trkpt>
      <trkpt lat="48.59197" lon="1.95263">
        <ele>144.34</ele>
        <time>2018-01-13T09:01:29Z</time>
      </trkpt>
      <trkpt lat="48.59192" lon="1.9526">
        <ele>144.82</ele>
        <time>2018-01-13T09:01:33Z</time>
      </trkpt>
      <trkpt lat="48.59188" lon="1.95255">
        <ele>144.82</ele>
        <time>2018-01-13T09:01:40Z</time>
      </trkpt>
      <trkpt lat="48.59184" lon="1.95252">
        <ele>144.82</ele>
        <time>2018-01-13T09:01:44Z</time>
      </trkpt>
      <trkpt lat="48.59179" lon="1.95246">
        <ele>144.82</ele>
        <time>2018-01-13T09:01:50Z</time>
      </trkpt>
      <trkpt lat="48.59175" lon="1.9524">
        <ele>145.3</ele>
        <time>2018-01-13T09:01:57Z</time>
      </trkpt>
      <trkpt lat="48.5917" lon="1.95235">
        <ele>145.3</ele>
        <time>2018-01-13T09:02:02Z</time>
      </trkpt>
      <trkpt lat="48.59167" lon="1.9523">
        <ele>145.3</ele>
        <time>2018-01-13T09:02:08Z</time>
      </trkpt>
      <trkpt lat="48.59164" lon="1.95226">
        <ele>145.78</ele>
        <time>2018-01-13T09:02:13Z</time>
      </trkpt>
      <trkpt lat="48.59155" lon="1.9522">
        <ele>146.26</ele>
        <time>2018-01-13T09:02:19Z</time>
      </trkpt>
      <trkpt lat="48.59152" lon="1.95218">
        <ele>145.78</ele>
        <time>2018-01-13T09:02:20Z</time>
      </trkpt>
      <trkpt lat="48.59145" lon="1.95213">
        <ele>145.78</ele>
        <time>2018-01-13T09:02:23Z</time>
      </trkpt>
      <trkpt lat="48.59143" lon="1.95209">
        <ele>146.26</ele>
        <time>2018-01-13T09:02:27Z</time>
      </trkpt>
      <trkpt lat="48.5914" lon="1.95203">
        <ele>146.26</ele>
        <time>2018-01-13T09:02:33Z</time>
      </trkpt>
      <trkpt lat="48.59134" lon="1.95197">
        <ele>146.26</ele>
        <time>2018-01-13T09:02:39Z</time>
      </trkpt>
      <trkpt lat="48.59125" lon="1.95189">
        <ele>146.26</ele>
        <time>2018-01-13T09:02:46Z</time>
      </trkpt>
      <trkpt lat="48.59119" lon="1.95182">
        <ele>146.74</ele>
        <time>2018-01-13T09:02:52Z</time>
      </trkpt>
      <trkpt lat="48.59115" lon="1.95176">
        <ele>146.74</ele>
        <time>2018-01-13T09:02:58Z</time>
      </trkpt>
      <trkpt lat="48.5911" lon="1.95173">
        <ele>147.22</ele>
        <time>2018-01-13T09:03:01Z</time>
      </trkpt>
      <trkpt lat="48.59102" lon="1.95164">
        <ele>147.22</ele>
        <time>2018-01-13T09:03:08Z</time>
      </trkpt>
      <trkpt lat="48.59101" lon="1.95163">
        <ele>147.22</ele>
        <time>2018-01-13T09:03:09Z</time>
      </trkpt>
      <trkpt lat="48.59091" lon="1.95156">
        <ele>147.22</ele>
        <time>2018-01-13T09:03:16Z</time>
      </trkpt>
      <trkpt lat="48.5909" lon="1.95155">
        <ele>147.22</ele>
        <time>2018-01-13T09:03:17Z</time>
      </trkpt>
      <trkpt lat="48.5908" lon="1.95146">
        <ele>147.7</ele>
        <time>2018-01-13T09:03:24Z</time>
      </trkpt>
      <trkpt lat="48.59079" lon="1.95145">
        <ele>147.7</ele>
        <time>2018-01-13T09:03:25Z</time>
      </trkpt>
      <trkpt lat="48.59067" lon="1.95136">
        <ele>147.7</ele>
        <time>2018-01-13T09:03:30Z</time>
      </trkpt>
      <trkpt lat="48.59069" lon="1.95133">
        <ele>147.7</ele>
        <time>2018-01-13T09:03:35Z</time>
      </trkpt>
      <trkpt lat="48.59063" lon="1.95129">
        <ele>148.18</ele>
        <time>2018-01-13T09:03:38Z</time>
      </trkpt>
      <trkpt lat="48.59055" lon="1.95123">
        <ele>148.18</ele>
        <time>2018-01-13T09:03:43Z</time>
      </trkpt>
      <trkpt lat="48.59048" lon="1.95115">
        <ele>148.18</ele>
        <time>2018-01-13T09:03:50Z</time>
      </trkpt>
      <trkpt lat="48.59045" lon="1.9511">
        <ele>148.18</ele>
        <time>2018-01-13T09:03:56Z</time>
      </trkpt>
      <trkpt lat="48.59044" lon="1.95108">
        <ele>148.66</ele>
        <time>2018-01-13T09:04:01Z</time>
      </trkpt>
      <trkpt lat="48.59032" lon="1.951">
        <ele>148.66</ele>
        <time>2018-01-13T09:04:07Z</time>
      </trkpt>
      <trkpt lat="48.59025" lon="1.9509">
        <ele>148.66</ele>
        <time>2018-01-13T09:04:12Z</time>
      </trkpt>
      <trkpt lat="48.59015" lon="1.95082">
        <ele>148.66</ele>
        <time>2018-01-13T09:04:18Z</time>
      </trkpt>
      <trkpt lat="48.59012" lon="1.95079">
        <ele>148.66</ele>
        <time>2018-01-13T09:04:20Z</time>
      </trkpt>
      <trkpt lat="48.59007" lon="1.95076">
        <ele>149.14</ele>
        <time>2018-01-13T09:04:23Z</time>
      </trkpt>
      <trkpt lat="48.59005" lon="1.95076">
        <ele>149.14</ele>
        <time>2018-01-13T09:04:26Z</time>
      </trkpt>
      <trkpt lat="48.59" lon="1.95074">
        <ele>149.14</ele>
        <time>2018-01-13T09:04:30Z</time>
      </trkpt>
      <trkpt lat="48.58994" lon="1.95066">
        <ele>149.14</ele>
        <time>2018-01-13T09:04:35Z</time>
      </trkpt>
      <trkpt lat="48.58994" lon="1.95059">
        <ele>149.62</ele>
        <time>2018-01-13T09:04:40Z</time>
      </trkpt>
      <trkpt lat="48.58993" lon="1.95053">
        <ele>149.62</ele>
        <time>2018-01-13T09:04:45Z</time>
      </trkpt>
      <trkpt lat="48.5899" lon="1.95051">
        <ele>149.62</ele>
        <time>2018-01-13T09:04:50Z</time>
      </trkpt>
      <trkpt lat="48.58987" lon="1.95046">
        <ele>149.62</ele>
        <time>2018-01-13T09:04:56Z</time>
      </trkpt>
      <trkpt lat="48.58989" lon="1.95042">
        <ele>150.1</ele>
        <time>2018-01-13T09:05:01Z</time>
      </trkpt>
      <trkpt lat="48.58986" lon="1.95037">
        <ele>150.1</ele>
        <time>2018-01-13T09:05:07Z</time>
      </trkpt>
      <trkpt lat="48.58978" lon="1.95028">
        <ele>150.58</ele>
        <time>2018-01-13T09:05:13Z</time>
      </trkpt>
      <trkpt lat="48.58973" lon="1.95022">
        <ele>150.58</ele>
        <time>2018-01-13T09:05:17Z</time>
      </trkpt>
      <trkpt lat="48.58969" lon="1.95016">
        <ele>151.06</ele>
        <time>2018-01-13T09:05:24Z</time>
      </trkpt>
      <trkpt lat="48.5896" lon="1.95007">
        <ele>151.06</ele>
        <time>2018-01-13T09:05:30Z</time>
      </trkpt>
      <trkpt lat="48.58958" lon="1.95001">
        <ele>151.06</ele>
        <time>2018-01-13T09:05:35Z</time>
      </trkpt>
      <trkpt lat="48.58951" lon="1.94994">
        <ele>151.06</ele>
        <time>2018-01-13T09:05:41Z</time>
      </trkpt>
      <trkpt lat="48.58948" lon="1.94991">
        <ele>151.54</ele>
        <time>2018-01-13T09:05:46Z</time>
      </trkpt>
      <trkpt lat="48.58944" lon="1.94987">
        <ele>151.54</ele>
        <time>2018-01-13T09:05:51Z</time>
      </trkpt>
      <trkpt lat="48.58938" lon="1.94981">
        <ele>152.03</ele>
        <time>2018-01-13T09:05:58Z</time>
      </trkpt>
      <trkpt lat="48.5893" lon="1.94974">
        <ele>152.51</ele>
        <time>2018-01-13T09:06:04Z</time>
      </trkpt>
      <trkpt lat="48.58925" lon="1.94971">
        <ele>152.99</ele>
        <time>2018-01-13T09:06:07Z</time>
      </trkpt>
      <trkpt lat="48.58922" lon="1.94964">
        <ele>153.47</ele>
        <time>2018-01-13T09:06:12Z</time>
      </trkpt>
      <trkpt lat="48.58919" lon="1.94961">
        <ele>153.47</ele>
        <time>2018-01-13T09:06:17Z</time>
      </trkpt>
      <trkpt lat="48.58913" lon="1.94955">
        <ele>153.47</ele>
        <time>2018-01-13T09:06:23Z</time>
      </trkpt>
      <trkpt lat="48.5891" lon="1.94951">
        <ele>152.99</ele>
        <time>2018-01-13T09:06:28Z</time>
      </trkpt>
      <trkpt lat="48.58907" lon="1.94946">
        <ele>152.99</ele>
        <time>2018-01-13T09:06:33Z</time>
      </trkpt>
      <trkpt lat="48.58902" lon="1.94941">
        <ele>153.47</ele>
        <time>2018-01-13T09:06:36Z</time>
      </trkpt>
      <trkpt lat="48.589" lon="1.94939">
        <ele>153.47</ele>
        <time>2018-01-13T09:06:38Z</time>
      </trkpt>
      <trkpt lat="48.58895" lon="1.94933">
        <ele>153.47</ele>
        <time>2018-01-13T09:06:43Z</time>
      </trkpt>
      <trkpt lat="48.58892" lon="1.94929">
        <ele>153.47</ele>
        <time>2018-01-13T09:06:49Z</time>
      </trkpt>
      <trkpt lat="48.58887" lon="1.94925">
        <ele>153.47</ele>
        <time>2018-01-13T09:06:53Z</time>
      </trkpt>
      <trkpt lat="48.58878" lon="1.94919">
        <ele>153.95</ele>
        <time>2018-01-13T09:07:00Z</time>
      </trkpt>
      <trkpt lat="48.58873" lon="1.94915">
        <ele>154.43</ele>
        <time>2018-01-13T09:07:07Z</time>
      </trkpt>
      <trkpt lat="48.58868" lon="1.9491">
        <ele>154.43</ele>
        <time>2018-01-13T09:07:14Z</time>
      </trkpt>
      <trkpt lat="48.5886" lon="1.94905">
        <ele>154.91</ele>
        <time>2018-01-13T09:07:20Z</time>
      </trkpt>
      <trkpt lat="48.58858" lon="1.94903">
        <ele>154.91</ele>
        <time>2018-01-13T09:07:25Z</time>
      </trkpt>
      <trkpt lat="48.58853" lon="1.94899">
        <ele>155.39</ele>
        <time>2018-01-13T09:07:32Z</time>
      </trkpt>
      <trkpt lat="48.5885" lon="1.94896">
        <ele>155.39</ele>
        <time>2018-01-13T09:07:37Z</time>
      </trkpt>
      <trkpt lat="48.58843" lon="1.9489">
        <ele>155.87</ele>
        <time>2018-01-13T09:07:44Z</time>
      </trkpt>
      <trkpt lat="48.58836" lon="1.94885">
        <ele>156.35</ele>
        <time>2018-01-13T09:07:50Z</time>
      </trkpt>
      <trkpt lat="48.58827" lon="1.94879">
        <ele>156.83</ele>
        <time>2018-01-13T09:07:56Z</time>
      </trkpt>
      <trkpt lat="48.58823" lon="1.94874">
        <ele>157.31</ele>
        <time>2018-01-13T09:08:04Z</time>
      </trkpt>
      <trkpt lat="48.58815" lon="1.94865">
        <ele>157.79</ele>
        <time>2018-01-13T09:08:10Z</time>
      </trkpt>
      <trkpt lat="48.58812" lon="1.9486">
        <ele>158.27</ele>
        <time>2018-01-13T09:08:15Z</time>
      </trkpt>
      <trkpt lat="48.58809" lon="1.94855">
        <ele>158.27</ele>
        <time>2018-01-13T09:08:20Z</time>
      </trkpt>
      <trkpt lat="48.58805" lon="1.94851">
        <ele>159.72</ele>
        <time>2018-01-13T09:08:27Z</time>
      </trkpt>
      <trkpt lat="48.58796" lon="1.94845">
        <ele>159.72</ele>
        <time>2018-01-13T09:08:33Z</time>
      </trkpt>
      <trkpt lat="48.58792" lon="1.94841">
        <ele>160.68</ele>
        <time>2018-01-13T09:08:38Z</time>
      </trkpt>
      <trkpt lat="48.58787" lon="1.94838">
        <ele>160.68</ele>
        <time>2018-01-13T09:08:44Z</time>
      </trkpt>
      <trkpt lat="48.58784" lon="1.94835">
        <ele>161.64</ele>
        <time>2018-01-13T09:08:50Z</time>
      </trkpt>
      <trkpt lat="48.58777" lon="1.9483">
        <ele>162.12</ele>
        <time>2018-01-13T09:08:55Z</time>
      </trkpt>
      <trkpt lat="48.58775" lon="1.94828">
        <ele>162.12</ele>
        <time>2018-01-13T09:09:00Z</time>
      </trkpt>
      <trkpt lat="48.58771" lon="1.94824">
        <ele>162.6</ele>
        <time>2018-01-13T09:09:05Z</time>
      </trkpt>
      <trkpt lat="48.58765" lon="1.94817">
        <ele>163.08</ele>
        <time>2018-01-13T09:09:11Z</time>
      </trkpt>
      <trkpt lat="48.58761" lon="1.94814">
        <ele>163.56</ele>
        <time>2018-01-13T09:09:17Z</time>
      </trkpt>
      <trkpt lat="48.58758" lon="1.9481">
        <ele>164.52</ele>
        <time>2018-01-13T09:09:22Z</time>
      </trkpt>
      <trkpt lat="48.58744" lon="1.94802">
        <ele>164.52</ele>
        <time>2018-01-13T09:09:26Z</time>
      </trkpt>
      <trkpt lat="48.58733" lon="1.94796">
        <ele>165.96</ele>
        <time>2018-01-13T09:09:32Z</time>
      </trkpt>
      <trkpt lat="48.58732" lon="1.94792">
        <ele>166.45</ele>
        <time>2018-01-13T09:09:36Z</time>
      </trkpt>
      <trkpt lat="48.58724" lon="1.94786">
        <ele>166.93</ele>
        <time>2018-01-13T09:09:42Z</time>
      </trkpt>
      <trkpt lat="48.58724" lon="1.94781">
        <ele>167.41</ele>
        <time>2018-01-13T09:09:47Z</time>
      </trkpt>
      <trkpt lat="48.5872" lon="1.94778">
        <ele>167.89</ele>
        <time>2018-01-13T09:09:53Z</time>
      </trkpt>
      <trkpt lat="48.58715" lon="1.94775">
        <ele>168.85</ele>
        <time>2018-01-13T09:09:58Z</time>
      </trkpt>
      <trkpt lat="48.58708" lon="1.9477">
        <ele>169.33</ele>
        <time>2018-01-13T09:10:04Z</time>
      </trkpt>
      <trkpt lat="48.58702" lon="1.94766">
        <ele>169.81</ele>
        <time>2018-01-13T09:10:10Z</time>
      </trkpt>
      <trkpt lat="48.58691" lon="1.9476">
        <ele>170.29</ele>
        <time>2018-01-13T09:10:16Z</time>
      </trkpt>
      <trkpt lat="48.58683" lon="1.9476">
        <ele>170.29</ele>
        <time>2018-01-13T09:10:21Z</time>
      </trkpt>
      <trkpt lat="48.58677" lon="1.94757">
        <ele>170.77</ele>
        <time>2018-01-13T09:10:28Z</time>
      </trkpt>
      <trkpt lat="48.58673" lon="1.94755">
        <ele>170.77</ele>
        <time>2018-01-13T09:10:34Z</time>
      </trkpt>
      <trkpt lat="48.58668" lon="1.94755">
        <ele>171.25</ele>
        <time>2018-01-13T09:10:39Z</time>
      </trkpt>
      <trkpt lat="48.58663" lon="1.9475">
        <ele>171.25</ele>
        <time>2018-01-13T09:10:45Z</time>
      </trkpt>
      <trkpt lat="48.58657" lon="1.94749">
        <ele>171.73</ele>
        <time>2018-01-13T09:10:52Z</time>
      </trkpt>
      <trkpt lat="48.58649" lon="1.94745">
        <ele>172.69</ele>
        <time>2018-01-13T09:10:59Z</time>
      </trkpt>
      <trkpt lat="48.58639" lon="1.94744">
        <ele>173.17</ele>
        <time>2018-01-13T09:11:07Z</time>
      </trkpt>
      <trkpt lat="48.58635" lon="1.94743">
        <ele>173.17</ele>
        <time>2018-01-13T09:11:13Z</time>
      </trkpt>
      <trkpt lat="48.5863" lon="1.94743">
        <ele>173.17</ele>
        <time>2018-01-13T09:11:18Z</time>
      </trkpt>
      <trkpt lat="48.58625" lon="1.9474">
        <ele>173.17</ele>
        <time>2018-01-13T09:11:24Z</time>
      </trkpt>
      <trkpt lat="48.58622" lon="1.94738">
        <ele>173.17</ele>
        <time>2018-01-13T09:11:31Z</time>
      </trkpt>
      <trkpt lat="48.5862" lon="1.94736">
        <ele>173.66</ele>
        <time>2018-01-13T09:11:35Z</time>
      </trkpt>
      <trkpt lat="48.58617" lon="1.94736">
        <ele>173.17</ele>
        <time>2018-01-13T09:11:40Z</time>
      </trkpt>
      <trkpt lat="48.58614" lon="1.94734">
        <ele>173.66</ele>
        <time>2018-01-13T09:11:43Z</time>
      </trkpt>
      <trkpt lat="48.58605" lon="1.94731">
        <ele>174.14</ele>
        <time>2018-01-13T09:11:48Z</time>
      </trkpt>
      <trkpt lat="48.58601" lon="1.94729">
        <ele>174.14</ele>
        <time>2018-01-13T09:11:50Z</time>
      </trkpt>
      <trkpt lat="48.58592" lon="1.94722">
        <ele>174.62</ele>
        <time>2018-01-13T09:11:56Z</time>
      </trkpt>
      <trkpt lat="48.5859" lon="1.94722">
        <ele>174.62</ele>
        <time>2018-01-13T09:11:59Z</time>
      </trkpt>
      <trkpt lat="48.5858" lon="1.94718">
        <ele>175.1</ele>
        <time>2018-01-13T09:12:06Z</time>
      </trkpt>
      <trkpt lat="48.58572" lon="1.94715">
        <ele>175.58</ele>
        <time>2018-01-13T09:12:14Z</time>
      </trkpt>
      <trkpt lat="48.58567" lon="1.94713">
        <ele>176.06</ele>
        <time>2018-01-13T09:12:20Z</time>
      </trkpt>
      <trkpt lat="48.5856" lon="1.9471">
        <ele>176.54</ele>
        <time>2018-01-13T09:12:26Z</time>
      </trkpt>
      <trkpt lat="48.58555" lon="1.94708">
        <ele>177.02</ele>
        <time>2018-01-13T09:12:31Z</time>
      </trkpt>
      <trkpt lat="48.58546" lon="1.94705">
        <ele>177.5</ele>
        <time>2018-01-13T09:12:39Z</time>
      </trkpt>
      <trkpt lat="48.58535" lon="1.947">
        <ele>177.98</ele>
        <time>2018-01-13T09:12:46Z</time>
      </trkpt>
      <trkpt lat="48.5853" lon="1.94696">
        <ele>178.46</ele>
        <time>2018-01-13T09:12:51Z</time>
      </trkpt>
      <trkpt lat="48.58522" lon="1.94689">
        <ele>178.46</ele>
        <time>2018-01-13T09:12:58Z</time>
      </trkpt>
      <trkpt lat="48.58513" lon="1.94682">
        <ele>178.94</ele>
        <time>2018-01-13T09:13:05Z</time>
      </trkpt>
      <trkpt lat="48.5851" lon="1.94677">
        <ele>179.42</ele>
        <time>2018-01-13T09:13:11Z</time>
      </trkpt>
      <trkpt lat="48.58507" lon="1.94675">
        <ele>178.94</ele>
        <time>2018-01-13T09:13:13Z</time>
      </trkpt>
      <trkpt lat="48.58502" lon="1.94667">
        <ele>179.42</ele>
        <time>2018-01-13T09:13:20Z</time>
      </trkpt>
      <trkpt lat="48.58491" lon="1.94657">
        <ele>179.42</ele>
        <time>2018-01-13T09:13:29Z</time>
      </trkpt>
      <trkpt lat="48.5849" lon="1.94657">
        <ele>178.94</ele>
        <time>2018-01-13T09:13:30Z</time>
      </trkpt>
      <trkpt lat="48.58482" lon="1.94654">
        <ele>179.42</ele>
        <time>2018-01-13T09:13:37Z</time>
      </trkpt>
      <trkpt lat="48.58474" lon="1.94652">
        <ele>178.94</ele>
        <time>2018-01-13T09:13:43Z</time>
      </trkpt>
      <trkpt lat="48.5847" lon="1.94651">
        <ele>178.46</ele>
        <time>2018-01-13T09:13:47Z</time>
      </trkpt>
      <trkpt lat="48.58462" lon="1.9465">
        <ele>178.46</ele>
        <time>2018-01-13T09:13:55Z</time>
      </trkpt>
      <trkpt lat="48.58459" lon="1.94648">
        <ele>177.98</ele>
        <time>2018-01-13T09:13:59Z</time>
      </trkpt>
      <trkpt lat="48.58454" lon="1.94647">
        <ele>177.5</ele>
        <time>2018-01-13T09:14:06Z</time>
      </trkpt>
      <trkpt lat="48.58453" lon="1.94646">
        <ele>177.02</ele>
        <time>2018-01-13T09:14:07Z</time>
      </trkpt>
      <trkpt lat="48.58448" lon="1.94644">
        <ele>176.06</ele>
        <time>2018-01-13T09:14:13Z</time>
      </trkpt>
      <trkpt lat="48.58439" lon="1.9464">
        <ele>174.62</ele>
        <time>2018-01-13T09:14:21Z</time>
      </trkpt>
      <trkpt lat="48.58432" lon="1.94637">
        <ele>173.66</ele>
        <time>2018-01-13T09:14:25Z</time>
      </trkpt>
      <trkpt lat="48.58427" lon="1.94635">
        <ele>172.69</ele>
        <time>2018-01-13T09:14:31Z</time>
      </trkpt>
      <trkpt lat="48.58419" lon="1.94632">
        <ele>171.25</ele>
        <time>2018-01-13T09:14:37Z</time>
      </trkpt>
      <trkpt lat="48.58414" lon="1.94632">
        <ele>170.77</ele>
        <time>2018-01-13T09:14:42Z</time>
      </trkpt>
      <trkpt lat="48.58409" lon="1.94632">
        <ele>169.81</ele>
        <time>2018-01-13T09:14:46Z</time>
      </trkpt>
      <trkpt lat="48.58401" lon="1.94631">
        <ele>168.37</ele>
        <time>2018-01-13T09:14:52Z</time>
      </trkpt>
      <trkpt lat="48.58392" lon="1.94632">
        <ele>166.93</ele>
        <time>2018-01-13T09:15:00Z</time>
      </trkpt>
      <trkpt lat="48.58387" lon="1.94633">
        <ele>165.96</ele>
        <time>2018-01-13T09:15:06Z</time>
      </trkpt>
      <trkpt lat="48.5838" lon="1.94634">
        <ele>165.48</ele>
        <time>2018-01-13T09:15:11Z</time>
      </trkpt>
      <trkpt lat="48.58377" lon="1.94634">
        <ele>165</ele>
        <time>2018-01-13T09:15:14Z</time>
      </trkpt>
      <trkpt lat="48.58371" lon="1.94636">
        <ele>163.56</ele>
        <time>2018-01-13T09:15:21Z</time>
      </trkpt>
      <trkpt lat="48.58363" lon="1.94637">
        <ele>163.08</ele>
        <time>2018-01-13T09:15:27Z</time>
      </trkpt>
      <trkpt lat="48.58356" lon="1.9464">
        <ele>162.6</ele>
        <time>2018-01-13T09:15:33Z</time>
      </trkpt>
      <trkpt lat="48.5835" lon="1.9464">
        <ele>162.12</ele>
        <time>2018-01-13T09:15:38Z</time>
      </trkpt>
      <trkpt lat="48.58348" lon="1.94642">
        <ele>161.64</ele>
        <time>2018-01-13T09:15:42Z</time>
      </trkpt>
      <trkpt lat="48.58346" lon="1.94642">
        <ele>161.64</ele>
        <time>2018-01-13T09:15:44Z</time>
      </trkpt>
      <trkpt lat="48.58337" lon="1.94642">
        <ele>161.16</ele>
        <time>2018-01-13T09:15:51Z</time>
      </trkpt>
      <trkpt lat="48.58337" lon="1.94642">
        <ele>161.16</ele>
        <time>2018-01-13T09:15:52Z</time>
      </trkpt>
      <trkpt lat="48.58334" lon="1.94642">
        <ele>161.16</ele>
        <time>2018-01-13T09:15:55Z</time>
      </trkpt>
      <trkpt lat="48.58329" lon="1.94641">
        <ele>160.68</ele>
        <time>2018-01-13T09:15:58Z</time>
      </trkpt>
      <trkpt lat="48.58325" lon="1.94642">
        <ele>160.68</ele>
        <time>2018-01-13T09:16:01Z</time>
      </trkpt>
      <trkpt lat="48.58315" lon="1.94639">
        <ele>160.2</ele>
        <time>2018-01-13T09:16:08Z</time>
      </trkpt>
      <trkpt lat="48.58303" lon="1.94642">
        <ele>159.72</ele>
        <time>2018-01-13T09:16:15Z</time>
      </trkpt>
      <trkpt lat="48.58295" lon="1.9464">
        <ele>159.24</ele>
        <time>2018-01-13T09:16:20Z</time>
      </trkpt>
      <trkpt lat="48.58291" lon="1.94641">
        <ele>159.24</ele>
        <time>2018-01-13T09:16:25Z</time>
      </trkpt>
      <trkpt lat="48.58282" lon="1.9464">
        <ele>158.75</ele>
        <time>2018-01-13T09:16:30Z</time>
      </trkpt>
      <trkpt lat="48.58277" lon="1.94638">
        <ele>158.27</ele>
        <time>2018-01-13T09:16:34Z</time>
      </trkpt>
      <trkpt lat="48.58276" lon="1.94639">
        <ele>158.27</ele>
        <time>2018-01-13T09:16:35Z</time>
      </trkpt>
      <trkpt lat="48.58267" lon="1.94638">
        <ele>157.79</ele>
        <time>2018-01-13T09:16:41Z</time>
      </trkpt>
      <trkpt lat="48.5826" lon="1.94637">
        <ele>157.31</ele>
        <time>2018-01-13T09:16:46Z</time>
      </trkpt>
      <trkpt lat="48.58253" lon="1.94631">
        <ele>156.83</ele>
        <time>2018-01-13T09:16:53Z</time>
      </trkpt>
      <trkpt lat="48.58244" lon="1.94626">
        <ele>156.35</ele>
        <time>2018-01-13T09:17:00Z</time>
      </trkpt>
      <trkpt lat="48.58243" lon="1.94625">
        <ele>156.35</ele>
        <time>2018-01-13T09:17:01Z</time>
      </trkpt>
      <trkpt lat="48.58233" lon="1.94626">
        <ele>155.87</ele>
        <time>2018-01-13T09:17:08Z</time>
      </trkpt>
      <trkpt lat="48.58229" lon="1.94628">
        <ele>155.39</ele>
        <time>2018-01-13T09:17:12Z</time>
      </trkpt>
      <trkpt lat="48.58226" lon="1.94627">
        <ele>155.39</ele>
        <time>2018-01-13T09:17:14Z</time>
      </trkpt>
      <trkpt lat="48.58213" lon="1.94623">
        <ele>154.91</ele>
        <time>2018-01-13T09:17:21Z</time>
      </trkpt>
      <trkpt lat="48.5821" lon="1.94624">
        <ele>154.43</ele>
        <time>2018-01-13T09:17:24Z</time>
      </trkpt>
      <trkpt lat="48.58204" lon="1.94623">
        <ele>153.95</ele>
        <time>2018-01-13T09:17:32Z</time>
      </trkpt>
      <trkpt lat="48.58204" lon="1.94623">
        <ele>153.95</ele>
        <time>2018-01-13T09:17:44Z</time>
      </trkpt>
      <trkpt lat="48.58204" lon="1.94622">
        <ele>153.95</ele>
        <time>2018-01-13T09:17:46Z</time>
      </trkpt>
      <trkpt lat="48.58201" lon="1.94621">
        <ele>153.95</ele>
        <time>2018-01-13T09:17:50Z</time>
      </trkpt>
      <trkpt lat="48.58194" lon="1.94618">
        <ele>153.47</ele>
        <time>2018-01-13T09:17:58Z</time>
      </trkpt>
      <trkpt lat="48.5819" lon="1.94616">
        <ele>153.47</ele>
        <time>2018-01-13T09:18:02Z</time>
      </trkpt>
      <trkpt lat="48.58183" lon="1.94614">
        <ele>152.51</ele>
        <time>2018-01-13T09:18:08Z</time>
      </trkpt>
      <trkpt lat="48.58175" lon="1.9461">
        <ele>152.03</ele>
        <time>2018-01-13T09:18:15Z</time>
      </trkpt>
      <trkpt lat="48.58165" lon="1.94606">
        <ele>152.03</ele>
        <time>2018-01-13T09:18:24Z</time>
      </trkpt>
      <trkpt lat="48.58157" lon="1.94602">
        <ele>151.54</ele>
        <time>2018-01-13T09:18:31Z</time>
      </trkpt>
      <trkpt lat="48.58149" lon="1.94599">
        <ele>151.06</ele>
        <time>2018-01-13T09:18:38Z</time>
      </trkpt>
      <trkpt lat="48.58142" lon="1.94598">
        <ele>150.58</ele>
        <time>2018-01-13T09:18:46Z</time>
      </trkpt>
      <trkpt lat="48.58139" lon="1.94599">
        <ele>150.1</ele>
        <time>2018-01-13T09:18:49Z</time>
      </trkpt>
      <trkpt lat="48.58134" lon="1.94601">
        <ele>150.1</ele>
        <time>2018-01-13T09:18:53Z</time>
      </trkpt>
      <trkpt lat="48.5813" lon="1.9461">
        <ele>149.62</ele>
        <time>2018-01-13T09:19:01Z</time>
      </trkpt>
      <trkpt lat="48.58129" lon="1.94613">
        <ele>149.62</ele>
        <time>2018-01-13T09:19:03Z</time>
      </trkpt>
      <trkpt lat="48.58128" lon="1.94622">
        <ele>149.14</ele>
        <time>2018-01-13T09:19:08Z</time>
      </trkpt>
      <trkpt lat="48.58126" lon="1.94628">
        <ele>149.14</ele>
        <time>2018-01-13T09:19:12Z</time>
      </trkpt>
      <trkpt lat="48.58125" lon="1.94632">
        <ele>149.14</ele>
        <time>2018-01-13T09:19:14Z</time>
      </trkpt>
      <trkpt lat="48.58124" lon="1.94642">
        <ele>148.66</ele>
        <time>2018-01-13T09:19:20Z</time>
      </trkpt>
      <trkpt lat="48.58123" lon="1.94655">
        <ele>148.18</ele>
        <time>2018-01-13T09:19:27Z</time>
      </trkpt>
      <trkpt lat="48.58122" lon="1.94659">
        <ele>148.18</ele>
        <time>2018-01-13T09:19:30Z</time>
      </trkpt>
      <trkpt lat="48.58121" lon="1.94668">
        <ele>148.66</ele>
        <time>2018-01-13T09:19:35Z</time>
      </trkpt>
      <trkpt lat="48.5812" lon="1.94678">
        <ele>148.18</ele>
        <time>2018-01-13T09:19:41Z</time>
      </trkpt>
      <trkpt lat="48.58118" lon="1.94689">
        <ele>147.7</ele>
        <time>2018-01-13T09:19:46Z</time>
      </trkpt>
      <trkpt lat="48.58116" lon="1.94693">
        <ele>147.7</ele>
        <time>2018-01-13T09:19:48Z</time>
      </trkpt>
      <trkpt lat="48.58117" lon="1.94704">
        <ele>147.22</ele>
        <time>2018-01-13T09:19:54Z</time>
      </trkpt>
      <trkpt lat="48.58116" lon="1.94711">
        <ele>146.74</ele>
        <time>2018-01-13T09:19:58Z</time>
      </trkpt>
      <trkpt lat="48.58114" lon="1.94724">
        <ele>146.74</ele>
        <time>2018-01-13T09:20:05Z</time>
      </trkpt>
      <trkpt lat="48.58112" lon="1.94737">
        <ele>146.26</ele>
        <time>2018-01-13T09:20:12Z</time>
      </trkpt>
      <trkpt lat="48.58111" lon="1.94747">
        <ele>146.26</ele>
        <time>2018-01-13T09:20:18Z</time>
      </trkpt>
      <trkpt lat="48.58108" lon="1.94756">
        <ele>145.78</ele>
        <time>2018-01-13T09:20:23Z</time>
      </trkpt>
      <trkpt lat="48.58108" lon="1.94763">
        <ele>145.78</ele>
        <time>2018-01-13T09:20:27Z</time>
      </trkpt>
      <trkpt lat="48.58108" lon="1.9478">
        <ele>145.3</ele>
        <time>2018-01-13T09:20:33Z</time>
      </trkpt>
      <trkpt lat="48.58108" lon="1.94782">
        <ele>141.45</ele>
        <time>2018-01-13T09:20:34Z</time>
      </trkpt>
      <trkpt lat="48.58107" lon="1.94785">
        <ele>148.18</ele>
        <time>2018-01-13T09:20:35Z</time>
      </trkpt>
      <trkpt lat="48.58107" lon="1.94786">
        <ele>146.74</ele>
        <time>2018-01-13T09:20:36Z</time>
      </trkpt>
      <trkpt lat="48.58104" lon="1.94804">
        <ele>145.78</ele>
        <time>2018-01-13T09:20:46Z</time>
      </trkpt>
      <trkpt lat="48.58103" lon="1.94818">
        <ele>145.3</ele>
        <time>2018-01-13T09:20:54Z</time>
      </trkpt>
      <trkpt lat="48.58101" lon="1.94831">
        <ele>144.82</ele>
        <time>2018-01-13T09:21:02Z</time>
      </trkpt>
      <trkpt lat="48.58101" lon="1.94838">
        <ele>145.3</ele>
        <time>2018-01-13T09:21:06Z</time>
      </trkpt>
      <trkpt lat="48.58099" lon="1.94848">
        <ele>145.3</ele>
        <time>2018-01-13T09:21:12Z</time>
      </trkpt>
      <trkpt lat="48.58098" lon="1.9486">
        <ele>145.3</ele>
        <time>2018-01-13T09:21:19Z</time>
      </trkpt>
      <trkpt lat="48.58097" lon="1.94871">
        <ele>144.82</ele>
        <time>2018-01-13T09:21:25Z</time>
      </trkpt>
      <trkpt lat="48.58096" lon="1.94874">
        <ele>144.82</ele>
        <time>2018-01-13T09:21:27Z</time>
      </trkpt>
      <trkpt lat="48.58096" lon="1.94882">
        <ele>144.82</ele>
        <time>2018-01-13T09:21:31Z</time>
      </trkpt>
      <trkpt lat="48.58093" lon="1.94895">
        <ele>145.3</ele>
        <time>2018-01-13T09:21:39Z</time>
      </trkpt>
      <trkpt lat="48.58091" lon="1.9491">
        <ele>144.82</ele>
        <time>2018-01-13T09:21:47Z</time>
      </trkpt>
      <trkpt lat="48.58091" lon="1.94911">
        <ele>145.3</ele>
        <time>2018-01-13T09:21:48Z</time>
      </trkpt>
      <trkpt lat="48.5809" lon="1.94922">
        <ele>145.3</ele>
        <time>2018-01-13T09:21:54Z</time>
      </trkpt>
      <trkpt lat="48.58089" lon="1.94933">
        <ele>145.78</ele>
        <time>2018-01-13T09:22:00Z</time>
      </trkpt>
      <trkpt lat="48.58087" lon="1.94941">
        <ele>145.78</ele>
        <time>2018-01-13T09:22:05Z</time>
      </trkpt>
      <trkpt lat="48.58087" lon="1.94948">
        <ele>146.26</ele>
        <time>2018-01-13T09:22:09Z</time>
      </trkpt>
      <trkpt lat="48.58086" lon="1.94953">
        <ele>146.26</ele>
        <time>2018-01-13T09:22:12Z</time>
      </trkpt>
      <trkpt lat="48.58085" lon="1.9496">
        <ele>146.26</ele>
        <time>2018-01-13T09:22:16Z</time>
      </trkpt>
      <trkpt lat="48.5808" lon="1.94966">
        <ele>145.78</ele>
        <time>2018-01-13T09:22:23Z</time>
      </trkpt>
      <trkpt lat="48.58078" lon="1.94966">
        <ele>145.78</ele>
        <time>2018-01-13T09:22:25Z</time>
      </trkpt>
      <trkpt lat="48.5807" lon="1.94969">
        <ele>145.3</ele>
        <time>2018-01-13T09:22:32Z</time>
      </trkpt>
      <trkpt lat="48.58066" lon="1.94967">
        <ele>145.3</ele>
        <time>2018-01-13T09:22:36Z</time>
      </trkpt>
      <trkpt lat="48.58059" lon="1.94964">
        <ele>144.82</ele>
        <time>2018-01-13T09:22:42Z</time>
      </trkpt>
      <trkpt lat="48.58054" lon="1.94963">
        <ele>144.34</ele>
        <time>2018-01-13T09:22:48Z</time>
      </trkpt>
      <trkpt lat="48.58051" lon="1.94965">
        <ele>144.34</ele>
        <time>2018-01-13T09:22:54Z</time>
      </trkpt>
      <trkpt lat="48.58047" lon="1.94966">
        <ele>143.85</ele>
        <time>2018-01-13T09:22:58Z</time>
      </trkpt>
      <trkpt lat="48.58043" lon="1.94965">
        <ele>143.85</ele>
        <time>2018-01-13T09:23:02Z</time>
      </trkpt>
      <trkpt lat="48.58033" lon="1.94963">
        <ele>143.37</ele>
        <time>2018-01-13T09:23:09Z</time>
      </trkpt>
      <trkpt lat="48.58026" lon="1.94965">
        <ele>143.37</ele>
        <time>2018-01-13T09:23:15Z</time>
      </trkpt>
      <trkpt lat="48.58021" lon="1.94964">
        <ele>142.89</ele>
        <time>2018-01-13T09:23:19Z</time>
      </trkpt>
      <trkpt lat="48.58017" lon="1.94962">
        <ele>142.89</ele>
        <time>2018-01-13T09:23:22Z</time>
      </trkpt>
      <trkpt lat="48.5801" lon="1.94958">
        <ele>142.41</ele>
        <time>2018-01-13T09:23:28Z</time>
      </trkpt>
      <trkpt lat="48.58003" lon="1.94958">
        <ele>141.93</ele>
        <time>2018-01-13T09:23:35Z</time>
      </trkpt>
      <trkpt lat="48.58002" lon="1.94959">
        <ele>141.93</ele>
        <time>2018-01-13T09:23:38Z</time>
      </trkpt>
      <trkpt lat="48.57994" lon="1.94961">
        <ele>141.93</ele>
        <time>2018-01-13T09:23:46Z</time>
      </trkpt>
      <trkpt lat="48.5799" lon="1.94959">
        <ele>141.45</ele>
        <time>2018-01-13T09:23:50Z</time>
      </trkpt>
      <trkpt lat="48.57983" lon="1.94959">
        <ele>141.45</ele>
        <time>2018-01-13T09:23:55Z</time>
      </trkpt>
      <trkpt lat="48.57979" lon="1.94958">
        <ele>141.45</ele>
        <time>2018-01-13T09:23:57Z</time>
      </trkpt>
      <trkpt lat="48.57973" lon="1.94956">
        <ele>141.45</ele>
        <time>2018-01-13T09:24:01Z</time>
      </trkpt>
      <trkpt lat="48.57965" lon="1.94957">
        <ele>140.97</ele>
        <time>2018-01-13T09:24:07Z</time>
      </trkpt>
      <trkpt lat="48.57961" lon="1.94957">
        <ele>140.97</ele>
        <time>2018-01-13T09:24:10Z</time>
      </trkpt>
      <trkpt lat="48.57952" lon="1.94955">
        <ele>140.49</ele>
        <time>2018-01-13T09:24:16Z</time>
      </trkpt>
      <trkpt lat="48.57942" lon="1.94955">
        <ele>140.49</ele>
        <time>2018-01-13T09:24:23Z</time>
      </trkpt>
      <trkpt lat="48.57941" lon="1.94955">
        <ele>140.49</ele>
        <time>2018-01-13T09:24:24Z</time>
      </trkpt>
      <trkpt lat="48.57935" lon="1.94954">
        <ele>140.01</ele>
        <time>2018-01-13T09:24:31Z</time>
      </trkpt>
      <trkpt lat="48.57935" lon="1.94954">
        <ele>139.53</ele>
        <time>2018-01-13T09:24:32Z</time>
      </trkpt>
      <trkpt lat="48.57932" lon="1.94955">
        <ele>139.53</ele>
        <time>2018-01-13T09:24:37Z</time>
      </trkpt>
      <trkpt lat="48.57927" lon="1.94954">
        <ele>139.53</ele>
        <time>2018-01-13T09:24:41Z</time>
      </trkpt>
      <trkpt lat="48.57921" lon="1.94958">
        <ele>139.05</ele>
        <time>2018-01-13T09:24:49Z</time>
      </trkpt>
      <trkpt lat="48.57917" lon="1.94956">
        <ele>139.05</ele>
        <time>2018-01-13T09:24:56Z</time>
      </trkpt>
      <trkpt lat="48.57915" lon="1.94956">
        <ele>139.05</ele>
        <time>2018-01-13T09:24:58Z</time>
      </trkpt>
      <trkpt lat="48.57909" lon="1.94955">
        <ele>139.05</ele>
        <time>2018-01-13T09:25:04Z</time>
      </trkpt>
      <trkpt lat="48.57902" lon="1.94955">
        <ele>139.05</ele>
        <time>2018-01-13T09:25:11Z</time>
      </trkpt>
      <trkpt lat="48.57891" lon="1.94952">
        <ele>139.05</ele>
        <time>2018-01-13T09:25:19Z</time>
      </trkpt>
      <trkpt lat="48.57881" lon="1.94948">
        <ele>139.05</ele>
        <time>2018-01-13T09:25:26Z</time>
      </trkpt>
      <trkpt lat="48.57876" lon="1.94945">
        <ele>139.05</ele>
        <time>2018-01-13T09:25:30Z</time>
      </trkpt>
      <trkpt lat="48.57875" lon="1.94943">
        <ele>139.05</ele>
        <time>2018-01-13T09:25:34Z</time>
      </trkpt>
      <trkpt lat="48.57869" lon="1.94936">
        <ele>138.57</ele>
        <time>2018-01-13T09:25:41Z</time>
      </trkpt>
      <trkpt lat="48.57865" lon="1.94932">
        <ele>138.57</ele>
        <time>2018-01-13T09:25:49Z</time>
      </trkpt>
      <trkpt lat="48.57861" lon="1.94928">
        <ele>138.57</ele>
        <time>2018-01-13T09:25:54Z</time>
      </trkpt>
      <trkpt lat="48.57859" lon="1.94924">
        <ele>138.57</ele>
        <time>2018-01-13T09:25:56Z</time>
      </trkpt>
      <trkpt lat="48.57854" lon="1.94916">
        <ele>138.57</ele>
        <time>2018-01-13T09:26:00Z</time>
      </trkpt>
      <trkpt lat="48.57849" lon="1.94909">
        <ele>138.57</ele>
        <time>2018-01-13T09:26:07Z</time>
      </trkpt>
      <trkpt lat="48.57843" lon="1.94902">
        <ele>138.57</ele>
        <time>2018-01-13T09:26:12Z</time>
      </trkpt>
      <trkpt lat="48.57837" lon="1.94893">
        <ele>138.09</ele>
        <time>2018-01-13T09:26:18Z</time>
      </trkpt>
      <trkpt lat="48.57831" lon="1.94884">
        <ele>138.09</ele>
        <time>2018-01-13T09:26:26Z</time>
      </trkpt>
      <trkpt lat="48.57825" lon="1.94877">
        <ele>138.09</ele>
        <time>2018-01-13T09:26:33Z</time>
      </trkpt>
      <trkpt lat="48.5782" lon="1.9487">
        <ele>138.09</ele>
        <time>2018-01-13T09:26:37Z</time>
      </trkpt>
      <trkpt lat="48.57807" lon="1.94857">
        <ele>138.09</ele>
        <time>2018-01-13T09:26:44Z</time>
      </trkpt>
      <trkpt lat="48.57802" lon="1.94848">
        <ele>138.09</ele>
        <time>2018-01-13T09:26:50Z</time>
      </trkpt>
      <trkpt lat="48.578" lon="1.94842">
        <ele>138.09</ele>
        <time>2018-01-13T09:26:54Z</time>
      </trkpt>
      <trkpt lat="48.57789" lon="1.94833">
        <ele>138.09</ele>
        <time>2018-01-13T09:27:02Z</time>
      </trkpt>
      <trkpt lat="48.5778" lon="1.94822">
        <ele>138.57</ele>
        <time>2018-01-13T09:27:11Z</time>
      </trkpt>
      <trkpt lat="48.57779" lon="1.94821">
        <ele>138.57</ele>
        <time>2018-01-13T09:27:12Z</time>
      </trkpt>
      <trkpt lat="48.57775" lon="1.9481">
        <ele>138.57</ele>
        <time>2018-01-13T09:27:20Z</time>
      </trkpt>
      <trkpt lat="48.57772" lon="1.94804">
        <ele>139.53</ele>
        <time>2018-01-13T09:27:27Z</time>
      </trkpt>
      <trkpt lat="48.57775" lon="1.94798">
        <ele>140.49</ele>
        <time>2018-01-13T09:27:33Z</time>
      </trkpt>
      <trkpt lat="48.57771" lon="1.94794">
        <ele>141.93</ele>
        <time>2018-01-13T09:27:40Z</time>
      </trkpt>
      <trkpt lat="48.57767" lon="1.94787">
        <ele>142.41</ele>
        <time>2018-01-13T09:27:45Z</time>
      </trkpt>
      <trkpt lat="48.57765" lon="1.94782">
        <ele>142.41</ele>
        <time>2018-01-13T09:27:51Z</time>
      </trkpt>
      <trkpt lat="48.57762" lon="1.94777">
        <ele>142.41</ele>
        <time>2018-01-13T09:27:56Z</time>
      </trkpt>
      <trkpt lat="48.57762" lon="1.94776">
        <ele>141.93</ele>
        <time>2018-01-13T09:28:04Z</time>
      </trkpt>
      <trkpt lat="48.5776" lon="1.94774">
        <ele>142.41</ele>
        <time>2018-01-13T09:28:16Z</time>
      </trkpt>
      <trkpt lat="48.57757" lon="1.94774">
        <ele>141.93</ele>
        <time>2018-01-13T09:28:27Z</time>
      </trkpt>
      <trkpt lat="48.57756" lon="1.94773">
        <ele>141.93</ele>
        <time>2018-01-13T09:28:40Z</time>
      </trkpt>
      <trkpt lat="48.57756" lon="1.94771">
        <ele>141.93</ele>
        <time>2018-01-13T09:28:50Z</time>
      </trkpt>
      <trkpt lat="48.57755" lon="1.94768">
        <ele>141.93</ele>
        <time>2018-01-13T09:28:55Z</time>
      </trkpt>
      <trkpt lat="48.57757" lon="1.94766">
        <ele>141.93</ele>
        <time>2018-01-13T09:29:07Z</time>
      </trkpt>
      <trkpt lat="48.57758" lon="1.94764">
        <ele>141.45</ele>
        <time>2018-01-13T09:29:23Z</time>
      </trkpt>
      <trkpt lat="48.57758" lon="1.94764">
        <ele>141.45</ele>
        <time>2018-01-13T09:29:32Z</time>
      </trkpt>
      <trkpt lat="48.57758" lon="1.94763">
        <ele>141.45</ele>
        <time>2018-01-13T09:29:44Z</time>
      </trkpt>
      <trkpt lat="48.57758" lon="1.94761">
        <ele>141.45</ele>
        <time>2018-01-13T09:29:51Z</time>
      </trkpt>
      <trkpt lat="48.57758" lon="1.94761">
        <ele>141.45</ele>
        <time>2018-01-13T09:29:59Z</time>
      </trkpt>
      <trkpt lat="48.57758" lon="1.94761">
        <ele>141.45</ele>
        <time>2018-01-13T09:30:07Z</time>
      </trkpt>
      <trkpt lat="48.57758" lon="1.94761">
        <ele>140.97</ele>
        <time>2018-01-13T09:30:18Z</time>
      </trkpt>
      <trkpt lat="48.57757" lon="1.94759">
        <ele>140.97</ele>
        <time>2018-01-13T09:30:24Z</time>
      </trkpt>
      <trkpt lat="48.57756" lon="1.94757">
        <ele>140.97</ele>
        <time>2018-01-13T09:30:27Z</time>
      </trkpt>
      <trkpt lat="48.57753" lon="1.94748">
        <ele>140.97</ele>
        <time>2018-01-13T09:30:34Z</time>
      </trkpt>
      <trkpt lat="48.57752" lon="1.94747">
        <ele>140.97</ele>
        <time>2018-01-13T09:30:35Z</time>
      </trkpt>
      <trkpt lat="48.57747" lon="1.94738">
        <ele>140.97</ele>
        <time>2018-01-13T09:30:42Z</time>
      </trkpt>
      <trkpt lat="48.57744" lon="1.94734">
        <ele>141.45</ele>
        <time>2018-01-13T09:30:47Z</time>
      </trkpt>
      <trkpt lat="48.57739" lon="1.94728">
        <ele>141.45</ele>
        <time>2018-01-13T09:30:53Z</time>
      </trkpt>
      <trkpt lat="48.57732" lon="1.94723">
        <ele>141.45</ele>
        <time>2018-01-13T09:31:00Z</time>
      </trkpt>
      <trkpt lat="48.57725" lon="1.94715">
        <ele>141.45</ele>
        <time>2018-01-13T09:31:08Z</time>
      </trkpt>
      <trkpt lat="48.57722" lon="1.9471">
        <ele>141.45</ele>
        <time>2018-01-13T09:31:12Z</time>
      </trkpt>
      <trkpt lat="48.5772" lon="1.94698">
        <ele>141.45</ele>
        <time>2018-01-13T09:31:19Z</time>
      </trkpt>
      <trkpt lat="48.57718" lon="1.94694">
        <ele>141.45</ele>
        <time>2018-01-13T09:31:22Z</time>
      </trkpt>
      <trkpt lat="48.57714" lon="1.94686">
        <ele>141.93</ele>
        <time>2018-01-13T09:31:29Z</time>
      </trkpt>
      <trkpt lat="48.57709" lon="1.94677">
        <ele>141.93</ele>
        <time>2018-01-13T09:31:36Z</time>
      </trkpt>
      <trkpt lat="48.57704" lon="1.94664">
        <ele>141.93</ele>
        <time>2018-01-13T09:31:44Z</time>
      </trkpt>
      <trkpt lat="48.57698" lon="1.94658">
        <ele>142.41</ele>
        <time>2018-01-13T09:31:51Z</time>
      </trkpt>
      <trkpt lat="48.57695" lon="1.9465">
        <ele>142.41</ele>
        <time>2018-01-13T09:31:58Z</time>
      </trkpt>
      <trkpt lat="48.57693" lon="1.94646">
        <ele>142.41</ele>
        <time>2018-01-13T09:32:00Z</time>
      </trkpt>
      <trkpt lat="48.57691" lon="1.94631">
        <ele>142.89</ele>
        <time>2018-01-13T09:32:08Z</time>
      </trkpt>
      <trkpt lat="48.57689" lon="1.94628">
        <ele>142.89</ele>
        <time>2018-01-13T09:32:10Z</time>
      </trkpt>
      <trkpt lat="48.57684" lon="1.94623">
        <ele>142.89</ele>
        <time>2018-01-13T09:32:14Z</time>
      </trkpt>
      <trkpt lat="48.57682" lon="1.94618">
        <ele>142.89</ele>
        <time>2018-01-13T09:32:18Z</time>
      </trkpt>
      <trkpt lat="48.57678" lon="1.94609">
        <ele>142.89</ele>
        <time>2018-01-13T09:32:25Z</time>
      </trkpt>
      <trkpt lat="48.57676" lon="1.94605">
        <ele>142.89</ele>
        <time>2018-01-13T09:32:28Z</time>
      </trkpt>
      <trkpt lat="48.57674" lon="1.94595">
        <ele>143.37</ele>
        <time>2018-01-13T09:32:33Z</time>
      </trkpt>
      <trkpt lat="48.57671" lon="1.94592">
        <ele>143.37</ele>
        <time>2018-01-13T09:32:36Z</time>
      </trkpt>
      <trkpt lat="48.57667" lon="1.94583">
        <ele>143.85</ele>
        <time>2018-01-13T09:32:43Z</time>
      </trkpt>
      <trkpt lat="48.57666" lon="1.94573">
        <ele>143.85</ele>
        <time>2018-01-13T09:32:49Z</time>
      </trkpt>
      <trkpt lat="48.57665" lon="1.94569">
        <ele>143.85</ele>
        <time>2018-01-13T09:32:52Z</time>
      </trkpt>
      <trkpt lat="48.57659" lon="1.94558">
        <ele>143.85</ele>
        <time>2018-01-13T09:33:00Z</time>
      </trkpt>
      <trkpt lat="48.57657" lon="1.94551">
        <ele>144.34</ele>
        <time>2018-01-13T09:33:05Z</time>
      </trkpt>
      <trkpt lat="48.57649" lon="1.94543">
        <ele>144.34</ele>
        <time>2018-01-13T09:33:12Z</time>
      </trkpt>
      <trkpt lat="48.57643" lon="1.94539">
        <ele>144.82</ele>
        <time>2018-01-13T09:33:19Z</time>
      </trkpt>
      <trkpt lat="48.57642" lon="1.94531">
        <ele>144.82</ele>
        <time>2018-01-13T09:33:25Z</time>
      </trkpt>
      <trkpt lat="48.5764" lon="1.94516">
        <ele>144.82</ele>
        <time>2018-01-13T09:33:31Z</time>
      </trkpt>
      <trkpt lat="48.57636" lon="1.94505">
        <ele>145.3</ele>
        <time>2018-01-13T09:33:38Z</time>
      </trkpt>
      <trkpt lat="48.57635" lon="1.94497">
        <ele>145.3</ele>
        <time>2018-01-13T09:33:44Z</time>
      </trkpt>
      <trkpt lat="48.5763" lon="1.94487">
        <ele>145.3</ele>
        <time>2018-01-13T09:33:50Z</time>
      </trkpt>
      <trkpt lat="48.57626" lon="1.94477">
        <ele>145.78</ele>
        <time>2018-01-13T09:33:57Z</time>
      </trkpt>
      <trkpt lat="48.57621" lon="1.94466">
        <ele>145.78</ele>
        <time>2018-01-13T09:34:04Z</time>
      </trkpt>
      <trkpt lat="48.5762" lon="1.9446">
        <ele>145.78</ele>
        <time>2018-01-13T09:34:11Z</time>
      </trkpt>
      <trkpt lat="48.57617" lon="1.94454">
        <ele>146.26</ele>
        <time>2018-01-13T09:34:16Z</time>
      </trkpt>
      <trkpt lat="48.57621" lon="1.94444">
        <ele>146.26</ele>
        <time>2018-01-13T09:34:22Z</time>
      </trkpt>
      <trkpt lat="48.57619" lon="1.94433">
        <ele>146.26</ele>
        <time>2018-01-13T09:34:28Z</time>
      </trkpt>
      <trkpt lat="48.57614" lon="1.94425">
        <ele>146.26</ele>
        <time>2018-01-13T09:34:35Z</time>
      </trkpt>
      <trkpt lat="48.57613" lon="1.94424">
        <ele>146.26</ele>
        <time>2018-01-13T09:34:36Z</time>
      </trkpt>
      <trkpt lat="48.57611" lon="1.94419">
        <ele>146.74</ele>
        <time>2018-01-13T09:34:40Z</time>
      </trkpt>
      <trkpt lat="48.57608" lon="1.94415">
        <ele>146.26</ele>
        <time>2018-01-13T09:34:44Z</time>
      </trkpt>
      <trkpt lat="48.57605" lon="1.94413">
        <ele>146.26</ele>
        <time>2018-01-13T09:34:46Z</time>
      </trkpt>
      <trkpt lat="48.57601" lon="1.94406">
        <ele>146.74</ele>
        <time>2018-01-13T09:34:52Z</time>
      </trkpt>
      <trkpt lat="48.576" lon="1.94403">
        <ele>146.74</ele>
        <time>2018-01-13T09:34:54Z</time>
      </trkpt>
      <trkpt lat="48.57592" lon="1.94396">
        <ele>146.74</ele>
        <time>2018-01-13T09:35:03Z</time>
      </trkpt>
      <trkpt lat="48.57591" lon="1.94395">
        <ele>146.74</ele>
        <time>2018-01-13T09:35:04Z</time>
      </trkpt>
      <trkpt lat="48.57585" lon="1.94391">
        <ele>146.74</ele>
        <time>2018-01-13T09:35:10Z</time>
      </trkpt>
      <trkpt lat="48.57576" lon="1.94387">
        <ele>146.74</ele>
        <time>2018-01-13T09:35:16Z</time>
      </trkpt>
      <trkpt lat="48.5757" lon="1.94383">
        <ele>147.22</ele>
        <time>2018-01-13T09:35:21Z</time>
      </trkpt>
      <trkpt lat="48.57563" lon="1.94379">
        <ele>147.22</ele>
        <time>2018-01-13T09:35:26Z</time>
      </trkpt>
      <trkpt lat="48.5756" lon="1.94367">
        <ele>147.7</ele>
        <time>2018-01-13T09:35:34Z</time>
      </trkpt>
      <trkpt lat="48.57557" lon="1.94359">
        <ele>147.7</ele>
        <time>2018-01-13T09:35:40Z</time>
      </trkpt>
      <trkpt lat="48.57551" lon="1.94352">
        <ele>148.18</ele>
        <time>2018-01-13T09:35:47Z</time>
      </trkpt>
      <trkpt lat="48.57551" lon="1.94351">
        <ele>148.18</ele>
        <time>2018-01-13T09:35:52Z</time>
      </trkpt>
      <trkpt lat="48.57551" lon="1.9435">
        <ele>148.18</ele>
        <time>2018-01-13T09:35:54Z</time>
      </trkpt>
      <trkpt lat="48.57547" lon="1.9434">
        <ele>148.18</ele>
        <time>2018-01-13T09:35:59Z</time>
      </trkpt>
      <trkpt lat="48.57546" lon="1.94329">
        <ele>148.18</ele>
        <time>2018-01-13T09:36:04Z</time>
      </trkpt>
      <trkpt lat="48.57543" lon="1.94318">
        <ele>148.66</ele>
        <time>2018-01-13T09:36:11Z</time>
      </trkpt>
      <trkpt lat="48.5754" lon="1.94311">
        <ele>148.66</ele>
        <time>2018-01-13T09:36:15Z</time>
      </trkpt>
      <trkpt lat="48.57539" lon="1.94296">
        <ele>148.66</ele>
        <time>2018-01-13T09:36:22Z</time>
      </trkpt>
      <trkpt lat="48.57536" lon="1.94289">
        <ele>149.14</ele>
        <time>2018-01-13T09:36:26Z</time>
      </trkpt>
      <trkpt lat="48.5753" lon="1.94276">
        <ele>149.14</ele>
        <time>2018-01-13T09:36:35Z</time>
      </trkpt>
      <trkpt lat="48.57529" lon="1.94274">
        <ele>149.14</ele>
        <time>2018-01-13T09:36:37Z</time>
      </trkpt>
      <trkpt lat="48.57527" lon="1.94266">
        <ele>149.14</ele>
        <time>2018-01-13T09:36:43Z</time>
      </trkpt>
      <trkpt lat="48.5752" lon="1.94258">
        <ele>149.62</ele>
        <time>2018-01-13T09:36:50Z</time>
      </trkpt>
      <trkpt lat="48.57519" lon="1.94251">
        <ele>149.62</ele>
        <time>2018-01-13T09:36:54Z</time>
      </trkpt>
      <trkpt lat="48.57522" lon="1.94239">
        <ele>150.1</ele>
        <time>2018-01-13T09:37:01Z</time>
      </trkpt>
      <trkpt lat="48.57522" lon="1.94234">
        <ele>150.1</ele>
        <time>2018-01-13T09:37:06Z</time>
      </trkpt>
      <trkpt lat="48.57522" lon="1.9423">
        <ele>150.1</ele>
        <time>2018-01-13T09:37:08Z</time>
      </trkpt>
      <trkpt lat="48.57518" lon="1.94222">
        <ele>149.62</ele>
        <time>2018-01-13T09:37:15Z</time>
      </trkpt>
      <trkpt lat="48.57514" lon="1.94215">
        <ele>150.1</ele>
        <time>2018-01-13T09:37:20Z</time>
      </trkpt>
      <trkpt lat="48.57506" lon="1.94211">
        <ele>149.62</ele>
        <time>2018-01-13T09:37:27Z</time>
      </trkpt>
      <trkpt lat="48.57504" lon="1.942">
        <ele>149.62</ele>
        <time>2018-01-13T09:37:34Z</time>
      </trkpt>
      <trkpt lat="48.575" lon="1.94189">
        <ele>149.62</ele>
        <time>2018-01-13T09:37:41Z</time>
      </trkpt>
      <trkpt lat="48.57497" lon="1.94183">
        <ele>149.62</ele>
        <time>2018-01-13T09:37:46Z</time>
      </trkpt>
      <trkpt lat="48.57496" lon="1.94168">
        <ele>150.1</ele>
        <time>2018-01-13T09:37:53Z</time>
      </trkpt>
      <trkpt lat="48.57493" lon="1.94162">
        <ele>150.1</ele>
        <time>2018-01-13T09:37:57Z</time>
      </trkpt>
      <trkpt lat="48.57491" lon="1.9416">
        <ele>150.1</ele>
        <time>2018-01-13T09:37:59Z</time>
      </trkpt>
      <trkpt lat="48.57485" lon="1.94154">
        <ele>150.1</ele>
        <time>2018-01-13T09:38:06Z</time>
      </trkpt>
      <trkpt lat="48.5748" lon="1.94149">
        <ele>150.1</ele>
        <time>2018-01-13T09:38:13Z</time>
      </trkpt>
      <trkpt lat="48.57479" lon="1.94147">
        <ele>150.1</ele>
        <time>2018-01-13T09:38:14Z</time>
      </trkpt>
      <trkpt lat="48.57471" lon="1.94132">
        <ele>150.58</ele>
        <time>2018-01-13T09:38:23Z</time>
      </trkpt>
      <trkpt lat="48.57468" lon="1.9412">
        <ele>150.1</ele>
        <time>2018-01-13T09:38:31Z</time>
      </trkpt>
      <trkpt lat="48.57466" lon="1.94115">
        <ele>150.58</ele>
        <time>2018-01-13T09:38:38Z</time>
      </trkpt>
      <trkpt lat="48.57469" lon="1.94108">
        <ele>150.58</ele>
        <time>2018-01-13T09:38:50Z</time>
      </trkpt>
      <trkpt lat="48.5747" lon="1.94106">
        <ele>150.58</ele>
        <time>2018-01-13T09:38:55Z</time>
      </trkpt>
      <trkpt lat="48.57475" lon="1.94094">
        <ele>150.58</ele>
        <time>2018-01-13T09:39:03Z</time>
      </trkpt>
      <trkpt lat="48.57478" lon="1.94092">
        <ele>150.58</ele>
        <time>2018-01-13T09:39:17Z</time>
      </trkpt>
      <trkpt lat="48.57478" lon="1.94092">
        <ele>150.58</ele>
        <time>2018-01-13T09:39:26Z</time>
      </trkpt>
      <trkpt lat="48.57478" lon="1.94092">
        <ele>151.06</ele>
        <time>2018-01-13T09:39:35Z</time>
      </trkpt>
      <trkpt lat="48.57479" lon="1.94092">
        <ele>150.58</ele>
        <time>2018-01-13T09:39:45Z</time>
      </trkpt>
      <trkpt lat="48.57479" lon="1.94092">
        <ele>150.58</ele>
        <time>2018-01-13T09:39:56Z</time>
      </trkpt>
      <trkpt lat="48.57479" lon="1.94092">
        <ele>150.1</ele>
        <time>2018-01-13T09:40:05Z</time>
      </trkpt>
      <trkpt lat="48.57479" lon="1.94092">
        <ele>150.1</ele>
        <time>2018-01-13T09:40:22Z</time>
      </trkpt>
      <trkpt lat="48.57479" lon="1.94092">
        <ele>149.62</ele>
        <time>2018-01-13T09:40:39Z</time>
      </trkpt>
      <trkpt lat="48.5748" lon="1.94091">
        <ele>149.62</ele>
        <time>2018-01-13T09:40:45Z</time>
      </trkpt>
      <trkpt lat="48.57481" lon="1.9409">
        <ele>149.14</ele>
        <time>2018-01-13T09:40:51Z</time>
      </trkpt>
      <trkpt lat="48.57481" lon="1.94089">
        <ele>149.14</ele>
        <time>2018-01-13T09:40:59Z</time>
      </trkpt>
      <trkpt lat="48.57481" lon="1.94089">
        <ele>148.66</ele>
        <time>2018-01-13T09:41:10Z</time>
      </trkpt>
      <trkpt lat="48.57481" lon="1.94088">
        <ele>149.14</ele>
        <time>2018-01-13T09:41:21Z</time>
      </trkpt>
      <trkpt lat="48.57481" lon="1.94088">
        <ele>148.66</ele>
        <time>2018-01-13T09:41:29Z</time>
      </trkpt>
      <trkpt lat="48.5748" lon="1.94087">
        <ele>148.66</ele>
        <time>2018-01-13T09:41:35Z</time>
      </trkpt>
      <trkpt lat="48.5748" lon="1.94088">
        <ele>148.66</ele>
        <time>2018-01-13T09:41:41Z</time>
      </trkpt>
      <trkpt lat="48.5748" lon="1.94087">
        <ele>148.66</ele>
        <time>2018-01-13T09:41:54Z</time>
      </trkpt>
      <trkpt lat="48.57479" lon="1.94088">
        <ele>148.66</ele>
        <time>2018-01-13T09:42:00Z</time>
      </trkpt>
      <trkpt lat="48.57477" lon="1.94089">
        <ele>148.18</ele>
        <time>2018-01-13T09:42:18Z</time>
      </trkpt>
      <trkpt lat="48.57476" lon="1.94089">
        <ele>148.18</ele>
        <time>2018-01-13T09:42:34Z</time>
      </trkpt>
      <trkpt lat="48.57476" lon="1.94089">
        <ele>147.7</ele>
        <time>2018-01-13T09:42:51Z</time>
      </trkpt>
      <trkpt lat="48.57476" lon="1.94089">
        <ele>147.7</ele>
        <time>2018-01-13T09:43:02Z</time>
      </trkpt>
      <trkpt lat="48.57477" lon="1.94088">
        <ele>147.7</ele>
        <time>2018-01-13T09:43:17Z</time>
      </trkpt>
      <trkpt lat="48.57477" lon="1.94087">
        <ele>147.7</ele>
        <time>2018-01-13T09:43:30Z</time>
      </trkpt>
      <trkpt lat="48.57477" lon="1.94087">
        <ele>147.22</ele>
        <time>2018-01-13T09:43:48Z</time>
      </trkpt>
      <trkpt lat="48.57477" lon="1.94087">
        <ele>147.22</ele>
        <time>2018-01-13T09:43:58Z</time>
      </trkpt>
      <trkpt lat="48.57477" lon="1.94087">
        <ele>147.22</ele>
        <time>2018-01-13T09:44:12Z</time>
      </trkpt>
      <trkpt lat="48.57478" lon="1.94086">
        <ele>146.74</ele>
        <time>2018-01-13T09:44:27Z</time>
      </trkpt>
      <trkpt lat="48.57477" lon="1.94087">
        <ele>146.74</ele>
        <time>2018-01-13T09:44:39Z</time>
      </trkpt>
      <trkpt lat="48.57477" lon="1.94087">
        <ele>146.74</ele>
        <time>2018-01-13T09:44:54Z</time>
      </trkpt>
      <trkpt lat="48.57476" lon="1.94087">
        <ele>146.26</ele>
        <time>2018-01-13T09:45:11Z</time>
      </trkpt>
      <trkpt lat="48.57476" lon="1.94086">
        <ele>146.26</ele>
        <time>2018-01-13T09:45:30Z</time>
      </trkpt>
      <trkpt lat="48.57476" lon="1.94087">
        <ele>146.26</ele>
        <time>2018-01-13T09:45:35Z</time>
      </trkpt>
      <trkpt lat="48.57477" lon="1.94087">
        <ele>146.26</ele>
        <time>2018-01-13T09:45:51Z</time>
      </trkpt>
      <trkpt lat="48.57476" lon="1.94087">
        <ele>146.26</ele>
        <time>2018-01-13T09:46:11Z</time>
      </trkpt>
      <trkpt lat="48.57477" lon="1.94088">
        <ele>145.78</ele>
        <time>2018-01-13T09:46:20Z</time>
      </trkpt>
      <trkpt lat="48.57477" lon="1.94088">
        <ele>145.78</ele>
        <time>2018-01-13T09:46:34Z</time>
      </trkpt>
      <trkpt lat="48.57478" lon="1.94089">
        <ele>145.78</ele>
        <time>2018-01-13T09:46:47Z</time>
      </trkpt>
      <trkpt lat="48.57478" lon="1.94089">
        <ele>145.78</ele>
        <time>2018-01-13T09:47:02Z</time>
      </trkpt>
      <trkpt lat="48.57477" lon="1.94088">
        <ele>145.3</ele>
        <time>2018-01-13T09:47:17Z</time>
      </trkpt>
      <trkpt lat="48.57478" lon="1.94088">
        <ele>145.3</ele>
        <time>2018-01-13T09:47:32Z</time>
      </trkpt>
      <trkpt lat="48.57478" lon="1.94088">
        <ele>144.82</ele>
        <time>2018-01-13T09:47:48Z</time>
      </trkpt>
      <trkpt lat="48.57478" lon="1.94087">
        <ele>144.82</ele>
        <time>2018-01-13T09:48:09Z</time>
      </trkpt>
      <trkpt lat="48.57478" lon="1.94087">
        <ele>144.82</ele>
        <time>2018-01-13T09:48:26Z</time>
      </trkpt>
      <trkpt lat="48.57478" lon="1.94087">
        <ele>144.82</ele>
        <time>2018-01-13T09:48:52Z</time>
      </trkpt>
      <trkpt lat="48.57478" lon="1.94087">
        <ele>144.34</ele>
        <time>2018-01-13T09:49:11Z</time>
      </trkpt>
      <trkpt lat="48.57477" lon="1.94087">
        <ele>144.34</ele>
        <time>2018-01-13T09:49:17Z</time>
      </trkpt>
      <trkpt lat="48.57477" lon="1.94089">
        <ele>144.34</ele>
        <time>2018-01-13T09:49:24Z</time>
      </trkpt>
      <trkpt lat="48.57477" lon="1.94088">
        <ele>144.34</ele>
        <time>2018-01-13T09:49:33Z</time>
      </trkpt>
      <trkpt lat="48.57476" lon="1.94088">
        <ele>144.34</ele>
        <time>2018-01-13T09:49:43Z</time>
      </trkpt>
      <trkpt lat="48.57475" lon="1.94088">
        <ele>144.34</ele>
        <time>2018-01-13T09:49:56Z</time>
      </trkpt>
      <trkpt lat="48.57476" lon="1.94088">
        <ele>143.85</ele>
        <time>2018-01-13T09:50:10Z</time>
      </trkpt>
      <trkpt lat="48.57476" lon="1.94087">
        <ele>144.34</ele>
        <time>2018-01-13T09:50:31Z</time>
      </trkpt>
      <trkpt lat="48.57476" lon="1.94088">
        <ele>143.37</ele>
        <time>2018-01-13T09:50:45Z</time>
      </trkpt>
      <trkpt lat="48.57476" lon="1.94087">
        <ele>143.85</ele>
        <time>2018-01-13T09:50:54Z</time>
      </trkpt>
      <trkpt lat="48.57474" lon="1.94076">
        <ele>143.37</ele>
        <time>2018-01-13T09:51:02Z</time>
      </trkpt>
      <trkpt lat="48.57473" lon="1.94073">
        <ele>143.37</ele>
        <time>2018-01-13T09:51:05Z</time>
      </trkpt>
      <trkpt lat="48.57476" lon="1.94068">
        <ele>143.37</ele>
        <time>2018-01-13T09:51:11Z</time>
      </trkpt>
      <trkpt lat="48.57477" lon="1.94065">
        <ele>143.85</ele>
        <time>2018-01-13T09:51:15Z</time>
      </trkpt>
      <trkpt lat="48.57479" lon="1.94064">
        <ele>144.34</ele>
        <time>2018-01-13T09:51:18Z</time>
      </trkpt>
      <trkpt lat="48.57481" lon="1.94058">
        <ele>144.82</ele>
        <time>2018-01-13T09:51:22Z</time>
      </trkpt>
      <trkpt lat="48.57479" lon="1.94051">
        <ele>144.82</ele>
        <time>2018-01-13T09:51:27Z</time>
      </trkpt>
      <trkpt lat="48.57478" lon="1.94046">
        <ele>144.82</ele>
        <time>2018-01-13T09:51:31Z</time>
      </trkpt>
      <trkpt lat="48.57472" lon="1.94033">
        <ele>144.82</ele>
        <time>2018-01-13T09:51:40Z</time>
      </trkpt>
      <trkpt lat="48.57468" lon="1.94021">
        <ele>145.3</ele>
        <time>2018-01-13T09:51:48Z</time>
      </trkpt>
      <trkpt lat="48.57463" lon="1.94009">
        <ele>145.3</ele>
        <time>2018-01-13T09:51:56Z</time>
      </trkpt>
      <trkpt lat="48.57459" lon="1.94001">
        <ele>145.3</ele>
        <time>2018-01-13T09:52:03Z</time>
      </trkpt>
      <trkpt lat="48.57454" lon="1.93987">
        <ele>145.78</ele>
        <time>2018-01-13T09:52:13Z</time>
      </trkpt>
      <trkpt lat="48.57451" lon="1.93981">
        <ele>145.78</ele>
        <time>2018-01-13T09:52:17Z</time>
      </trkpt>
      <trkpt lat="48.57448" lon="1.93967">
        <ele>146.26</ele>
        <time>2018-01-13T09:52:26Z</time>
      </trkpt>
      <trkpt lat="48.57443" lon="1.93956">
        <ele>146.74</ele>
        <time>2018-01-13T09:52:34Z</time>
      </trkpt>
      <trkpt lat="48.5744" lon="1.93946">
        <ele>147.22</ele>
        <time>2018-01-13T09:52:41Z</time>
      </trkpt>
      <trkpt lat="48.5744" lon="1.93944">
        <ele>147.22</ele>
        <time>2018-01-13T09:52:43Z</time>
      </trkpt>
      <trkpt lat="48.5744" lon="1.93937">
        <ele>148.18</ele>
        <time>2018-01-13T09:52:48Z</time>
      </trkpt>
      <trkpt lat="48.57437" lon="1.93928">
        <ele>148.66</ele>
        <time>2018-01-13T09:52:56Z</time>
      </trkpt>
      <trkpt lat="48.57439" lon="1.93922">
        <ele>148.66</ele>
        <time>2018-01-13T09:53:02Z</time>
      </trkpt>
      <trkpt lat="48.57445" lon="1.93914">
        <ele>149.14</ele>
        <time>2018-01-13T09:53:10Z</time>
      </trkpt>
      <trkpt lat="48.5745" lon="1.93905">
        <ele>149.14</ele>
        <time>2018-01-13T09:53:18Z</time>
      </trkpt>
      <trkpt lat="48.57452" lon="1.93903">
        <ele>148.66</ele>
        <time>2018-01-13T09:53:21Z</time>
      </trkpt>
      <trkpt lat="48.57451" lon="1.93892">
        <ele>148.66</ele>
        <time>2018-01-13T09:53:28Z</time>
      </trkpt>
      <trkpt lat="48.57451" lon="1.93881">
        <ele>148.66</ele>
        <time>2018-01-13T09:53:35Z</time>
      </trkpt>
      <trkpt lat="48.5745" lon="1.93872">
        <ele>148.66</ele>
        <time>2018-01-13T09:53:40Z</time>
      </trkpt>
      <trkpt lat="48.5745" lon="1.93861">
        <ele>149.14</ele>
        <time>2018-01-13T09:53:47Z</time>
      </trkpt>
      <trkpt lat="48.57452" lon="1.93858">
        <ele>149.14</ele>
        <time>2018-01-13T09:53:49Z</time>
      </trkpt>
      <trkpt lat="48.57454" lon="1.93848">
        <ele>149.14</ele>
        <time>2018-01-13T09:53:56Z</time>
      </trkpt>
      <trkpt lat="48.57456" lon="1.93839">
        <ele>149.14</ele>
        <time>2018-01-13T09:54:01Z</time>
      </trkpt>
      <trkpt lat="48.57461" lon="1.93823">
        <ele>149.14</ele>
        <time>2018-01-13T09:54:10Z</time>
      </trkpt>
      <trkpt lat="48.57465" lon="1.9381">
        <ele>149.62</ele>
        <time>2018-01-13T09:54:18Z</time>
      </trkpt>
      <trkpt lat="48.57466" lon="1.93806">
        <ele>149.62</ele>
        <time>2018-01-13T09:54:20Z</time>
      </trkpt>
      <trkpt lat="48.5747" lon="1.93796">
        <ele>149.62</ele>
        <time>2018-01-13T09:54:26Z</time>
      </trkpt>
      <trkpt lat="48.5747" lon="1.93791">
        <ele>149.62</ele>
        <time>2018-01-13T09:54:29Z</time>
      </trkpt>
      <trkpt lat="48.57474" lon="1.93776">
        <ele>150.1</ele>
        <time>2018-01-13T09:54:39Z</time>
      </trkpt>
      <trkpt lat="48.57479" lon="1.93757">
        <ele>150.58</ele>
        <time>2018-01-13T09:54:49Z</time>
      </trkpt>
      <trkpt lat="48.57482" lon="1.93743">
        <ele>151.06</ele>
        <time>2018-01-13T09:54:57Z</time>
      </trkpt>
      <trkpt lat="48.57484" lon="1.93735">
        <ele>151.06</ele>
        <time>2018-01-13T09:55:02Z</time>
      </trkpt>
      <trkpt lat="48.57485" lon="1.9372">
        <ele>151.54</ele>
        <time>2018-01-13T09:55:11Z</time>
      </trkpt>
      <trkpt lat="48.57485" lon="1.93714">
        <ele>151.54</ele>
        <time>2018-01-13T09:55:14Z</time>
      </trkpt>
      <trkpt lat="48.57484" lon="1.93707">
        <ele>151.54</ele>
        <time>2018-01-13T09:55:17Z</time>
      </trkpt>
      <trkpt lat="48.57486" lon="1.93699">
        <ele>151.54</ele>
        <time>2018-01-13T09:55:22Z</time>
      </trkpt>
      <trkpt lat="48.57486" lon="1.93696">
        <ele>152.03</ele>
        <time>2018-01-13T09:55:24Z</time>
      </trkpt>
      <trkpt lat="48.57486" lon="1.93683">
        <ele>152.51</ele>
        <time>2018-01-13T09:55:31Z</time>
      </trkpt>
      <trkpt lat="48.57486" lon="1.93673">
        <ele>152.03</ele>
        <time>2018-01-13T09:55:38Z</time>
      </trkpt>
      <trkpt lat="48.57486" lon="1.9366">
        <ele>152.51</ele>
        <time>2018-01-13T09:55:46Z</time>
      </trkpt>
      <trkpt lat="48.57484" lon="1.93652">
        <ele>152.99</ele>
        <time>2018-01-13T09:55:51Z</time>
      </trkpt>
      <trkpt lat="48.57484" lon="1.93645">
        <ele>153.47</ele>
        <time>2018-01-13T09:55:57Z</time>
      </trkpt>
      <trkpt lat="48.57483" lon="1.93639">
        <ele>153.47</ele>
        <time>2018-01-13T09:56:02Z</time>
      </trkpt>
      <trkpt lat="48.57483" lon="1.93627">
        <ele>153.95</ele>
        <time>2018-01-13T09:56:09Z</time>
      </trkpt>
      <trkpt lat="48.57483" lon="1.9362">
        <ele>154.43</ele>
        <time>2018-01-13T09:56:15Z</time>
      </trkpt>
      <trkpt lat="48.57482" lon="1.93614">
        <ele>154.91</ele>
        <time>2018-01-13T09:56:20Z</time>
      </trkpt>
      <trkpt lat="48.57482" lon="1.93607">
        <ele>155.39</ele>
        <time>2018-01-13T09:56:25Z</time>
      </trkpt>
      <trkpt lat="48.57481" lon="1.93604">
        <ele>155.39</ele>
        <time>2018-01-13T09:56:30Z</time>
      </trkpt>
      <trkpt lat="48.57483" lon="1.93596">
        <ele>155.87</ele>
        <time>2018-01-13T09:56:34Z</time>
      </trkpt>
      <trkpt lat="48.57484" lon="1.93588">
        <ele>156.35</ele>
        <time>2018-01-13T09:56:40Z</time>
      </trkpt>
      <trkpt lat="48.57487" lon="1.93576">
        <ele>157.31</ele>
        <time>2018-01-13T09:56:48Z</time>
      </trkpt>
      <trkpt lat="48.57488" lon="1.93574">
        <ele>157.31</ele>
        <time>2018-01-13T09:56:49Z</time>
      </trkpt>
      <trkpt lat="48.57491" lon="1.93562">
        <ele>157.79</ele>
        <time>2018-01-13T09:56:57Z</time>
      </trkpt>
      <trkpt lat="48.57494" lon="1.93552">
        <ele>158.75</ele>
        <time>2018-01-13T09:57:04Z</time>
      </trkpt>
      <trkpt lat="48.57495" lon="1.93549">
        <ele>158.75</ele>
        <time>2018-01-13T09:57:06Z</time>
      </trkpt>
      <trkpt lat="48.575" lon="1.93541">
        <ele>159.24</ele>
        <time>2018-01-13T09:57:12Z</time>
      </trkpt>
      <trkpt lat="48.57501" lon="1.9354">
        <ele>159.72</ele>
        <time>2018-01-13T09:57:13Z</time>
      </trkpt>
      <trkpt lat="48.57503" lon="1.93531">
        <ele>160.2</ele>
        <time>2018-01-13T09:57:19Z</time>
      </trkpt>
      <trkpt lat="48.57508" lon="1.93521">
        <ele>160.68</ele>
        <time>2018-01-13T09:57:25Z</time>
      </trkpt>
      <trkpt lat="48.57514" lon="1.93511">
        <ele>161.16</ele>
        <time>2018-01-13T09:57:30Z</time>
      </trkpt>
      <trkpt lat="48.57518" lon="1.93497">
        <ele>161.64</ele>
        <time>2018-01-13T09:57:37Z</time>
      </trkpt>
      <trkpt lat="48.57523" lon="1.93484">
        <ele>162.12</ele>
        <time>2018-01-13T09:57:43Z</time>
      </trkpt>
      <trkpt lat="48.57531" lon="1.93471">
        <ele>163.08</ele>
        <time>2018-01-13T09:57:50Z</time>
      </trkpt>
      <trkpt lat="48.57536" lon="1.93463">
        <ele>163.56</ele>
        <time>2018-01-13T09:57:56Z</time>
      </trkpt>
      <trkpt lat="48.57539" lon="1.93456">
        <ele>164.04</ele>
        <time>2018-01-13T09:58:03Z</time>
      </trkpt>
      <trkpt lat="48.5754" lon="1.93454">
        <ele>164.52</ele>
        <time>2018-01-13T09:58:05Z</time>
      </trkpt>
      <trkpt lat="48.57543" lon="1.93446">
        <ele>165</ele>
        <time>2018-01-13T09:58:11Z</time>
      </trkpt>
      <trkpt lat="48.57547" lon="1.93435">
        <ele>165.96</ele>
        <time>2018-01-13T09:58:18Z</time>
      </trkpt>
      <trkpt lat="48.5755" lon="1.93428">
        <ele>166.45</ele>
        <time>2018-01-13T09:58:24Z</time>
      </trkpt>
      <trkpt lat="48.57552" lon="1.93422">
        <ele>167.41</ele>
        <time>2018-01-13T09:58:29Z</time>
      </trkpt>
      <trkpt lat="48.57555" lon="1.93418">
        <ele>168.85</ele>
        <time>2018-01-13T09:58:32Z</time>
      </trkpt>
      <trkpt lat="48.57561" lon="1.93406">
        <ele>168.37</ele>
        <time>2018-01-13T09:58:38Z</time>
      </trkpt>
      <trkpt lat="48.57564" lon="1.93399">
        <ele>168.85</ele>
        <time>2018-01-13T09:58:42Z</time>
      </trkpt>
      <trkpt lat="48.57567" lon="1.93397">
        <ele>169.33</ele>
        <time>2018-01-13T09:58:45Z</time>
      </trkpt>
      <trkpt lat="48.5757" lon="1.93391">
        <ele>169.81</ele>
        <time>2018-01-13T09:58:51Z</time>
      </trkpt>
      <trkpt lat="48.57574" lon="1.93384">
        <ele>170.29</ele>
        <time>2018-01-13T09:58:56Z</time>
      </trkpt>
      <trkpt lat="48.57576" lon="1.93382">
        <ele>170.77</ele>
        <time>2018-01-13T09:58:59Z</time>
      </trkpt>
      <trkpt lat="48.57578" lon="1.9338">
        <ele>171.25</ele>
        <time>2018-01-13T09:59:01Z</time>
      </trkpt>
      <trkpt lat="48.5758" lon="1.93376">
        <ele>171.25</ele>
        <time>2018-01-13T09:59:05Z</time>
      </trkpt>
      <trkpt lat="48.57586" lon="1.9337">
        <ele>172.21</ele>
        <time>2018-01-13T09:59:10Z</time>
      </trkpt>
      <trkpt lat="48.5759" lon="1.93365">
        <ele>173.17</ele>
        <time>2018-01-13T09:59:17Z</time>
      </trkpt>
      <trkpt lat="48.57592" lon="1.9336">
        <ele>173.17</ele>
        <time>2018-01-13T09:59:22Z</time>
      </trkpt>
      <trkpt lat="48.57595" lon="1.93357">
        <ele>173.66</ele>
        <time>2018-01-13T09:59:26Z</time>
      </trkpt>
      <trkpt lat="48.57599" lon="1.93352">
        <ele>174.14</ele>
        <time>2018-01-13T09:59:31Z</time>
      </trkpt>
      <trkpt lat="48.57604" lon="1.93346">
        <ele>174.62</ele>
        <time>2018-01-13T09:59:36Z</time>
      </trkpt>
      <trkpt lat="48.5761" lon="1.93337">
        <ele>175.1</ele>
        <time>2018-01-13T09:59:42Z</time>
      </trkpt>
      <trkpt lat="48.57616" lon="1.93333">
        <ele>175.58</ele>
        <time>2018-01-13T09:59:48Z</time>
      </trkpt>
      <trkpt lat="48.5762" lon="1.93325">
        <ele>176.06</ele>
        <time>2018-01-13T09:59:54Z</time>
      </trkpt>
      <trkpt lat="48.57622" lon="1.93321">
        <ele>176.54</ele>
        <time>2018-01-13T09:59:57Z</time>
      </trkpt>
      <trkpt lat="48.57622" lon="1.93313">
        <ele>176.54</ele>
        <time>2018-01-13T10:00:01Z</time>
      </trkpt>
      <trkpt lat="48.57619" lon="1.93306">
        <ele>177.5</ele>
        <time>2018-01-13T10:00:05Z</time>
      </trkpt>
      <trkpt lat="48.5762" lon="1.93298">
        <ele>177.98</ele>
        <time>2018-01-13T10:00:12Z</time>
      </trkpt>
      <trkpt lat="48.57623" lon="1.93294">
        <ele>177.98</ele>
        <time>2018-01-13T10:00:26Z</time>
      </trkpt>
      <trkpt lat="48.57624" lon="1.93293">
        <ele>177.98</ele>
        <time>2018-01-13T10:00:39Z</time>
      </trkpt>
      <trkpt lat="48.57623" lon="1.93294">
        <ele>177.98</ele>
        <time>2018-01-13T10:00:40Z</time>
      </trkpt>
      <trkpt lat="48.57623" lon="1.93295">
        <ele>177.98</ele>
        <time>2018-01-13T10:00:42Z</time>
      </trkpt>
      <trkpt lat="48.57624" lon="1.93298">
        <ele>177.5</ele>
        <time>2018-01-13T10:00:46Z</time>
      </trkpt>
      <trkpt lat="48.57626" lon="1.93301">
        <ele>176.54</ele>
        <time>2018-01-13T10:00:50Z</time>
      </trkpt>
      <trkpt lat="48.57632" lon="1.93305">
        <ele>176.06</ele>
        <time>2018-01-13T10:00:55Z</time>
      </trkpt>
      <trkpt lat="48.5764" lon="1.93299">
        <ele>176.54</ele>
        <time>2018-01-13T10:01:02Z</time>
      </trkpt>
      <trkpt lat="48.57647" lon="1.93294">
        <ele>176.54</ele>
        <time>2018-01-13T10:01:09Z</time>
      </trkpt>
      <trkpt lat="48.57655" lon="1.9329">
        <ele>177.02</ele>
        <time>2018-01-13T10:01:17Z</time>
      </trkpt>
      <trkpt lat="48.57658" lon="1.93289">
        <ele>177.02</ele>
        <time>2018-01-13T10:01:20Z</time>
      </trkpt>
      <trkpt lat="48.57665" lon="1.9328">
        <ele>177.5</ele>
        <time>2018-01-13T10:01:27Z</time>
      </trkpt>
      <trkpt lat="48.57674" lon="1.9327">
        <ele>177.5</ele>
        <time>2018-01-13T10:01:34Z</time>
      </trkpt>
      <trkpt lat="48.57681" lon="1.93264">
        <ele>177.5</ele>
        <time>2018-01-13T10:01:39Z</time>
      </trkpt>
      <trkpt lat="48.57689" lon="1.93257">
        <ele>177.5</ele>
        <time>2018-01-13T10:01:46Z</time>
      </trkpt>
      <trkpt lat="48.57694" lon="1.93252">
        <ele>177.98</ele>
        <time>2018-01-13T10:01:51Z</time>
      </trkpt>
      <trkpt lat="48.57695" lon="1.93251">
        <ele>177.98</ele>
        <time>2018-01-13T10:01:52Z</time>
      </trkpt>
      <trkpt lat="48.57703" lon="1.93244">
        <ele>177.98</ele>
        <time>2018-01-13T10:01:59Z</time>
      </trkpt>
      <trkpt lat="48.5771" lon="1.93237">
        <ele>177.98</ele>
        <time>2018-01-13T10:02:05Z</time>
      </trkpt>
      <trkpt lat="48.57719" lon="1.93229">
        <ele>177.98</ele>
        <time>2018-01-13T10:02:12Z</time>
      </trkpt>
      <trkpt lat="48.5772" lon="1.93228">
        <ele>177.98</ele>
        <time>2018-01-13T10:02:13Z</time>
      </trkpt>
      <trkpt lat="48.57726" lon="1.93223">
        <ele>177.5</ele>
        <time>2018-01-13T10:02:18Z</time>
      </trkpt>
      <trkpt lat="48.57737" lon="1.93214">
        <ele>177.98</ele>
        <time>2018-01-13T10:02:27Z</time>
      </trkpt>
      <trkpt lat="48.5774" lon="1.93209">
        <ele>177.98</ele>
        <time>2018-01-13T10:02:31Z</time>
      </trkpt>
      <trkpt lat="48.57745" lon="1.93205">
        <ele>177.5</ele>
        <time>2018-01-13T10:02:35Z</time>
      </trkpt>
      <trkpt lat="48.57749" lon="1.93202">
        <ele>177.98</ele>
        <time>2018-01-13T10:02:39Z</time>
      </trkpt>
      <trkpt lat="48.57758" lon="1.93192">
        <ele>177.98</ele>
        <time>2018-01-13T10:02:47Z</time>
      </trkpt>
      <trkpt lat="48.57767" lon="1.93184">
        <ele>177.98</ele>
        <time>2018-01-13T10:02:55Z</time>
      </trkpt>
      <trkpt lat="48.57774" lon="1.93178">
        <ele>177.98</ele>
        <time>2018-01-13T10:03:01Z</time>
      </trkpt>
      <trkpt lat="48.5778" lon="1.93171">
        <ele>177.98</ele>
        <time>2018-01-13T10:03:07Z</time>
      </trkpt>
      <trkpt lat="48.57782" lon="1.93171">
        <ele>177.5</ele>
        <time>2018-01-13T10:03:10Z</time>
      </trkpt>
      <trkpt lat="48.5779" lon="1.93162">
        <ele>177.5</ele>
        <time>2018-01-13T10:03:17Z</time>
      </trkpt>
      <trkpt lat="48.57793" lon="1.93159">
        <ele>177.5</ele>
        <time>2018-01-13T10:03:20Z</time>
      </trkpt>
      <trkpt lat="48.57803" lon="1.9315">
        <ele>177.5</ele>
        <time>2018-01-13T10:03:29Z</time>
      </trkpt>
      <trkpt lat="48.57804" lon="1.9315">
        <ele>177.5</ele>
        <time>2018-01-13T10:03:30Z</time>
      </trkpt>
      <trkpt lat="48.57812" lon="1.93142">
        <ele>177.5</ele>
        <time>2018-01-13T10:03:37Z</time>
      </trkpt>
      <trkpt lat="48.57816" lon="1.93138">
        <ele>177.5</ele>
        <time>2018-01-13T10:03:41Z</time>
      </trkpt>
      <trkpt lat="48.57825" lon="1.93129">
        <ele>177.02</ele>
        <time>2018-01-13T10:03:49Z</time>
      </trkpt>
      <trkpt lat="48.57832" lon="1.93118">
        <ele>177.02</ele>
        <time>2018-01-13T10:03:57Z</time>
      </trkpt>
      <trkpt lat="48.57838" lon="1.93114">
        <ele>177.02</ele>
        <time>2018-01-13T10:04:02Z</time>
      </trkpt>
      <trkpt lat="48.57847" lon="1.93103">
        <ele>177.02</ele>
        <time>2018-01-13T10:04:10Z</time>
      </trkpt>
      <trkpt lat="48.57849" lon="1.93101">
        <ele>177.02</ele>
        <time>2018-01-13T10:04:12Z</time>
      </trkpt>
      <trkpt lat="48.57858" lon="1.93096">
        <ele>177.02</ele>
        <time>2018-01-13T10:04:19Z</time>
      </trkpt>
      <trkpt lat="48.57867" lon="1.93087">
        <ele>177.02</ele>
        <time>2018-01-13T10:04:28Z</time>
      </trkpt>
      <trkpt lat="48.57871" lon="1.93083">
        <ele>177.02</ele>
        <time>2018-01-13T10:04:32Z</time>
      </trkpt>
      <trkpt lat="48.5788" lon="1.93074">
        <ele>177.02</ele>
        <time>2018-01-13T10:04:40Z</time>
      </trkpt>
      <trkpt lat="48.57881" lon="1.93073">
        <ele>177.02</ele>
        <time>2018-01-13T10:04:41Z</time>
      </trkpt>
      <trkpt lat="48.57892" lon="1.93064">
        <ele>177.02</ele>
        <time>2018-01-13T10:04:50Z</time>
      </trkpt>
      <trkpt lat="48.579" lon="1.9306">
        <ele>176.54</ele>
        <time>2018-01-13T10:04:56Z</time>
      </trkpt>
      <trkpt lat="48.57908" lon="1.93053">
        <ele>176.54</ele>
        <time>2018-01-13T10:05:03Z</time>
      </trkpt>
      <trkpt lat="48.57915" lon="1.93046">
        <ele>176.54</ele>
        <time>2018-01-13T10:05:10Z</time>
      </trkpt>
      <trkpt lat="48.57923" lon="1.93038">
        <ele>176.54</ele>
        <time>2018-01-13T10:05:17Z</time>
      </trkpt>
      <trkpt lat="48.57933" lon="1.93032">
        <ele>176.54</ele>
        <time>2018-01-13T10:05:25Z</time>
      </trkpt>
      <trkpt lat="48.57941" lon="1.93026">
        <ele>176.54</ele>
        <time>2018-01-13T10:05:32Z</time>
      </trkpt>
      <trkpt lat="48.57946" lon="1.93023">
        <ele>176.06</ele>
        <time>2018-01-13T10:05:37Z</time>
      </trkpt>
      <trkpt lat="48.57958" lon="1.93015">
        <ele>176.06</ele>
        <time>2018-01-13T10:05:47Z</time>
      </trkpt>
      <trkpt lat="48.57967" lon="1.9301">
        <ele>176.06</ele>
        <time>2018-01-13T10:05:54Z</time>
      </trkpt>
      <trkpt lat="48.57978" lon="1.93002">
        <ele>175.58</ele>
        <time>2018-01-13T10:06:03Z</time>
      </trkpt>
      <trkpt lat="48.57989" lon="1.92997">
        <ele>175.58</ele>
        <time>2018-01-13T10:06:12Z</time>
      </trkpt>
      <trkpt lat="48.57998" lon="1.9299">
        <ele>175.58</ele>
        <time>2018-01-13T10:06:19Z</time>
      </trkpt>
      <trkpt lat="48.58007" lon="1.92988">
        <ele>175.58</ele>
        <time>2018-01-13T10:06:27Z</time>
      </trkpt>
      <trkpt lat="48.58013" lon="1.92983">
        <ele>175.1</ele>
        <time>2018-01-13T10:06:31Z</time>
      </trkpt>
      <trkpt lat="48.58021" lon="1.9298">
        <ele>175.1</ele>
        <time>2018-01-13T10:06:39Z</time>
      </trkpt>
      <trkpt lat="48.58026" lon="1.92979">
        <ele>175.1</ele>
        <time>2018-01-13T10:06:42Z</time>
      </trkpt>
      <trkpt lat="48.58034" lon="1.92972">
        <ele>175.1</ele>
        <time>2018-01-13T10:06:49Z</time>
      </trkpt>
      <trkpt lat="48.5804" lon="1.92971">
        <ele>174.62</ele>
        <time>2018-01-13T10:06:54Z</time>
      </trkpt>
      <trkpt lat="48.58047" lon="1.92966">
        <ele>174.62</ele>
        <time>2018-01-13T10:07:01Z</time>
      </trkpt>
      <trkpt lat="48.5805" lon="1.92965">
        <ele>174.62</ele>
        <time>2018-01-13T10:07:04Z</time>
      </trkpt>
      <trkpt lat="48.58054" lon="1.92963">
        <ele>174.14</ele>
        <time>2018-01-13T10:07:07Z</time>
      </trkpt>
      <trkpt lat="48.58057" lon="1.92963">
        <ele>174.62</ele>
        <time>2018-01-13T10:07:09Z</time>
      </trkpt>
      <trkpt lat="48.58068" lon="1.92955">
        <ele>174.14</ele>
        <time>2018-01-13T10:07:18Z</time>
      </trkpt>
      <trkpt lat="48.58076" lon="1.92952">
        <ele>174.14</ele>
        <time>2018-01-13T10:07:25Z</time>
      </trkpt>
      <trkpt lat="48.58079" lon="1.92952">
        <ele>174.14</ele>
        <time>2018-01-13T10:07:27Z</time>
      </trkpt>
      <trkpt lat="48.58081" lon="1.92952">
        <ele>174.14</ele>
        <time>2018-01-13T10:07:29Z</time>
      </trkpt>
      <trkpt lat="48.58083" lon="1.92951">
        <ele>174.14</ele>
        <time>2018-01-13T10:07:31Z</time>
      </trkpt>
      <trkpt lat="48.58092" lon="1.92945">
        <ele>174.14</ele>
        <time>2018-01-13T10:07:39Z</time>
      </trkpt>
      <trkpt lat="48.58099" lon="1.92942">
        <ele>174.14</ele>
        <time>2018-01-13T10:07:45Z</time>
      </trkpt>
      <trkpt lat="48.58106" lon="1.92938">
        <ele>173.66</ele>
        <time>2018-01-13T10:07:52Z</time>
      </trkpt>
      <trkpt lat="48.58106" lon="1.92938">
        <ele>174.14</ele>
        <time>2018-01-13T10:07:53Z</time>
      </trkpt>
      <trkpt lat="48.58113" lon="1.92935">
        <ele>173.66</ele>
        <time>2018-01-13T10:07:59Z</time>
      </trkpt>
      <trkpt lat="48.58116" lon="1.92935">
        <ele>173.66</ele>
        <time>2018-01-13T10:08:01Z</time>
      </trkpt>
      <trkpt lat="48.58124" lon="1.92932">
        <ele>173.66</ele>
        <time>2018-01-13T10:08:07Z</time>
      </trkpt>
      <trkpt lat="48.58128" lon="1.92931">
        <ele>173.66</ele>
        <time>2018-01-13T10:08:10Z</time>
      </trkpt>
      <trkpt lat="48.58131" lon="1.92926">
        <ele>173.66</ele>
        <time>2018-01-13T10:08:13Z</time>
      </trkpt>
      <trkpt lat="48.58138" lon="1.92925">
        <ele>173.66</ele>
        <time>2018-01-13T10:08:19Z</time>
      </trkpt>
      <trkpt lat="48.58148" lon="1.92923">
        <ele>173.66</ele>
        <time>2018-01-13T10:08:27Z</time>
      </trkpt>
      <trkpt lat="48.58154" lon="1.9292">
        <ele>174.62</ele>
        <time>2018-01-13T10:08:33Z</time>
      </trkpt>
      <trkpt lat="48.58164" lon="1.92918">
        <ele>173.66</ele>
        <time>2018-01-13T10:08:41Z</time>
      </trkpt>
      <trkpt lat="48.58166" lon="1.92917">
        <ele>173.66</ele>
        <time>2018-01-13T10:08:43Z</time>
      </trkpt>
      <trkpt lat="48.58174" lon="1.92917">
        <ele>173.66</ele>
        <time>2018-01-13T10:08:50Z</time>
      </trkpt>
      <trkpt lat="48.58175" lon="1.92916">
        <ele>173.66</ele>
        <time>2018-01-13T10:08:51Z</time>
      </trkpt>
      <trkpt lat="48.58181" lon="1.92911">
        <ele>173.66</ele>
        <time>2018-01-13T10:08:57Z</time>
      </trkpt>
      <trkpt lat="48.58185" lon="1.92905">
        <ele>173.17</ele>
        <time>2018-01-13T10:09:02Z</time>
      </trkpt>
      <trkpt lat="48.58189" lon="1.92897">
        <ele>173.17</ele>
        <time>2018-01-13T10:09:09Z</time>
      </trkpt>
      <trkpt lat="48.5819" lon="1.92897">
        <ele>173.17</ele>
        <time>2018-01-13T10:09:15Z</time>
      </trkpt>
      <trkpt lat="48.5819" lon="1.92895">
        <ele>173.66</ele>
        <time>2018-01-13T10:09:21Z</time>
      </trkpt>
      <trkpt lat="48.58192" lon="1.9289">
        <ele>173.66</ele>
        <time>2018-01-13T10:09:33Z</time>
      </trkpt>
      <trkpt lat="48.58192" lon="1.92887">
        <ele>173.66</ele>
        <time>2018-01-13T10:09:48Z</time>
      </trkpt>
      <trkpt lat="48.58193" lon="1.92882">
        <ele>173.66</ele>
        <time>2018-01-13T10:10:05Z</time>
      </trkpt>
      <trkpt lat="48.58193" lon="1.92882">
        <ele>173.66</ele>
        <time>2018-01-13T10:10:14Z</time>
      </trkpt>
      <trkpt lat="48.58194" lon="1.92882">
        <ele>173.17</ele>
        <time>2018-01-13T10:10:22Z</time>
      </trkpt>
      <trkpt lat="48.58195" lon="1.92882">
        <ele>173.66</ele>
        <time>2018-01-13T10:10:27Z</time>
      </trkpt>
      <trkpt lat="48.58196" lon="1.92881">
        <ele>174.14</ele>
        <time>2018-01-13T10:10:34Z</time>
      </trkpt>
      <trkpt lat="48.58197" lon="1.92878">
        <ele>173.17</ele>
        <time>2018-01-13T10:10:43Z</time>
      </trkpt>
      <trkpt lat="48.58199" lon="1.92879">
        <ele>173.17</ele>
        <time>2018-01-13T10:10:49Z</time>
      </trkpt>
      <trkpt lat="48.58201" lon="1.92877">
        <ele>172.69</ele>
        <time>2018-01-13T10:10:56Z</time>
      </trkpt>
      <trkpt lat="48.58203" lon="1.92875">
        <ele>172.69</ele>
        <time>2018-01-13T10:11:01Z</time>
      </trkpt>
      <trkpt lat="48.58204" lon="1.92872">
        <ele>172.69</ele>
        <time>2018-01-13T10:11:08Z</time>
      </trkpt>
      <trkpt lat="48.58209" lon="1.92869">
        <ele>172.69</ele>
        <time>2018-01-13T10:11:15Z</time>
      </trkpt>
      <trkpt lat="48.58219" lon="1.92861">
        <ele>172.69</ele>
        <time>2018-01-13T10:11:22Z</time>
      </trkpt>
      <trkpt lat="48.58224" lon="1.92857">
        <ele>172.69</ele>
        <time>2018-01-13T10:11:27Z</time>
      </trkpt>
      <trkpt lat="48.58227" lon="1.92851">
        <ele>172.69</ele>
        <time>2018-01-13T10:11:32Z</time>
      </trkpt>
      <trkpt lat="48.58235" lon="1.92844">
        <ele>172.69</ele>
        <time>2018-01-13T10:11:38Z</time>
      </trkpt>
      <trkpt lat="48.58238" lon="1.9284">
        <ele>172.69</ele>
        <time>2018-01-13T10:11:45Z</time>
      </trkpt>
      <trkpt lat="48.58239" lon="1.92837">
        <ele>172.69</ele>
        <time>2018-01-13T10:11:48Z</time>
      </trkpt>
      <trkpt lat="48.58243" lon="1.92824">
        <ele>172.21</ele>
        <time>2018-01-13T10:11:54Z</time>
      </trkpt>
      <trkpt lat="48.58245" lon="1.92821">
        <ele>172.21</ele>
        <time>2018-01-13T10:11:57Z</time>
      </trkpt>
      <trkpt lat="48.58252" lon="1.92808">
        <ele>172.21</ele>
        <time>2018-01-13T10:12:05Z</time>
      </trkpt>
      <trkpt lat="48.58253" lon="1.92807">
        <ele>172.21</ele>
        <time>2018-01-13T10:12:06Z</time>
      </trkpt>
      <trkpt lat="48.58256" lon="1.92798">
        <ele>171.73</ele>
        <time>2018-01-13T10:12:12Z</time>
      </trkpt>
      <trkpt lat="48.58257" lon="1.9279">
        <ele>172.69</ele>
        <time>2018-01-13T10:12:18Z</time>
      </trkpt>
      <trkpt lat="48.58259" lon="1.92782">
        <ele>172.69</ele>
        <time>2018-01-13T10:12:24Z</time>
      </trkpt>
      <trkpt lat="48.58262" lon="1.92776">
        <ele>172.21</ele>
        <time>2018-01-13T10:12:31Z</time>
      </trkpt>
      <trkpt lat="48.58266" lon="1.92766">
        <ele>172.21</ele>
        <time>2018-01-13T10:12:38Z</time>
      </trkpt>
      <trkpt lat="48.58267" lon="1.92765">
        <ele>172.21</ele>
        <time>2018-01-13T10:12:39Z</time>
      </trkpt>
      <trkpt lat="48.58268" lon="1.92761">
        <ele>171.25</ele>
        <time>2018-01-13T10:12:44Z</time>
      </trkpt>
      <trkpt lat="48.58272" lon="1.92754">
        <ele>171.25</ele>
        <time>2018-01-13T10:12:49Z</time>
      </trkpt>
      <trkpt lat="48.58275" lon="1.92749">
        <ele>171.73</ele>
        <time>2018-01-13T10:12:52Z</time>
      </trkpt>
      <trkpt lat="48.58277" lon="1.9274">
        <ele>171.25</ele>
        <time>2018-01-13T10:12:57Z</time>
      </trkpt>
      <trkpt lat="48.58281" lon="1.92732">
        <ele>171.25</ele>
        <time>2018-01-13T10:13:04Z</time>
      </trkpt>
      <trkpt lat="48.58281" lon="1.92731">
        <ele>170.77</ele>
        <time>2018-01-13T10:13:05Z</time>
      </trkpt>
      <trkpt lat="48.58284" lon="1.92727">
        <ele>170.29</ele>
        <time>2018-01-13T10:13:10Z</time>
      </trkpt>
      <trkpt lat="48.58284" lon="1.92723">
        <ele>170.29</ele>
        <time>2018-01-13T10:13:16Z</time>
      </trkpt>
      <trkpt lat="48.58287" lon="1.92717">
        <ele>169.81</ele>
        <time>2018-01-13T10:13:23Z</time>
      </trkpt>
      <trkpt lat="48.58287" lon="1.92713">
        <ele>169.81</ele>
        <time>2018-01-13T10:13:27Z</time>
      </trkpt>
      <trkpt lat="48.58291" lon="1.92706">
        <ele>169.81</ele>
        <time>2018-01-13T10:13:34Z</time>
      </trkpt>
      <trkpt lat="48.58298" lon="1.92697">
        <ele>169.81</ele>
        <time>2018-01-13T10:13:40Z</time>
      </trkpt>
      <trkpt lat="48.58301" lon="1.92695">
        <ele>169.81</ele>
        <time>2018-01-13T10:13:45Z</time>
      </trkpt>
      <trkpt lat="48.58306" lon="1.92691">
        <ele>169.81</ele>
        <time>2018-01-13T10:13:50Z</time>
      </trkpt>
      <trkpt lat="48.58309" lon="1.92681">
        <ele>169.81</ele>
        <time>2018-01-13T10:13:55Z</time>
      </trkpt>
      <trkpt lat="48.58312" lon="1.92678">
        <ele>170.29</ele>
        <time>2018-01-13T10:14:00Z</time>
      </trkpt>
      <trkpt lat="48.58315" lon="1.92676">
        <ele>170.29</ele>
        <time>2018-01-13T10:14:06Z</time>
      </trkpt>
      <trkpt lat="48.58316" lon="1.92676">
        <ele>170.29</ele>
        <time>2018-01-13T10:14:07Z</time>
      </trkpt>
      <trkpt lat="48.58319" lon="1.92676">
        <ele>170.29</ele>
        <time>2018-01-13T10:14:13Z</time>
      </trkpt>
      <trkpt lat="48.58324" lon="1.92673">
        <ele>170.29</ele>
        <time>2018-01-13T10:14:18Z</time>
      </trkpt>
      <trkpt lat="48.58327" lon="1.92671">
        <ele>170.77</ele>
        <time>2018-01-13T10:14:24Z</time>
      </trkpt>
      <trkpt lat="48.58329" lon="1.92666">
        <ele>170.77</ele>
        <time>2018-01-13T10:14:28Z</time>
      </trkpt>
      <trkpt lat="48.58333" lon="1.9266">
        <ele>171.25</ele>
        <time>2018-01-13T10:14:33Z</time>
      </trkpt>
      <trkpt lat="48.58333" lon="1.9266">
        <ele>171.73</ele>
        <time>2018-01-13T10:14:34Z</time>
      </trkpt>
      <trkpt lat="48.5834" lon="1.92655">
        <ele>170.77</ele>
        <time>2018-01-13T10:14:41Z</time>
      </trkpt>
      <trkpt lat="48.58344" lon="1.92651">
        <ele>170.77</ele>
        <time>2018-01-13T10:14:46Z</time>
      </trkpt>
      <trkpt lat="48.58348" lon="1.92648">
        <ele>171.25</ele>
        <time>2018-01-13T10:14:50Z</time>
      </trkpt>
      <trkpt lat="48.58355" lon="1.92647">
        <ele>171.25</ele>
        <time>2018-01-13T10:14:57Z</time>
      </trkpt>
      <trkpt lat="48.58357" lon="1.92643">
        <ele>171.73</ele>
        <time>2018-01-13T10:15:03Z</time>
      </trkpt>
      <trkpt lat="48.5836" lon="1.9264">
        <ele>171.25</ele>
        <time>2018-01-13T10:15:10Z</time>
      </trkpt>
      <trkpt lat="48.58363" lon="1.92638">
        <ele>171.25</ele>
        <time>2018-01-13T10:15:15Z</time>
      </trkpt>
      <trkpt lat="48.58366" lon="1.92638">
        <ele>171.73</ele>
        <time>2018-01-13T10:15:21Z</time>
      </trkpt>
      <trkpt lat="48.5837" lon="1.92636">
        <ele>171.73</ele>
        <time>2018-01-13T10:15:28Z</time>
      </trkpt>
      <trkpt lat="48.58372" lon="1.92632">
        <ele>172.21</ele>
        <time>2018-01-13T10:15:34Z</time>
      </trkpt>
      <trkpt lat="48.58373" lon="1.92631">
        <ele>172.21</ele>
        <time>2018-01-13T10:15:37Z</time>
      </trkpt>
      <trkpt lat="48.58377" lon="1.92626">
        <ele>172.21</ele>
        <time>2018-01-13T10:15:44Z</time>
      </trkpt>
      <trkpt lat="48.5838" lon="1.92624">
        <ele>171.73</ele>
        <time>2018-01-13T10:15:50Z</time>
      </trkpt>
      <trkpt lat="48.58382" lon="1.92619">
        <ele>171.73</ele>
        <time>2018-01-13T10:15:56Z</time>
      </trkpt>
      <trkpt lat="48.58383" lon="1.92619">
        <ele>171.73</ele>
        <time>2018-01-13T10:16:01Z</time>
      </trkpt>
      <trkpt lat="48.58385" lon="1.92615">
        <ele>171.73</ele>
        <time>2018-01-13T10:16:06Z</time>
      </trkpt>
      <trkpt lat="48.58388" lon="1.9261">
        <ele>171.73</ele>
        <time>2018-01-13T10:16:12Z</time>
      </trkpt>
      <trkpt lat="48.5839" lon="1.92605">
        <ele>171.73</ele>
        <time>2018-01-13T10:16:19Z</time>
      </trkpt>
      <trkpt lat="48.58393" lon="1.926">
        <ele>171.73</ele>
        <time>2018-01-13T10:16:24Z</time>
      </trkpt>
      <trkpt lat="48.58395" lon="1.92595">
        <ele>172.21</ele>
        <time>2018-01-13T10:16:31Z</time>
      </trkpt>
      <trkpt lat="48.58398" lon="1.9259">
        <ele>172.21</ele>
        <time>2018-01-13T10:16:37Z</time>
      </trkpt>
      <trkpt lat="48.584" lon="1.92578">
        <ele>172.69</ele>
        <time>2018-01-13T10:16:51Z</time>
      </trkpt>
      <trkpt lat="48.58403" lon="1.92574">
        <ele>173.17</ele>
        <time>2018-01-13T10:17:02Z</time>
      </trkpt>
      <trkpt lat="48.58406" lon="1.92571">
        <ele>173.17</ele>
        <time>2018-01-13T10:17:10Z</time>
      </trkpt>
      <trkpt lat="48.58407" lon="1.92568">
        <ele>173.66</ele>
        <time>2018-01-13T10:17:23Z</time>
      </trkpt>
      <trkpt lat="48.5841" lon="1.92566">
        <ele>173.66</ele>
        <time>2018-01-13T10:17:38Z</time>
      </trkpt>
      <trkpt lat="48.58412" lon="1.92564">
        <ele>173.66</ele>
        <time>2018-01-13T10:17:45Z</time>
      </trkpt>
      <trkpt lat="48.58416" lon="1.9256">
        <ele>173.66</ele>
        <time>2018-01-13T10:17:53Z</time>
      </trkpt>
      <trkpt lat="48.58421" lon="1.92559">
        <ele>174.14</ele>
        <time>2018-01-13T10:18:00Z</time>
      </trkpt>
      <trkpt lat="48.58423" lon="1.92557">
        <ele>174.14</ele>
        <time>2018-01-13T10:18:05Z</time>
      </trkpt>
      <trkpt lat="48.58429" lon="1.9255">
        <ele>174.14</ele>
        <time>2018-01-13T10:18:12Z</time>
      </trkpt>
      <trkpt lat="48.58433" lon="1.92549">
        <ele>174.14</ele>
        <time>2018-01-13T10:18:15Z</time>
      </trkpt>
      <trkpt lat="48.58439" lon="1.92544">
        <ele>174.14</ele>
        <time>2018-01-13T10:18:21Z</time>
      </trkpt>
      <trkpt lat="48.58444" lon="1.92543">
        <ele>174.62</ele>
        <time>2018-01-13T10:18:26Z</time>
      </trkpt>
      <trkpt lat="48.5845" lon="1.92541">
        <ele>174.62</ele>
        <time>2018-01-13T10:18:33Z</time>
      </trkpt>
      <trkpt lat="48.58451" lon="1.92539">
        <ele>174.62</ele>
        <time>2018-01-13T10:18:35Z</time>
      </trkpt>
      <trkpt lat="48.58459" lon="1.9253">
        <ele>174.62</ele>
        <time>2018-01-13T10:18:42Z</time>
      </trkpt>
      <trkpt lat="48.58462" lon="1.92527">
        <ele>175.1</ele>
        <time>2018-01-13T10:18:45Z</time>
      </trkpt>
      <trkpt lat="48.58472" lon="1.9252">
        <ele>175.1</ele>
        <time>2018-01-13T10:18:54Z</time>
      </trkpt>
      <trkpt lat="48.58475" lon="1.92515">
        <ele>175.1</ele>
        <time>2018-01-13T10:18:59Z</time>
      </trkpt>
      <trkpt lat="48.58478" lon="1.92513">
        <ele>175.1</ele>
        <time>2018-01-13T10:19:02Z</time>
      </trkpt>
      <trkpt lat="48.58483" lon="1.92507">
        <ele>175.58</ele>
        <time>2018-01-13T10:19:07Z</time>
      </trkpt>
      <trkpt lat="48.58488" lon="1.92503">
        <ele>175.58</ele>
        <time>2018-01-13T10:19:12Z</time>
      </trkpt>
      <trkpt lat="48.58494" lon="1.92494">
        <ele>175.58</ele>
        <time>2018-01-13T10:19:20Z</time>
      </trkpt>
      <trkpt lat="48.585" lon="1.9249">
        <ele>176.06</ele>
        <time>2018-01-13T10:19:26Z</time>
      </trkpt>
      <trkpt lat="48.58501" lon="1.92488">
        <ele>176.06</ele>
        <time>2018-01-13T10:19:27Z</time>
      </trkpt>
      <trkpt lat="48.58509" lon="1.92476">
        <ele>176.54</ele>
        <time>2018-01-13T10:19:34Z</time>
      </trkpt>
      <trkpt lat="48.58512" lon="1.92473">
        <ele>176.54</ele>
        <time>2018-01-13T10:19:41Z</time>
      </trkpt>
      <trkpt lat="48.58513" lon="1.92474">
        <ele>176.54</ele>
        <time>2018-01-13T10:19:44Z</time>
      </trkpt>
      <trkpt lat="48.58515" lon="1.92474">
        <ele>176.54</ele>
        <time>2018-01-13T10:19:49Z</time>
      </trkpt>
      <trkpt lat="48.58515" lon="1.92474">
        <ele>176.54</ele>
        <time>2018-01-13T10:19:52Z</time>
      </trkpt>
      <trkpt lat="48.58518" lon="1.9247">
        <ele>177.02</ele>
        <time>2018-01-13T10:19:55Z</time>
      </trkpt>
      <trkpt lat="48.5852" lon="1.92462">
        <ele>177.02</ele>
        <time>2018-01-13T10:20:00Z</time>
      </trkpt>
      <trkpt lat="48.58524" lon="1.92454">
        <ele>177.02</ele>
        <time>2018-01-13T10:20:07Z</time>
      </trkpt>
      <trkpt lat="48.58525" lon="1.92451">
        <ele>177.02</ele>
        <time>2018-01-13T10:20:08Z</time>
      </trkpt>
      <trkpt lat="48.5853" lon="1.92439">
        <ele>177.5</ele>
        <time>2018-01-13T10:20:13Z</time>
      </trkpt>
      <trkpt lat="48.58535" lon="1.92428">
        <ele>177.5</ele>
        <time>2018-01-13T10:20:18Z</time>
      </trkpt>
      <trkpt lat="48.58538" lon="1.92425">
        <ele>177.5</ele>
        <time>2018-01-13T10:20:20Z</time>
      </trkpt>
      <trkpt lat="48.58544" lon="1.92417">
        <ele>177.98</ele>
        <time>2018-01-13T10:20:26Z</time>
      </trkpt>
      <trkpt lat="48.58547" lon="1.92405">
        <ele>177.98</ele>
        <time>2018-01-13T10:20:32Z</time>
      </trkpt>
      <trkpt lat="48.58551" lon="1.92396">
        <ele>177.98</ele>
        <time>2018-01-13T10:20:36Z</time>
      </trkpt>
      <trkpt lat="48.58555" lon="1.92389">
        <ele>177.98</ele>
        <time>2018-01-13T10:20:40Z</time>
      </trkpt>
      <trkpt lat="48.58558" lon="1.92384">
        <ele>177.98</ele>
        <time>2018-01-13T10:20:43Z</time>
      </trkpt>
      <trkpt lat="48.58559" lon="1.92379">
        <ele>178.46</ele>
        <time>2018-01-13T10:20:46Z</time>
      </trkpt>
      <trkpt lat="48.58562" lon="1.92375">
        <ele>178.46</ele>
        <time>2018-01-13T10:20:49Z</time>
      </trkpt>
      <trkpt lat="48.58567" lon="1.92363">
        <ele>178.46</ele>
        <time>2018-01-13T10:20:57Z</time>
      </trkpt>
      <trkpt lat="48.58569" lon="1.92362">
        <ele>178.46</ele>
        <time>2018-01-13T10:21:00Z</time>
      </trkpt>
      <trkpt lat="48.58571" lon="1.92354">
        <ele>178.46</ele>
        <time>2018-01-13T10:21:03Z</time>
      </trkpt>
      <trkpt lat="48.58572" lon="1.9235">
        <ele>178.46</ele>
        <time>2018-01-13T10:21:05Z</time>
      </trkpt>
      <trkpt lat="48.58577" lon="1.92339">
        <ele>178.46</ele>
        <time>2018-01-13T10:21:11Z</time>
      </trkpt>
      <trkpt lat="48.58577" lon="1.92338">
        <ele>178.46</ele>
        <time>2018-01-13T10:21:15Z</time>
      </trkpt>
      <trkpt lat="48.58579" lon="1.92334">
        <ele>178.46</ele>
        <time>2018-01-13T10:21:17Z</time>
      </trkpt>
      <trkpt lat="48.58582" lon="1.92325">
        <ele>178.94</ele>
        <time>2018-01-13T10:21:23Z</time>
      </trkpt>
      <trkpt lat="48.58586" lon="1.92313">
        <ele>178.94</ele>
        <time>2018-01-13T10:21:29Z</time>
      </trkpt>
      <trkpt lat="48.58588" lon="1.92309">
        <ele>178.94</ele>
        <time>2018-01-13T10:21:32Z</time>
      </trkpt>
      <trkpt lat="48.5859" lon="1.92301">
        <ele>179.42</ele>
        <time>2018-01-13T10:21:35Z</time>
      </trkpt>
      <trkpt lat="48.58592" lon="1.92291">
        <ele>179.42</ele>
        <time>2018-01-13T10:21:41Z</time>
      </trkpt>
      <trkpt lat="48.58593" lon="1.9229">
        <ele>179.42</ele>
        <time>2018-01-13T10:21:43Z</time>
      </trkpt>
      <trkpt lat="48.58599" lon="1.92283">
        <ele>179.9</ele>
        <time>2018-01-13T10:21:50Z</time>
      </trkpt>
      <trkpt lat="48.58603" lon="1.92275">
        <ele>179.9</ele>
        <time>2018-01-13T10:21:57Z</time>
      </trkpt>
      <trkpt lat="48.58605" lon="1.9228">
        <ele>179.9</ele>
        <time>2018-01-13T10:22:03Z</time>
      </trkpt>
      <trkpt lat="48.5861" lon="1.92272">
        <ele>179.42</ele>
        <time>2018-01-13T10:22:15Z</time>
      </trkpt>
      <trkpt lat="48.5861" lon="1.92269">
        <ele>180.38</ele>
        <time>2018-01-13T10:22:22Z</time>
      </trkpt>
      <trkpt lat="48.5861" lon="1.92269">
        <ele>180.38</ele>
        <time>2018-01-13T10:22:29Z</time>
      </trkpt>
      <trkpt lat="48.5861" lon="1.92269">
        <ele>179.9</ele>
        <time>2018-01-13T10:22:39Z</time>
      </trkpt>
      <trkpt lat="48.58611" lon="1.92268">
        <ele>179.9</ele>
        <time>2018-01-13T10:22:45Z</time>
      </trkpt>
      <trkpt lat="48.58612" lon="1.92264">
        <ele>179.9</ele>
        <time>2018-01-13T10:22:57Z</time>
      </trkpt>
      <trkpt lat="48.58614" lon="1.92261">
        <ele>179.9</ele>
        <time>2018-01-13T10:23:12Z</time>
      </trkpt>
      <trkpt lat="48.58614" lon="1.92261">
        <ele>180.38</ele>
        <time>2018-01-13T10:23:17Z</time>
      </trkpt>
      <trkpt lat="48.58614" lon="1.92259">
        <ele>179.9</ele>
        <time>2018-01-13T10:23:25Z</time>
      </trkpt>
      <trkpt lat="48.58615" lon="1.92259">
        <ele>179.9</ele>
        <time>2018-01-13T10:23:34Z</time>
      </trkpt>
      <trkpt lat="48.58615" lon="1.92258">
        <ele>179.9</ele>
        <time>2018-01-13T10:23:49Z</time>
      </trkpt>
      <trkpt lat="48.58615" lon="1.92258">
        <ele>180.38</ele>
        <time>2018-01-13T10:24:01Z</time>
      </trkpt>
      <trkpt lat="48.58615" lon="1.92257">
        <ele>179.9</ele>
        <time>2018-01-13T10:24:15Z</time>
      </trkpt>
      <trkpt lat="48.58615" lon="1.92257">
        <ele>179.9</ele>
        <time>2018-01-13T10:24:27Z</time>
      </trkpt>
      <trkpt lat="48.58614" lon="1.92258">
        <ele>179.9</ele>
        <time>2018-01-13T10:24:41Z</time>
      </trkpt>
      <trkpt lat="48.58615" lon="1.92259">
        <ele>180.38</ele>
        <time>2018-01-13T10:24:52Z</time>
      </trkpt>
      <trkpt lat="48.58616" lon="1.92259">
        <ele>179.9</ele>
        <time>2018-01-13T10:25:03Z</time>
      </trkpt>
      <trkpt lat="48.58618" lon="1.92258">
        <ele>180.38</ele>
        <time>2018-01-13T10:25:18Z</time>
      </trkpt>
      <trkpt lat="48.58619" lon="1.92258">
        <ele>180.38</ele>
        <time>2018-01-13T10:25:26Z</time>
      </trkpt>
      <trkpt lat="48.58619" lon="1.92258">
        <ele>179.9</ele>
        <time>2018-01-13T10:25:35Z</time>
      </trkpt>
      <trkpt lat="48.58618" lon="1.92258">
        <ele>179.9</ele>
        <time>2018-01-13T10:25:41Z</time>
      </trkpt>
      <trkpt lat="48.58618" lon="1.92257">
        <ele>179.9</ele>
        <time>2018-01-13T10:25:48Z</time>
      </trkpt>
      <trkpt lat="48.58619" lon="1.9225">
        <ele>179.9</ele>
        <time>2018-01-13T10:25:54Z</time>
      </trkpt>
      <trkpt lat="48.58619" lon="1.92247">
        <ele>179.9</ele>
        <time>2018-01-13T10:25:59Z</time>
      </trkpt>
      <trkpt lat="48.5862" lon="1.92238">
        <ele>179.9</ele>
        <time>2018-01-13T10:26:07Z</time>
      </trkpt>
      <trkpt lat="48.5862" lon="1.92236">
        <ele>179.9</ele>
        <time>2018-01-13T10:26:12Z</time>
      </trkpt>
      <trkpt lat="48.58621" lon="1.92233">
        <ele>179.9</ele>
        <time>2018-01-13T10:26:18Z</time>
      </trkpt>
      <trkpt lat="48.58623" lon="1.92227">
        <ele>179.9</ele>
        <time>2018-01-13T10:26:24Z</time>
      </trkpt>
      <trkpt lat="48.58627" lon="1.92222">
        <ele>180.38</ele>
        <time>2018-01-13T10:26:30Z</time>
      </trkpt>
      <trkpt lat="48.5863" lon="1.92215">
        <ele>180.38</ele>
        <time>2018-01-13T10:26:37Z</time>
      </trkpt>
      <trkpt lat="48.58634" lon="1.92209">
        <ele>180.38</ele>
        <time>2018-01-13T10:26:43Z</time>
      </trkpt>
      <trkpt lat="48.58636" lon="1.92204">
        <ele>180.87</ele>
        <time>2018-01-13T10:26:49Z</time>
      </trkpt>
      <trkpt lat="48.58638" lon="1.92195">
        <ele>180.87</ele>
        <time>2018-01-13T10:26:54Z</time>
      </trkpt>
      <trkpt lat="48.58639" lon="1.92191">
        <ele>180.87</ele>
        <time>2018-01-13T10:26:56Z</time>
      </trkpt>
      <trkpt lat="48.58642" lon="1.92184">
        <ele>180.87</ele>
        <time>2018-01-13T10:27:03Z</time>
      </trkpt>
      <trkpt lat="48.58643" lon="1.92183">
        <ele>180.87</ele>
        <time>2018-01-13T10:27:04Z</time>
      </trkpt>
      <trkpt lat="48.5865" lon="1.92169">
        <ele>181.35</ele>
        <time>2018-01-13T10:27:12Z</time>
      </trkpt>
      <trkpt lat="48.58652" lon="1.92161">
        <ele>181.35</ele>
        <time>2018-01-13T10:27:18Z</time>
      </trkpt>
      <trkpt lat="48.58655" lon="1.92151">
        <ele>181.83</ele>
        <time>2018-01-13T10:27:25Z</time>
      </trkpt>
      <trkpt lat="48.58656" lon="1.92149">
        <ele>181.83</ele>
        <time>2018-01-13T10:27:28Z</time>
      </trkpt>
      <trkpt lat="48.58661" lon="1.92142">
        <ele>181.83</ele>
        <time>2018-01-13T10:27:33Z</time>
      </trkpt>
      <trkpt lat="48.58663" lon="1.92136">
        <ele>181.35</ele>
        <time>2018-01-13T10:27:37Z</time>
      </trkpt>
      <trkpt lat="48.58667" lon="1.92127">
        <ele>181.83</ele>
        <time>2018-01-13T10:27:43Z</time>
      </trkpt>
      <trkpt lat="48.58671" lon="1.92119">
        <ele>181.83</ele>
        <time>2018-01-13T10:27:49Z</time>
      </trkpt>
      <trkpt lat="48.58674" lon="1.92115">
        <ele>181.83</ele>
        <time>2018-01-13T10:27:52Z</time>
      </trkpt>
      <trkpt lat="48.58678" lon="1.92104">
        <ele>182.31</ele>
        <time>2018-01-13T10:27:59Z</time>
      </trkpt>
      <trkpt lat="48.58681" lon="1.92096">
        <ele>182.31</ele>
        <time>2018-01-13T10:28:06Z</time>
      </trkpt>
      <trkpt lat="48.58682" lon="1.92094">
        <ele>182.31</ele>
        <time>2018-01-13T10:28:08Z</time>
      </trkpt>
      <trkpt lat="48.58686" lon="1.92083">
        <ele>182.31</ele>
        <time>2018-01-13T10:28:16Z</time>
      </trkpt>
      <trkpt lat="48.58688" lon="1.92077">
        <ele>182.79</ele>
        <time>2018-01-13T10:28:24Z</time>
      </trkpt>
      <trkpt lat="48.58693" lon="1.92066">
        <ele>182.79</ele>
        <time>2018-01-13T10:28:31Z</time>
      </trkpt>
      <trkpt lat="48.58695" lon="1.92053">
        <ele>182.79</ele>
        <time>2018-01-13T10:28:39Z</time>
      </trkpt>
      <trkpt lat="48.58695" lon="1.92051">
        <ele>182.79</ele>
        <time>2018-01-13T10:28:45Z</time>
      </trkpt>
      <trkpt lat="48.58701" lon="1.92039">
        <ele>182.79</ele>
        <time>2018-01-13T10:28:51Z</time>
      </trkpt>
      <trkpt lat="48.58706" lon="1.9203">
        <ele>183.27</ele>
        <time>2018-01-13T10:28:58Z</time>
      </trkpt>
      <trkpt lat="48.58708" lon="1.92025">
        <ele>183.27</ele>
        <time>2018-01-13T10:29:03Z</time>
      </trkpt>
      <trkpt lat="48.58712" lon="1.92018">
        <ele>183.75</ele>
        <time>2018-01-13T10:29:10Z</time>
      </trkpt>
      <trkpt lat="48.58716" lon="1.92008">
        <ele>183.75</ele>
        <time>2018-01-13T10:29:16Z</time>
      </trkpt>
      <trkpt lat="48.5872" lon="1.91999">
        <ele>183.75</ele>
        <time>2018-01-13T10:29:22Z</time>
      </trkpt>
      <trkpt lat="48.58724" lon="1.91991">
        <ele>184.23</ele>
        <time>2018-01-13T10:29:30Z</time>
      </trkpt>
      <trkpt lat="48.58729" lon="1.91982">
        <ele>184.23</ele>
        <time>2018-01-13T10:29:36Z</time>
      </trkpt>
      <trkpt lat="48.58732" lon="1.91976">
        <ele>184.23</ele>
        <time>2018-01-13T10:29:41Z</time>
      </trkpt>
      <trkpt lat="48.58738" lon="1.91966">
        <ele>184.23</ele>
        <time>2018-01-13T10:29:48Z</time>
      </trkpt>
      <trkpt lat="48.5874" lon="1.91963">
        <ele>184.23</ele>
        <time>2018-01-13T10:29:53Z</time>
      </trkpt>
      <trkpt lat="48.58746" lon="1.91951">
        <ele>184.71</ele>
        <time>2018-01-13T10:30:01Z</time>
      </trkpt>
      <trkpt lat="48.58749" lon="1.91943">
        <ele>184.71</ele>
        <time>2018-01-13T10:30:07Z</time>
      </trkpt>
      <trkpt lat="48.58757" lon="1.9193">
        <ele>184.71</ele>
        <time>2018-01-13T10:30:17Z</time>
      </trkpt>
      <trkpt lat="48.5876" lon="1.91923">
        <ele>184.71</ele>
        <time>2018-01-13T10:30:22Z</time>
      </trkpt>
      <trkpt lat="48.58762" lon="1.91917">
        <ele>185.19</ele>
        <time>2018-01-13T10:30:26Z</time>
      </trkpt>
      <trkpt lat="48.58766" lon="1.91908">
        <ele>185.19</ele>
        <time>2018-01-13T10:30:32Z</time>
      </trkpt>
      <trkpt lat="48.58768" lon="1.91902">
        <ele>185.19</ele>
        <time>2018-01-13T10:30:37Z</time>
      </trkpt>
      <trkpt lat="48.5877" lon="1.91897">
        <ele>185.19</ele>
        <time>2018-01-13T10:30:40Z</time>
      </trkpt>
      <trkpt lat="48.58774" lon="1.9189">
        <ele>185.67</ele>
        <time>2018-01-13T10:30:46Z</time>
      </trkpt>
      <trkpt lat="48.58775" lon="1.91887">
        <ele>185.67</ele>
        <time>2018-01-13T10:30:51Z</time>
      </trkpt>
      <trkpt lat="48.58777" lon="1.91882">
        <ele>185.67</ele>
        <time>2018-01-13T10:30:57Z</time>
      </trkpt>
      <trkpt lat="48.58777" lon="1.9188">
        <ele>185.67</ele>
        <time>2018-01-13T10:30:59Z</time>
      </trkpt>
      <trkpt lat="48.58776" lon="1.91878">
        <ele>185.67</ele>
        <time>2018-01-13T10:31:04Z</time>
      </trkpt>
      <trkpt lat="48.5878" lon="1.9187">
        <ele>185.67</ele>
        <time>2018-01-13T10:31:09Z</time>
      </trkpt>
      <trkpt lat="48.58784" lon="1.91858">
        <ele>185.67</ele>
        <time>2018-01-13T10:31:17Z</time>
      </trkpt>
      <trkpt lat="48.58786" lon="1.9185">
        <ele>185.67</ele>
        <time>2018-01-13T10:31:24Z</time>
      </trkpt>
      <trkpt lat="48.58789" lon="1.91839">
        <ele>185.67</ele>
        <time>2018-01-13T10:31:30Z</time>
      </trkpt>
      <trkpt lat="48.5879" lon="1.91834">
        <ele>185.67</ele>
        <time>2018-01-13T10:31:32Z</time>
      </trkpt>
      <trkpt lat="48.58793" lon="1.91818">
        <ele>185.67</ele>
        <time>2018-01-13T10:31:38Z</time>
      </trkpt>
      <trkpt lat="48.58796" lon="1.91803">
        <ele>186.15</ele>
        <time>2018-01-13T10:31:46Z</time>
      </trkpt>
      <trkpt lat="48.58797" lon="1.91799">
        <ele>186.15</ele>
        <time>2018-01-13T10:31:51Z</time>
      </trkpt>
      <trkpt lat="48.58799" lon="1.91791">
        <ele>186.15</ele>
        <time>2018-01-13T10:31:56Z</time>
      </trkpt>
      <trkpt lat="48.58802" lon="1.91782">
        <ele>186.15</ele>
        <time>2018-01-13T10:32:02Z</time>
      </trkpt>
      <trkpt lat="48.58803" lon="1.91777">
        <ele>186.15</ele>
        <time>2018-01-13T10:32:07Z</time>
      </trkpt>
      <trkpt lat="48.58805" lon="1.91766">
        <ele>186.15</ele>
        <time>2018-01-13T10:32:12Z</time>
      </trkpt>
      <trkpt lat="48.58807" lon="1.91755">
        <ele>186.15</ele>
        <time>2018-01-13T10:32:18Z</time>
      </trkpt>
      <trkpt lat="48.5881" lon="1.91744">
        <ele>186.15</ele>
        <time>2018-01-13T10:32:24Z</time>
      </trkpt>
      <trkpt lat="48.58811" lon="1.91734">
        <ele>186.15</ele>
        <time>2018-01-13T10:32:31Z</time>
      </trkpt>
      <trkpt lat="48.58814" lon="1.91723">
        <ele>186.15</ele>
        <time>2018-01-13T10:32:39Z</time>
      </trkpt>
      <trkpt lat="48.58816" lon="1.91718">
        <ele>186.15</ele>
        <time>2018-01-13T10:32:44Z</time>
      </trkpt>
      <trkpt lat="48.5882" lon="1.91709">
        <ele>186.15</ele>
        <time>2018-01-13T10:32:50Z</time>
      </trkpt>
      <trkpt lat="48.58821" lon="1.91703">
        <ele>185.67</ele>
        <time>2018-01-13T10:32:54Z</time>
      </trkpt>
      <trkpt lat="48.58822" lon="1.91698">
        <ele>185.67</ele>
        <time>2018-01-13T10:32:58Z</time>
      </trkpt>
      <trkpt lat="48.58822" lon="1.91688">
        <ele>186.15</ele>
        <time>2018-01-13T10:33:03Z</time>
      </trkpt>
      <trkpt lat="48.58824" lon="1.91671">
        <ele>185.67</ele>
        <time>2018-01-13T10:33:10Z</time>
      </trkpt>
      <trkpt lat="48.58825" lon="1.91668">
        <ele>185.67</ele>
        <time>2018-01-13T10:33:11Z</time>
      </trkpt>
      <trkpt lat="48.5883" lon="1.91652">
        <ele>185.67</ele>
        <time>2018-01-13T10:33:17Z</time>
      </trkpt>
      <trkpt lat="48.58832" lon="1.91647">
        <ele>185.67</ele>
        <time>2018-01-13T10:33:21Z</time>
      </trkpt>
      <trkpt lat="48.58832" lon="1.91645">
        <ele>186.15</ele>
        <time>2018-01-13T10:33:24Z</time>
      </trkpt>
      <trkpt lat="48.58833" lon="1.91643">
        <ele>185.67</ele>
        <time>2018-01-13T10:33:30Z</time>
      </trkpt>
      <trkpt lat="48.58834" lon="1.91635">
        <ele>186.15</ele>
        <time>2018-01-13T10:33:34Z</time>
      </trkpt>
      <trkpt lat="48.58835" lon="1.91633">
        <ele>186.15</ele>
        <time>2018-01-13T10:33:38Z</time>
      </trkpt>
      <trkpt lat="48.58838" lon="1.91632">
        <ele>186.15</ele>
        <time>2018-01-13T10:33:42Z</time>
      </trkpt>
      <trkpt lat="48.58842" lon="1.91617">
        <ele>186.15</ele>
        <time>2018-01-13T10:33:49Z</time>
      </trkpt>
      <trkpt lat="48.58845" lon="1.91609">
        <ele>186.15</ele>
        <time>2018-01-13T10:33:54Z</time>
      </trkpt>
      <trkpt lat="48.58845" lon="1.91607">
        <ele>186.15</ele>
        <time>2018-01-13T10:33:55Z</time>
      </trkpt>
      <trkpt lat="48.58846" lon="1.91596">
        <ele>186.15</ele>
        <time>2018-01-13T10:34:01Z</time>
      </trkpt>
      <trkpt lat="48.58848" lon="1.91588">
        <ele>186.15</ele>
        <time>2018-01-13T10:34:07Z</time>
      </trkpt>
      <trkpt lat="48.58851" lon="1.91579">
        <ele>186.15</ele>
        <time>2018-01-13T10:34:14Z</time>
      </trkpt>
      <trkpt lat="48.58851" lon="1.91577">
        <ele>186.15</ele>
        <time>2018-01-13T10:34:20Z</time>
      </trkpt>
      <trkpt lat="48.58852" lon="1.91574">
        <ele>186.63</ele>
        <time>2018-01-13T10:34:25Z</time>
      </trkpt>
      <trkpt lat="48.58853" lon="1.91573">
        <ele>186.63</ele>
        <time>2018-01-13T10:34:26Z</time>
      </trkpt>
      <trkpt lat="48.58855" lon="1.91557">
        <ele>186.63</ele>
        <time>2018-01-13T10:34:32Z</time>
      </trkpt>
      <trkpt lat="48.58857" lon="1.91546">
        <ele>186.63</ele>
        <time>2018-01-13T10:34:36Z</time>
      </trkpt>
      <trkpt lat="48.58862" lon="1.91534">
        <ele>186.15</ele>
        <time>2018-01-13T10:34:42Z</time>
      </trkpt>
      <trkpt lat="48.58866" lon="1.91524">
        <ele>186.15</ele>
        <time>2018-01-13T10:34:49Z</time>
      </trkpt>
      <trkpt lat="48.58866" lon="1.91523">
        <ele>186.15</ele>
        <time>2018-01-13T10:34:50Z</time>
      </trkpt>
      <trkpt lat="48.58873" lon="1.91511">
        <ele>185.67</ele>
        <time>2018-01-13T10:34:58Z</time>
      </trkpt>
      <trkpt lat="48.58874" lon="1.91508">
        <ele>186.15</ele>
        <time>2018-01-13T10:35:00Z</time>
      </trkpt>
      <trkpt lat="48.58877" lon="1.91501">
        <ele>185.67</ele>
        <time>2018-01-13T10:35:05Z</time>
      </trkpt>
      <trkpt lat="48.58878" lon="1.91495">
        <ele>185.67</ele>
        <time>2018-01-13T10:35:09Z</time>
      </trkpt>
      <trkpt lat="48.5888" lon="1.91488">
        <ele>186.15</ele>
        <time>2018-01-13T10:35:15Z</time>
      </trkpt>
      <trkpt lat="48.58881" lon="1.91485">
        <ele>185.67</ele>
        <time>2018-01-13T10:35:17Z</time>
      </trkpt>
      <trkpt lat="48.58885" lon="1.91476">
        <ele>186.15</ele>
        <time>2018-01-13T10:35:25Z</time>
      </trkpt>
      <trkpt lat="48.58886" lon="1.91473">
        <ele>186.15</ele>
        <time>2018-01-13T10:35:30Z</time>
      </trkpt>
      <trkpt lat="48.58889" lon="1.91468">
        <ele>185.67</ele>
        <time>2018-01-13T10:35:35Z</time>
      </trkpt>
      <trkpt lat="48.58892" lon="1.91462">
        <ele>186.15</ele>
        <time>2018-01-13T10:35:41Z</time>
      </trkpt>
      <trkpt lat="48.58894" lon="1.91456">
        <ele>186.15</ele>
        <time>2018-01-13T10:35:47Z</time>
      </trkpt>
      <trkpt lat="48.58896" lon="1.9145">
        <ele>186.15</ele>
        <time>2018-01-13T10:35:53Z</time>
      </trkpt>
      <trkpt lat="48.589" lon="1.91444">
        <ele>186.15</ele>
        <time>2018-01-13T10:35:58Z</time>
      </trkpt>
      <trkpt lat="48.58907" lon="1.91433">
        <ele>186.15</ele>
        <time>2018-01-13T10:36:04Z</time>
      </trkpt>
      <trkpt lat="48.58908" lon="1.91431">
        <ele>186.63</ele>
        <time>2018-01-13T10:36:06Z</time>
      </trkpt>
      <trkpt lat="48.58914" lon="1.91423">
        <ele>186.63</ele>
        <time>2018-01-13T10:36:12Z</time>
      </trkpt>
      <trkpt lat="48.58915" lon="1.91423">
        <ele>186.63</ele>
        <time>2018-01-13T10:36:13Z</time>
      </trkpt>
      <trkpt lat="48.58924" lon="1.91404">
        <ele>186.63</ele>
        <time>2018-01-13T10:36:22Z</time>
      </trkpt>
      <trkpt lat="48.5893" lon="1.91394">
        <ele>186.63</ele>
        <time>2018-01-13T10:36:29Z</time>
      </trkpt>
      <trkpt lat="48.58937" lon="1.91384">
        <ele>187.11</ele>
        <time>2018-01-13T10:36:37Z</time>
      </trkpt>
      <trkpt lat="48.58941" lon="1.9138">
        <ele>187.11</ele>
        <time>2018-01-13T10:36:43Z</time>
      </trkpt>
      <trkpt lat="48.58945" lon="1.91376">
        <ele>187.11</ele>
        <time>2018-01-13T10:36:47Z</time>
      </trkpt>
      <trkpt lat="48.5895" lon="1.91366">
        <ele>187.11</ele>
        <time>2018-01-13T10:36:54Z</time>
      </trkpt>
      <trkpt lat="48.58954" lon="1.91359">
        <ele>187.11</ele>
        <time>2018-01-13T10:36:58Z</time>
      </trkpt>
      <trkpt lat="48.58957" lon="1.91354">
        <ele>187.11</ele>
        <time>2018-01-13T10:37:01Z</time>
      </trkpt>
      <trkpt lat="48.58963" lon="1.91345">
        <ele>187.11</ele>
        <time>2018-01-13T10:37:08Z</time>
      </trkpt>
      <trkpt lat="48.58967" lon="1.9134">
        <ele>187.59</ele>
        <time>2018-01-13T10:37:13Z</time>
      </trkpt>
      <trkpt lat="48.58969" lon="1.91336">
        <ele>188.08</ele>
        <time>2018-01-13T10:37:19Z</time>
      </trkpt>
      <trkpt lat="48.58972" lon="1.9133">
        <ele>187.11</ele>
        <time>2018-01-13T10:37:26Z</time>
      </trkpt>
      <trkpt lat="48.58973" lon="1.91329">
        <ele>187.11</ele>
        <time>2018-01-13T10:37:27Z</time>
      </trkpt>
      <trkpt lat="48.58977" lon="1.91323">
        <ele>187.59</ele>
        <time>2018-01-13T10:37:33Z</time>
      </trkpt>
      <trkpt lat="48.58981" lon="1.9131">
        <ele>187.59</ele>
        <time>2018-01-13T10:37:40Z</time>
      </trkpt>
      <trkpt lat="48.58982" lon="1.91307">
        <ele>187.59</ele>
        <time>2018-01-13T10:37:42Z</time>
      </trkpt>
      <trkpt lat="48.58991" lon="1.91295">
        <ele>187.59</ele>
        <time>2018-01-13T10:37:50Z</time>
      </trkpt>
      <trkpt lat="48.58992" lon="1.91292">
        <ele>187.59</ele>
        <time>2018-01-13T10:37:54Z</time>
      </trkpt>
      <trkpt lat="48.58995" lon="1.91287">
        <ele>188.08</ele>
        <time>2018-01-13T10:37:57Z</time>
      </trkpt>
      <trkpt lat="48.58999" lon="1.91281">
        <ele>187.59</ele>
        <time>2018-01-13T10:38:03Z</time>
      </trkpt>
      <trkpt lat="48.59001" lon="1.91277">
        <ele>187.59</ele>
        <time>2018-01-13T10:38:06Z</time>
      </trkpt>
      <trkpt lat="48.59004" lon="1.9127">
        <ele>187.59</ele>
        <time>2018-01-13T10:38:10Z</time>
      </trkpt>
      <trkpt lat="48.59007" lon="1.91266">
        <ele>187.59</ele>
        <time>2018-01-13T10:38:13Z</time>
      </trkpt>
      <trkpt lat="48.5901" lon="1.91263">
        <ele>187.59</ele>
        <time>2018-01-13T10:38:16Z</time>
      </trkpt>
      <trkpt lat="48.59014" lon="1.91253">
        <ele>188.08</ele>
        <time>2018-01-13T10:38:24Z</time>
      </trkpt>
      <trkpt lat="48.59016" lon="1.91248">
        <ele>188.56</ele>
        <time>2018-01-13T10:38:29Z</time>
      </trkpt>
      <trkpt lat="48.59021" lon="1.91244">
        <ele>188.56</ele>
        <time>2018-01-13T10:38:36Z</time>
      </trkpt>
      <trkpt lat="48.59027" lon="1.91236">
        <ele>188.08</ele>
        <time>2018-01-13T10:38:41Z</time>
      </trkpt>
      <trkpt lat="48.5903" lon="1.91226">
        <ele>188.08</ele>
        <time>2018-01-13T10:38:49Z</time>
      </trkpt>
      <trkpt lat="48.59031" lon="1.9122">
        <ele>188.08</ele>
        <time>2018-01-13T10:38:54Z</time>
      </trkpt>
      <trkpt lat="48.59036" lon="1.91212">
        <ele>188.08</ele>
        <time>2018-01-13T10:39:00Z</time>
      </trkpt>
      <trkpt lat="48.59041" lon="1.91205">
        <ele>188.56</ele>
        <time>2018-01-13T10:39:06Z</time>
      </trkpt>
      <trkpt lat="48.59043" lon="1.912">
        <ele>188.56</ele>
        <time>2018-01-13T10:39:09Z</time>
      </trkpt>
      <trkpt lat="48.59051" lon="1.91187">
        <ele>189.04</ele>
        <time>2018-01-13T10:39:17Z</time>
      </trkpt>
      <trkpt lat="48.59057" lon="1.9118">
        <ele>188.56</ele>
        <time>2018-01-13T10:39:23Z</time>
      </trkpt>
      <trkpt lat="48.59061" lon="1.91174">
        <ele>188.56</ele>
        <time>2018-01-13T10:39:25Z</time>
      </trkpt>
      <trkpt lat="48.59063" lon="1.91174">
        <ele>188.56</ele>
        <time>2018-01-13T10:39:27Z</time>
      </trkpt>
      <trkpt lat="48.59063" lon="1.91171">
        <ele>188.56</ele>
        <time>2018-01-13T10:39:35Z</time>
      </trkpt>
      <trkpt lat="48.59064" lon="1.91168">
        <ele>188.56</ele>
        <time>2018-01-13T10:39:37Z</time>
      </trkpt>
      <trkpt lat="48.59066" lon="1.91161">
        <ele>188.56</ele>
        <time>2018-01-13T10:39:43Z</time>
      </trkpt>
      <trkpt lat="48.59066" lon="1.91159">
        <ele>188.56</ele>
        <time>2018-01-13T10:39:45Z</time>
      </trkpt>
      <trkpt lat="48.5907" lon="1.91151">
        <ele>188.56</ele>
        <time>2018-01-13T10:39:53Z</time>
      </trkpt>
      <trkpt lat="48.59071" lon="1.91149">
        <ele>188.56</ele>
        <time>2018-01-13T10:39:57Z</time>
      </trkpt>
      <trkpt lat="48.59075" lon="1.91141">
        <ele>188.56</ele>
        <time>2018-01-13T10:40:04Z</time>
      </trkpt>
      <trkpt lat="48.59079" lon="1.91133">
        <ele>188.56</ele>
        <time>2018-01-13T10:40:11Z</time>
      </trkpt>
      <trkpt lat="48.59081" lon="1.91129">
        <ele>188.56</ele>
        <time>2018-01-13T10:40:17Z</time>
      </trkpt>
      <trkpt lat="48.5908" lon="1.91125">
        <ele>188.56</ele>
        <time>2018-01-13T10:40:20Z</time>
      </trkpt>
      <trkpt lat="48.59083" lon="1.91116">
        <ele>188.56</ele>
        <time>2018-01-13T10:40:27Z</time>
      </trkpt>
      <trkpt lat="48.59087" lon="1.91105">
        <ele>188.56</ele>
        <time>2018-01-13T10:40:33Z</time>
      </trkpt>
      <trkpt lat="48.59088" lon="1.91103">
        <ele>188.56</ele>
        <time>2018-01-13T10:40:35Z</time>
      </trkpt>
      <trkpt lat="48.5909" lon="1.91098">
        <ele>188.56</ele>
        <time>2018-01-13T10:40:39Z</time>
      </trkpt>
      <trkpt lat="48.59094" lon="1.91087">
        <ele>188.56</ele>
        <time>2018-01-13T10:40:46Z</time>
      </trkpt>
      <trkpt lat="48.59095" lon="1.91082">
        <ele>188.56</ele>
        <time>2018-01-13T10:40:50Z</time>
      </trkpt>
      <trkpt lat="48.59096" lon="1.91077">
        <ele>188.56</ele>
        <time>2018-01-13T10:40:54Z</time>
      </trkpt>
      <trkpt lat="48.59101" lon="1.91066">
        <ele>188.56</ele>
        <time>2018-01-13T10:41:01Z</time>
      </trkpt>
      <trkpt lat="48.59102" lon="1.91065">
        <ele>188.56</ele>
        <time>2018-01-13T10:41:02Z</time>
      </trkpt>
      <trkpt lat="48.59103" lon="1.91062">
        <ele>189.04</ele>
        <time>2018-01-13T10:41:04Z</time>
      </trkpt>
      <trkpt lat="48.59107" lon="1.91049">
        <ele>188.56</ele>
        <time>2018-01-13T10:41:12Z</time>
      </trkpt>
      <trkpt lat="48.59108" lon="1.91044">
        <ele>188.56</ele>
        <time>2018-01-13T10:41:17Z</time>
      </trkpt>
      <trkpt lat="48.59109" lon="1.91043">
        <ele>188.56</ele>
        <time>2018-01-13T10:41:18Z</time>
      </trkpt>
      <trkpt lat="48.59111" lon="1.91039">
        <ele>189.04</ele>
        <time>2018-01-13T10:41:21Z</time>
      </trkpt>
      <trkpt lat="48.59117" lon="1.91026">
        <ele>189.04</ele>
        <time>2018-01-13T10:41:29Z</time>
      </trkpt>
      <trkpt lat="48.5912" lon="1.91021">
        <ele>189.04</ele>
        <time>2018-01-13T10:41:36Z</time>
      </trkpt>
      <trkpt lat="48.59122" lon="1.91018">
        <ele>188.56</ele>
        <time>2018-01-13T10:41:47Z</time>
      </trkpt>
      <trkpt lat="48.59124" lon="1.91015">
        <ele>188.56</ele>
        <time>2018-01-13T10:42:01Z</time>
      </trkpt>
      <trkpt lat="48.59125" lon="1.91013">
        <ele>188.56</ele>
        <time>2018-01-13T10:42:09Z</time>
      </trkpt>
      <trkpt lat="48.59126" lon="1.91013">
        <ele>188.56</ele>
        <time>2018-01-13T10:42:14Z</time>
      </trkpt>
      <trkpt lat="48.59126" lon="1.91012">
        <ele>188.56</ele>
        <time>2018-01-13T10:42:16Z</time>
      </trkpt>
      <trkpt lat="48.59127" lon="1.91008">
        <ele>188.56</ele>
        <time>2018-01-13T10:42:18Z</time>
      </trkpt>
      <trkpt lat="48.59129" lon="1.91004">
        <ele>188.56</ele>
        <time>2018-01-13T10:42:22Z</time>
      </trkpt>
      <trkpt lat="48.59129" lon="1.90994">
        <ele>188.56</ele>
        <time>2018-01-13T10:42:29Z</time>
      </trkpt>
      <trkpt lat="48.59131" lon="1.90989">
        <ele>189.04</ele>
        <time>2018-01-13T10:42:32Z</time>
      </trkpt>
      <trkpt lat="48.59136" lon="1.90976">
        <ele>188.56</ele>
        <time>2018-01-13T10:42:39Z</time>
      </trkpt>
      <trkpt lat="48.59137" lon="1.90971">
        <ele>188.56</ele>
        <time>2018-01-13T10:42:42Z</time>
      </trkpt>
      <trkpt lat="48.59141" lon="1.90963">
        <ele>188.56</ele>
        <time>2018-01-13T10:42:47Z</time>
      </trkpt>
      <trkpt lat="48.59142" lon="1.90956">
        <ele>188.56</ele>
        <time>2018-01-13T10:42:51Z</time>
      </trkpt>
      <trkpt lat="48.59148" lon="1.90946">
        <ele>189.04</ele>
        <time>2018-01-13T10:42:57Z</time>
      </trkpt>
      <trkpt lat="48.59151" lon="1.90941">
        <ele>189.04</ele>
        <time>2018-01-13T10:43:00Z</time>
      </trkpt>
      <trkpt lat="48.59152" lon="1.90935">
        <ele>189.04</ele>
        <time>2018-01-13T10:43:04Z</time>
      </trkpt>
      <trkpt lat="48.59155" lon="1.9093">
        <ele>189.04</ele>
        <time>2018-01-13T10:43:10Z</time>
      </trkpt>
      <trkpt lat="48.59157" lon="1.90923">
        <ele>188.56</ele>
        <time>2018-01-13T10:43:16Z</time>
      </trkpt>
      <trkpt lat="48.59164" lon="1.90909">
        <ele>188.56</ele>
        <time>2018-01-13T10:43:24Z</time>
      </trkpt>
      <trkpt lat="48.59165" lon="1.90902">
        <ele>189.04</ele>
        <time>2018-01-13T10:43:27Z</time>
      </trkpt>
      <trkpt lat="48.5917" lon="1.90891">
        <ele>189.04</ele>
        <time>2018-01-13T10:43:33Z</time>
      </trkpt>
      <trkpt lat="48.59172" lon="1.90886">
        <ele>189.04</ele>
        <time>2018-01-13T10:43:39Z</time>
      </trkpt>
      <trkpt lat="48.59172" lon="1.90885">
        <ele>189.04</ele>
        <time>2018-01-13T10:43:40Z</time>
      </trkpt>
      <trkpt lat="48.59173" lon="1.9088">
        <ele>189.04</ele>
        <time>2018-01-13T10:43:43Z</time>
      </trkpt>
      <trkpt lat="48.59174" lon="1.90876">
        <ele>189.04</ele>
        <time>2018-01-13T10:43:45Z</time>
      </trkpt>
      <trkpt lat="48.59179" lon="1.90866">
        <ele>189.04</ele>
        <time>2018-01-13T10:43:52Z</time>
      </trkpt>
      <trkpt lat="48.5918" lon="1.90861">
        <ele>189.04</ele>
        <time>2018-01-13T10:43:57Z</time>
      </trkpt>
      <trkpt lat="48.59178" lon="1.90857">
        <ele>189.04</ele>
        <time>2018-01-13T10:44:02Z</time>
      </trkpt>
      <trkpt lat="48.59178" lon="1.90855">
        <ele>189.04</ele>
        <time>2018-01-13T10:44:04Z</time>
      </trkpt>
      <trkpt lat="48.59179" lon="1.90848">
        <ele>189.04</ele>
        <time>2018-01-13T10:44:07Z</time>
      </trkpt>
      <trkpt lat="48.59181" lon="1.90842">
        <ele>189.04</ele>
        <time>2018-01-13T10:44:11Z</time>
      </trkpt>
      <trkpt lat="48.59183" lon="1.90839">
        <ele>189.04</ele>
        <time>2018-01-13T10:44:13Z</time>
      </trkpt>
      <trkpt lat="48.59189" lon="1.90829">
        <ele>189.04</ele>
        <time>2018-01-13T10:44:19Z</time>
      </trkpt>
      <trkpt lat="48.59192" lon="1.90823">
        <ele>189.04</ele>
        <time>2018-01-13T10:44:23Z</time>
      </trkpt>
      <trkpt lat="48.59195" lon="1.90816">
        <ele>188.56</ele>
        <time>2018-01-13T10:44:27Z</time>
      </trkpt>
      <trkpt lat="48.59202" lon="1.90807">
        <ele>189.04</ele>
        <time>2018-01-13T10:44:34Z</time>
      </trkpt>
      <trkpt lat="48.59207" lon="1.90798">
        <ele>189.52</ele>
        <time>2018-01-13T10:44:38Z</time>
      </trkpt>
      <trkpt lat="48.59207" lon="1.90797">
        <ele>189.04</ele>
        <time>2018-01-13T10:44:39Z</time>
      </trkpt>
      <trkpt lat="48.59215" lon="1.90792">
        <ele>189.04</ele>
        <time>2018-01-13T10:44:47Z</time>
      </trkpt>
      <trkpt lat="48.59217" lon="1.9079">
        <ele>189.52</ele>
        <time>2018-01-13T10:44:51Z</time>
      </trkpt>
      <trkpt lat="48.59218" lon="1.90782">
        <ele>189.52</ele>
        <time>2018-01-13T10:44:57Z</time>
      </trkpt>
      <trkpt lat="48.59219" lon="1.90781">
        <ele>189.52</ele>
        <time>2018-01-13T10:45:00Z</time>
      </trkpt>
      <trkpt lat="48.59225" lon="1.90772">
        <ele>189.52</ele>
        <time>2018-01-13T10:45:06Z</time>
      </trkpt>
      <trkpt lat="48.59227" lon="1.9077">
        <ele>189.52</ele>
        <time>2018-01-13T10:45:09Z</time>
      </trkpt>
      <trkpt lat="48.59233" lon="1.90765">
        <ele>190</ele>
        <time>2018-01-13T10:45:15Z</time>
      </trkpt>
      <trkpt lat="48.59238" lon="1.90763">
        <ele>189.52</ele>
        <time>2018-01-13T10:45:21Z</time>
      </trkpt>
      <trkpt lat="48.59243" lon="1.9076">
        <ele>189.52</ele>
        <time>2018-01-13T10:45:25Z</time>
      </trkpt>
      <trkpt lat="48.59253" lon="1.90754">
        <ele>189.52</ele>
        <time>2018-01-13T10:45:32Z</time>
      </trkpt>
      <trkpt lat="48.59259" lon="1.90747">
        <ele>190</ele>
        <time>2018-01-13T10:45:39Z</time>
      </trkpt>
      <trkpt lat="48.59261" lon="1.90744">
        <ele>190</ele>
        <time>2018-01-13T10:45:41Z</time>
      </trkpt>
      <trkpt lat="48.59265" lon="1.9074">
        <ele>190</ele>
        <time>2018-01-13T10:45:46Z</time>
      </trkpt>
      <trkpt lat="48.59273" lon="1.90732">
        <ele>190</ele>
        <time>2018-01-13T10:45:53Z</time>
      </trkpt>
      <trkpt lat="48.59279" lon="1.90725">
        <ele>190</ele>
        <time>2018-01-13T10:46:00Z</time>
      </trkpt>
      <trkpt lat="48.59287" lon="1.90716">
        <ele>190</ele>
        <time>2018-01-13T10:46:07Z</time>
      </trkpt>
      <trkpt lat="48.59291" lon="1.90714">
        <ele>190</ele>
        <time>2018-01-13T10:46:13Z</time>
      </trkpt>
      <trkpt lat="48.59294" lon="1.90709">
        <ele>190</ele>
        <time>2018-01-13T10:46:17Z</time>
      </trkpt>
      <trkpt lat="48.59303" lon="1.90704">
        <ele>190</ele>
        <time>2018-01-13T10:46:24Z</time>
      </trkpt>
      <trkpt lat="48.59309" lon="1.90698">
        <ele>190</ele>
        <time>2018-01-13T10:46:29Z</time>
      </trkpt>
      <trkpt lat="48.59313" lon="1.90694">
        <ele>190</ele>
        <time>2018-01-13T10:46:33Z</time>
      </trkpt>
      <trkpt lat="48.59315" lon="1.90693">
        <ele>190.48</ele>
        <time>2018-01-13T10:46:35Z</time>
      </trkpt>
      <trkpt lat="48.59321" lon="1.90687">
        <ele>190.48</ele>
        <time>2018-01-13T10:46:42Z</time>
      </trkpt>
      <trkpt lat="48.59322" lon="1.90685">
        <ele>190</ele>
        <time>2018-01-13T10:46:44Z</time>
      </trkpt>
      <trkpt lat="48.59325" lon="1.90681">
        <ele>190.48</ele>
        <time>2018-01-13T10:46:51Z</time>
      </trkpt>
      <trkpt lat="48.59329" lon="1.90668">
        <ele>190</ele>
        <time>2018-01-13T10:47:02Z</time>
      </trkpt>
      <trkpt lat="48.5933" lon="1.90668">
        <ele>190</ele>
        <time>2018-01-13T10:47:11Z</time>
      </trkpt>
      <trkpt lat="48.5933" lon="1.90667">
        <ele>190</ele>
        <time>2018-01-13T10:47:18Z</time>
      </trkpt>
      <trkpt lat="48.5933" lon="1.90664">
        <ele>190</ele>
        <time>2018-01-13T10:47:26Z</time>
      </trkpt>
      <trkpt lat="48.59332" lon="1.90661">
        <ele>190</ele>
        <time>2018-01-13T10:47:33Z</time>
      </trkpt>
      <trkpt lat="48.59333" lon="1.90662">
        <ele>190</ele>
        <time>2018-01-13T10:47:41Z</time>
      </trkpt>
      <trkpt lat="48.59335" lon="1.9066">
        <ele>190</ele>
        <time>2018-01-13T10:47:49Z</time>
      </trkpt>
      <trkpt lat="48.59336" lon="1.90658">
        <ele>189.52</ele>
        <time>2018-01-13T10:47:56Z</time>
      </trkpt>
      <trkpt lat="48.59337" lon="1.90658">
        <ele>190</ele>
        <time>2018-01-13T10:48:04Z</time>
      </trkpt>
      <trkpt lat="48.59337" lon="1.90656">
        <ele>190</ele>
        <time>2018-01-13T10:48:18Z</time>
      </trkpt>
      <trkpt lat="48.5934" lon="1.90653">
        <ele>190</ele>
        <time>2018-01-13T10:48:23Z</time>
      </trkpt>
      <trkpt lat="48.59342" lon="1.90651">
        <ele>190</ele>
        <time>2018-01-13T10:48:29Z</time>
      </trkpt>
      <trkpt lat="48.59345" lon="1.90647">
        <ele>190.48</ele>
        <time>2018-01-13T10:48:34Z</time>
      </trkpt>
      <trkpt lat="48.59348" lon="1.90646">
        <ele>189.52</ele>
        <time>2018-01-13T10:48:37Z</time>
      </trkpt>
      <trkpt lat="48.5935" lon="1.90644">
        <ele>190</ele>
        <time>2018-01-13T10:48:44Z</time>
      </trkpt>
      <trkpt lat="48.5935" lon="1.90642">
        <ele>190</ele>
        <time>2018-01-13T10:48:54Z</time>
      </trkpt>
      <trkpt lat="48.59352" lon="1.90641">
        <ele>189.52</ele>
        <time>2018-01-13T10:48:56Z</time>
      </trkpt>
      <trkpt lat="48.59357" lon="1.90639">
        <ele>189.52</ele>
        <time>2018-01-13T10:49:02Z</time>
      </trkpt>
      <trkpt lat="48.59359" lon="1.90635">
        <ele>189.52</ele>
        <time>2018-01-13T10:49:08Z</time>
      </trkpt>
      <trkpt lat="48.5936" lon="1.90634">
        <ele>189.52</ele>
        <time>2018-01-13T10:49:16Z</time>
      </trkpt>
      <trkpt lat="48.59362" lon="1.90631">
        <ele>189.52</ele>
        <time>2018-01-13T10:49:23Z</time>
      </trkpt>
      <trkpt lat="48.59366" lon="1.90628">
        <ele>189.52</ele>
        <time>2018-01-13T10:49:28Z</time>
      </trkpt>
      <trkpt lat="48.5937" lon="1.90625">
        <ele>189.04</ele>
        <time>2018-01-13T10:49:34Z</time>
      </trkpt>
      <trkpt lat="48.59376" lon="1.90621">
        <ele>189.04</ele>
        <time>2018-01-13T10:49:40Z</time>
      </trkpt>
      <trkpt lat="48.5938" lon="1.90618">
        <ele>189.04</ele>
        <time>2018-01-13T10:49:46Z</time>
      </trkpt>
      <trkpt lat="48.59385" lon="1.90613">
        <ele>189.04</ele>
        <time>2018-01-13T10:49:52Z</time>
      </trkpt>
      <trkpt lat="48.59392" lon="1.90606">
        <ele>189.04</ele>
        <time>2018-01-13T10:49:58Z</time>
      </trkpt>
      <trkpt lat="48.59398" lon="1.90599">
        <ele>189.04</ele>
        <time>2018-01-13T10:50:06Z</time>
      </trkpt>
      <trkpt lat="48.59403" lon="1.90591">
        <ele>189.04</ele>
        <time>2018-01-13T10:50:12Z</time>
      </trkpt>
      <trkpt lat="48.59408" lon="1.90585">
        <ele>188.56</ele>
        <time>2018-01-13T10:50:18Z</time>
      </trkpt>
      <trkpt lat="48.59414" lon="1.90576">
        <ele>188.56</ele>
        <time>2018-01-13T10:50:25Z</time>
      </trkpt>
      <trkpt lat="48.59417" lon="1.90574">
        <ele>188.56</ele>
        <time>2018-01-13T10:50:28Z</time>
      </trkpt>
      <trkpt lat="48.59424" lon="1.90566">
        <ele>188.56</ele>
        <time>2018-01-13T10:50:36Z</time>
      </trkpt>
      <trkpt lat="48.5943" lon="1.90559">
        <ele>188.56</ele>
        <time>2018-01-13T10:50:42Z</time>
      </trkpt>
      <trkpt lat="48.59435" lon="1.90553">
        <ele>188.08</ele>
        <time>2018-01-13T10:50:49Z</time>
      </trkpt>
      <trkpt lat="48.59441" lon="1.90546">
        <ele>187.59</ele>
        <time>2018-01-13T10:50:57Z</time>
      </trkpt>
      <trkpt lat="48.59446" lon="1.90542">
        <ele>187.59</ele>
        <time>2018-01-13T10:51:03Z</time>
      </trkpt>
      <trkpt lat="48.59451" lon="1.90537">
        <ele>187.59</ele>
        <time>2018-01-13T10:51:10Z</time>
      </trkpt>
      <trkpt lat="48.59456" lon="1.90532">
        <ele>187.59</ele>
        <time>2018-01-13T10:51:14Z</time>
      </trkpt>
      <trkpt lat="48.59458" lon="1.90531">
        <ele>187.59</ele>
        <time>2018-01-13T10:51:16Z</time>
      </trkpt>
      <trkpt lat="48.59465" lon="1.90525">
        <ele>187.59</ele>
        <time>2018-01-13T10:51:24Z</time>
      </trkpt>
      <trkpt lat="48.59472" lon="1.9052">
        <ele>187.59</ele>
        <time>2018-01-13T10:51:32Z</time>
      </trkpt>
      <trkpt lat="48.5948" lon="1.90517">
        <ele>188.08</ele>
        <time>2018-01-13T10:51:39Z</time>
      </trkpt>
      <trkpt lat="48.59485" lon="1.9051">
        <ele>188.08</ele>
        <time>2018-01-13T10:51:45Z</time>
      </trkpt>
      <trkpt lat="48.59486" lon="1.90509">
        <ele>188.08</ele>
        <time>2018-01-13T10:51:46Z</time>
      </trkpt>
      <trkpt lat="48.59493" lon="1.90503">
        <ele>188.56</ele>
        <time>2018-01-13T10:51:53Z</time>
      </trkpt>
      <trkpt lat="48.59493" lon="1.90503">
        <ele>188.56</ele>
        <time>2018-01-13T10:51:54Z</time>
      </trkpt>
      <trkpt lat="48.59498" lon="1.90497">
        <ele>188.56</ele>
        <time>2018-01-13T10:51:58Z</time>
      </trkpt>
      <trkpt lat="48.59503" lon="1.90493">
        <ele>188.56</ele>
        <time>2018-01-13T10:52:02Z</time>
      </trkpt>
      <trkpt lat="48.59506" lon="1.90488">
        <ele>188.56</ele>
        <time>2018-01-13T10:52:06Z</time>
      </trkpt>
      <trkpt lat="48.59512" lon="1.9048">
        <ele>189.04</ele>
        <time>2018-01-13T10:52:12Z</time>
      </trkpt>
      <trkpt lat="48.59516" lon="1.90475">
        <ele>189.04</ele>
        <time>2018-01-13T10:52:18Z</time>
      </trkpt>
      <trkpt lat="48.5952" lon="1.90469">
        <ele>189.04</ele>
        <time>2018-01-13T10:52:24Z</time>
      </trkpt>
      <trkpt lat="48.59526" lon="1.90461">
        <ele>189.04</ele>
        <time>2018-01-13T10:52:29Z</time>
      </trkpt>
      <trkpt lat="48.59532" lon="1.90453">
        <ele>189.04</ele>
        <time>2018-01-13T10:52:35Z</time>
      </trkpt>
      <trkpt lat="48.59533" lon="1.90453">
        <ele>189.04</ele>
        <time>2018-01-13T10:52:36Z</time>
      </trkpt>
      <trkpt lat="48.59537" lon="1.90452">
        <ele>188.56</ele>
        <time>2018-01-13T10:52:43Z</time>
      </trkpt>
      <trkpt lat="48.59543" lon="1.90455">
        <ele>188.56</ele>
        <time>2018-01-13T10:52:49Z</time>
      </trkpt>
      <trkpt lat="48.59552" lon="1.9046">
        <ele>188.56</ele>
        <time>2018-01-13T10:52:57Z</time>
      </trkpt>
      <trkpt lat="48.59553" lon="1.90461">
        <ele>188.56</ele>
        <time>2018-01-13T10:52:59Z</time>
      </trkpt>
      <trkpt lat="48.59558" lon="1.90464">
        <ele>188.56</ele>
        <time>2018-01-13T10:53:04Z</time>
      </trkpt>
      <trkpt lat="48.59562" lon="1.90467">
        <ele>188.56</ele>
        <time>2018-01-13T10:53:10Z</time>
      </trkpt>
      <trkpt lat="48.59564" lon="1.90467">
        <ele>188.08</ele>
        <time>2018-01-13T10:53:15Z</time>
      </trkpt>
      <trkpt lat="48.5957" lon="1.90472">
        <ele>188.56</ele>
        <time>2018-01-13T10:53:20Z</time>
      </trkpt>
      <trkpt lat="48.59572" lon="1.90474">
        <ele>188.08</ele>
        <time>2018-01-13T10:53:24Z</time>
      </trkpt>
      <trkpt lat="48.59583" lon="1.90484">
        <ele>188.08</ele>
        <time>2018-01-13T10:53:31Z</time>
      </trkpt>
      <trkpt lat="48.59586" lon="1.90486">
        <ele>188.08</ele>
        <time>2018-01-13T10:53:37Z</time>
      </trkpt>
      <trkpt lat="48.59596" lon="1.90494">
        <ele>187.59</ele>
        <time>2018-01-13T10:53:44Z</time>
      </trkpt>
      <trkpt lat="48.59601" lon="1.90499">
        <ele>187.59</ele>
        <time>2018-01-13T10:53:49Z</time>
      </trkpt>
      <trkpt lat="48.59607" lon="1.90503">
        <ele>187.59</ele>
        <time>2018-01-13T10:53:54Z</time>
      </trkpt>
      <trkpt lat="48.59616" lon="1.9051">
        <ele>187.11</ele>
        <time>2018-01-13T10:54:01Z</time>
      </trkpt>
      <trkpt lat="48.59624" lon="1.90517">
        <ele>187.11</ele>
        <time>2018-01-13T10:54:09Z</time>
      </trkpt>
      <trkpt lat="48.59631" lon="1.90521">
        <ele>187.11</ele>
        <time>2018-01-13T10:54:15Z</time>
      </trkpt>
      <trkpt lat="48.59637" lon="1.90525">
        <ele>187.11</ele>
        <time>2018-01-13T10:54:21Z</time>
      </trkpt>
      <trkpt lat="48.59642" lon="1.90526">
        <ele>187.11</ele>
        <time>2018-01-13T10:54:27Z</time>
      </trkpt>
      <trkpt lat="48.59645" lon="1.90528">
        <ele>187.11</ele>
        <time>2018-01-13T10:54:32Z</time>
      </trkpt>
      <trkpt lat="48.59648" lon="1.90529">
        <ele>187.11</ele>
        <time>2018-01-13T10:54:38Z</time>
      </trkpt>
      <trkpt lat="48.59653" lon="1.90532">
        <ele>187.11</ele>
        <time>2018-01-13T10:54:43Z</time>
      </trkpt>
      <trkpt lat="48.59654" lon="1.90532">
        <ele>187.11</ele>
        <time>2018-01-13T10:54:44Z</time>
      </trkpt>
      <trkpt lat="48.59663" lon="1.90538">
        <ele>186.63</ele>
        <time>2018-01-13T10:54:50Z</time>
      </trkpt>
      <trkpt lat="48.59672" lon="1.90541">
        <ele>186.63</ele>
        <time>2018-01-13T10:54:57Z</time>
      </trkpt>
      <trkpt lat="48.59672" lon="1.90541">
        <ele>186.63</ele>
        <time>2018-01-13T10:54:58Z</time>
      </trkpt>
      <trkpt lat="48.59679" lon="1.90545">
        <ele>186.15</ele>
        <time>2018-01-13T10:55:06Z</time>
      </trkpt>
      <trkpt lat="48.59682" lon="1.90547">
        <ele>185.67</ele>
        <time>2018-01-13T10:55:10Z</time>
      </trkpt>
      <trkpt lat="48.59688" lon="1.9055">
        <ele>185.67</ele>
        <time>2018-01-13T10:55:15Z</time>
      </trkpt>
      <trkpt lat="48.59692" lon="1.90552">
        <ele>185.67</ele>
        <time>2018-01-13T10:55:19Z</time>
      </trkpt>
      <trkpt lat="48.59695" lon="1.90555">
        <ele>185.67</ele>
        <time>2018-01-13T10:55:22Z</time>
      </trkpt>
      <trkpt lat="48.59701" lon="1.90562">
        <ele>185.19</ele>
        <time>2018-01-13T10:55:29Z</time>
      </trkpt>
      <trkpt lat="48.59705" lon="1.90567">
        <ele>184.71</ele>
        <time>2018-01-13T10:55:36Z</time>
      </trkpt>
      <trkpt lat="48.59708" lon="1.9057">
        <ele>184.71</ele>
        <time>2018-01-13T10:55:41Z</time>
      </trkpt>
      <trkpt lat="48.59713" lon="1.90579">
        <ele>183.75</ele>
        <time>2018-01-13T10:55:47Z</time>
      </trkpt>
      <trkpt lat="48.59717" lon="1.90581">
        <ele>183.27</ele>
        <time>2018-01-13T10:55:53Z</time>
      </trkpt>
      <trkpt lat="48.59722" lon="1.90583">
        <ele>182.79</ele>
        <time>2018-01-13T10:55:59Z</time>
      </trkpt>
      <trkpt lat="48.59725" lon="1.90586">
        <ele>181.83</ele>
        <time>2018-01-13T10:56:05Z</time>
      </trkpt>
      <trkpt lat="48.5973" lon="1.90588">
        <ele>181.35</ele>
        <time>2018-01-13T10:56:10Z</time>
      </trkpt>
      <trkpt lat="48.59734" lon="1.90593">
        <ele>180.87</ele>
        <time>2018-01-13T10:56:16Z</time>
      </trkpt>
      <trkpt lat="48.59738" lon="1.90597">
        <ele>180.87</ele>
        <time>2018-01-13T10:56:21Z</time>
      </trkpt>
      <trkpt lat="48.59744" lon="1.90595">
        <ele>180.38</ele>
        <time>2018-01-13T10:56:26Z</time>
      </trkpt>
      <trkpt lat="48.5975" lon="1.90597">
        <ele>179.42</ele>
        <time>2018-01-13T10:56:32Z</time>
      </trkpt>
      <trkpt lat="48.59759" lon="1.90596">
        <ele>178.46</ele>
        <time>2018-01-13T10:56:38Z</time>
      </trkpt>
      <trkpt lat="48.59764" lon="1.90601">
        <ele>177.5</ele>
        <time>2018-01-13T10:56:45Z</time>
      </trkpt>
      <trkpt lat="48.59771" lon="1.90604">
        <ele>177.02</ele>
        <time>2018-01-13T10:56:51Z</time>
      </trkpt>
      <trkpt lat="48.59778" lon="1.90607">
        <ele>176.06</ele>
        <time>2018-01-13T10:56:58Z</time>
      </trkpt>
      <trkpt lat="48.59785" lon="1.90612">
        <ele>175.1</ele>
        <time>2018-01-13T10:57:05Z</time>
      </trkpt>
      <trkpt lat="48.59794" lon="1.90619">
        <ele>174.14</ele>
        <time>2018-01-13T10:57:13Z</time>
      </trkpt>
      <trkpt lat="48.598" lon="1.90625">
        <ele>173.66</ele>
        <time>2018-01-13T10:57:20Z</time>
      </trkpt>
      <trkpt lat="48.59803" lon="1.90628">
        <ele>173.17</ele>
        <time>2018-01-13T10:57:23Z</time>
      </trkpt>
      <trkpt lat="48.59813" lon="1.90632">
        <ele>172.21</ele>
        <time>2018-01-13T10:57:30Z</time>
      </trkpt>
      <trkpt lat="48.59818" lon="1.90631">
        <ele>171.73</ele>
        <time>2018-01-13T10:57:36Z</time>
      </trkpt>
      <trkpt lat="48.59826" lon="1.90638">
        <ele>170.77</ele>
        <time>2018-01-13T10:57:44Z</time>
      </trkpt>
      <trkpt lat="48.59831" lon="1.90642">
        <ele>170.29</ele>
        <time>2018-01-13T10:57:51Z</time>
      </trkpt>
      <trkpt lat="48.5984" lon="1.90646">
        <ele>169.81</ele>
        <time>2018-01-13T10:57:58Z</time>
      </trkpt>
      <trkpt lat="48.5985" lon="1.90653">
        <ele>168.85</ele>
        <time>2018-01-13T10:58:06Z</time>
      </trkpt>
      <trkpt lat="48.59856" lon="1.90661">
        <ele>168.85</ele>
        <time>2018-01-13T10:58:13Z</time>
      </trkpt>
      <trkpt lat="48.59859" lon="1.90665">
        <ele>168.37</ele>
        <time>2018-01-13T10:58:17Z</time>
      </trkpt>
      <trkpt lat="48.59865" lon="1.90668">
        <ele>167.41</ele>
        <time>2018-01-13T10:58:25Z</time>
      </trkpt>
      <trkpt lat="48.5987" lon="1.90672">
        <ele>167.41</ele>
        <time>2018-01-13T10:58:30Z</time>
      </trkpt>
      <trkpt lat="48.59872" lon="1.90674">
        <ele>166.93</ele>
        <time>2018-01-13T10:58:31Z</time>
      </trkpt>
      <trkpt lat="48.59877" lon="1.90678">
        <ele>166.45</ele>
        <time>2018-01-13T10:58:38Z</time>
      </trkpt>
      <trkpt lat="48.59885" lon="1.90681">
        <ele>165.96</ele>
        <time>2018-01-13T10:58:45Z</time>
      </trkpt>
      <trkpt lat="48.59889" lon="1.90687">
        <ele>165.96</ele>
        <time>2018-01-13T10:58:50Z</time>
      </trkpt>
      <trkpt lat="48.59889" lon="1.90687">
        <ele>165.48</ele>
        <time>2018-01-13T10:58:51Z</time>
      </trkpt>
      <trkpt lat="48.59895" lon="1.90693">
        <ele>165.48</ele>
        <time>2018-01-13T10:58:57Z</time>
      </trkpt>
      <trkpt lat="48.59901" lon="1.907">
        <ele>165</ele>
        <time>2018-01-13T10:59:03Z</time>
      </trkpt>
      <trkpt lat="48.59905" lon="1.90705">
        <ele>164.52</ele>
        <time>2018-01-13T10:59:07Z</time>
      </trkpt>
      <trkpt lat="48.5991" lon="1.90711">
        <ele>164.04</ele>
        <time>2018-01-13T10:59:13Z</time>
      </trkpt>
      <trkpt lat="48.59917" lon="1.90719">
        <ele>164.52</ele>
        <time>2018-01-13T10:59:21Z</time>
      </trkpt>
      <trkpt lat="48.59925" lon="1.90722">
        <ele>163.08</ele>
        <time>2018-01-13T10:59:27Z</time>
      </trkpt>
      <trkpt lat="48.59931" lon="1.90729">
        <ele>162.6</ele>
        <time>2018-01-13T10:59:34Z</time>
      </trkpt>
      <trkpt lat="48.59938" lon="1.90735">
        <ele>162.6</ele>
        <time>2018-01-13T10:59:40Z</time>
      </trkpt>
      <trkpt lat="48.59946" lon="1.90742">
        <ele>162.12</ele>
        <time>2018-01-13T10:59:47Z</time>
      </trkpt>
      <trkpt lat="48.59952" lon="1.90747">
        <ele>162.12</ele>
        <time>2018-01-13T10:59:54Z</time>
      </trkpt>
      <trkpt lat="48.59953" lon="1.90747">
        <ele>162.12</ele>
        <time>2018-01-13T10:59:55Z</time>
      </trkpt>
      <trkpt lat="48.59961" lon="1.90752">
        <ele>161.64</ele>
        <time>2018-01-13T11:00:03Z</time>
      </trkpt>
      <trkpt lat="48.59968" lon="1.90757">
        <ele>161.16</ele>
        <time>2018-01-13T11:00:11Z</time>
      </trkpt>
      <trkpt lat="48.59974" lon="1.90759">
        <ele>160.68</ele>
        <time>2018-01-13T11:00:17Z</time>
      </trkpt>
      <trkpt lat="48.5998" lon="1.90767">
        <ele>160.2</ele>
        <time>2018-01-13T11:00:23Z</time>
      </trkpt>
      <trkpt lat="48.59984" lon="1.90769">
        <ele>159.24</ele>
        <time>2018-01-13T11:00:30Z</time>
      </trkpt>
      <trkpt lat="48.59988" lon="1.90773">
        <ele>159.24</ele>
        <time>2018-01-13T11:00:35Z</time>
      </trkpt>
      <trkpt lat="48.59992" lon="1.90775">
        <ele>158.75</ele>
        <time>2018-01-13T11:00:40Z</time>
      </trkpt>
      <trkpt lat="48.59999" lon="1.90785">
        <ele>158.27</ele>
        <time>2018-01-13T11:00:45Z</time>
      </trkpt>
      <trkpt lat="48.60009" lon="1.90794">
        <ele>157.31</ele>
        <time>2018-01-13T11:00:52Z</time>
      </trkpt>
      <trkpt lat="48.60013" lon="1.90798">
        <ele>157.31</ele>
        <time>2018-01-13T11:00:55Z</time>
      </trkpt>
      <trkpt lat="48.60024" lon="1.90804">
        <ele>156.83</ele>
        <time>2018-01-13T11:01:02Z</time>
      </trkpt>
      <trkpt lat="48.60025" lon="1.90805">
        <ele>156.83</ele>
        <time>2018-01-13T11:01:03Z</time>
      </trkpt>
      <trkpt lat="48.60032" lon="1.90809">
        <ele>156.35</ele>
        <time>2018-01-13T11:01:09Z</time>
      </trkpt>
      <trkpt lat="48.60039" lon="1.90809">
        <ele>156.35</ele>
        <time>2018-01-13T11:01:16Z</time>
      </trkpt>
      <trkpt lat="48.6004" lon="1.90809">
        <ele>156.35</ele>
        <time>2018-01-13T11:01:17Z</time>
      </trkpt>
      <trkpt lat="48.60047" lon="1.90812">
        <ele>156.35</ele>
        <time>2018-01-13T11:01:25Z</time>
      </trkpt>
      <trkpt lat="48.60051" lon="1.90816">
        <ele>155.87</ele>
        <time>2018-01-13T11:01:30Z</time>
      </trkpt>
      <trkpt lat="48.60058" lon="1.90821">
        <ele>155.39</ele>
        <time>2018-01-13T11:01:36Z</time>
      </trkpt>
      <trkpt lat="48.60064" lon="1.90825">
        <ele>155.39</ele>
        <time>2018-01-13T11:01:43Z</time>
      </trkpt>
      <trkpt lat="48.60067" lon="1.90825">
        <ele>155.39</ele>
        <time>2018-01-13T11:01:48Z</time>
      </trkpt>
      <trkpt lat="48.60074" lon="1.90822">
        <ele>155.39</ele>
        <time>2018-01-13T11:01:52Z</time>
      </trkpt>
      <trkpt lat="48.60078" lon="1.90823">
        <ele>155.87</ele>
        <time>2018-01-13T11:01:56Z</time>
      </trkpt>
      <trkpt lat="48.60081" lon="1.90824">
        <ele>155.39</ele>
        <time>2018-01-13T11:01:58Z</time>
      </trkpt>
      <trkpt lat="48.6009" lon="1.9083">
        <ele>155.39</ele>
        <time>2018-01-13T11:02:05Z</time>
      </trkpt>
      <trkpt lat="48.60095" lon="1.90833">
        <ele>155.39</ele>
        <time>2018-01-13T11:02:09Z</time>
      </trkpt>
      <trkpt lat="48.601" lon="1.90833">
        <ele>154.91</ele>
        <time>2018-01-13T11:02:12Z</time>
      </trkpt>
      <trkpt lat="48.60112" lon="1.90831">
        <ele>155.39</ele>
        <time>2018-01-13T11:02:20Z</time>
      </trkpt>
      <trkpt lat="48.60115" lon="1.90832">
        <ele>155.39</ele>
        <time>2018-01-13T11:02:27Z</time>
      </trkpt>
      <trkpt lat="48.60115" lon="1.90832">
        <ele>155.87</ele>
        <time>2018-01-13T11:02:42Z</time>
      </trkpt>
      <trkpt lat="48.60118" lon="1.90837">
        <ele>155.87</ele>
        <time>2018-01-13T11:02:50Z</time>
      </trkpt>
      <trkpt lat="48.60118" lon="1.9084">
        <ele>155.87</ele>
        <time>2018-01-13T11:02:52Z</time>
      </trkpt>
      <trkpt lat="48.6012" lon="1.90849">
        <ele>155.39</ele>
        <time>2018-01-13T11:02:59Z</time>
      </trkpt>
      <trkpt lat="48.60123" lon="1.90855">
        <ele>155.39</ele>
        <time>2018-01-13T11:03:05Z</time>
      </trkpt>
      <trkpt lat="48.60127" lon="1.9086">
        <ele>155.39</ele>
        <time>2018-01-13T11:03:11Z</time>
      </trkpt>
      <trkpt lat="48.60128" lon="1.90861">
        <ele>155.39</ele>
        <time>2018-01-13T11:03:12Z</time>
      </trkpt>
      <trkpt lat="48.60134" lon="1.90867">
        <ele>154.91</ele>
        <time>2018-01-13T11:03:19Z</time>
      </trkpt>
      <trkpt lat="48.60135" lon="1.9087">
        <ele>155.39</ele>
        <time>2018-01-13T11:03:22Z</time>
      </trkpt>
      <trkpt lat="48.60142" lon="1.90873">
        <ele>155.39</ele>
        <time>2018-01-13T11:03:28Z</time>
      </trkpt>
      <trkpt lat="48.60146" lon="1.9088">
        <ele>155.87</ele>
        <time>2018-01-13T11:03:33Z</time>
      </trkpt>
      <trkpt lat="48.60151" lon="1.90886">
        <ele>155.87</ele>
        <time>2018-01-13T11:03:38Z</time>
      </trkpt>
      <trkpt lat="48.60155" lon="1.9089">
        <ele>155.87</ele>
        <time>2018-01-13T11:03:41Z</time>
      </trkpt>
      <trkpt lat="48.60159" lon="1.90894">
        <ele>155.87</ele>
        <time>2018-01-13T11:03:44Z</time>
      </trkpt>
      <trkpt lat="48.60166" lon="1.90904">
        <ele>155.87</ele>
        <time>2018-01-13T11:03:51Z</time>
      </trkpt>
      <trkpt lat="48.60167" lon="1.90907">
        <ele>155.87</ele>
        <time>2018-01-13T11:03:56Z</time>
      </trkpt>
      <trkpt lat="48.60175" lon="1.90918">
        <ele>156.35</ele>
        <time>2018-01-13T11:04:03Z</time>
      </trkpt>
      <trkpt lat="48.60185" lon="1.90928">
        <ele>157.31</ele>
        <time>2018-01-13T11:04:12Z</time>
      </trkpt>
      <trkpt lat="48.6019" lon="1.90932">
        <ele>157.31</ele>
        <time>2018-01-13T11:04:17Z</time>
      </trkpt>
      <trkpt lat="48.60201" lon="1.90945">
        <ele>157.31</ele>
        <time>2018-01-13T11:04:24Z</time>
      </trkpt>
      <trkpt lat="48.60204" lon="1.9095">
        <ele>157.31</ele>
        <time>2018-01-13T11:04:26Z</time>
      </trkpt>
      <trkpt lat="48.60209" lon="1.90955">
        <ele>157.79</ele>
        <time>2018-01-13T11:04:30Z</time>
      </trkpt>
      <trkpt lat="48.60215" lon="1.90962">
        <ele>157.79</ele>
        <time>2018-01-13T11:04:35Z</time>
      </trkpt>
      <trkpt lat="48.6022" lon="1.90966">
        <ele>158.27</ele>
        <time>2018-01-13T11:04:39Z</time>
      </trkpt>
      <trkpt lat="48.60226" lon="1.9097">
        <ele>158.75</ele>
        <time>2018-01-13T11:04:44Z</time>
      </trkpt>
      <trkpt lat="48.60234" lon="1.90973">
        <ele>159.72</ele>
        <time>2018-01-13T11:04:52Z</time>
      </trkpt>
      <trkpt lat="48.60238" lon="1.90977">
        <ele>159.72</ele>
        <time>2018-01-13T11:04:56Z</time>
      </trkpt>
      <trkpt lat="48.60241" lon="1.9098">
        <ele>160.2</ele>
        <time>2018-01-13T11:04:59Z</time>
      </trkpt>
      <trkpt lat="48.6025" lon="1.90981">
        <ele>159.72</ele>
        <time>2018-01-13T11:05:08Z</time>
      </trkpt>
      <trkpt lat="48.60257" lon="1.90988">
        <ele>159.72</ele>
        <time>2018-01-13T11:05:17Z</time>
      </trkpt>
      <trkpt lat="48.6026" lon="1.9099">
        <ele>159.72</ele>
        <time>2018-01-13T11:05:30Z</time>
      </trkpt>
      <trkpt lat="48.60261" lon="1.90991">
        <ele>159.72</ele>
        <time>2018-01-13T11:05:50Z</time>
      </trkpt>
      <trkpt lat="48.60262" lon="1.90993">
        <ele>159.72</ele>
        <time>2018-01-13T11:06:00Z</time>
      </trkpt>
      <trkpt lat="48.60263" lon="1.90995">
        <ele>159.72</ele>
        <time>2018-01-13T11:06:02Z</time>
      </trkpt>
      <trkpt lat="48.60264" lon="1.90998">
        <ele>159.72</ele>
        <time>2018-01-13T11:06:05Z</time>
      </trkpt>
      <trkpt lat="48.60266" lon="1.91003">
        <ele>159.24</ele>
        <time>2018-01-13T11:06:10Z</time>
      </trkpt>
      <trkpt lat="48.60271" lon="1.91009">
        <ele>159.24</ele>
        <time>2018-01-13T11:06:17Z</time>
      </trkpt>
      <trkpt lat="48.60277" lon="1.91013">
        <ele>159.24</ele>
        <time>2018-01-13T11:06:23Z</time>
      </trkpt>
      <trkpt lat="48.60284" lon="1.91019">
        <ele>159.24</ele>
        <time>2018-01-13T11:06:31Z</time>
      </trkpt>
      <trkpt lat="48.60289" lon="1.91026">
        <ele>158.75</ele>
        <time>2018-01-13T11:06:35Z</time>
      </trkpt>
      <trkpt lat="48.60293" lon="1.9103">
        <ele>158.75</ele>
        <time>2018-01-13T11:06:40Z</time>
      </trkpt>
      <trkpt lat="48.60298" lon="1.91035">
        <ele>158.75</ele>
        <time>2018-01-13T11:06:45Z</time>
      </trkpt>
      <trkpt lat="48.60303" lon="1.91039">
        <ele>158.75</ele>
        <time>2018-01-13T11:06:50Z</time>
      </trkpt>
      <trkpt lat="48.60305" lon="1.9104">
        <ele>158.27</ele>
        <time>2018-01-13T11:06:52Z</time>
      </trkpt>
      <trkpt lat="48.60309" lon="1.91042">
        <ele>158.27</ele>
        <time>2018-01-13T11:06:55Z</time>
      </trkpt>
      <trkpt lat="48.60316" lon="1.91048">
        <ele>157.79</ele>
        <time>2018-01-13T11:07:02Z</time>
      </trkpt>
      <trkpt lat="48.60321" lon="1.91052">
        <ele>157.79</ele>
        <time>2018-01-13T11:07:07Z</time>
      </trkpt>
      <trkpt lat="48.60328" lon="1.91061">
        <ele>157.31</ele>
        <time>2018-01-13T11:07:13Z</time>
      </trkpt>
      <trkpt lat="48.60336" lon="1.9107">
        <ele>157.31</ele>
        <time>2018-01-13T11:07:21Z</time>
      </trkpt>
      <trkpt lat="48.60343" lon="1.91078">
        <ele>157.31</ele>
        <time>2018-01-13T11:07:29Z</time>
      </trkpt>
      <trkpt lat="48.60351" lon="1.91081">
        <ele>157.31</ele>
        <time>2018-01-13T11:07:35Z</time>
      </trkpt>
      <trkpt lat="48.60358" lon="1.91085">
        <ele>156.83</ele>
        <time>2018-01-13T11:07:42Z</time>
      </trkpt>
      <trkpt lat="48.60363" lon="1.91086">
        <ele>155.87</ele>
        <time>2018-01-13T11:07:46Z</time>
      </trkpt>
      <trkpt lat="48.60367" lon="1.91086">
        <ele>155.87</ele>
        <time>2018-01-13T11:07:49Z</time>
      </trkpt>
      <trkpt lat="48.60372" lon="1.91089">
        <ele>155.39</ele>
        <time>2018-01-13T11:07:54Z</time>
      </trkpt>
      <trkpt lat="48.60377" lon="1.91089">
        <ele>154.91</ele>
        <time>2018-01-13T11:07:58Z</time>
      </trkpt>
      <trkpt lat="48.60386" lon="1.9109">
        <ele>154.43</ele>
        <time>2018-01-13T11:08:05Z</time>
      </trkpt>
      <trkpt lat="48.60392" lon="1.91095">
        <ele>154.43</ele>
        <time>2018-01-13T11:08:11Z</time>
      </trkpt>
      <trkpt lat="48.60395" lon="1.91097">
        <ele>154.43</ele>
        <time>2018-01-13T11:08:14Z</time>
      </trkpt>
      <trkpt lat="48.60408" lon="1.91106">
        <ele>154.43</ele>
        <time>2018-01-13T11:08:23Z</time>
      </trkpt>
      <trkpt lat="48.60413" lon="1.91107">
        <ele>153.95</ele>
        <time>2018-01-13T11:08:27Z</time>
      </trkpt>
      <trkpt lat="48.60417" lon="1.9111">
        <ele>153.95</ele>
        <time>2018-01-13T11:08:31Z</time>
      </trkpt>
      <trkpt lat="48.60425" lon="1.91114">
        <ele>153.47</ele>
        <time>2018-01-13T11:08:38Z</time>
      </trkpt>
      <trkpt lat="48.60437" lon="1.91117">
        <ele>152.99</ele>
        <time>2018-01-13T11:08:48Z</time>
      </trkpt>
      <trkpt lat="48.60446" lon="1.91118">
        <ele>152.99</ele>
        <time>2018-01-13T11:08:55Z</time>
      </trkpt>
      <trkpt lat="48.60454" lon="1.9112">
        <ele>152.51</ele>
        <time>2018-01-13T11:09:02Z</time>
      </trkpt>
      <trkpt lat="48.6046" lon="1.91121">
        <ele>152.51</ele>
        <time>2018-01-13T11:09:09Z</time>
      </trkpt>
      <trkpt lat="48.60463" lon="1.91121">
        <ele>152.51</ele>
        <time>2018-01-13T11:09:12Z</time>
      </trkpt>
      <trkpt lat="48.60469" lon="1.91124">
        <ele>152.51</ele>
        <time>2018-01-13T11:09:18Z</time>
      </trkpt>
      <trkpt lat="48.60471" lon="1.91125">
        <ele>152.51</ele>
        <time>2018-01-13T11:09:19Z</time>
      </trkpt>
      <trkpt lat="48.60477" lon="1.91127">
        <ele>152.03</ele>
        <time>2018-01-13T11:09:26Z</time>
      </trkpt>
      <trkpt lat="48.6048" lon="1.91129">
        <ele>152.03</ele>
        <time>2018-01-13T11:09:31Z</time>
      </trkpt>
      <trkpt lat="48.60484" lon="1.91131">
        <ele>151.54</ele>
        <time>2018-01-13T11:09:35Z</time>
      </trkpt>
      <trkpt lat="48.60491" lon="1.91135">
        <ele>151.06</ele>
        <time>2018-01-13T11:09:41Z</time>
      </trkpt>
      <trkpt lat="48.605" lon="1.91138">
        <ele>151.06</ele>
        <time>2018-01-13T11:09:47Z</time>
      </trkpt>
      <trkpt lat="48.60508" lon="1.9114">
        <ele>150.58</ele>
        <time>2018-01-13T11:09:52Z</time>
      </trkpt>
      <trkpt lat="48.60516" lon="1.91145">
        <ele>150.58</ele>
        <time>2018-01-13T11:09:59Z</time>
      </trkpt>
      <trkpt lat="48.60517" lon="1.91145">
        <ele>150.1</ele>
        <time>2018-01-13T11:10:00Z</time>
      </trkpt>
      <trkpt lat="48.60528" lon="1.91151">
        <ele>150.1</ele>
        <time>2018-01-13T11:10:08Z</time>
      </trkpt>
      <trkpt lat="48.60536" lon="1.91154">
        <ele>150.1</ele>
        <time>2018-01-13T11:10:14Z</time>
      </trkpt>
      <trkpt lat="48.60546" lon="1.91162">
        <ele>150.1</ele>
        <time>2018-01-13T11:10:22Z</time>
      </trkpt>
      <trkpt lat="48.60547" lon="1.91163">
        <ele>150.1</ele>
        <time>2018-01-13T11:10:23Z</time>
      </trkpt>
      <trkpt lat="48.6055" lon="1.91165">
        <ele>150.1</ele>
        <time>2018-01-13T11:10:26Z</time>
      </trkpt>
      <trkpt lat="48.60554" lon="1.9117">
        <ele>149.62</ele>
        <time>2018-01-13T11:10:31Z</time>
      </trkpt>
      <trkpt lat="48.60562" lon="1.91179">
        <ele>149.62</ele>
        <time>2018-01-13T11:10:39Z</time>
      </trkpt>
      <trkpt lat="48.60566" lon="1.91183">
        <ele>149.62</ele>
        <time>2018-01-13T11:10:43Z</time>
      </trkpt>
      <trkpt lat="48.60571" lon="1.91191">
        <ele>149.62</ele>
        <time>2018-01-13T11:10:49Z</time>
      </trkpt>
      <trkpt lat="48.60575" lon="1.91195">
        <ele>149.62</ele>
        <time>2018-01-13T11:10:54Z</time>
      </trkpt>
      <trkpt lat="48.60583" lon="1.91207">
        <ele>149.62</ele>
        <time>2018-01-13T11:11:02Z</time>
      </trkpt>
      <trkpt lat="48.60589" lon="1.91217">
        <ele>149.62</ele>
        <time>2018-01-13T11:11:10Z</time>
      </trkpt>
      <trkpt lat="48.60593" lon="1.91219">
        <ele>149.62</ele>
        <time>2018-01-13T11:11:13Z</time>
      </trkpt>
      <trkpt lat="48.60597" lon="1.9122">
        <ele>149.62</ele>
        <time>2018-01-13T11:11:16Z</time>
      </trkpt>
      <trkpt lat="48.60602" lon="1.91224">
        <ele>149.62</ele>
        <time>2018-01-13T11:11:19Z</time>
      </trkpt>
      <trkpt lat="48.6061" lon="1.91232">
        <ele>149.62</ele>
        <time>2018-01-13T11:11:26Z</time>
      </trkpt>
      <trkpt lat="48.60614" lon="1.91237">
        <ele>149.14</ele>
        <time>2018-01-13T11:11:30Z</time>
      </trkpt>
      <trkpt lat="48.60624" lon="1.91245">
        <ele>149.14</ele>
        <time>2018-01-13T11:11:37Z</time>
      </trkpt>
      <trkpt lat="48.60628" lon="1.91249">
        <ele>149.14</ele>
        <time>2018-01-13T11:11:40Z</time>
      </trkpt>
      <trkpt lat="48.60632" lon="1.9125">
        <ele>149.14</ele>
        <time>2018-01-13T11:11:43Z</time>
      </trkpt>
      <trkpt lat="48.60646" lon="1.91247">
        <ele>149.62</ele>
        <time>2018-01-13T11:11:51Z</time>
      </trkpt>
      <trkpt lat="48.60653" lon="1.91246">
        <ele>149.62</ele>
        <time>2018-01-13T11:11:57Z</time>
      </trkpt>
      <trkpt lat="48.60663" lon="1.91244">
        <ele>149.62</ele>
        <time>2018-01-13T11:12:05Z</time>
      </trkpt>
      <trkpt lat="48.60675" lon="1.91243">
        <ele>149.14</ele>
        <time>2018-01-13T11:12:15Z</time>
      </trkpt>
      <trkpt lat="48.60676" lon="1.91243">
        <ele>149.14</ele>
        <time>2018-01-13T11:12:16Z</time>
      </trkpt>
      <trkpt lat="48.60681" lon="1.91244">
        <ele>149.14</ele>
        <time>2018-01-13T11:12:20Z</time>
      </trkpt>
      <trkpt lat="48.60692" lon="1.91242">
        <ele>149.14</ele>
        <time>2018-01-13T11:12:29Z</time>
      </trkpt>
      <trkpt lat="48.60693" lon="1.91243">
        <ele>149.14</ele>
        <time>2018-01-13T11:12:30Z</time>
      </trkpt>
      <trkpt lat="48.60706" lon="1.91244">
        <ele>149.14</ele>
        <time>2018-01-13T11:12:40Z</time>
      </trkpt>
      <trkpt lat="48.60718" lon="1.91244">
        <ele>149.14</ele>
        <time>2018-01-13T11:12:50Z</time>
      </trkpt>
      <trkpt lat="48.60728" lon="1.91242">
        <ele>148.66</ele>
        <time>2018-01-13T11:12:58Z</time>
      </trkpt>
      <trkpt lat="48.60737" lon="1.9124">
        <ele>148.66</ele>
        <time>2018-01-13T11:13:05Z</time>
      </trkpt>
      <trkpt lat="48.60744" lon="1.91236">
        <ele>148.66</ele>
        <time>2018-01-13T11:13:12Z</time>
      </trkpt>
      <trkpt lat="48.60754" lon="1.91233">
        <ele>148.66</ele>
        <time>2018-01-13T11:13:20Z</time>
      </trkpt>
      <trkpt lat="48.60762" lon="1.9123">
        <ele>148.18</ele>
        <time>2018-01-13T11:13:27Z</time>
      </trkpt>
      <trkpt lat="48.60772" lon="1.91228">
        <ele>148.18</ele>
        <time>2018-01-13T11:13:35Z</time>
      </trkpt>
      <trkpt lat="48.60782" lon="1.91223">
        <ele>148.66</ele>
        <time>2018-01-13T11:13:43Z</time>
      </trkpt>
      <trkpt lat="48.60793" lon="1.9122">
        <ele>148.66</ele>
        <time>2018-01-13T11:13:52Z</time>
      </trkpt>
      <trkpt lat="48.60794" lon="1.91219">
        <ele>148.66</ele>
        <time>2018-01-13T11:13:53Z</time>
      </trkpt>
      <trkpt lat="48.60806" lon="1.9122">
        <ele>148.66</ele>
        <time>2018-01-13T11:14:02Z</time>
      </trkpt>
      <trkpt lat="48.60816" lon="1.91221">
        <ele>148.66</ele>
        <time>2018-01-13T11:14:10Z</time>
      </trkpt>
      <trkpt lat="48.60819" lon="1.91222">
        <ele>148.66</ele>
        <time>2018-01-13T11:14:13Z</time>
      </trkpt>
      <trkpt lat="48.60827" lon="1.91225">
        <ele>148.18</ele>
        <time>2018-01-13T11:14:21Z</time>
      </trkpt>
      <trkpt lat="48.60835" lon="1.91227">
        <ele>148.18</ele>
        <time>2018-01-13T11:14:29Z</time>
      </trkpt>
      <trkpt lat="48.60843" lon="1.91231">
        <ele>148.18</ele>
        <time>2018-01-13T11:14:37Z</time>
      </trkpt>
      <trkpt lat="48.60849" lon="1.91233">
        <ele>147.7</ele>
        <time>2018-01-13T11:14:44Z</time>
      </trkpt>
      <trkpt lat="48.60851" lon="1.91234">
        <ele>147.7</ele>
        <time>2018-01-13T11:14:46Z</time>
      </trkpt>
      <trkpt lat="48.60853" lon="1.91236">
        <ele>147.7</ele>
        <time>2018-01-13T11:14:49Z</time>
      </trkpt>
      <trkpt lat="48.60862" lon="1.91243">
        <ele>147.22</ele>
        <time>2018-01-13T11:14:57Z</time>
      </trkpt>
      <trkpt lat="48.6087" lon="1.91249">
        <ele>147.22</ele>
        <time>2018-01-13T11:15:05Z</time>
      </trkpt>
      <trkpt lat="48.60878" lon="1.91254">
        <ele>147.22</ele>
        <time>2018-01-13T11:15:12Z</time>
      </trkpt>
      <trkpt lat="48.60881" lon="1.91256">
        <ele>147.22</ele>
        <time>2018-01-13T11:15:15Z</time>
      </trkpt>
      <trkpt lat="48.60891" lon="1.9126">
        <ele>146.74</ele>
        <time>2018-01-13T11:15:24Z</time>
      </trkpt>
      <trkpt lat="48.609" lon="1.91262">
        <ele>146.74</ele>
        <time>2018-01-13T11:15:32Z</time>
      </trkpt>
      <trkpt lat="48.60911" lon="1.91265">
        <ele>146.74</ele>
        <time>2018-01-13T11:15:41Z</time>
      </trkpt>
      <trkpt lat="48.6092" lon="1.91265">
        <ele>146.74</ele>
        <time>2018-01-13T11:15:49Z</time>
      </trkpt>
      <trkpt lat="48.60926" lon="1.91266">
        <ele>147.22</ele>
        <time>2018-01-13T11:15:54Z</time>
      </trkpt>
      <trkpt lat="48.60931" lon="1.91265">
        <ele>147.22</ele>
        <time>2018-01-13T11:16:01Z</time>
      </trkpt>
      <trkpt lat="48.60933" lon="1.91263">
        <ele>147.22</ele>
        <time>2018-01-13T11:16:04Z</time>
      </trkpt>
      <trkpt lat="48.60941" lon="1.9126">
        <ele>147.22</ele>
        <time>2018-01-13T11:16:11Z</time>
      </trkpt>
      <trkpt lat="48.60947" lon="1.91254">
        <ele>147.22</ele>
        <time>2018-01-13T11:16:18Z</time>
      </trkpt>
      <trkpt lat="48.60948" lon="1.91254">
        <ele>147.22</ele>
        <time>2018-01-13T11:16:19Z</time>
      </trkpt>
      <trkpt lat="48.60951" lon="1.91249">
        <ele>147.22</ele>
        <time>2018-01-13T11:16:25Z</time>
      </trkpt>
      <trkpt lat="48.60957" lon="1.91242">
        <ele>147.22</ele>
        <time>2018-01-13T11:16:32Z</time>
      </trkpt>
      <trkpt lat="48.60958" lon="1.91242">
        <ele>147.22</ele>
        <time>2018-01-13T11:16:34Z</time>
      </trkpt>
      <trkpt lat="48.6096" lon="1.91237">
        <ele>147.22</ele>
        <time>2018-01-13T11:16:37Z</time>
      </trkpt>
      <trkpt lat="48.60969" lon="1.91233">
        <ele>147.22</ele>
        <time>2018-01-13T11:16:45Z</time>
      </trkpt>
      <trkpt lat="48.6097" lon="1.91233">
        <ele>147.22</ele>
        <time>2018-01-13T11:16:47Z</time>
      </trkpt>
      <trkpt lat="48.60978" lon="1.91225">
        <ele>146.74</ele>
        <time>2018-01-13T11:16:54Z</time>
      </trkpt>
      <trkpt lat="48.60988" lon="1.91209">
        <ele>146.74</ele>
        <time>2018-01-13T11:17:01Z</time>
      </trkpt>
      <trkpt lat="48.60991" lon="1.91207">
        <ele>146.74</ele>
        <time>2018-01-13T11:17:08Z</time>
      </trkpt>
      <trkpt lat="48.60992" lon="1.91206">
        <ele>146.26</ele>
        <time>2018-01-13T11:17:12Z</time>
      </trkpt>
      <trkpt lat="48.60992" lon="1.91204">
        <ele>146.26</ele>
        <time>2018-01-13T11:17:17Z</time>
      </trkpt>
      <trkpt lat="48.60993" lon="1.91198">
        <ele>146.74</ele>
        <time>2018-01-13T11:17:24Z</time>
      </trkpt>
      <trkpt lat="48.60993" lon="1.91191">
        <ele>146.26</ele>
        <time>2018-01-13T11:17:31Z</time>
      </trkpt>
      <trkpt lat="48.60992" lon="1.91184">
        <ele>146.26</ele>
        <time>2018-01-13T11:17:40Z</time>
      </trkpt>
      <trkpt lat="48.60992" lon="1.91181">
        <ele>146.26</ele>
        <time>2018-01-13T11:17:48Z</time>
      </trkpt>
      <trkpt lat="48.60993" lon="1.91178">
        <ele>146.74</ele>
        <time>2018-01-13T11:17:54Z</time>
      </trkpt>
      <trkpt lat="48.60994" lon="1.91178">
        <ele>146.26</ele>
        <time>2018-01-13T11:18:06Z</time>
      </trkpt>
      <trkpt lat="48.60995" lon="1.91175">
        <ele>146.26</ele>
        <time>2018-01-13T11:18:15Z</time>
      </trkpt>
      <trkpt lat="48.60996" lon="1.91174">
        <ele>145.78</ele>
        <time>2018-01-13T11:18:27Z</time>
      </trkpt>
      <trkpt lat="48.60996" lon="1.91174">
        <ele>145.78</ele>
        <time>2018-01-13T11:18:37Z</time>
      </trkpt>
      <trkpt lat="48.60996" lon="1.91173">
        <ele>145.78</ele>
        <time>2018-01-13T11:18:50Z</time>
      </trkpt>
      <trkpt lat="48.60996" lon="1.91172">
        <ele>145.78</ele>
        <time>2018-01-13T11:19:00Z</time>
      </trkpt>
      <trkpt lat="48.60996" lon="1.91172">
        <ele>145.3</ele>
        <time>2018-01-13T11:19:09Z</time>
      </trkpt>
      <trkpt lat="48.60996" lon="1.91172">
        <ele>145.78</ele>
        <time>2018-01-13T11:19:24Z</time>
      </trkpt>
      <trkpt lat="48.60995" lon="1.91171">
        <ele>145.3</ele>
        <time>2018-01-13T11:19:38Z</time>
      </trkpt>
      <trkpt lat="48.60996" lon="1.91171">
        <ele>145.3</ele>
        <time>2018-01-13T11:19:51Z</time>
      </trkpt>
      <trkpt lat="48.60996" lon="1.91171">
        <ele>145.3</ele>
        <time>2018-01-13T11:19:59Z</time>
      </trkpt>
      <trkpt lat="48.60996" lon="1.91171">
        <ele>145.3</ele>
        <time>2018-01-13T11:20:09Z</time>
      </trkpt>
      <trkpt lat="48.60997" lon="1.91172">
        <ele>144.82</ele>
        <time>2018-01-13T11:20:22Z</time>
      </trkpt>
      <trkpt lat="48.60997" lon="1.9117">
        <ele>144.82</ele>
        <time>2018-01-13T11:20:35Z</time>
      </trkpt>
      <trkpt lat="48.60996" lon="1.91169">
        <ele>144.82</ele>
        <time>2018-01-13T11:20:46Z</time>
      </trkpt>
      <trkpt lat="48.60996" lon="1.91169">
        <ele>144.82</ele>
        <time>2018-01-13T11:21:00Z</time>
      </trkpt>
      <trkpt lat="48.60995" lon="1.91168">
        <ele>144.82</ele>
        <time>2018-01-13T11:21:12Z</time>
      </trkpt>
      <trkpt lat="48.60995" lon="1.91169">
        <ele>144.82</ele>
        <time>2018-01-13T11:21:24Z</time>
      </trkpt>
      <trkpt lat="48.60995" lon="1.91169">
        <ele>144.34</ele>
        <time>2018-01-13T11:21:38Z</time>
      </trkpt>
      <trkpt lat="48.60995" lon="1.91169">
        <ele>143.85</ele>
        <time>2018-01-13T11:21:52Z</time>
      </trkpt>
      <trkpt lat="48.60995" lon="1.91169">
        <ele>143.85</ele>
        <time>2018-01-13T11:22:02Z</time>
      </trkpt>
      <trkpt lat="48.60995" lon="1.91169">
        <ele>143.85</ele>
        <time>2018-01-13T11:22:15Z</time>
      </trkpt>
      <trkpt lat="48.60995" lon="1.91169">
        <ele>143.85</ele>
        <time>2018-01-13T11:22:28Z</time>
      </trkpt>
      <trkpt lat="48.60995" lon="1.91169">
        <ele>143.37</ele>
        <time>2018-01-13T11:22:43Z</time>
      </trkpt>
      <trkpt lat="48.60995" lon="1.91169">
        <ele>143.37</ele>
        <time>2018-01-13T11:22:52Z</time>
      </trkpt>
      <trkpt lat="48.60995" lon="1.91168">
        <ele>143.85</ele>
        <time>2018-01-13T11:23:02Z</time>
      </trkpt>
      <trkpt lat="48.60994" lon="1.9117">
        <ele>143.37</ele>
        <time>2018-01-13T11:23:10Z</time>
      </trkpt>
      <trkpt lat="48.60995" lon="1.91171">
        <ele>143.37</ele>
        <time>2018-01-13T11:23:23Z</time>
      </trkpt>
      <trkpt lat="48.60995" lon="1.91171">
        <ele>143.37</ele>
        <time>2018-01-13T11:23:36Z</time>
      </trkpt>
      <trkpt lat="48.60996" lon="1.9117">
        <ele>142.89</ele>
        <time>2018-01-13T11:23:53Z</time>
      </trkpt>
      <trkpt lat="48.60995" lon="1.91172">
        <ele>142.89</ele>
        <time>2018-01-13T11:24:04Z</time>
      </trkpt>
      <trkpt lat="48.60995" lon="1.91172">
        <ele>142.89</ele>
        <time>2018-01-13T11:24:12Z</time>
      </trkpt>
      <trkpt lat="48.60995" lon="1.91171">
        <ele>142.89</ele>
        <time>2018-01-13T11:24:20Z</time>
      </trkpt>
      <trkpt lat="48.60995" lon="1.91173">
        <ele>142.41</ele>
        <time>2018-01-13T11:24:26Z</time>
      </trkpt>
      <trkpt lat="48.60995" lon="1.91175">
        <ele>142.41</ele>
        <time>2018-01-13T11:24:33Z</time>
      </trkpt>
      <trkpt lat="48.60995" lon="1.91175">
        <ele>142.41</ele>
        <time>2018-01-13T11:24:42Z</time>
      </trkpt>
      <trkpt lat="48.60996" lon="1.91175">
        <ele>141.93</ele>
        <time>2018-01-13T11:24:58Z</time>
      </trkpt>
      <trkpt lat="48.60997" lon="1.91175">
        <ele>141.93</ele>
        <time>2018-01-13T11:25:14Z</time>
      </trkpt>
      <trkpt lat="48.60995" lon="1.91177">
        <ele>141.93</ele>
        <time>2018-01-13T11:25:30Z</time>
      </trkpt>
      <trkpt lat="48.60996" lon="1.91178">
        <ele>141.45</ele>
        <time>2018-01-13T11:25:49Z</time>
      </trkpt>
      <trkpt lat="48.60996" lon="1.91177">
        <ele>141.45</ele>
        <time>2018-01-13T11:26:04Z</time>
      </trkpt>
      <trkpt lat="48.60996" lon="1.91176">
        <ele>141.93</ele>
        <time>2018-01-13T11:26:20Z</time>
      </trkpt>
      <trkpt lat="48.60997" lon="1.91175">
        <ele>141.93</ele>
        <time>2018-01-13T11:26:30Z</time>
      </trkpt>
      <trkpt lat="48.60997" lon="1.91176">
        <ele>141.45</ele>
        <time>2018-01-13T11:26:35Z</time>
      </trkpt>
      <trkpt lat="48.60998" lon="1.91177">
        <ele>141.93</ele>
        <time>2018-01-13T11:26:40Z</time>
      </trkpt>
      <trkpt lat="48.60998" lon="1.91178">
        <ele>141.45</ele>
        <time>2018-01-13T11:26:51Z</time>
      </trkpt>
      <trkpt lat="48.60998" lon="1.91177">
        <ele>141.45</ele>
        <time>2018-01-13T11:26:58Z</time>
      </trkpt>
      <trkpt lat="48.60997" lon="1.91177">
        <ele>141.45</ele>
        <time>2018-01-13T11:27:05Z</time>
      </trkpt>
      <trkpt lat="48.60997" lon="1.91175">
        <ele>140.97</ele>
        <time>2018-01-13T11:27:18Z</time>
      </trkpt>
      <trkpt lat="48.60997" lon="1.91174">
        <ele>141.45</ele>
        <time>2018-01-13T11:27:25Z</time>
      </trkpt>
      <trkpt lat="48.60998" lon="1.91171">
        <ele>141.45</ele>
        <time>2018-01-13T11:27:31Z</time>
      </trkpt>
      <trkpt lat="48.60998" lon="1.91171">
        <ele>140.97</ele>
        <time>2018-01-13T11:27:41Z</time>
      </trkpt>
      <trkpt lat="48.60999" lon="1.9117">
        <ele>140.97</ele>
        <time>2018-01-13T11:27:57Z</time>
      </trkpt>
      <trkpt lat="48.60999" lon="1.9117">
        <ele>140.97</ele>
        <time>2018-01-13T11:28:12Z</time>
      </trkpt>
      <trkpt lat="48.60999" lon="1.9117">
        <ele>140.97</ele>
        <time>2018-01-13T11:28:25Z</time>
      </trkpt>
      <trkpt lat="48.61" lon="1.9117">
        <ele>140.97</ele>
        <time>2018-01-13T11:28:45Z</time>
      </trkpt>
      <trkpt lat="48.61001" lon="1.91169">
        <ele>140.49</ele>
        <time>2018-01-13T11:29:00Z</time>
      </trkpt>
      <trkpt lat="48.61001" lon="1.91168">
        <ele>140.49</ele>
        <time>2018-01-13T11:29:17Z</time>
      </trkpt>
      <trkpt lat="48.61001" lon="1.9117">
        <ele>140.49</ele>
        <time>2018-01-13T11:29:35Z</time>
      </trkpt>
      <trkpt lat="48.61001" lon="1.91169">
        <ele>140.49</ele>
        <time>2018-01-13T11:29:45Z</time>
      </trkpt>
      <trkpt lat="48.61001" lon="1.91169">
        <ele>140.49</ele>
        <time>2018-01-13T11:29:56Z</time>
      </trkpt>
      <trkpt lat="48.61" lon="1.91169">
        <ele>140.01</ele>
        <time>2018-01-13T11:30:07Z</time>
      </trkpt>
      <trkpt lat="48.61" lon="1.9117">
        <ele>140.01</ele>
        <time>2018-01-13T11:30:19Z</time>
      </trkpt>
      <trkpt lat="48.61" lon="1.9117">
        <ele>140.01</ele>
        <time>2018-01-13T11:30:28Z</time>
      </trkpt>
      <trkpt lat="48.60999" lon="1.9117">
        <ele>140.01</ele>
        <time>2018-01-13T11:30:38Z</time>
      </trkpt>
      <trkpt lat="48.60999" lon="1.9117">
        <ele>139.53</ele>
        <time>2018-01-13T11:30:42Z</time>
      </trkpt>
      <trkpt lat="48.60999" lon="1.91172">
        <ele>139.53</ele>
        <time>2018-01-13T11:30:47Z</time>
      </trkpt>
      <trkpt lat="48.60999" lon="1.91171">
        <ele>139.53</ele>
        <time>2018-01-13T11:30:57Z</time>
      </trkpt>
      <trkpt lat="48.60999" lon="1.91171">
        <ele>140.01</ele>
        <time>2018-01-13T11:31:12Z</time>
      </trkpt>
      <trkpt lat="48.61" lon="1.91172">
        <ele>139.53</ele>
        <time>2018-01-13T11:31:29Z</time>
      </trkpt>
      <trkpt lat="48.61" lon="1.91172">
        <ele>139.53</ele>
        <time>2018-01-13T11:31:42Z</time>
      </trkpt>
      <trkpt lat="48.61" lon="1.9117">
        <ele>139.05</ele>
        <time>2018-01-13T11:31:56Z</time>
      </trkpt>
      <trkpt lat="48.61" lon="1.91171">
        <ele>139.53</ele>
        <time>2018-01-13T11:32:11Z</time>
      </trkpt>
      <trkpt lat="48.61" lon="1.91171">
        <ele>139.05</ele>
        <time>2018-01-13T11:32:25Z</time>
      </trkpt>
      <trkpt lat="48.61" lon="1.9117">
        <ele>139.05</ele>
        <time>2018-01-13T11:32:33Z</time>
      </trkpt>
      <trkpt lat="48.61" lon="1.9117">
        <ele>139.05</ele>
        <time>2018-01-13T11:32:47Z</time>
      </trkpt>
      <trkpt lat="48.61" lon="1.9117">
        <ele>138.57</ele>
        <time>2018-01-13T11:32:58Z</time>
      </trkpt>
      <trkpt lat="48.60999" lon="1.91169">
        <ele>138.57</ele>
        <time>2018-01-13T11:33:10Z</time>
      </trkpt>
      <trkpt lat="48.60999" lon="1.91169">
        <ele>138.57</ele>
        <time>2018-01-13T11:33:15Z</time>
      </trkpt>
      <trkpt lat="48.60998" lon="1.91168">
        <ele>138.09</ele>
        <time>2018-01-13T11:33:31Z</time>
      </trkpt>
      <trkpt lat="48.60998" lon="1.91169">
        <ele>138.09</ele>
        <time>2018-01-13T11:33:43Z</time>
      </trkpt>
      <trkpt lat="48.60999" lon="1.91169">
        <ele>138.09</ele>
        <time>2018-01-13T11:33:53Z</time>
      </trkpt>
      <trkpt lat="48.60999" lon="1.91169">
        <ele>138.09</ele>
        <time>2018-01-13T11:34:09Z</time>
      </trkpt>
      <trkpt lat="48.60999" lon="1.91169">
        <ele>138.09</ele>
        <time>2018-01-13T11:34:20Z</time>
      </trkpt>
      <trkpt lat="48.60999" lon="1.9117">
        <ele>137.61</ele>
        <time>2018-01-13T11:34:28Z</time>
      </trkpt>
      <trkpt lat="48.60999" lon="1.9117">
        <ele>137.61</ele>
        <time>2018-01-13T11:34:37Z</time>
      </trkpt>
      <trkpt lat="48.61" lon="1.9117">
        <ele>137.61</ele>
        <time>2018-01-13T11:34:50Z</time>
      </trkpt>
      <trkpt lat="48.61" lon="1.9117">
        <ele>137.61</ele>
        <time>2018-01-13T11:35:00Z</time>
      </trkpt>
      <trkpt lat="48.60999" lon="1.91169">
        <ele>137.61</ele>
        <time>2018-01-13T11:35:06Z</time>
      </trkpt>
      <trkpt lat="48.60999" lon="1.91169">
        <ele>137.13</ele>
        <time>2018-01-13T11:35:11Z</time>
      </trkpt>
      <trkpt lat="48.60995" lon="1.91163">
        <ele>137.13</ele>
        <time>2018-01-13T11:35:19Z</time>
      </trkpt>
      <trkpt lat="48.60994" lon="1.9116">
        <ele>137.13</ele>
        <time>2018-01-13T11:35:22Z</time>
      </trkpt>
      <trkpt lat="48.60991" lon="1.91153">
        <ele>136.64</ele>
        <time>2018-01-13T11:35:30Z</time>
      </trkpt>
      <trkpt lat="48.6099" lon="1.91151">
        <ele>136.64</ele>
        <time>2018-01-13T11:35:37Z</time>
      </trkpt>
      <trkpt lat="48.60991" lon="1.91147">
        <ele>136.64</ele>
        <time>2018-01-13T11:35:44Z</time>
      </trkpt>
      <trkpt lat="48.60994" lon="1.9114">
        <ele>136.64</ele>
        <time>2018-01-13T11:35:50Z</time>
      </trkpt>
      <trkpt lat="48.60998" lon="1.91131">
        <ele>137.13</ele>
        <time>2018-01-13T11:35:57Z</time>
      </trkpt>
      <trkpt lat="48.61001" lon="1.91126">
        <ele>137.13</ele>
        <time>2018-01-13T11:36:01Z</time>
      </trkpt>
      <trkpt lat="48.61006" lon="1.91119">
        <ele>136.64</ele>
        <time>2018-01-13T11:36:07Z</time>
      </trkpt>
      <trkpt lat="48.61011" lon="1.91115">
        <ele>137.13</ele>
        <time>2018-01-13T11:36:11Z</time>
      </trkpt>
      <trkpt lat="48.61014" lon="1.91111">
        <ele>137.13</ele>
        <time>2018-01-13T11:36:14Z</time>
      </trkpt>
      <trkpt lat="48.61026" lon="1.91098">
        <ele>137.13</ele>
        <time>2018-01-13T11:36:23Z</time>
      </trkpt>
      <trkpt lat="48.61035" lon="1.91091">
        <ele>137.13</ele>
        <time>2018-01-13T11:36:30Z</time>
      </trkpt>
      <trkpt lat="48.61042" lon="1.91088">
        <ele>137.13</ele>
        <time>2018-01-13T11:36:35Z</time>
      </trkpt>
      <trkpt lat="48.61047" lon="1.91086">
        <ele>137.13</ele>
        <time>2018-01-13T11:36:39Z</time>
      </trkpt>
      <trkpt lat="48.61059" lon="1.91077">
        <ele>137.61</ele>
        <time>2018-01-13T11:36:49Z</time>
      </trkpt>
      <trkpt lat="48.61069" lon="1.91072">
        <ele>137.61</ele>
        <time>2018-01-13T11:36:57Z</time>
      </trkpt>
      <trkpt lat="48.61076" lon="1.91068">
        <ele>138.09</ele>
        <time>2018-01-13T11:37:03Z</time>
      </trkpt>
      <trkpt lat="48.61086" lon="1.91063">
        <ele>138.57</ele>
        <time>2018-01-13T11:37:12Z</time>
      </trkpt>
      <trkpt lat="48.61094" lon="1.9106">
        <ele>139.05</ele>
        <time>2018-01-13T11:37:18Z</time>
      </trkpt>
      <trkpt lat="48.61103" lon="1.91055">
        <ele>140.01</ele>
        <time>2018-01-13T11:37:25Z</time>
      </trkpt>
      <trkpt lat="48.61112" lon="1.9105">
        <ele>139.05</ele>
        <time>2018-01-13T11:37:32Z</time>
      </trkpt>
      <trkpt lat="48.61119" lon="1.91047">
        <ele>140.01</ele>
        <time>2018-01-13T11:37:39Z</time>
      </trkpt>
      <trkpt lat="48.61126" lon="1.91044">
        <ele>140.01</ele>
        <time>2018-01-13T11:37:45Z</time>
      </trkpt>
      <trkpt lat="48.61133" lon="1.91039">
        <ele>140.49</ele>
        <time>2018-01-13T11:37:52Z</time>
      </trkpt>
      <trkpt lat="48.61134" lon="1.91039">
        <ele>140.97</ele>
        <time>2018-01-13T11:37:53Z</time>
      </trkpt>
      <trkpt lat="48.61141" lon="1.91036">
        <ele>140.49</ele>
        <time>2018-01-13T11:38:00Z</time>
      </trkpt>
      <trkpt lat="48.61142" lon="1.91036">
        <ele>140.49</ele>
        <time>2018-01-13T11:38:01Z</time>
      </trkpt>
      <trkpt lat="48.61151" lon="1.91033">
        <ele>140.97</ele>
        <time>2018-01-13T11:38:09Z</time>
      </trkpt>
      <trkpt lat="48.61161" lon="1.91028">
        <ele>141.45</ele>
        <time>2018-01-13T11:38:16Z</time>
      </trkpt>
      <trkpt lat="48.61167" lon="1.91025">
        <ele>141.45</ele>
        <time>2018-01-13T11:38:21Z</time>
      </trkpt>
      <trkpt lat="48.61175" lon="1.91022">
        <ele>141.93</ele>
        <time>2018-01-13T11:38:29Z</time>
      </trkpt>
      <trkpt lat="48.61176" lon="1.91022">
        <ele>141.93</ele>
        <time>2018-01-13T11:38:30Z</time>
      </trkpt>
      <trkpt lat="48.61181" lon="1.9102">
        <ele>141.93</ele>
        <time>2018-01-13T11:38:35Z</time>
      </trkpt>
      <trkpt lat="48.61186" lon="1.91018">
        <ele>142.41</ele>
        <time>2018-01-13T11:38:41Z</time>
      </trkpt>
      <trkpt lat="48.61191" lon="1.91015">
        <ele>141.93</ele>
        <time>2018-01-13T11:38:48Z</time>
      </trkpt>
      <trkpt lat="48.61199" lon="1.9101">
        <ele>142.41</ele>
        <time>2018-01-13T11:38:55Z</time>
      </trkpt>
      <trkpt lat="48.61205" lon="1.91004">
        <ele>142.41</ele>
        <time>2018-01-13T11:39:02Z</time>
      </trkpt>
      <trkpt lat="48.61206" lon="1.91">
        <ele>141.93</ele>
        <time>2018-01-13T11:39:08Z</time>
      </trkpt>
      <trkpt lat="48.61209" lon="1.90994">
        <ele>141.45</ele>
        <time>2018-01-13T11:39:13Z</time>
      </trkpt>
      <trkpt lat="48.61209" lon="1.90992">
        <ele>141.45</ele>
        <time>2018-01-13T11:39:15Z</time>
      </trkpt>
      <trkpt lat="48.61212" lon="1.90982">
        <ele>141.93</ele>
        <time>2018-01-13T11:39:22Z</time>
      </trkpt>
      <trkpt lat="48.61213" lon="1.90979">
        <ele>141.93</ele>
        <time>2018-01-13T11:39:23Z</time>
      </trkpt>
      <trkpt lat="48.61214" lon="1.90974">
        <ele>141.93</ele>
        <time>2018-01-13T11:39:26Z</time>
      </trkpt>
      <trkpt lat="48.61217" lon="1.9097">
        <ele>141.93</ele>
        <time>2018-01-13T11:39:30Z</time>
      </trkpt>
      <trkpt lat="48.6122" lon="1.90965">
        <ele>141.45</ele>
        <time>2018-01-13T11:39:34Z</time>
      </trkpt>
      <trkpt lat="48.61226" lon="1.90957">
        <ele>141.45</ele>
        <time>2018-01-13T11:39:41Z</time>
      </trkpt>
      <trkpt lat="48.61229" lon="1.90949">
        <ele>140.97</ele>
        <time>2018-01-13T11:39:48Z</time>
      </trkpt>
      <trkpt lat="48.61235" lon="1.90941">
        <ele>140.97</ele>
        <time>2018-01-13T11:39:54Z</time>
      </trkpt>
      <trkpt lat="48.61243" lon="1.90935">
        <ele>140.49</ele>
        <time>2018-01-13T11:40:01Z</time>
      </trkpt>
      <trkpt lat="48.61245" lon="1.90934">
        <ele>140.49</ele>
        <time>2018-01-13T11:40:03Z</time>
      </trkpt>
      <trkpt lat="48.6125" lon="1.90929">
        <ele>140.49</ele>
        <time>2018-01-13T11:40:09Z</time>
      </trkpt>
      <trkpt lat="48.61251" lon="1.90927">
        <ele>140.49</ele>
        <time>2018-01-13T11:40:11Z</time>
      </trkpt>
      <trkpt lat="48.61253" lon="1.90917">
        <ele>140.49</ele>
        <time>2018-01-13T11:40:17Z</time>
      </trkpt>
      <trkpt lat="48.61254" lon="1.90911">
        <ele>140.01</ele>
        <time>2018-01-13T11:40:22Z</time>
      </trkpt>
      <trkpt lat="48.61256" lon="1.90904">
        <ele>140.01</ele>
        <time>2018-01-13T11:40:28Z</time>
      </trkpt>
      <trkpt lat="48.61256" lon="1.90903">
        <ele>140.01</ele>
        <time>2018-01-13T11:40:38Z</time>
      </trkpt>
      <trkpt lat="48.61256" lon="1.90902">
        <ele>140.01</ele>
        <time>2018-01-13T11:40:47Z</time>
      </trkpt>
      <trkpt lat="48.61256" lon="1.90902">
        <ele>139.53</ele>
        <time>2018-01-13T11:40:57Z</time>
      </trkpt>
      <trkpt lat="48.61255" lon="1.90903">
        <ele>139.53</ele>
        <time>2018-01-13T11:41:03Z</time>
      </trkpt>
      <trkpt lat="48.61255" lon="1.90904">
        <ele>139.53</ele>
        <time>2018-01-13T11:41:16Z</time>
      </trkpt>
      <trkpt lat="48.61255" lon="1.90905">
        <ele>139.53</ele>
        <time>2018-01-13T11:41:29Z</time>
      </trkpt>
      <trkpt lat="48.61255" lon="1.90904">
        <ele>139.05</ele>
        <time>2018-01-13T11:41:36Z</time>
      </trkpt>
      <trkpt lat="48.61256" lon="1.90904">
        <ele>140.01</ele>
        <time>2018-01-13T11:41:47Z</time>
      </trkpt>
      <trkpt lat="48.61256" lon="1.90904">
        <ele>140.01</ele>
        <time>2018-01-13T11:41:58Z</time>
      </trkpt>
      <trkpt lat="48.61256" lon="1.90904">
        <ele>139.05</ele>
        <time>2018-01-13T11:42:07Z</time>
      </trkpt>
      <trkpt lat="48.61256" lon="1.90905">
        <ele>139.53</ele>
        <time>2018-01-13T11:42:17Z</time>
      </trkpt>
      <trkpt lat="48.61256" lon="1.90905">
        <ele>139.53</ele>
        <time>2018-01-13T11:42:23Z</time>
      </trkpt>
      <trkpt lat="48.61256" lon="1.90905">
        <ele>139.53</ele>
        <time>2018-01-13T11:42:31Z</time>
      </trkpt>
      <trkpt lat="48.61257" lon="1.90905">
        <ele>139.05</ele>
        <time>2018-01-13T11:42:38Z</time>
      </trkpt>
      <trkpt lat="48.61257" lon="1.90906">
        <ele>139.05</ele>
        <time>2018-01-13T11:42:46Z</time>
      </trkpt>
      <trkpt lat="48.61259" lon="1.90908">
        <ele>139.05</ele>
        <time>2018-01-13T11:42:54Z</time>
      </trkpt>
      <trkpt lat="48.61262" lon="1.90912">
        <ele>138.57</ele>
        <time>2018-01-13T11:43:05Z</time>
      </trkpt>
      <trkpt lat="48.61268" lon="1.90917">
        <ele>138.09</ele>
        <time>2018-01-13T11:43:15Z</time>
      </trkpt>
      <trkpt lat="48.61272" lon="1.90915">
        <ele>138.09</ele>
        <time>2018-01-13T11:43:41Z</time>
      </trkpt>
      <trkpt lat="48.61248" lon="1.90901">
        <ele>138.09</ele>
        <time>2018-01-13T11:47:51Z</time>
      </trkpt>
      <trkpt lat="48.61253" lon="1.90909">
        <ele>137.61</ele>
        <time>2018-01-13T11:48:05Z</time>
      </trkpt>
      <trkpt lat="48.61257" lon="1.90908">
        <ele>137.61</ele>
        <time>2018-01-13T11:48:19Z</time>
      </trkpt>
      <trkpt lat="48.6126" lon="1.90907">
        <ele>137.61</ele>
        <time>2018-01-13T11:48:32Z</time>
      </trkpt>
      <trkpt lat="48.61262" lon="1.90909">
        <ele>137.61</ele>
        <time>2018-01-13T11:48:46Z</time>
      </trkpt>
      <trkpt lat="48.61261" lon="1.90909">
        <ele>137.61</ele>
        <time>2018-01-13T11:48:58Z</time>
      </trkpt>
      <trkpt lat="48.61261" lon="1.90899">
        <ele>137.61</ele>
        <time>2018-01-13T11:49:08Z</time>
      </trkpt>
      <trkpt lat="48.6126" lon="1.90909">
        <ele>141.93</ele>
        <time>2018-01-13T12:12:32Z</time>
      </trkpt>
      <trkpt lat="48.61265" lon="1.90907">
        <ele>141.93</ele>
        <time>2018-01-13T12:12:54Z</time>
      </trkpt>
      <trkpt lat="48.6126" lon="1.9091">
        <ele>141.93</ele>
        <time>2018-01-13T12:13:23Z</time>
      </trkpt>
      <trkpt lat="48.61259" lon="1.90907">
        <ele>146.26</ele>
        <time>2018-01-13T14:02:46Z</time>
      </trkpt>
      <trkpt lat="48.6125" lon="1.9091">
        <ele>146.74</ele>
        <time>2018-01-13T14:02:57Z</time>
      </trkpt>
      <trkpt lat="48.61252" lon="1.90911">
        <ele>145.78</ele>
        <time>2018-01-13T14:03:05Z</time>
      </trkpt>
      <trkpt lat="48.6125" lon="1.9091">
        <ele>142.41</ele>
        <time>2018-01-13T14:03:20Z</time>
      </trkpt>
      <trkpt lat="48.6125" lon="1.9091">
        <ele>148.18</ele>
        <time>2018-01-13T14:03:21Z</time>
      </trkpt>
      <trkpt lat="48.6125" lon="1.9091">
        <ele>144.82</ele>
        <time>2018-01-13T14:03:24Z</time>
      </trkpt>
      <trkpt lat="48.61251" lon="1.90913">
        <ele>145.3</ele>
        <time>2018-01-13T14:03:31Z</time>
      </trkpt>
      <trkpt lat="48.61252" lon="1.90914">
        <ele>145.3</ele>
        <time>2018-01-13T14:03:34Z</time>
      </trkpt>
      <trkpt lat="48.61251" lon="1.90915">
        <ele>146.26</ele>
        <time>2018-01-13T14:03:39Z</time>
      </trkpt>
      <trkpt lat="48.61251" lon="1.90915">
        <ele>146.26</ele>
        <time>2018-01-13T14:03:44Z</time>
      </trkpt>
      <trkpt lat="48.61252" lon="1.90911">
        <ele>145.78</ele>
        <time>2018-01-13T14:03:50Z</time>
      </trkpt>
      <trkpt lat="48.61252" lon="1.90909">
        <ele>146.26</ele>
        <time>2018-01-13T14:03:55Z</time>
      </trkpt>
      <trkpt lat="48.61253" lon="1.90908">
        <ele>145.78</ele>
        <time>2018-01-13T14:04:01Z</time>
      </trkpt>
      <trkpt lat="48.61254" lon="1.909">
        <ele>145.78</ele>
        <time>2018-01-13T14:04:12Z</time>
      </trkpt>
      <trkpt lat="48.61256" lon="1.909">
        <ele>145.78</ele>
        <time>2018-01-13T14:04:21Z</time>
      </trkpt>
      <trkpt lat="48.61256" lon="1.909">
        <ele>145.78</ele>
        <time>2018-01-13T14:04:29Z</time>
      </trkpt>
      <trkpt lat="48.61257" lon="1.909">
        <ele>145.3</ele>
        <time>2018-01-13T14:04:41Z</time>
      </trkpt>
      <trkpt lat="48.61256" lon="1.90901">
        <ele>145.78</ele>
        <time>2018-01-13T14:04:50Z</time>
      </trkpt>
      <trkpt lat="48.61256" lon="1.90903">
        <ele>145.78</ele>
        <time>2018-01-13T14:05:01Z</time>
      </trkpt>
      <trkpt lat="48.61256" lon="1.90905">
        <ele>145.78</ele>
        <time>2018-01-13T14:05:14Z</time>
      </trkpt>
      <trkpt lat="48.61257" lon="1.90905">
        <ele>145.78</ele>
        <time>2018-01-13T14:05:25Z</time>
      </trkpt>
      <trkpt lat="48.61257" lon="1.90905">
        <ele>145.78</ele>
        <time>2018-01-13T14:05:36Z</time>
      </trkpt>
      <trkpt lat="48.61257" lon="1.90905">
        <ele>145.3</ele>
        <time>2018-01-13T14:05:49Z</time>
      </trkpt>
      <trkpt lat="48.61257" lon="1.90905">
        <ele>145.3</ele>
        <time>2018-01-13T14:05:59Z</time>
      </trkpt>
      <trkpt lat="48.61257" lon="1.90905">
        <ele>145.3</ele>
        <time>2018-01-13T14:06:10Z</time>
      </trkpt>
      <trkpt lat="48.61257" lon="1.90905">
        <ele>145.3</ele>
        <time>2018-01-13T14:06:19Z</time>
      </trkpt>
      <trkpt lat="48.61257" lon="1.90904">
        <ele>145.3</ele>
        <time>2018-01-13T14:06:30Z</time>
      </trkpt>
      <trkpt lat="48.61257" lon="1.90901">
        <ele>145.3</ele>
        <time>2018-01-13T14:06:36Z</time>
      </trkpt>
      <trkpt lat="48.61257" lon="1.90898">
        <ele>144.82</ele>
        <time>2018-01-13T14:06:41Z</time>
      </trkpt>
      <trkpt lat="48.61259" lon="1.90895">
        <ele>144.82</ele>
        <time>2018-01-13T14:06:48Z</time>
      </trkpt>
      <trkpt lat="48.61259" lon="1.90894">
        <ele>144.82</ele>
        <time>2018-01-13T14:06:54Z</time>
      </trkpt>
      <trkpt lat="48.61261" lon="1.90891">
        <ele>144.82</ele>
        <time>2018-01-13T14:07:01Z</time>
      </trkpt>
      <trkpt lat="48.61262" lon="1.9089">
        <ele>144.82</ele>
        <time>2018-01-13T14:07:08Z</time>
      </trkpt>
      <trkpt lat="48.61262" lon="1.90888">
        <ele>144.82</ele>
        <time>2018-01-13T14:07:17Z</time>
      </trkpt>
      <trkpt lat="48.61264" lon="1.90883">
        <ele>144.82</ele>
        <time>2018-01-13T14:07:23Z</time>
      </trkpt>
      <trkpt lat="48.61266" lon="1.90878">
        <ele>144.82</ele>
        <time>2018-01-13T14:07:30Z</time>
      </trkpt>
      <trkpt lat="48.61267" lon="1.90872">
        <ele>144.34</ele>
        <time>2018-01-13T14:07:37Z</time>
      </trkpt>
      <trkpt lat="48.6127" lon="1.90866">
        <ele>144.34</ele>
        <time>2018-01-13T14:07:44Z</time>
      </trkpt>
      <trkpt lat="48.61272" lon="1.90858">
        <ele>144.34</ele>
        <time>2018-01-13T14:07:50Z</time>
      </trkpt>
      <trkpt lat="48.61273" lon="1.90856">
        <ele>144.34</ele>
        <time>2018-01-13T14:07:52Z</time>
      </trkpt>
      <trkpt lat="48.61277" lon="1.90845">
        <ele>144.34</ele>
        <time>2018-01-13T14:08:00Z</time>
      </trkpt>
      <trkpt lat="48.61281" lon="1.90836">
        <ele>143.85</ele>
        <time>2018-01-13T14:08:09Z</time>
      </trkpt>
      <trkpt lat="48.61285" lon="1.90829">
        <ele>143.85</ele>
        <time>2018-01-13T14:08:16Z</time>
      </trkpt>
      <trkpt lat="48.61286" lon="1.90825">
        <ele>143.85</ele>
        <time>2018-01-13T14:08:19Z</time>
      </trkpt>
      <trkpt lat="48.61291" lon="1.90817">
        <ele>143.85</ele>
        <time>2018-01-13T14:08:27Z</time>
      </trkpt>
      <trkpt lat="48.61296" lon="1.90808">
        <ele>143.85</ele>
        <time>2018-01-13T14:08:34Z</time>
      </trkpt>
      <trkpt lat="48.61301" lon="1.90801">
        <ele>143.85</ele>
        <time>2018-01-13T14:08:42Z</time>
      </trkpt>
      <trkpt lat="48.61307" lon="1.90796">
        <ele>143.37</ele>
        <time>2018-01-13T14:08:50Z</time>
      </trkpt>
      <trkpt lat="48.61312" lon="1.90789">
        <ele>143.37</ele>
        <time>2018-01-13T14:08:57Z</time>
      </trkpt>
      <trkpt lat="48.61316" lon="1.90791">
        <ele>143.37</ele>
        <time>2018-01-13T14:09:01Z</time>
      </trkpt>
      <trkpt lat="48.61319" lon="1.90783">
        <ele>143.85</ele>
        <time>2018-01-13T14:09:04Z</time>
      </trkpt>
      <trkpt lat="48.6132" lon="1.90771">
        <ele>143.85</ele>
        <time>2018-01-13T14:09:07Z</time>
      </trkpt>
      <trkpt lat="48.61322" lon="1.90764">
        <ele>143.37</ele>
        <time>2018-01-13T14:09:10Z</time>
      </trkpt>
      <trkpt lat="48.61328" lon="1.9076">
        <ele>143.85</ele>
        <time>2018-01-13T14:09:16Z</time>
      </trkpt>
      <trkpt lat="48.61334" lon="1.90757">
        <ele>143.85</ele>
        <time>2018-01-13T14:09:23Z</time>
      </trkpt>
      <trkpt lat="48.61339" lon="1.90753">
        <ele>143.85</ele>
        <time>2018-01-13T14:09:28Z</time>
      </trkpt>
      <trkpt lat="48.61341" lon="1.9075">
        <ele>144.34</ele>
        <time>2018-01-13T14:09:31Z</time>
      </trkpt>
      <trkpt lat="48.61348" lon="1.90746">
        <ele>144.34</ele>
        <time>2018-01-13T14:09:37Z</time>
      </trkpt>
      <trkpt lat="48.61355" lon="1.9074">
        <ele>144.82</ele>
        <time>2018-01-13T14:09:45Z</time>
      </trkpt>
      <trkpt lat="48.61362" lon="1.90738">
        <ele>144.82</ele>
        <time>2018-01-13T14:09:52Z</time>
      </trkpt>
      <trkpt lat="48.61366" lon="1.90738">
        <ele>144.82</ele>
        <time>2018-01-13T14:09:56Z</time>
      </trkpt>
      <trkpt lat="48.6137" lon="1.90736">
        <ele>144.82</ele>
        <time>2018-01-13T14:10:00Z</time>
      </trkpt>
      <trkpt lat="48.61378" lon="1.90735">
        <ele>145.3</ele>
        <time>2018-01-13T14:10:08Z</time>
      </trkpt>
      <trkpt lat="48.61382" lon="1.90735">
        <ele>145.3</ele>
        <time>2018-01-13T14:10:11Z</time>
      </trkpt>
      <trkpt lat="48.61385" lon="1.90733">
        <ele>145.3</ele>
        <time>2018-01-13T14:10:14Z</time>
      </trkpt>
      <trkpt lat="48.61394" lon="1.90731">
        <ele>145.3</ele>
        <time>2018-01-13T14:10:23Z</time>
      </trkpt>
      <trkpt lat="48.61401" lon="1.90727">
        <ele>145.3</ele>
        <time>2018-01-13T14:10:30Z</time>
      </trkpt>
      <trkpt lat="48.61404" lon="1.90725">
        <ele>145.3</ele>
        <time>2018-01-13T14:10:33Z</time>
      </trkpt>
      <trkpt lat="48.61413" lon="1.90728">
        <ele>145.3</ele>
        <time>2018-01-13T14:10:41Z</time>
      </trkpt>
      <trkpt lat="48.61414" lon="1.90728">
        <ele>145.78</ele>
        <time>2018-01-13T14:10:42Z</time>
      </trkpt>
      <trkpt lat="48.61421" lon="1.90728">
        <ele>145.78</ele>
        <time>2018-01-13T14:10:49Z</time>
      </trkpt>
      <trkpt lat="48.61431" lon="1.90723">
        <ele>145.3</ele>
        <time>2018-01-13T14:10:58Z</time>
      </trkpt>
      <trkpt lat="48.61433" lon="1.90722">
        <ele>145.3</ele>
        <time>2018-01-13T14:11:00Z</time>
      </trkpt>
      <trkpt lat="48.61445" lon="1.90721">
        <ele>145.78</ele>
        <time>2018-01-13T14:11:10Z</time>
      </trkpt>
      <trkpt lat="48.61454" lon="1.90716">
        <ele>145.78</ele>
        <time>2018-01-13T14:11:19Z</time>
      </trkpt>
      <trkpt lat="48.61457" lon="1.90718">
        <ele>145.78</ele>
        <time>2018-01-13T14:11:23Z</time>
      </trkpt>
      <trkpt lat="48.61464" lon="1.90732">
        <ele>146.26</ele>
        <time>2018-01-13T14:11:32Z</time>
      </trkpt>
      <trkpt lat="48.61469" lon="1.90742">
        <ele>146.74</ele>
        <time>2018-01-13T14:11:39Z</time>
      </trkpt>
      <trkpt lat="48.6147" lon="1.90743">
        <ele>146.74</ele>
        <time>2018-01-13T14:11:41Z</time>
      </trkpt>
      <trkpt lat="48.61476" lon="1.90751">
        <ele>147.7</ele>
        <time>2018-01-13T14:11:49Z</time>
      </trkpt>
      <trkpt lat="48.61481" lon="1.90759">
        <ele>148.18</ele>
        <time>2018-01-13T14:11:55Z</time>
      </trkpt>
      <trkpt lat="48.61483" lon="1.90766">
        <ele>148.66</ele>
        <time>2018-01-13T14:12:01Z</time>
      </trkpt>
      <trkpt lat="48.6149" lon="1.90776">
        <ele>149.62</ele>
        <time>2018-01-13T14:12:09Z</time>
      </trkpt>
      <trkpt lat="48.61493" lon="1.90781">
        <ele>150.1</ele>
        <time>2018-01-13T14:12:15Z</time>
      </trkpt>
      <trkpt lat="48.61494" lon="1.90784">
        <ele>150.1</ele>
        <time>2018-01-13T14:12:17Z</time>
      </trkpt>
      <trkpt lat="48.61499" lon="1.90793">
        <ele>151.06</ele>
        <time>2018-01-13T14:12:24Z</time>
      </trkpt>
      <trkpt lat="48.61505" lon="1.90803">
        <ele>152.03</ele>
        <time>2018-01-13T14:12:32Z</time>
      </trkpt>
      <trkpt lat="48.61506" lon="1.90805">
        <ele>152.03</ele>
        <time>2018-01-13T14:12:34Z</time>
      </trkpt>
      <trkpt lat="48.61508" lon="1.90809">
        <ele>152.51</ele>
        <time>2018-01-13T14:12:37Z</time>
      </trkpt>
      <trkpt lat="48.61512" lon="1.90814">
        <ele>152.99</ele>
        <time>2018-01-13T14:12:42Z</time>
      </trkpt>
      <trkpt lat="48.61515" lon="1.90819">
        <ele>152.99</ele>
        <time>2018-01-13T14:12:46Z</time>
      </trkpt>
      <trkpt lat="48.61516" lon="1.90822">
        <ele>152.99</ele>
        <time>2018-01-13T14:12:48Z</time>
      </trkpt>
      <trkpt lat="48.61518" lon="1.90825">
        <ele>153.47</ele>
        <time>2018-01-13T14:12:50Z</time>
      </trkpt>
      <trkpt lat="48.61522" lon="1.90834">
        <ele>153.95</ele>
        <time>2018-01-13T14:12:57Z</time>
      </trkpt>
      <trkpt lat="48.61525" lon="1.90838">
        <ele>154.43</ele>
        <time>2018-01-13T14:13:03Z</time>
      </trkpt>
      <trkpt lat="48.61528" lon="1.90842">
        <ele>154.91</ele>
        <time>2018-01-13T14:13:08Z</time>
      </trkpt>
      <trkpt lat="48.61532" lon="1.90845">
        <ele>154.91</ele>
        <time>2018-01-13T14:13:13Z</time>
      </trkpt>
      <trkpt lat="48.61539" lon="1.90858">
        <ele>155.39</ele>
        <time>2018-01-13T14:13:21Z</time>
      </trkpt>
      <trkpt lat="48.61541" lon="1.9086">
        <ele>155.87</ele>
        <time>2018-01-13T14:13:25Z</time>
      </trkpt>
      <trkpt lat="48.61547" lon="1.9087">
        <ele>155.87</ele>
        <time>2018-01-13T14:13:32Z</time>
      </trkpt>
      <trkpt lat="48.61549" lon="1.90873">
        <ele>156.35</ele>
        <time>2018-01-13T14:13:35Z</time>
      </trkpt>
      <trkpt lat="48.61556" lon="1.9088">
        <ele>156.35</ele>
        <time>2018-01-13T14:13:43Z</time>
      </trkpt>
      <trkpt lat="48.61558" lon="1.90882">
        <ele>156.35</ele>
        <time>2018-01-13T14:13:49Z</time>
      </trkpt>
      <trkpt lat="48.61566" lon="1.9089">
        <ele>156.35</ele>
        <time>2018-01-13T14:13:56Z</time>
      </trkpt>
      <trkpt lat="48.61572" lon="1.90895">
        <ele>156.35</ele>
        <time>2018-01-13T14:14:03Z</time>
      </trkpt>
      <trkpt lat="48.61574" lon="1.909">
        <ele>156.35</ele>
        <time>2018-01-13T14:14:07Z</time>
      </trkpt>
      <trkpt lat="48.6158" lon="1.9091">
        <ele>156.35</ele>
        <time>2018-01-13T14:14:13Z</time>
      </trkpt>
      <trkpt lat="48.61585" lon="1.90915">
        <ele>155.87</ele>
        <time>2018-01-13T14:14:18Z</time>
      </trkpt>
      <trkpt lat="48.61592" lon="1.90919">
        <ele>155.39</ele>
        <time>2018-01-13T14:14:24Z</time>
      </trkpt>
      <trkpt lat="48.61596" lon="1.9092">
        <ele>154.43</ele>
        <time>2018-01-13T14:14:31Z</time>
      </trkpt>
      <trkpt lat="48.61603" lon="1.90922">
        <ele>153.95</ele>
        <time>2018-01-13T14:14:37Z</time>
      </trkpt>
      <trkpt lat="48.61612" lon="1.90925">
        <ele>153.47</ele>
        <time>2018-01-13T14:14:44Z</time>
      </trkpt>
      <trkpt lat="48.61618" lon="1.90928">
        <ele>153.47</ele>
        <time>2018-01-13T14:14:49Z</time>
      </trkpt>
      <trkpt lat="48.61622" lon="1.90928">
        <ele>153.47</ele>
        <time>2018-01-13T14:14:53Z</time>
      </trkpt>
      <trkpt lat="48.61627" lon="1.9093">
        <ele>153.47</ele>
        <time>2018-01-13T14:14:56Z</time>
      </trkpt>
      <trkpt lat="48.61634" lon="1.90929">
        <ele>152.99</ele>
        <time>2018-01-13T14:15:03Z</time>
      </trkpt>
      <trkpt lat="48.61642" lon="1.90928">
        <ele>153.47</ele>
        <time>2018-01-13T14:15:10Z</time>
      </trkpt>
      <trkpt lat="48.61645" lon="1.90926">
        <ele>153.47</ele>
        <time>2018-01-13T14:15:13Z</time>
      </trkpt>
      <trkpt lat="48.61648" lon="1.90926">
        <ele>153.47</ele>
        <time>2018-01-13T14:15:15Z</time>
      </trkpt>
      <trkpt lat="48.6166" lon="1.90929">
        <ele>153.47</ele>
        <time>2018-01-13T14:15:25Z</time>
      </trkpt>
      <trkpt lat="48.61669" lon="1.9093">
        <ele>153.47</ele>
        <time>2018-01-13T14:15:33Z</time>
      </trkpt>
      <trkpt lat="48.61672" lon="1.90929">
        <ele>153.95</ele>
        <time>2018-01-13T14:15:35Z</time>
      </trkpt>
      <trkpt lat="48.61678" lon="1.9093">
        <ele>153.95</ele>
        <time>2018-01-13T14:15:41Z</time>
      </trkpt>
      <trkpt lat="48.61684" lon="1.90931">
        <ele>153.95</ele>
        <time>2018-01-13T14:15:46Z</time>
      </trkpt>
      <trkpt lat="48.61689" lon="1.9093">
        <ele>154.43</ele>
        <time>2018-01-13T14:15:51Z</time>
      </trkpt>
      <trkpt lat="48.61697" lon="1.90927">
        <ele>154.91</ele>
        <time>2018-01-13T14:15:59Z</time>
      </trkpt>
      <trkpt lat="48.61707" lon="1.90925">
        <ele>155.39</ele>
        <time>2018-01-13T14:16:07Z</time>
      </trkpt>
      <trkpt lat="48.61713" lon="1.90925">
        <ele>155.87</ele>
        <time>2018-01-13T14:16:12Z</time>
      </trkpt>
      <trkpt lat="48.61715" lon="1.90927">
        <ele>156.35</ele>
        <time>2018-01-13T14:16:15Z</time>
      </trkpt>
      <trkpt lat="48.61717" lon="1.90928">
        <ele>156.35</ele>
        <time>2018-01-13T14:16:16Z</time>
      </trkpt>
      <trkpt lat="48.61725" lon="1.90932">
        <ele>156.83</ele>
        <time>2018-01-13T14:16:22Z</time>
      </trkpt>
      <trkpt lat="48.61728" lon="1.90932">
        <ele>157.31</ele>
        <time>2018-01-13T14:16:25Z</time>
      </trkpt>
      <trkpt lat="48.61737" lon="1.90934">
        <ele>158.27</ele>
        <time>2018-01-13T14:16:33Z</time>
      </trkpt>
      <trkpt lat="48.61746" lon="1.90929">
        <ele>159.24</ele>
        <time>2018-01-13T14:16:40Z</time>
      </trkpt>
      <trkpt lat="48.61752" lon="1.9093">
        <ele>160.2</ele>
        <time>2018-01-13T14:16:46Z</time>
      </trkpt>
      <trkpt lat="48.61756" lon="1.90929">
        <ele>160.68</ele>
        <time>2018-01-13T14:16:49Z</time>
      </trkpt>
      <trkpt lat="48.61763" lon="1.9093">
        <ele>161.16</ele>
        <time>2018-01-13T14:16:55Z</time>
      </trkpt>
      <trkpt lat="48.61766" lon="1.90935">
        <ele>161.64</ele>
        <time>2018-01-13T14:16:58Z</time>
      </trkpt>
      <trkpt lat="48.61774" lon="1.90937">
        <ele>162.6</ele>
        <time>2018-01-13T14:17:05Z</time>
      </trkpt>
      <trkpt lat="48.61777" lon="1.90938">
        <ele>163.08</ele>
        <time>2018-01-13T14:17:07Z</time>
      </trkpt>
      <trkpt lat="48.61784" lon="1.90936">
        <ele>163.56</ele>
        <time>2018-01-13T14:17:12Z</time>
      </trkpt>
      <trkpt lat="48.61796" lon="1.90933">
        <ele>164.52</ele>
        <time>2018-01-13T14:17:21Z</time>
      </trkpt>
      <trkpt lat="48.61806" lon="1.90934">
        <ele>165.48</ele>
        <time>2018-01-13T14:17:29Z</time>
      </trkpt>
      <trkpt lat="48.61814" lon="1.90942">
        <ele>165.96</ele>
        <time>2018-01-13T14:17:35Z</time>
      </trkpt>
      <trkpt lat="48.61818" lon="1.90945">
        <ele>166.45</ele>
        <time>2018-01-13T14:17:38Z</time>
      </trkpt>
      <trkpt lat="48.61825" lon="1.90946">
        <ele>166.93</ele>
        <time>2018-01-13T14:17:45Z</time>
      </trkpt>
      <trkpt lat="48.61832" lon="1.90949">
        <ele>167.41</ele>
        <time>2018-01-13T14:17:51Z</time>
      </trkpt>
      <trkpt lat="48.61839" lon="1.90959">
        <ele>167.89</ele>
        <time>2018-01-13T14:17:58Z</time>
      </trkpt>
      <trkpt lat="48.61841" lon="1.9096">
        <ele>167.89</ele>
        <time>2018-01-13T14:18:01Z</time>
      </trkpt>
      <trkpt lat="48.61845" lon="1.90959">
        <ele>167.89</ele>
        <time>2018-01-13T14:18:05Z</time>
      </trkpt>
      <trkpt lat="48.61851" lon="1.90956">
        <ele>167.89</ele>
        <time>2018-01-13T14:18:10Z</time>
      </trkpt>
      <trkpt lat="48.61856" lon="1.90959">
        <ele>167.89</ele>
        <time>2018-01-13T14:18:14Z</time>
      </trkpt>
      <trkpt lat="48.61863" lon="1.90959">
        <ele>167.89</ele>
        <time>2018-01-13T14:18:20Z</time>
      </trkpt>
      <trkpt lat="48.61873" lon="1.90966">
        <ele>167.89</ele>
        <time>2018-01-13T14:18:29Z</time>
      </trkpt>
      <trkpt lat="48.61875" lon="1.90968">
        <ele>167.41</ele>
        <time>2018-01-13T14:18:32Z</time>
      </trkpt>
      <trkpt lat="48.61884" lon="1.9097">
        <ele>166.45</ele>
        <time>2018-01-13T14:18:41Z</time>
      </trkpt>
      <trkpt lat="48.6189" lon="1.90972">
        <ele>165.48</ele>
        <time>2018-01-13T14:18:48Z</time>
      </trkpt>
      <trkpt lat="48.61896" lon="1.90971">
        <ele>165.48</ele>
        <time>2018-01-13T14:18:54Z</time>
      </trkpt>
      <trkpt lat="48.61906" lon="1.90971">
        <ele>165</ele>
        <time>2018-01-13T14:19:02Z</time>
      </trkpt>
      <trkpt lat="48.61913" lon="1.90969">
        <ele>164.52</ele>
        <time>2018-01-13T14:19:09Z</time>
      </trkpt>
      <trkpt lat="48.61917" lon="1.90966">
        <ele>164.52</ele>
        <time>2018-01-13T14:19:12Z</time>
      </trkpt>
      <trkpt lat="48.61923" lon="1.90966">
        <ele>164.04</ele>
        <time>2018-01-13T14:19:19Z</time>
      </trkpt>
      <trkpt lat="48.61932" lon="1.90965">
        <ele>164.04</ele>
        <time>2018-01-13T14:19:27Z</time>
      </trkpt>
      <trkpt lat="48.61934" lon="1.90964">
        <ele>164.04</ele>
        <time>2018-01-13T14:19:28Z</time>
      </trkpt>
      <trkpt lat="48.61944" lon="1.90962">
        <ele>164.04</ele>
        <time>2018-01-13T14:19:36Z</time>
      </trkpt>
      <trkpt lat="48.61954" lon="1.9096">
        <ele>164.04</ele>
        <time>2018-01-13T14:19:42Z</time>
      </trkpt>
      <trkpt lat="48.61967" lon="1.90958">
        <ele>164.04</ele>
        <time>2018-01-13T14:19:52Z</time>
      </trkpt>
      <trkpt lat="48.61976" lon="1.90957">
        <ele>164.52</ele>
        <time>2018-01-13T14:19:59Z</time>
      </trkpt>
      <trkpt lat="48.61985" lon="1.90956">
        <ele>164.52</ele>
        <time>2018-01-13T14:20:07Z</time>
      </trkpt>
      <trkpt lat="48.61991" lon="1.90956">
        <ele>165</ele>
        <time>2018-01-13T14:20:11Z</time>
      </trkpt>
      <trkpt lat="48.62001" lon="1.90955">
        <ele>165</ele>
        <time>2018-01-13T14:20:19Z</time>
      </trkpt>
      <trkpt lat="48.62003" lon="1.90955">
        <ele>165.48</ele>
        <time>2018-01-13T14:20:21Z</time>
      </trkpt>
      <trkpt lat="48.62015" lon="1.90956">
        <ele>166.45</ele>
        <time>2018-01-13T14:20:31Z</time>
      </trkpt>
      <trkpt lat="48.62017" lon="1.90956">
        <ele>166.45</ele>
        <time>2018-01-13T14:20:33Z</time>
      </trkpt>
      <trkpt lat="48.6202" lon="1.90956">
        <ele>166.93</ele>
        <time>2018-01-13T14:20:35Z</time>
      </trkpt>
      <trkpt lat="48.62028" lon="1.90963">
        <ele>168.37</ele>
        <time>2018-01-13T14:20:43Z</time>
      </trkpt>
      <trkpt lat="48.62034" lon="1.90961">
        <ele>168.37</ele>
        <time>2018-01-13T14:20:50Z</time>
      </trkpt>
      <trkpt lat="48.62041" lon="1.90956">
        <ele>169.33</ele>
        <time>2018-01-13T14:20:56Z</time>
      </trkpt>
      <trkpt lat="48.62047" lon="1.90952">
        <ele>169.81</ele>
        <time>2018-01-13T14:21:01Z</time>
      </trkpt>
      <trkpt lat="48.62048" lon="1.90952">
        <ele>169.81</ele>
        <time>2018-01-13T14:21:03Z</time>
      </trkpt>
      <trkpt lat="48.62059" lon="1.90954">
        <ele>170.29</ele>
        <time>2018-01-13T14:21:10Z</time>
      </trkpt>
      <trkpt lat="48.62065" lon="1.90959">
        <ele>170.77</ele>
        <time>2018-01-13T14:21:16Z</time>
      </trkpt>
      <trkpt lat="48.62073" lon="1.90962">
        <ele>171.73</ele>
        <time>2018-01-13T14:21:22Z</time>
      </trkpt>
      <trkpt lat="48.62076" lon="1.90965">
        <ele>172.21</ele>
        <time>2018-01-13T14:21:27Z</time>
      </trkpt>
      <trkpt lat="48.62078" lon="1.90966">
        <ele>172.69</ele>
        <time>2018-01-13T14:21:28Z</time>
      </trkpt>
      <trkpt lat="48.62087" lon="1.90968">
        <ele>173.17</ele>
        <time>2018-01-13T14:21:34Z</time>
      </trkpt>
      <trkpt lat="48.62093" lon="1.90968">
        <ele>173.66</ele>
        <time>2018-01-13T14:21:39Z</time>
      </trkpt>
      <trkpt lat="48.62097" lon="1.90971">
        <ele>174.62</ele>
        <time>2018-01-13T14:21:43Z</time>
      </trkpt>
      <trkpt lat="48.62109" lon="1.90978">
        <ele>175.58</ele>
        <time>2018-01-13T14:21:50Z</time>
      </trkpt>
      <trkpt lat="48.62111" lon="1.9098">
        <ele>175.58</ele>
        <time>2018-01-13T14:21:51Z</time>
      </trkpt>
      <trkpt lat="48.62116" lon="1.90985">
        <ele>176.06</ele>
        <time>2018-01-13T14:21:56Z</time>
      </trkpt>
      <trkpt lat="48.62123" lon="1.90988">
        <ele>176.06</ele>
        <time>2018-01-13T14:22:03Z</time>
      </trkpt>
      <trkpt lat="48.62128" lon="1.90995">
        <ele>176.54</ele>
        <time>2018-01-13T14:22:08Z</time>
      </trkpt>
      <trkpt lat="48.62134" lon="1.91004">
        <ele>177.02</ele>
        <time>2018-01-13T14:22:14Z</time>
      </trkpt>
      <trkpt lat="48.62138" lon="1.91007">
        <ele>177.5</ele>
        <time>2018-01-13T14:22:18Z</time>
      </trkpt>
      <trkpt lat="48.62145" lon="1.91012">
        <ele>177.98</ele>
        <time>2018-01-13T14:22:23Z</time>
      </trkpt>
      <trkpt lat="48.62149" lon="1.91019">
        <ele>178.94</ele>
        <time>2018-01-13T14:22:30Z</time>
      </trkpt>
      <trkpt lat="48.62151" lon="1.91024">
        <ele>179.42</ele>
        <time>2018-01-13T14:22:35Z</time>
      </trkpt>
      <trkpt lat="48.62156" lon="1.91026">
        <ele>180.38</ele>
        <time>2018-01-13T14:22:41Z</time>
      </trkpt>
      <trkpt lat="48.62159" lon="1.91029">
        <ele>180.87</ele>
        <time>2018-01-13T14:22:46Z</time>
      </trkpt>
      <trkpt lat="48.62159" lon="1.9103">
        <ele>180.87</ele>
        <time>2018-01-13T14:22:47Z</time>
      </trkpt>
      <trkpt lat="48.62166" lon="1.91037">
        <ele>181.35</ele>
        <time>2018-01-13T14:22:55Z</time>
      </trkpt>
      <trkpt lat="48.62169" lon="1.91042">
        <ele>181.83</ele>
        <time>2018-01-13T14:22:58Z</time>
      </trkpt>
      <trkpt lat="48.62171" lon="1.91045">
        <ele>181.83</ele>
        <time>2018-01-13T14:23:00Z</time>
      </trkpt>
      <trkpt lat="48.62176" lon="1.91055">
        <ele>182.31</ele>
        <time>2018-01-13T14:23:06Z</time>
      </trkpt>
      <trkpt lat="48.62183" lon="1.91063">
        <ele>183.27</ele>
        <time>2018-01-13T14:23:13Z</time>
      </trkpt>
      <trkpt lat="48.62187" lon="1.9107">
        <ele>184.23</ele>
        <time>2018-01-13T14:23:20Z</time>
      </trkpt>
      <trkpt lat="48.62189" lon="1.91072">
        <ele>184.23</ele>
        <time>2018-01-13T14:23:22Z</time>
      </trkpt>
      <trkpt lat="48.62194" lon="1.91074">
        <ele>185.19</ele>
        <time>2018-01-13T14:23:27Z</time>
      </trkpt>
      <trkpt lat="48.62194" lon="1.91075">
        <ele>185.19</ele>
        <time>2018-01-13T14:23:28Z</time>
      </trkpt>
      <trkpt lat="48.62197" lon="1.91079">
        <ele>186.63</ele>
        <time>2018-01-13T14:23:34Z</time>
      </trkpt>
      <trkpt lat="48.62197" lon="1.9108">
        <ele>186.63</ele>
        <time>2018-01-13T14:23:35Z</time>
      </trkpt>
      <trkpt lat="48.622" lon="1.91087">
        <ele>187.59</ele>
        <time>2018-01-13T14:23:41Z</time>
      </trkpt>
      <trkpt lat="48.62205" lon="1.91097">
        <ele>188.56</ele>
        <time>2018-01-13T14:23:48Z</time>
      </trkpt>
      <trkpt lat="48.62211" lon="1.91113">
        <ele>189.52</ele>
        <time>2018-01-13T14:23:56Z</time>
      </trkpt>
      <trkpt lat="48.62214" lon="1.91114">
        <ele>190</ele>
        <time>2018-01-13T14:24:00Z</time>
      </trkpt>
      <trkpt lat="48.62223" lon="1.91127">
        <ele>191.44</ele>
        <time>2018-01-13T14:24:07Z</time>
      </trkpt>
      <trkpt lat="48.62227" lon="1.91133">
        <ele>191.44</ele>
        <time>2018-01-13T14:24:10Z</time>
      </trkpt>
      <trkpt lat="48.62232" lon="1.91143">
        <ele>192.88</ele>
        <time>2018-01-13T14:24:17Z</time>
      </trkpt>
      <trkpt lat="48.62233" lon="1.91144">
        <ele>192.88</ele>
        <time>2018-01-13T14:24:19Z</time>
      </trkpt>
      <trkpt lat="48.62239" lon="1.91149">
        <ele>193.36</ele>
        <time>2018-01-13T14:24:26Z</time>
      </trkpt>
      <trkpt lat="48.62243" lon="1.91153">
        <ele>193.84</ele>
        <time>2018-01-13T14:24:33Z</time>
      </trkpt>
      <trkpt lat="48.62247" lon="1.91159">
        <ele>193.84</ele>
        <time>2018-01-13T14:24:39Z</time>
      </trkpt>
      <trkpt lat="48.62254" lon="1.91165">
        <ele>194.32</ele>
        <time>2018-01-13T14:24:46Z</time>
      </trkpt>
      <trkpt lat="48.6226" lon="1.91167">
        <ele>194.8</ele>
        <time>2018-01-13T14:24:53Z</time>
      </trkpt>
      <trkpt lat="48.62264" lon="1.91169">
        <ele>195.28</ele>
        <time>2018-01-13T14:24:56Z</time>
      </trkpt>
      <trkpt lat="48.62267" lon="1.91174">
        <ele>195.28</ele>
        <time>2018-01-13T14:25:01Z</time>
      </trkpt>
      <trkpt lat="48.62272" lon="1.9118">
        <ele>195.28</ele>
        <time>2018-01-13T14:25:07Z</time>
      </trkpt>
      <trkpt lat="48.62274" lon="1.91183">
        <ele>195.77</ele>
        <time>2018-01-13T14:25:12Z</time>
      </trkpt>
      <trkpt lat="48.62282" lon="1.91195">
        <ele>195.77</ele>
        <time>2018-01-13T14:25:19Z</time>
      </trkpt>
      <trkpt lat="48.62283" lon="1.91197">
        <ele>195.77</ele>
        <time>2018-01-13T14:25:20Z</time>
      </trkpt>
      <trkpt lat="48.6229" lon="1.91206">
        <ele>195.77</ele>
        <time>2018-01-13T14:25:27Z</time>
      </trkpt>
      <trkpt lat="48.62295" lon="1.91208">
        <ele>196.25</ele>
        <time>2018-01-13T14:25:34Z</time>
      </trkpt>
      <trkpt lat="48.62301" lon="1.91213">
        <ele>196.25</ele>
        <time>2018-01-13T14:25:42Z</time>
      </trkpt>
      <trkpt lat="48.62304" lon="1.91218">
        <ele>196.25</ele>
        <time>2018-01-13T14:25:47Z</time>
      </trkpt>
      <trkpt lat="48.6231" lon="1.91224">
        <ele>196.25</ele>
        <time>2018-01-13T14:25:55Z</time>
      </trkpt>
      <trkpt lat="48.62315" lon="1.9123">
        <ele>196.25</ele>
        <time>2018-01-13T14:26:01Z</time>
      </trkpt>
      <trkpt lat="48.62324" lon="1.91241">
        <ele>196.25</ele>
        <time>2018-01-13T14:26:09Z</time>
      </trkpt>
      <trkpt lat="48.62331" lon="1.91246">
        <ele>196.73</ele>
        <time>2018-01-13T14:26:16Z</time>
      </trkpt>
      <trkpt lat="48.62338" lon="1.91257">
        <ele>196.73</ele>
        <time>2018-01-13T14:26:22Z</time>
      </trkpt>
      <trkpt lat="48.62343" lon="1.91263">
        <ele>196.73</ele>
        <time>2018-01-13T14:26:28Z</time>
      </trkpt>
      <trkpt lat="48.6235" lon="1.91266">
        <ele>196.73</ele>
        <time>2018-01-13T14:26:35Z</time>
      </trkpt>
      <trkpt lat="48.62359" lon="1.91279">
        <ele>197.21</ele>
        <time>2018-01-13T14:26:42Z</time>
      </trkpt>
      <trkpt lat="48.62367" lon="1.91287">
        <ele>197.21</ele>
        <time>2018-01-13T14:26:49Z</time>
      </trkpt>
      <trkpt lat="48.62373" lon="1.91294">
        <ele>197.21</ele>
        <time>2018-01-13T14:26:55Z</time>
      </trkpt>
      <trkpt lat="48.62376" lon="1.91298">
        <ele>197.21</ele>
        <time>2018-01-13T14:26:58Z</time>
      </trkpt>
      <trkpt lat="48.62381" lon="1.91306">
        <ele>197.21</ele>
        <time>2018-01-13T14:27:05Z</time>
      </trkpt>
      <trkpt lat="48.62386" lon="1.9131">
        <ele>197.69</ele>
        <time>2018-01-13T14:27:12Z</time>
      </trkpt>
      <trkpt lat="48.62391" lon="1.91316">
        <ele>197.69</ele>
        <time>2018-01-13T14:27:18Z</time>
      </trkpt>
      <trkpt lat="48.62396" lon="1.91319">
        <ele>197.69</ele>
        <time>2018-01-13T14:27:24Z</time>
      </trkpt>
      <trkpt lat="48.62401" lon="1.91326">
        <ele>197.69</ele>
        <time>2018-01-13T14:27:30Z</time>
      </trkpt>
      <trkpt lat="48.62403" lon="1.91327">
        <ele>197.69</ele>
        <time>2018-01-13T14:27:37Z</time>
      </trkpt>
      <trkpt lat="48.62405" lon="1.91326">
        <ele>197.69</ele>
        <time>2018-01-13T14:27:48Z</time>
      </trkpt>
      <trkpt lat="48.62406" lon="1.91327">
        <ele>197.69</ele>
        <time>2018-01-13T14:27:57Z</time>
      </trkpt>
      <trkpt lat="48.62406" lon="1.91327">
        <ele>197.69</ele>
        <time>2018-01-13T14:28:05Z</time>
      </trkpt>
      <trkpt lat="48.62406" lon="1.9133">
        <ele>197.69</ele>
        <time>2018-01-13T14:28:14Z</time>
      </trkpt>
      <trkpt lat="48.62407" lon="1.91331">
        <ele>197.69</ele>
        <time>2018-01-13T14:28:25Z</time>
      </trkpt>
      <trkpt lat="48.62408" lon="1.9133">
        <ele>197.69</ele>
        <time>2018-01-13T14:28:32Z</time>
      </trkpt>
      <trkpt lat="48.62409" lon="1.91331">
        <ele>198.17</ele>
        <time>2018-01-13T14:28:39Z</time>
      </trkpt>
      <trkpt lat="48.6241" lon="1.9133">
        <ele>198.17</ele>
        <time>2018-01-13T14:28:49Z</time>
      </trkpt>
      <trkpt lat="48.62411" lon="1.9133">
        <ele>198.17</ele>
        <time>2018-01-13T14:28:59Z</time>
      </trkpt>
      <trkpt lat="48.62412" lon="1.91332">
        <ele>198.17</ele>
        <time>2018-01-13T14:29:04Z</time>
      </trkpt>
      <trkpt lat="48.62415" lon="1.91334">
        <ele>198.17</ele>
        <time>2018-01-13T14:29:10Z</time>
      </trkpt>
      <trkpt lat="48.62415" lon="1.91336">
        <ele>198.17</ele>
        <time>2018-01-13T14:29:15Z</time>
      </trkpt>
      <trkpt lat="48.62416" lon="1.91343">
        <ele>198.17</ele>
        <time>2018-01-13T14:29:20Z</time>
      </trkpt>
      <trkpt lat="48.6242" lon="1.91349">
        <ele>198.17</ele>
        <time>2018-01-13T14:29:25Z</time>
      </trkpt>
      <trkpt lat="48.6243" lon="1.91354">
        <ele>198.65</ele>
        <time>2018-01-13T14:29:32Z</time>
      </trkpt>
      <trkpt lat="48.62439" lon="1.91363">
        <ele>198.65</ele>
        <time>2018-01-13T14:29:40Z</time>
      </trkpt>
      <trkpt lat="48.62446" lon="1.91372">
        <ele>198.65</ele>
        <time>2018-01-13T14:29:46Z</time>
      </trkpt>
      <trkpt lat="48.62451" lon="1.91381">
        <ele>198.65</ele>
        <time>2018-01-13T14:29:53Z</time>
      </trkpt>
      <trkpt lat="48.62457" lon="1.91384">
        <ele>198.65</ele>
        <time>2018-01-13T14:30:00Z</time>
      </trkpt>
      <trkpt lat="48.62459" lon="1.91387">
        <ele>198.65</ele>
        <time>2018-01-13T14:30:05Z</time>
      </trkpt>
      <trkpt lat="48.62464" lon="1.91392">
        <ele>198.65</ele>
        <time>2018-01-13T14:30:12Z</time>
      </trkpt>
      <trkpt lat="48.6247" lon="1.91401">
        <ele>198.65</ele>
        <time>2018-01-13T14:30:18Z</time>
      </trkpt>
      <trkpt lat="48.62479" lon="1.91407">
        <ele>198.65</ele>
        <time>2018-01-13T14:30:24Z</time>
      </trkpt>
      <trkpt lat="48.62484" lon="1.91411">
        <ele>198.65</ele>
        <time>2018-01-13T14:30:30Z</time>
      </trkpt>
      <trkpt lat="48.62489" lon="1.91423">
        <ele>199.13</ele>
        <time>2018-01-13T14:30:37Z</time>
      </trkpt>
      <trkpt lat="48.62495" lon="1.91429">
        <ele>199.13</ele>
        <time>2018-01-13T14:30:43Z</time>
      </trkpt>
      <trkpt lat="48.625" lon="1.91432">
        <ele>199.13</ele>
        <time>2018-01-13T14:30:49Z</time>
      </trkpt>
      <trkpt lat="48.62504" lon="1.91435">
        <ele>199.13</ele>
        <time>2018-01-13T14:30:55Z</time>
      </trkpt>
      <trkpt lat="48.62508" lon="1.91436">
        <ele>199.13</ele>
        <time>2018-01-13T14:31:02Z</time>
      </trkpt>
      <trkpt lat="48.62511" lon="1.91439">
        <ele>199.13</ele>
        <time>2018-01-13T14:31:08Z</time>
      </trkpt>
      <trkpt lat="48.62515" lon="1.91445">
        <ele>199.13</ele>
        <time>2018-01-13T14:31:14Z</time>
      </trkpt>
      <trkpt lat="48.62521" lon="1.91457">
        <ele>199.13</ele>
        <time>2018-01-13T14:31:19Z</time>
      </trkpt>
      <trkpt lat="48.62525" lon="1.91459">
        <ele>199.13</ele>
        <time>2018-01-13T14:31:26Z</time>
      </trkpt>
      <trkpt lat="48.62529" lon="1.91464">
        <ele>199.13</ele>
        <time>2018-01-13T14:31:32Z</time>
      </trkpt>
      <trkpt lat="48.62535" lon="1.91471">
        <ele>199.13</ele>
        <time>2018-01-13T14:31:38Z</time>
      </trkpt>
      <trkpt lat="48.62541" lon="1.91477">
        <ele>199.13</ele>
        <time>2018-01-13T14:31:44Z</time>
      </trkpt>
      <trkpt lat="48.62546" lon="1.91481">
        <ele>199.13</ele>
        <time>2018-01-13T14:31:49Z</time>
      </trkpt>
      <trkpt lat="48.62553" lon="1.91487">
        <ele>199.13</ele>
        <time>2018-01-13T14:31:55Z</time>
      </trkpt>
      <trkpt lat="48.62559" lon="1.9149">
        <ele>199.13</ele>
        <time>2018-01-13T14:32:01Z</time>
      </trkpt>
      <trkpt lat="48.62567" lon="1.91497">
        <ele>199.61</ele>
        <time>2018-01-13T14:32:08Z</time>
      </trkpt>
      <trkpt lat="48.6257" lon="1.91503">
        <ele>199.61</ele>
        <time>2018-01-13T14:32:13Z</time>
      </trkpt>
      <trkpt lat="48.62574" lon="1.91508">
        <ele>199.61</ele>
        <time>2018-01-13T14:32:19Z</time>
      </trkpt>
      <trkpt lat="48.6258" lon="1.91516">
        <ele>199.61</ele>
        <time>2018-01-13T14:32:25Z</time>
      </trkpt>
      <trkpt lat="48.62585" lon="1.91517">
        <ele>199.61</ele>
        <time>2018-01-13T14:32:30Z</time>
      </trkpt>
      <trkpt lat="48.62589" lon="1.91519">
        <ele>199.61</ele>
        <time>2018-01-13T14:32:37Z</time>
      </trkpt>
      <trkpt lat="48.62594" lon="1.91523">
        <ele>199.61</ele>
        <time>2018-01-13T14:32:43Z</time>
      </trkpt>
      <trkpt lat="48.62595" lon="1.91524">
        <ele>199.61</ele>
        <time>2018-01-13T14:32:45Z</time>
      </trkpt>
      <trkpt lat="48.62602" lon="1.91535">
        <ele>199.61</ele>
        <time>2018-01-13T14:32:52Z</time>
      </trkpt>
      <trkpt lat="48.62608" lon="1.91541">
        <ele>200.09</ele>
        <time>2018-01-13T14:32:57Z</time>
      </trkpt>
      <trkpt lat="48.62612" lon="1.91548">
        <ele>200.09</ele>
        <time>2018-01-13T14:33:04Z</time>
      </trkpt>
      <trkpt lat="48.62615" lon="1.91552">
        <ele>200.09</ele>
        <time>2018-01-13T14:33:10Z</time>
      </trkpt>
      <trkpt lat="48.62621" lon="1.91556">
        <ele>200.09</ele>
        <time>2018-01-13T14:33:15Z</time>
      </trkpt>
      <trkpt lat="48.62626" lon="1.91558">
        <ele>200.09</ele>
        <time>2018-01-13T14:33:19Z</time>
      </trkpt>
      <trkpt lat="48.62631" lon="1.91564">
        <ele>200.09</ele>
        <time>2018-01-13T14:33:24Z</time>
      </trkpt>
      <trkpt lat="48.62637" lon="1.91568">
        <ele>200.09</ele>
        <time>2018-01-13T14:33:29Z</time>
      </trkpt>
      <trkpt lat="48.62642" lon="1.91577">
        <ele>200.09</ele>
        <time>2018-01-13T14:33:37Z</time>
      </trkpt>
      <trkpt lat="48.62648" lon="1.91584">
        <ele>200.09</ele>
        <time>2018-01-13T14:33:42Z</time>
      </trkpt>
      <trkpt lat="48.62653" lon="1.91593">
        <ele>200.09</ele>
        <time>2018-01-13T14:33:48Z</time>
      </trkpt>
      <trkpt lat="48.62661" lon="1.91602">
        <ele>200.09</ele>
        <time>2018-01-13T14:33:54Z</time>
      </trkpt>
      <trkpt lat="48.62668" lon="1.91609">
        <ele>200.09</ele>
        <time>2018-01-13T14:34:00Z</time>
      </trkpt>
      <trkpt lat="48.62676" lon="1.91621">
        <ele>200.09</ele>
        <time>2018-01-13T14:34:06Z</time>
      </trkpt>
      <trkpt lat="48.62681" lon="1.9163">
        <ele>200.09</ele>
        <time>2018-01-13T14:34:11Z</time>
      </trkpt>
      <trkpt lat="48.62683" lon="1.91631">
        <ele>200.09</ele>
        <time>2018-01-13T14:34:12Z</time>
      </trkpt>
      <trkpt lat="48.62691" lon="1.91637">
        <ele>200.09</ele>
        <time>2018-01-13T14:34:19Z</time>
      </trkpt>
      <trkpt lat="48.62698" lon="1.91641">
        <ele>200.09</ele>
        <time>2018-01-13T14:34:25Z</time>
      </trkpt>
      <trkpt lat="48.627" lon="1.91644">
        <ele>200.09</ele>
        <time>2018-01-13T14:34:30Z</time>
      </trkpt>
      <trkpt lat="48.62704" lon="1.91651">
        <ele>200.09</ele>
        <time>2018-01-13T14:34:36Z</time>
      </trkpt>
      <trkpt lat="48.62708" lon="1.91654">
        <ele>200.09</ele>
        <time>2018-01-13T14:34:41Z</time>
      </trkpt>
      <trkpt lat="48.62712" lon="1.91658">
        <ele>200.09</ele>
        <time>2018-01-13T14:34:47Z</time>
      </trkpt>
      <trkpt lat="48.62718" lon="1.91664">
        <ele>200.09</ele>
        <time>2018-01-13T14:34:54Z</time>
      </trkpt>
      <trkpt lat="48.62724" lon="1.91671">
        <ele>200.09</ele>
        <time>2018-01-13T14:35:00Z</time>
      </trkpt>
      <trkpt lat="48.62728" lon="1.91674">
        <ele>200.09</ele>
        <time>2018-01-13T14:35:07Z</time>
      </trkpt>
      <trkpt lat="48.62734" lon="1.91678">
        <ele>200.09</ele>
        <time>2018-01-13T14:35:13Z</time>
      </trkpt>
      <trkpt lat="48.62739" lon="1.91685">
        <ele>200.09</ele>
        <time>2018-01-13T14:35:20Z</time>
      </trkpt>
      <trkpt lat="48.62741" lon="1.91688">
        <ele>200.57</ele>
        <time>2018-01-13T14:35:26Z</time>
      </trkpt>
      <trkpt lat="48.62743" lon="1.9169">
        <ele>200.57</ele>
        <time>2018-01-13T14:35:30Z</time>
      </trkpt>
      <trkpt lat="48.62745" lon="1.91694">
        <ele>200.57</ele>
        <time>2018-01-13T14:35:34Z</time>
      </trkpt>
      <trkpt lat="48.62742" lon="1.917">
        <ele>200.57</ele>
        <time>2018-01-13T14:35:41Z</time>
      </trkpt>
      <trkpt lat="48.62744" lon="1.91717">
        <ele>200.57</ele>
        <time>2018-01-13T14:35:44Z</time>
      </trkpt>
      <trkpt lat="48.62744" lon="1.91728">
        <ele>200.57</ele>
        <time>2018-01-13T14:35:48Z</time>
      </trkpt>
      <trkpt lat="48.62742" lon="1.91731">
        <ele>200.57</ele>
        <time>2018-01-13T14:35:50Z</time>
      </trkpt>
      <trkpt lat="48.62746" lon="1.9175">
        <ele>200.57</ele>
        <time>2018-01-13T14:35:55Z</time>
      </trkpt>
      <trkpt lat="48.62745" lon="1.91755">
        <ele>200.57</ele>
        <time>2018-01-13T14:35:58Z</time>
      </trkpt>
      <trkpt lat="48.62742" lon="1.91764">
        <ele>200.57</ele>
        <time>2018-01-13T14:36:07Z</time>
      </trkpt>
      <trkpt lat="48.62738" lon="1.9177">
        <ele>200.57</ele>
        <time>2018-01-13T14:36:13Z</time>
      </trkpt>
      <trkpt lat="48.62734" lon="1.91775">
        <ele>200.57</ele>
        <time>2018-01-13T14:36:19Z</time>
      </trkpt>
      <trkpt lat="48.62731" lon="1.91781">
        <ele>200.09</ele>
        <time>2018-01-13T14:36:23Z</time>
      </trkpt>
      <trkpt lat="48.6273" lon="1.91798">
        <ele>200.09</ele>
        <time>2018-01-13T14:36:30Z</time>
      </trkpt>
      <trkpt lat="48.62723" lon="1.91808">
        <ele>200.09</ele>
        <time>2018-01-13T14:36:38Z</time>
      </trkpt>
      <trkpt lat="48.62722" lon="1.91809">
        <ele>200.09</ele>
        <time>2018-01-13T14:36:39Z</time>
      </trkpt>
      <trkpt lat="48.62718" lon="1.91817">
        <ele>201.05</ele>
        <time>2018-01-13T14:36:45Z</time>
      </trkpt>
      <trkpt lat="48.62717" lon="1.9182">
        <ele>200.09</ele>
        <time>2018-01-13T14:36:47Z</time>
      </trkpt>
      <trkpt lat="48.62714" lon="1.91824">
        <ele>200.09</ele>
        <time>2018-01-13T14:36:50Z</time>
      </trkpt>
      <trkpt lat="48.62706" lon="1.91837">
        <ele>200.09</ele>
        <time>2018-01-13T14:37:00Z</time>
      </trkpt>
      <trkpt lat="48.62702" lon="1.91843">
        <ele>200.57</ele>
        <time>2018-01-13T14:37:05Z</time>
      </trkpt>
      <trkpt lat="48.62697" lon="1.91854">
        <ele>200.09</ele>
        <time>2018-01-13T14:37:14Z</time>
      </trkpt>
      <trkpt lat="48.62697" lon="1.91861">
        <ele>200.09</ele>
        <time>2018-01-13T14:37:16Z</time>
      </trkpt>
      <trkpt lat="48.62693" lon="1.91872">
        <ele>200.09</ele>
        <time>2018-01-13T14:37:23Z</time>
      </trkpt>
      <trkpt lat="48.62692" lon="1.91874">
        <ele>200.09</ele>
        <time>2018-01-13T14:37:24Z</time>
      </trkpt>
      <trkpt lat="48.62688" lon="1.91883">
        <ele>200.09</ele>
        <time>2018-01-13T14:37:31Z</time>
      </trkpt>
      <trkpt lat="48.62685" lon="1.91887">
        <ele>200.09</ele>
        <time>2018-01-13T14:37:34Z</time>
      </trkpt>
      <trkpt lat="48.6268" lon="1.91896">
        <ele>200.09</ele>
        <time>2018-01-13T14:37:40Z</time>
      </trkpt>
      <trkpt lat="48.62679" lon="1.91899">
        <ele>200.09</ele>
        <time>2018-01-13T14:37:42Z</time>
      </trkpt>
      <trkpt lat="48.62677" lon="1.91901">
        <ele>200.09</ele>
        <time>2018-01-13T14:37:44Z</time>
      </trkpt>
      <trkpt lat="48.62677" lon="1.91906">
        <ele>200.09</ele>
        <time>2018-01-13T14:37:47Z</time>
      </trkpt>
      <trkpt lat="48.62669" lon="1.91921">
        <ele>200.09</ele>
        <time>2018-01-13T14:37:57Z</time>
      </trkpt>
      <trkpt lat="48.62665" lon="1.91929">
        <ele>200.09</ele>
        <time>2018-01-13T14:38:03Z</time>
      </trkpt>
      <trkpt lat="48.62659" lon="1.91942">
        <ele>200.09</ele>
        <time>2018-01-13T14:38:10Z</time>
      </trkpt>
      <trkpt lat="48.62656" lon="1.91947">
        <ele>199.61</ele>
        <time>2018-01-13T14:38:15Z</time>
      </trkpt>
      <trkpt lat="48.62654" lon="1.9195">
        <ele>199.61</ele>
        <time>2018-01-13T14:38:18Z</time>
      </trkpt>
      <trkpt lat="48.62651" lon="1.91956">
        <ele>199.61</ele>
        <time>2018-01-13T14:38:22Z</time>
      </trkpt>
      <trkpt lat="48.62649" lon="1.91965">
        <ele>199.61</ele>
        <time>2018-01-13T14:38:28Z</time>
      </trkpt>
      <trkpt lat="48.62646" lon="1.91976">
        <ele>199.61</ele>
        <time>2018-01-13T14:38:34Z</time>
      </trkpt>
      <trkpt lat="48.62641" lon="1.91984">
        <ele>199.61</ele>
        <time>2018-01-13T14:38:39Z</time>
      </trkpt>
      <trkpt lat="48.62633" lon="1.91994">
        <ele>199.61</ele>
        <time>2018-01-13T14:38:47Z</time>
      </trkpt>
      <trkpt lat="48.6263" lon="1.91998">
        <ele>199.61</ele>
        <time>2018-01-13T14:38:50Z</time>
      </trkpt>
      <trkpt lat="48.62626" lon="1.92003">
        <ele>199.61</ele>
        <time>2018-01-13T14:38:54Z</time>
      </trkpt>
      <trkpt lat="48.62621" lon="1.92006">
        <ele>199.61</ele>
        <time>2018-01-13T14:39:01Z</time>
      </trkpt>
      <trkpt lat="48.6262" lon="1.92006">
        <ele>199.61</ele>
        <time>2018-01-13T14:39:02Z</time>
      </trkpt>
      <trkpt lat="48.62617" lon="1.92008">
        <ele>199.61</ele>
        <time>2018-01-13T14:39:05Z</time>
      </trkpt>
      <trkpt lat="48.62611" lon="1.92014">
        <ele>199.61</ele>
        <time>2018-01-13T14:39:11Z</time>
      </trkpt>
      <trkpt lat="48.62605" lon="1.92021">
        <ele>199.61</ele>
        <time>2018-01-13T14:39:18Z</time>
      </trkpt>
      <trkpt lat="48.62602" lon="1.92025">
        <ele>199.61</ele>
        <time>2018-01-13T14:39:22Z</time>
      </trkpt>
      <trkpt lat="48.62595" lon="1.92037">
        <ele>199.61</ele>
        <time>2018-01-13T14:39:30Z</time>
      </trkpt>
      <trkpt lat="48.62593" lon="1.92051">
        <ele>199.61</ele>
        <time>2018-01-13T14:39:36Z</time>
      </trkpt>
      <trkpt lat="48.62592" lon="1.92063">
        <ele>199.61</ele>
        <time>2018-01-13T14:39:41Z</time>
      </trkpt>
      <trkpt lat="48.62588" lon="1.92074">
        <ele>199.61</ele>
        <time>2018-01-13T14:39:48Z</time>
      </trkpt>
      <trkpt lat="48.62584" lon="1.92081">
        <ele>199.61</ele>
        <time>2018-01-13T14:39:53Z</time>
      </trkpt>
      <trkpt lat="48.62581" lon="1.9209">
        <ele>200.09</ele>
        <time>2018-01-13T14:39:58Z</time>
      </trkpt>
      <trkpt lat="48.62571" lon="1.92103">
        <ele>200.09</ele>
        <time>2018-01-13T14:40:07Z</time>
      </trkpt>
      <trkpt lat="48.6257" lon="1.92107">
        <ele>200.09</ele>
        <time>2018-01-13T14:40:09Z</time>
      </trkpt>
      <trkpt lat="48.62566" lon="1.9213">
        <ele>200.09</ele>
        <time>2018-01-13T14:40:18Z</time>
      </trkpt>
      <trkpt lat="48.62561" lon="1.92147">
        <ele>200.09</ele>
        <time>2018-01-13T14:40:24Z</time>
      </trkpt>
      <trkpt lat="48.62555" lon="1.92156">
        <ele>199.61</ele>
        <time>2018-01-13T14:40:31Z</time>
      </trkpt>
      <trkpt lat="48.62551" lon="1.92166">
        <ele>199.61</ele>
        <time>2018-01-13T14:40:36Z</time>
      </trkpt>
      <trkpt lat="48.6255" lon="1.92175">
        <ele>199.61</ele>
        <time>2018-01-13T14:40:42Z</time>
      </trkpt>
      <trkpt lat="48.62546" lon="1.92183">
        <ele>199.61</ele>
        <time>2018-01-13T14:40:47Z</time>
      </trkpt>
      <trkpt lat="48.62543" lon="1.92191">
        <ele>200.09</ele>
        <time>2018-01-13T14:40:53Z</time>
      </trkpt>
      <trkpt lat="48.62536" lon="1.92201">
        <ele>200.09</ele>
        <time>2018-01-13T14:41:00Z</time>
      </trkpt>
      <trkpt lat="48.62534" lon="1.92208">
        <ele>199.61</ele>
        <time>2018-01-13T14:41:03Z</time>
      </trkpt>
      <trkpt lat="48.62533" lon="1.92216">
        <ele>199.61</ele>
        <time>2018-01-13T14:41:08Z</time>
      </trkpt>
      <trkpt lat="48.62528" lon="1.92226">
        <ele>199.61</ele>
        <time>2018-01-13T14:41:16Z</time>
      </trkpt>
      <trkpt lat="48.62525" lon="1.92228">
        <ele>199.61</ele>
        <time>2018-01-13T14:41:20Z</time>
      </trkpt>
      <trkpt lat="48.62522" lon="1.92237">
        <ele>199.61</ele>
        <time>2018-01-13T14:41:25Z</time>
      </trkpt>
      <trkpt lat="48.62517" lon="1.9225">
        <ele>199.61</ele>
        <time>2018-01-13T14:41:33Z</time>
      </trkpt>
      <trkpt lat="48.62514" lon="1.92254">
        <ele>199.61</ele>
        <time>2018-01-13T14:41:37Z</time>
      </trkpt>
      <trkpt lat="48.6251" lon="1.92264">
        <ele>199.61</ele>
        <time>2018-01-13T14:41:43Z</time>
      </trkpt>
      <trkpt lat="48.62503" lon="1.92274">
        <ele>199.13</ele>
        <time>2018-01-13T14:41:50Z</time>
      </trkpt>
      <trkpt lat="48.62497" lon="1.92286">
        <ele>199.13</ele>
        <time>2018-01-13T14:41:58Z</time>
      </trkpt>
      <trkpt lat="48.62492" lon="1.92294">
        <ele>199.61</ele>
        <time>2018-01-13T14:42:06Z</time>
      </trkpt>
      <trkpt lat="48.62488" lon="1.92305">
        <ele>199.61</ele>
        <time>2018-01-13T14:42:12Z</time>
      </trkpt>
      <trkpt lat="48.62482" lon="1.92315">
        <ele>199.61</ele>
        <time>2018-01-13T14:42:19Z</time>
      </trkpt>
      <trkpt lat="48.62479" lon="1.92319">
        <ele>199.61</ele>
        <time>2018-01-13T14:42:23Z</time>
      </trkpt>
      <trkpt lat="48.62471" lon="1.92326">
        <ele>199.13</ele>
        <time>2018-01-13T14:42:31Z</time>
      </trkpt>
      <trkpt lat="48.62468" lon="1.92332">
        <ele>199.61</ele>
        <time>2018-01-13T14:42:37Z</time>
      </trkpt>
      <trkpt lat="48.62468" lon="1.92334">
        <ele>199.13</ele>
        <time>2018-01-13T14:42:38Z</time>
      </trkpt>
      <trkpt lat="48.62462" lon="1.9234">
        <ele>199.13</ele>
        <time>2018-01-13T14:42:44Z</time>
      </trkpt>
      <trkpt lat="48.62459" lon="1.9235">
        <ele>199.61</ele>
        <time>2018-01-13T14:42:51Z</time>
      </trkpt>
      <trkpt lat="48.62456" lon="1.9236">
        <ele>199.13</ele>
        <time>2018-01-13T14:42:57Z</time>
      </trkpt>
      <trkpt lat="48.62451" lon="1.92374">
        <ele>199.13</ele>
        <time>2018-01-13T14:43:05Z</time>
      </trkpt>
      <trkpt lat="48.6245" lon="1.92377">
        <ele>199.13</ele>
        <time>2018-01-13T14:43:07Z</time>
      </trkpt>
      <trkpt lat="48.62451" lon="1.92383">
        <ele>198.65</ele>
        <time>2018-01-13T14:43:12Z</time>
      </trkpt>
      <trkpt lat="48.62448" lon="1.92392">
        <ele>199.13</ele>
        <time>2018-01-13T14:43:18Z</time>
      </trkpt>
      <trkpt lat="48.62444" lon="1.924">
        <ele>198.65</ele>
        <time>2018-01-13T14:43:25Z</time>
      </trkpt>
      <trkpt lat="48.62438" lon="1.92407">
        <ele>199.13</ele>
        <time>2018-01-13T14:43:32Z</time>
      </trkpt>
      <trkpt lat="48.62435" lon="1.9241">
        <ele>198.65</ele>
        <time>2018-01-13T14:43:39Z</time>
      </trkpt>
      <trkpt lat="48.6243" lon="1.92413">
        <ele>198.65</ele>
        <time>2018-01-13T14:43:45Z</time>
      </trkpt>
      <trkpt lat="48.62425" lon="1.92418">
        <ele>198.65</ele>
        <time>2018-01-13T14:43:52Z</time>
      </trkpt>
      <trkpt lat="48.62428" lon="1.92432">
        <ele>198.65</ele>
        <time>2018-01-13T14:43:58Z</time>
      </trkpt>
      <trkpt lat="48.62429" lon="1.92434">
        <ele>198.65</ele>
        <time>2018-01-13T14:44:05Z</time>
      </trkpt>
      <trkpt lat="48.62431" lon="1.92434">
        <ele>198.65</ele>
        <time>2018-01-13T14:44:10Z</time>
      </trkpt>
      <trkpt lat="48.62432" lon="1.92431">
        <ele>198.65</ele>
        <time>2018-01-13T14:44:15Z</time>
      </trkpt>
      <trkpt lat="48.62427" lon="1.92428">
        <ele>198.65</ele>
        <time>2018-01-13T14:44:21Z</time>
      </trkpt>
      <trkpt lat="48.62426" lon="1.92426">
        <ele>198.65</ele>
        <time>2018-01-13T14:44:27Z</time>
      </trkpt>
      <trkpt lat="48.62424" lon="1.92431">
        <ele>198.17</ele>
        <time>2018-01-13T14:44:33Z</time>
      </trkpt>
      <trkpt lat="48.62422" lon="1.92435">
        <ele>198.17</ele>
        <time>2018-01-13T14:44:39Z</time>
      </trkpt>
      <trkpt lat="48.62421" lon="1.9244">
        <ele>198.17</ele>
        <time>2018-01-13T14:44:44Z</time>
      </trkpt>
      <trkpt lat="48.62416" lon="1.92452">
        <ele>198.17</ele>
        <time>2018-01-13T14:44:51Z</time>
      </trkpt>
      <trkpt lat="48.62413" lon="1.92457">
        <ele>198.65</ele>
        <time>2018-01-13T14:44:56Z</time>
      </trkpt>
      <trkpt lat="48.62406" lon="1.92466">
        <ele>198.65</ele>
        <time>2018-01-13T14:45:04Z</time>
      </trkpt>
      <trkpt lat="48.62405" lon="1.92468">
        <ele>198.65</ele>
        <time>2018-01-13T14:45:05Z</time>
      </trkpt>
      <trkpt lat="48.62398" lon="1.92478">
        <ele>198.65</ele>
        <time>2018-01-13T14:45:11Z</time>
      </trkpt>
      <trkpt lat="48.62395" lon="1.92481">
        <ele>198.65</ele>
        <time>2018-01-13T14:45:16Z</time>
      </trkpt>
      <trkpt lat="48.62385" lon="1.92488">
        <ele>198.17</ele>
        <time>2018-01-13T14:45:23Z</time>
      </trkpt>
      <trkpt lat="48.62384" lon="1.92491">
        <ele>198.17</ele>
        <time>2018-01-13T14:45:25Z</time>
      </trkpt>
      <trkpt lat="48.62385" lon="1.92502">
        <ele>198.17</ele>
        <time>2018-01-13T14:45:32Z</time>
      </trkpt>
      <trkpt lat="48.62384" lon="1.92507">
        <ele>198.65</ele>
        <time>2018-01-13T14:45:39Z</time>
      </trkpt>
      <trkpt lat="48.62383" lon="1.92512">
        <ele>198.17</ele>
        <time>2018-01-13T14:45:45Z</time>
      </trkpt>
      <trkpt lat="48.62382" lon="1.92515">
        <ele>198.17</ele>
        <time>2018-01-13T14:45:53Z</time>
      </trkpt>
      <trkpt lat="48.62383" lon="1.9252">
        <ele>198.17</ele>
        <time>2018-01-13T14:45:57Z</time>
      </trkpt>
      <trkpt lat="48.6238" lon="1.92526">
        <ele>197.21</ele>
        <time>2018-01-13T14:46:03Z</time>
      </trkpt>
      <trkpt lat="48.62381" lon="1.92526">
        <ele>198.17</ele>
        <time>2018-01-13T14:46:10Z</time>
      </trkpt>
      <trkpt lat="48.62382" lon="1.92529">
        <ele>197.69</ele>
        <time>2018-01-13T14:46:18Z</time>
      </trkpt>
      <trkpt lat="48.62383" lon="1.92531">
        <ele>197.69</ele>
        <time>2018-01-13T14:46:23Z</time>
      </trkpt>
      <trkpt lat="48.62383" lon="1.92535">
        <ele>197.69</ele>
        <time>2018-01-13T14:46:29Z</time>
      </trkpt>
      <trkpt lat="48.62384" lon="1.92536">
        <ele>197.69</ele>
        <time>2018-01-13T14:46:35Z</time>
      </trkpt>
      <trkpt lat="48.62383" lon="1.9254">
        <ele>197.69</ele>
        <time>2018-01-13T14:46:41Z</time>
      </trkpt>
      <trkpt lat="48.62381" lon="1.92541">
        <ele>197.69</ele>
        <time>2018-01-13T14:46:43Z</time>
      </trkpt>
      <trkpt lat="48.6238" lon="1.92543">
        <ele>197.69</ele>
        <time>2018-01-13T14:46:45Z</time>
      </trkpt>
      <trkpt lat="48.62379" lon="1.92546">
        <ele>197.69</ele>
        <time>2018-01-13T14:46:51Z</time>
      </trkpt>
      <trkpt lat="48.62379" lon="1.92546">
        <ele>197.69</ele>
        <time>2018-01-13T14:46:52Z</time>
      </trkpt>
      <trkpt lat="48.62375" lon="1.92554">
        <ele>197.21</ele>
        <time>2018-01-13T14:46:59Z</time>
      </trkpt>
      <trkpt lat="48.62376" lon="1.92558">
        <ele>196.73</ele>
        <time>2018-01-13T14:47:05Z</time>
      </trkpt>
      <trkpt lat="48.62376" lon="1.92562">
        <ele>196.73</ele>
        <time>2018-01-13T14:47:15Z</time>
      </trkpt>
      <trkpt lat="48.62376" lon="1.92566">
        <ele>196.73</ele>
        <time>2018-01-13T14:47:22Z</time>
      </trkpt>
      <trkpt lat="48.62377" lon="1.92568">
        <ele>196.73</ele>
        <time>2018-01-13T14:47:29Z</time>
      </trkpt>
      <trkpt lat="48.62376" lon="1.92569">
        <ele>196.73</ele>
        <time>2018-01-13T14:47:38Z</time>
      </trkpt>
      <trkpt lat="48.62372" lon="1.92571">
        <ele>196.25</ele>
        <time>2018-01-13T14:47:46Z</time>
      </trkpt>
      <trkpt lat="48.6237" lon="1.92573">
        <ele>196.25</ele>
        <time>2018-01-13T14:47:54Z</time>
      </trkpt>
      <trkpt lat="48.62369" lon="1.92573">
        <ele>196.25</ele>
        <time>2018-01-13T14:48:02Z</time>
      </trkpt>
      <trkpt lat="48.62369" lon="1.92575">
        <ele>196.25</ele>
        <time>2018-01-13T14:48:10Z</time>
      </trkpt>
      <trkpt lat="48.62368" lon="1.92576">
        <ele>195.77</ele>
        <time>2018-01-13T14:48:20Z</time>
      </trkpt>
      <trkpt lat="48.62367" lon="1.92579">
        <ele>196.25</ele>
        <time>2018-01-13T14:48:25Z</time>
      </trkpt>
      <trkpt lat="48.62366" lon="1.9258">
        <ele>196.25</ele>
        <time>2018-01-13T14:48:26Z</time>
      </trkpt>
      <trkpt lat="48.62363" lon="1.92584">
        <ele>195.77</ele>
        <time>2018-01-13T14:48:33Z</time>
      </trkpt>
      <trkpt lat="48.62361" lon="1.92585">
        <ele>195.77</ele>
        <time>2018-01-13T14:48:36Z</time>
      </trkpt>
      <trkpt lat="48.62357" lon="1.92595">
        <ele>195.77</ele>
        <time>2018-01-13T14:48:44Z</time>
      </trkpt>
      <trkpt lat="48.62352" lon="1.92605">
        <ele>195.77</ele>
        <time>2018-01-13T14:48:52Z</time>
      </trkpt>
      <trkpt lat="48.62351" lon="1.92613">
        <ele>195.77</ele>
        <time>2018-01-13T14:48:58Z</time>
      </trkpt>
      <trkpt lat="48.62348" lon="1.9262">
        <ele>195.28</ele>
        <time>2018-01-13T14:49:03Z</time>
      </trkpt>
      <trkpt lat="48.62345" lon="1.92629">
        <ele>195.28</ele>
        <time>2018-01-13T14:49:09Z</time>
      </trkpt>
      <trkpt lat="48.62339" lon="1.92636">
        <ele>195.28</ele>
        <time>2018-01-13T14:49:16Z</time>
      </trkpt>
      <trkpt lat="48.62336" lon="1.92643">
        <ele>194.8</ele>
        <time>2018-01-13T14:49:21Z</time>
      </trkpt>
      <trkpt lat="48.62335" lon="1.92653">
        <ele>194.8</ele>
        <time>2018-01-13T14:49:27Z</time>
      </trkpt>
      <trkpt lat="48.62334" lon="1.92656">
        <ele>194.8</ele>
        <time>2018-01-13T14:49:31Z</time>
      </trkpt>
      <trkpt lat="48.6233" lon="1.92661">
        <ele>194.8</ele>
        <time>2018-01-13T14:49:36Z</time>
      </trkpt>
      <trkpt lat="48.62323" lon="1.92667">
        <ele>194.8</ele>
        <time>2018-01-13T14:49:43Z</time>
      </trkpt>
      <trkpt lat="48.62319" lon="1.92673">
        <ele>195.28</ele>
        <time>2018-01-13T14:49:48Z</time>
      </trkpt>
      <trkpt lat="48.62317" lon="1.92678">
        <ele>194.8</ele>
        <time>2018-01-13T14:49:53Z</time>
      </trkpt>
      <trkpt lat="48.62315" lon="1.92682">
        <ele>194.8</ele>
        <time>2018-01-13T14:49:58Z</time>
      </trkpt>
      <trkpt lat="48.62315" lon="1.92691">
        <ele>194.8</ele>
        <time>2018-01-13T14:50:05Z</time>
      </trkpt>
      <trkpt lat="48.62312" lon="1.92696">
        <ele>194.8</ele>
        <time>2018-01-13T14:50:11Z</time>
      </trkpt>
      <trkpt lat="48.62308" lon="1.92701">
        <ele>194.8</ele>
        <time>2018-01-13T14:50:16Z</time>
      </trkpt>
      <trkpt lat="48.62306" lon="1.92711">
        <ele>194.8</ele>
        <time>2018-01-13T14:50:23Z</time>
      </trkpt>
      <trkpt lat="48.623" lon="1.92717">
        <ele>194.32</ele>
        <time>2018-01-13T14:50:28Z</time>
      </trkpt>
      <trkpt lat="48.62299" lon="1.92733">
        <ele>194.8</ele>
        <time>2018-01-13T14:50:35Z</time>
      </trkpt>
      <trkpt lat="48.62292" lon="1.92741">
        <ele>194.32</ele>
        <time>2018-01-13T14:50:43Z</time>
      </trkpt>
      <trkpt lat="48.6229" lon="1.92745">
        <ele>194.32</ele>
        <time>2018-01-13T14:50:48Z</time>
      </trkpt>
      <trkpt lat="48.62287" lon="1.92752">
        <ele>193.84</ele>
        <time>2018-01-13T14:50:53Z</time>
      </trkpt>
      <trkpt lat="48.62283" lon="1.92757">
        <ele>194.32</ele>
        <time>2018-01-13T14:51:00Z</time>
      </trkpt>
      <trkpt lat="48.6228" lon="1.92762">
        <ele>193.84</ele>
        <time>2018-01-13T14:51:07Z</time>
      </trkpt>
      <trkpt lat="48.62278" lon="1.92769">
        <ele>193.84</ele>
        <time>2018-01-13T14:51:13Z</time>
      </trkpt>
      <trkpt lat="48.62274" lon="1.92776">
        <ele>193.84</ele>
        <time>2018-01-13T14:51:19Z</time>
      </trkpt>
      <trkpt lat="48.62273" lon="1.92785">
        <ele>194.32</ele>
        <time>2018-01-13T14:51:25Z</time>
      </trkpt>
      <trkpt lat="48.6227" lon="1.92795">
        <ele>194.32</ele>
        <time>2018-01-13T14:51:30Z</time>
      </trkpt>
      <trkpt lat="48.62269" lon="1.92804">
        <ele>194.32</ele>
        <time>2018-01-13T14:51:35Z</time>
      </trkpt>
      <trkpt lat="48.62268" lon="1.92806">
        <ele>194.32</ele>
        <time>2018-01-13T14:51:37Z</time>
      </trkpt>
      <trkpt lat="48.62265" lon="1.92812">
        <ele>194.32</ele>
        <time>2018-01-13T14:51:43Z</time>
      </trkpt>
      <trkpt lat="48.62263" lon="1.92816">
        <ele>194.32</ele>
        <time>2018-01-13T14:51:48Z</time>
      </trkpt>
      <trkpt lat="48.62259" lon="1.92821">
        <ele>193.84</ele>
        <time>2018-01-13T14:51:53Z</time>
      </trkpt>
      <trkpt lat="48.62258" lon="1.92823">
        <ele>194.32</ele>
        <time>2018-01-13T14:51:54Z</time>
      </trkpt>
      <trkpt lat="48.62254" lon="1.9283">
        <ele>194.32</ele>
        <time>2018-01-13T14:51:59Z</time>
      </trkpt>
      <trkpt lat="48.62252" lon="1.92841">
        <ele>194.32</ele>
        <time>2018-01-13T14:52:05Z</time>
      </trkpt>
      <trkpt lat="48.62247" lon="1.92851">
        <ele>194.32</ele>
        <time>2018-01-13T14:52:12Z</time>
      </trkpt>
      <trkpt lat="48.62239" lon="1.92859">
        <ele>194.32</ele>
        <time>2018-01-13T14:52:19Z</time>
      </trkpt>
      <trkpt lat="48.62234" lon="1.92862">
        <ele>193.84</ele>
        <time>2018-01-13T14:52:22Z</time>
      </trkpt>
      <trkpt lat="48.62227" lon="1.92869">
        <ele>194.32</ele>
        <time>2018-01-13T14:52:28Z</time>
      </trkpt>
      <trkpt lat="48.62211" lon="1.92878">
        <ele>194.32</ele>
        <time>2018-01-13T14:52:34Z</time>
      </trkpt>
      <trkpt lat="48.62208" lon="1.92887">
        <ele>194.32</ele>
        <time>2018-01-13T14:52:38Z</time>
      </trkpt>
      <trkpt lat="48.62205" lon="1.92897">
        <ele>194.32</ele>
        <time>2018-01-13T14:52:43Z</time>
      </trkpt>
      <trkpt lat="48.62199" lon="1.92913">
        <ele>194.32</ele>
        <time>2018-01-13T14:52:52Z</time>
      </trkpt>
      <trkpt lat="48.62194" lon="1.92922">
        <ele>194.32</ele>
        <time>2018-01-13T14:52:59Z</time>
      </trkpt>
      <trkpt lat="48.62189" lon="1.92934">
        <ele>194.8</ele>
        <time>2018-01-13T14:53:05Z</time>
      </trkpt>
      <trkpt lat="48.62187" lon="1.92941">
        <ele>194.8</ele>
        <time>2018-01-13T14:53:08Z</time>
      </trkpt>
      <trkpt lat="48.62186" lon="1.92949">
        <ele>194.32</ele>
        <time>2018-01-13T14:53:15Z</time>
      </trkpt>
      <trkpt lat="48.62185" lon="1.92955">
        <ele>194.32</ele>
        <time>2018-01-13T14:53:20Z</time>
      </trkpt>
      <trkpt lat="48.62183" lon="1.92966">
        <ele>194.32</ele>
        <time>2018-01-13T14:53:26Z</time>
      </trkpt>
      <trkpt lat="48.62181" lon="1.92971">
        <ele>193.84</ele>
        <time>2018-01-13T14:53:31Z</time>
      </trkpt>
      <trkpt lat="48.62178" lon="1.92975">
        <ele>193.84</ele>
        <time>2018-01-13T14:53:36Z</time>
      </trkpt>
      <trkpt lat="48.62178" lon="1.92976">
        <ele>193.84</ele>
        <time>2018-01-13T14:53:37Z</time>
      </trkpt>
      <trkpt lat="48.62174" lon="1.92981">
        <ele>193.84</ele>
        <time>2018-01-13T14:53:40Z</time>
      </trkpt>
      <trkpt lat="48.62169" lon="1.92983">
        <ele>193.84</ele>
        <time>2018-01-13T14:53:43Z</time>
      </trkpt>
      <trkpt lat="48.62163" lon="1.92993">
        <ele>193.84</ele>
        <time>2018-01-13T14:53:50Z</time>
      </trkpt>
      <trkpt lat="48.62161" lon="1.92997">
        <ele>193.36</ele>
        <time>2018-01-13T14:53:52Z</time>
      </trkpt>
      <trkpt lat="48.62159" lon="1.93007">
        <ele>193.36</ele>
        <time>2018-01-13T14:53:58Z</time>
      </trkpt>
      <trkpt lat="48.62157" lon="1.93008">
        <ele>192.88</ele>
        <time>2018-01-13T14:54:01Z</time>
      </trkpt>
      <trkpt lat="48.62154" lon="1.93014">
        <ele>192.4</ele>
        <time>2018-01-13T14:54:08Z</time>
      </trkpt>
      <trkpt lat="48.62153" lon="1.93015">
        <ele>191.92</ele>
        <time>2018-01-13T14:54:09Z</time>
      </trkpt>
      <trkpt lat="48.62147" lon="1.93028">
        <ele>190.96</ele>
        <time>2018-01-13T14:54:18Z</time>
      </trkpt>
      <trkpt lat="48.62142" lon="1.93043">
        <ele>190</ele>
        <time>2018-01-13T14:54:25Z</time>
      </trkpt>
      <trkpt lat="48.62139" lon="1.93052">
        <ele>189.52</ele>
        <time>2018-01-13T14:54:32Z</time>
      </trkpt>
      <trkpt lat="48.62136" lon="1.93059">
        <ele>189.04</ele>
        <time>2018-01-13T14:54:38Z</time>
      </trkpt>
      <trkpt lat="48.62133" lon="1.93069">
        <ele>188.56</ele>
        <time>2018-01-13T14:54:44Z</time>
      </trkpt>
      <trkpt lat="48.62132" lon="1.93076">
        <ele>188.08</ele>
        <time>2018-01-13T14:54:52Z</time>
      </trkpt>
      <trkpt lat="48.62125" lon="1.93085">
        <ele>187.59</ele>
        <time>2018-01-13T14:54:59Z</time>
      </trkpt>
      <trkpt lat="48.6212" lon="1.9309">
        <ele>187.59</ele>
        <time>2018-01-13T14:55:06Z</time>
      </trkpt>
      <trkpt lat="48.62117" lon="1.93099">
        <ele>187.11</ele>
        <time>2018-01-13T14:55:13Z</time>
      </trkpt>
      <trkpt lat="48.62116" lon="1.93108">
        <ele>187.11</ele>
        <time>2018-01-13T14:55:20Z</time>
      </trkpt>
      <trkpt lat="48.62114" lon="1.93111">
        <ele>187.59</ele>
        <time>2018-01-13T14:55:27Z</time>
      </trkpt>
      <trkpt lat="48.62113" lon="1.93114">
        <ele>187.59</ele>
        <time>2018-01-13T14:55:30Z</time>
      </trkpt>
      <trkpt lat="48.62108" lon="1.93122">
        <ele>188.08</ele>
        <time>2018-01-13T14:55:37Z</time>
      </trkpt>
      <trkpt lat="48.62108" lon="1.93128">
        <ele>188.08</ele>
        <time>2018-01-13T14:55:43Z</time>
      </trkpt>
      <trkpt lat="48.62107" lon="1.93132">
        <ele>188.56</ele>
        <time>2018-01-13T14:55:50Z</time>
      </trkpt>
      <trkpt lat="48.62092" lon="1.93141">
        <ele>188.56</ele>
        <time>2018-01-13T14:55:55Z</time>
      </trkpt>
      <trkpt lat="48.6209" lon="1.93149">
        <ele>189.04</ele>
        <time>2018-01-13T14:56:01Z</time>
      </trkpt>
      <trkpt lat="48.62085" lon="1.93157">
        <ele>189.52</ele>
        <time>2018-01-13T14:56:07Z</time>
      </trkpt>
      <trkpt lat="48.62084" lon="1.93162">
        <ele>190</ele>
        <time>2018-01-13T14:56:12Z</time>
      </trkpt>
      <trkpt lat="48.62081" lon="1.9317">
        <ele>190.48</ele>
        <time>2018-01-13T14:56:19Z</time>
      </trkpt>
      <trkpt lat="48.6208" lon="1.93177">
        <ele>190.96</ele>
        <time>2018-01-13T14:56:27Z</time>
      </trkpt>
      <trkpt lat="48.62079" lon="1.93179">
        <ele>190.96</ele>
        <time>2018-01-13T14:56:30Z</time>
      </trkpt>
      <trkpt lat="48.62081" lon="1.932">
        <ele>190.96</ele>
        <time>2018-01-13T14:56:37Z</time>
      </trkpt>
      <trkpt lat="48.62076" lon="1.93206">
        <ele>191.44</ele>
        <time>2018-01-13T14:56:44Z</time>
      </trkpt>
      <trkpt lat="48.62074" lon="1.93212">
        <ele>191.44</ele>
        <time>2018-01-13T14:56:50Z</time>
      </trkpt>
      <trkpt lat="48.62073" lon="1.93219">
        <ele>191.44</ele>
        <time>2018-01-13T14:56:55Z</time>
      </trkpt>
      <trkpt lat="48.6207" lon="1.93221">
        <ele>191.92</ele>
        <time>2018-01-13T14:56:57Z</time>
      </trkpt>
      <trkpt lat="48.62058" lon="1.93232">
        <ele>191.92</ele>
        <time>2018-01-13T14:57:03Z</time>
      </trkpt>
      <trkpt lat="48.62056" lon="1.93236">
        <ele>192.4</ele>
        <time>2018-01-13T14:57:08Z</time>
      </trkpt>
      <trkpt lat="48.62047" lon="1.93246">
        <ele>192.4</ele>
        <time>2018-01-13T14:57:16Z</time>
      </trkpt>
      <trkpt lat="48.62046" lon="1.93259">
        <ele>192.4</ele>
        <time>2018-01-13T14:57:21Z</time>
      </trkpt>
      <trkpt lat="48.62048" lon="1.93264">
        <ele>191.92</ele>
        <time>2018-01-13T14:57:31Z</time>
      </trkpt>
      <trkpt lat="48.62047" lon="1.93269">
        <ele>191.92</ele>
        <time>2018-01-13T14:57:38Z</time>
      </trkpt>
      <trkpt lat="48.62048" lon="1.93271">
        <ele>191.92</ele>
        <time>2018-01-13T14:57:45Z</time>
      </trkpt>
      <trkpt lat="48.62043" lon="1.93275">
        <ele>192.4</ele>
        <time>2018-01-13T14:57:51Z</time>
      </trkpt>
      <trkpt lat="48.62043" lon="1.93278">
        <ele>192.4</ele>
        <time>2018-01-13T14:57:54Z</time>
      </trkpt>
      <trkpt lat="48.62038" lon="1.93284">
        <ele>192.4</ele>
        <time>2018-01-13T14:58:01Z</time>
      </trkpt>
      <trkpt lat="48.62036" lon="1.93284">
        <ele>192.4</ele>
        <time>2018-01-13T14:58:03Z</time>
      </trkpt>
      <trkpt lat="48.62034" lon="1.9329">
        <ele>192.88</ele>
        <time>2018-01-13T14:58:07Z</time>
      </trkpt>
      <trkpt lat="48.62029" lon="1.93298">
        <ele>192.88</ele>
        <time>2018-01-13T14:58:14Z</time>
      </trkpt>
      <trkpt lat="48.62025" lon="1.93313">
        <ele>192.88</ele>
        <time>2018-01-13T14:58:22Z</time>
      </trkpt>
      <trkpt lat="48.62019" lon="1.93324">
        <ele>192.88</ele>
        <time>2018-01-13T14:58:29Z</time>
      </trkpt>
      <trkpt lat="48.62016" lon="1.93328">
        <ele>192.88</ele>
        <time>2018-01-13T14:58:33Z</time>
      </trkpt>
      <trkpt lat="48.62007" lon="1.93336">
        <ele>192.4</ele>
        <time>2018-01-13T14:58:41Z</time>
      </trkpt>
      <trkpt lat="48.62001" lon="1.93349">
        <ele>192.4</ele>
        <time>2018-01-13T14:58:49Z</time>
      </trkpt>
      <trkpt lat="48.61994" lon="1.93357">
        <ele>192.4</ele>
        <time>2018-01-13T14:58:56Z</time>
      </trkpt>
      <trkpt lat="48.6199" lon="1.93363">
        <ele>192.4</ele>
        <time>2018-01-13T14:59:01Z</time>
      </trkpt>
      <trkpt lat="48.61986" lon="1.93371">
        <ele>192.4</ele>
        <time>2018-01-13T14:59:07Z</time>
      </trkpt>
      <trkpt lat="48.61983" lon="1.93376">
        <ele>191.92</ele>
        <time>2018-01-13T14:59:12Z</time>
      </trkpt>
      <trkpt lat="48.61982" lon="1.93378">
        <ele>191.92</ele>
        <time>2018-01-13T14:59:14Z</time>
      </trkpt>
      <trkpt lat="48.61981" lon="1.93381">
        <ele>191.92</ele>
        <time>2018-01-13T14:59:16Z</time>
      </trkpt>
      <trkpt lat="48.61973" lon="1.93394">
        <ele>191.92</ele>
        <time>2018-01-13T14:59:23Z</time>
      </trkpt>
      <trkpt lat="48.61969" lon="1.93408">
        <ele>191.44</ele>
        <time>2018-01-13T14:59:30Z</time>
      </trkpt>
      <trkpt lat="48.61966" lon="1.93412">
        <ele>191.44</ele>
        <time>2018-01-13T14:59:33Z</time>
      </trkpt>
      <trkpt lat="48.61964" lon="1.9342">
        <ele>191.44</ele>
        <time>2018-01-13T14:59:37Z</time>
      </trkpt>
      <trkpt lat="48.61963" lon="1.93422">
        <ele>191.92</ele>
        <time>2018-01-13T14:59:41Z</time>
      </trkpt>
      <trkpt lat="48.61962" lon="1.93433">
        <ele>191.92</ele>
        <time>2018-01-13T14:59:47Z</time>
      </trkpt>
      <trkpt lat="48.61959" lon="1.93445">
        <ele>191.44</ele>
        <time>2018-01-13T14:59:55Z</time>
      </trkpt>
      <trkpt lat="48.61957" lon="1.93454">
        <ele>191.44</ele>
        <time>2018-01-13T15:00:00Z</time>
      </trkpt>
      <trkpt lat="48.61953" lon="1.93459">
        <ele>191.44</ele>
        <time>2018-01-13T15:00:06Z</time>
      </trkpt>
      <trkpt lat="48.6195" lon="1.93466">
        <ele>190.48</ele>
        <time>2018-01-13T15:00:13Z</time>
      </trkpt>
      <trkpt lat="48.61949" lon="1.93467">
        <ele>190.48</ele>
        <time>2018-01-13T15:00:16Z</time>
      </trkpt>
      <trkpt lat="48.61944" lon="1.93478">
        <ele>190.48</ele>
        <time>2018-01-13T15:00:23Z</time>
      </trkpt>
      <trkpt lat="48.61941" lon="1.93481">
        <ele>190.48</ele>
        <time>2018-01-13T15:00:26Z</time>
      </trkpt>
      <trkpt lat="48.61942" lon="1.93489">
        <ele>190.96</ele>
        <time>2018-01-13T15:00:30Z</time>
      </trkpt>
      <trkpt lat="48.61943" lon="1.93491">
        <ele>190.96</ele>
        <time>2018-01-13T15:00:35Z</time>
      </trkpt>
      <trkpt lat="48.61943" lon="1.93505">
        <ele>190.96</ele>
        <time>2018-01-13T15:00:43Z</time>
      </trkpt>
      <trkpt lat="48.61939" lon="1.93508">
        <ele>191.92</ele>
        <time>2018-01-13T15:00:47Z</time>
      </trkpt>
      <trkpt lat="48.61936" lon="1.93506">
        <ele>190.96</ele>
        <time>2018-01-13T15:00:50Z</time>
      </trkpt>
      <trkpt lat="48.61931" lon="1.93516">
        <ele>190.96</ele>
        <time>2018-01-13T15:00:54Z</time>
      </trkpt>
      <trkpt lat="48.61928" lon="1.93529">
        <ele>190.48</ele>
        <time>2018-01-13T15:01:01Z</time>
      </trkpt>
      <trkpt lat="48.61928" lon="1.93531">
        <ele>190.48</ele>
        <time>2018-01-13T15:01:02Z</time>
      </trkpt>
      <trkpt lat="48.6192" lon="1.93542">
        <ele>190.96</ele>
        <time>2018-01-13T15:01:08Z</time>
      </trkpt>
      <trkpt lat="48.61917" lon="1.93543">
        <ele>190.96</ele>
        <time>2018-01-13T15:01:14Z</time>
      </trkpt>
      <trkpt lat="48.61915" lon="1.93544">
        <ele>190.48</ele>
        <time>2018-01-13T15:01:21Z</time>
      </trkpt>
      <trkpt lat="48.61911" lon="1.93546">
        <ele>190.48</ele>
        <time>2018-01-13T15:01:27Z</time>
      </trkpt>
      <trkpt lat="48.61911" lon="1.93548">
        <ele>190</ele>
        <time>2018-01-13T15:01:33Z</time>
      </trkpt>
      <trkpt lat="48.61909" lon="1.93554">
        <ele>190.48</ele>
        <time>2018-01-13T15:01:40Z</time>
      </trkpt>
      <trkpt lat="48.61908" lon="1.93558">
        <ele>190.48</ele>
        <time>2018-01-13T15:01:46Z</time>
      </trkpt>
      <trkpt lat="48.61906" lon="1.9356">
        <ele>190.48</ele>
        <time>2018-01-13T15:01:52Z</time>
      </trkpt>
      <trkpt lat="48.61905" lon="1.93568">
        <ele>190.48</ele>
        <time>2018-01-13T15:01:57Z</time>
      </trkpt>
      <trkpt lat="48.61903" lon="1.93573">
        <ele>190</ele>
        <time>2018-01-13T15:02:03Z</time>
      </trkpt>
      <trkpt lat="48.61901" lon="1.93577">
        <ele>190</ele>
        <time>2018-01-13T15:02:08Z</time>
      </trkpt>
      <trkpt lat="48.61895" lon="1.9358">
        <ele>190</ele>
        <time>2018-01-13T15:02:13Z</time>
      </trkpt>
      <trkpt lat="48.61893" lon="1.93585">
        <ele>189.52</ele>
        <time>2018-01-13T15:02:18Z</time>
      </trkpt>
      <trkpt lat="48.61889" lon="1.93593">
        <ele>189.52</ele>
        <time>2018-01-13T15:02:24Z</time>
      </trkpt>
      <trkpt lat="48.61888" lon="1.93599">
        <ele>189.52</ele>
        <time>2018-01-13T15:02:30Z</time>
      </trkpt>
      <trkpt lat="48.61887" lon="1.93602">
        <ele>189.52</ele>
        <time>2018-01-13T15:02:39Z</time>
      </trkpt>
      <trkpt lat="48.61883" lon="1.9361">
        <ele>189.52</ele>
        <time>2018-01-13T15:02:45Z</time>
      </trkpt>
      <trkpt lat="48.61879" lon="1.93618">
        <ele>189.04</ele>
        <time>2018-01-13T15:02:51Z</time>
      </trkpt>
      <trkpt lat="48.61873" lon="1.93624">
        <ele>189.04</ele>
        <time>2018-01-13T15:02:57Z</time>
      </trkpt>
      <trkpt lat="48.6187" lon="1.93629">
        <ele>188.56</ele>
        <time>2018-01-13T15:03:01Z</time>
      </trkpt>
      <trkpt lat="48.61867" lon="1.93634">
        <ele>189.04</ele>
        <time>2018-01-13T15:03:04Z</time>
      </trkpt>
      <trkpt lat="48.61862" lon="1.93646">
        <ele>188.56</ele>
        <time>2018-01-13T15:03:11Z</time>
      </trkpt>
      <trkpt lat="48.61859" lon="1.93657">
        <ele>188.56</ele>
        <time>2018-01-13T15:03:17Z</time>
      </trkpt>
      <trkpt lat="48.61854" lon="1.93666">
        <ele>188.08</ele>
        <time>2018-01-13T15:03:23Z</time>
      </trkpt>
      <trkpt lat="48.61847" lon="1.93674">
        <ele>187.59</ele>
        <time>2018-01-13T15:03:30Z</time>
      </trkpt>
      <trkpt lat="48.61844" lon="1.93684">
        <ele>187.11</ele>
        <time>2018-01-13T15:03:37Z</time>
      </trkpt>
      <trkpt lat="48.61838" lon="1.937">
        <ele>187.11</ele>
        <time>2018-01-13T15:03:46Z</time>
      </trkpt>
      <trkpt lat="48.61837" lon="1.93706">
        <ele>187.11</ele>
        <time>2018-01-13T15:03:52Z</time>
      </trkpt>
      <trkpt lat="48.61836" lon="1.93707">
        <ele>186.63</ele>
        <time>2018-01-13T15:03:53Z</time>
      </trkpt>
      <trkpt lat="48.6183" lon="1.93715">
        <ele>186.63</ele>
        <time>2018-01-13T15:04:00Z</time>
      </trkpt>
      <trkpt lat="48.61828" lon="1.93724">
        <ele>186.15</ele>
        <time>2018-01-13T15:04:07Z</time>
      </trkpt>
      <trkpt lat="48.61825" lon="1.93728">
        <ele>186.15</ele>
        <time>2018-01-13T15:04:14Z</time>
      </trkpt>
      <trkpt lat="48.61822" lon="1.93735">
        <ele>185.67</ele>
        <time>2018-01-13T15:04:19Z</time>
      </trkpt>
      <trkpt lat="48.61817" lon="1.93743">
        <ele>185.67</ele>
        <time>2018-01-13T15:04:25Z</time>
      </trkpt>
      <trkpt lat="48.61812" lon="1.9375">
        <ele>185.67</ele>
        <time>2018-01-13T15:04:29Z</time>
      </trkpt>
      <trkpt lat="48.61811" lon="1.93757">
        <ele>185.67</ele>
        <time>2018-01-13T15:04:36Z</time>
      </trkpt>
      <trkpt lat="48.61808" lon="1.93766">
        <ele>186.15</ele>
        <time>2018-01-13T15:04:42Z</time>
      </trkpt>
      <trkpt lat="48.61806" lon="1.9377">
        <ele>186.15</ele>
        <time>2018-01-13T15:04:44Z</time>
      </trkpt>
      <trkpt lat="48.61802" lon="1.93784">
        <ele>186.15</ele>
        <time>2018-01-13T15:04:52Z</time>
      </trkpt>
      <trkpt lat="48.61797" lon="1.93794">
        <ele>186.15</ele>
        <time>2018-01-13T15:05:00Z</time>
      </trkpt>
      <trkpt lat="48.61794" lon="1.93802">
        <ele>185.67</ele>
        <time>2018-01-13T15:05:07Z</time>
      </trkpt>
      <trkpt lat="48.61791" lon="1.9381">
        <ele>184.71</ele>
        <time>2018-01-13T15:05:14Z</time>
      </trkpt>
      <trkpt lat="48.6179" lon="1.93813">
        <ele>184.71</ele>
        <time>2018-01-13T15:05:17Z</time>
      </trkpt>
      <trkpt lat="48.61786" lon="1.93818">
        <ele>183.75</ele>
        <time>2018-01-13T15:05:23Z</time>
      </trkpt>
      <trkpt lat="48.61784" lon="1.93823">
        <ele>182.79</ele>
        <time>2018-01-13T15:05:28Z</time>
      </trkpt>
      <trkpt lat="48.61781" lon="1.93826">
        <ele>182.31</ele>
        <time>2018-01-13T15:05:31Z</time>
      </trkpt>
      <trkpt lat="48.61774" lon="1.93835">
        <ele>180.38</ele>
        <time>2018-01-13T15:05:40Z</time>
      </trkpt>
      <trkpt lat="48.6177" lon="1.93845">
        <ele>178.94</ele>
        <time>2018-01-13T15:05:47Z</time>
      </trkpt>
      <trkpt lat="48.61769" lon="1.93849">
        <ele>178.46</ele>
        <time>2018-01-13T15:05:49Z</time>
      </trkpt>
      <trkpt lat="48.61765" lon="1.93859">
        <ele>177.5</ele>
        <time>2018-01-13T15:05:56Z</time>
      </trkpt>
      <trkpt lat="48.61765" lon="1.9386">
        <ele>177.02</ele>
        <time>2018-01-13T15:05:57Z</time>
      </trkpt>
      <trkpt lat="48.61758" lon="1.9387">
        <ele>176.06</ele>
        <time>2018-01-13T15:06:04Z</time>
      </trkpt>
      <trkpt lat="48.61751" lon="1.93877">
        <ele>175.58</ele>
        <time>2018-01-13T15:06:11Z</time>
      </trkpt>
      <trkpt lat="48.61751" lon="1.9388">
        <ele>175.58</ele>
        <time>2018-01-13T15:06:14Z</time>
      </trkpt>
      <trkpt lat="48.61748" lon="1.93887">
        <ele>175.58</ele>
        <time>2018-01-13T15:06:19Z</time>
      </trkpt>
      <trkpt lat="48.61743" lon="1.93897">
        <ele>176.06</ele>
        <time>2018-01-13T15:06:26Z</time>
      </trkpt>
      <trkpt lat="48.61738" lon="1.93905">
        <ele>177.02</ele>
        <time>2018-01-13T15:06:33Z</time>
      </trkpt>
      <trkpt lat="48.61735" lon="1.9391">
        <ele>177.98</ele>
        <time>2018-01-13T15:06:39Z</time>
      </trkpt>
      <trkpt lat="48.6173" lon="1.93914">
        <ele>178.94</ele>
        <time>2018-01-13T15:06:46Z</time>
      </trkpt>
      <trkpt lat="48.61728" lon="1.93926">
        <ele>179.9</ele>
        <time>2018-01-13T15:06:52Z</time>
      </trkpt>
      <trkpt lat="48.61723" lon="1.93934">
        <ele>181.35</ele>
        <time>2018-01-13T15:07:00Z</time>
      </trkpt>
      <trkpt lat="48.6172" lon="1.93942">
        <ele>182.31</ele>
        <time>2018-01-13T15:07:06Z</time>
      </trkpt>
      <trkpt lat="48.61719" lon="1.93951">
        <ele>182.79</ele>
        <time>2018-01-13T15:07:12Z</time>
      </trkpt>
      <trkpt lat="48.61713" lon="1.93958">
        <ele>183.75</ele>
        <time>2018-01-13T15:07:19Z</time>
      </trkpt>
      <trkpt lat="48.6171" lon="1.9397">
        <ele>183.75</ele>
        <time>2018-01-13T15:07:26Z</time>
      </trkpt>
      <trkpt lat="48.61709" lon="1.93974">
        <ele>183.75</ele>
        <time>2018-01-13T15:07:31Z</time>
      </trkpt>
      <trkpt lat="48.61703" lon="1.93982">
        <ele>183.75</ele>
        <time>2018-01-13T15:07:38Z</time>
      </trkpt>
      <trkpt lat="48.61701" lon="1.93988">
        <ele>184.23</ele>
        <time>2018-01-13T15:07:44Z</time>
      </trkpt>
      <trkpt lat="48.61701" lon="1.93996">
        <ele>184.23</ele>
        <time>2018-01-13T15:07:49Z</time>
      </trkpt>
      <trkpt lat="48.61691" lon="1.9401">
        <ele>184.23</ele>
        <time>2018-01-13T15:07:59Z</time>
      </trkpt>
      <trkpt lat="48.6169" lon="1.94012">
        <ele>184.23</ele>
        <time>2018-01-13T15:08:01Z</time>
      </trkpt>
      <trkpt lat="48.61689" lon="1.94015">
        <ele>184.23</ele>
        <time>2018-01-13T15:08:04Z</time>
      </trkpt>
      <trkpt lat="48.61686" lon="1.94018">
        <ele>183.75</ele>
        <time>2018-01-13T15:08:07Z</time>
      </trkpt>
      <trkpt lat="48.61685" lon="1.9402">
        <ele>183.75</ele>
        <time>2018-01-13T15:08:09Z</time>
      </trkpt>
      <trkpt lat="48.61681" lon="1.94028">
        <ele>183.27</ele>
        <time>2018-01-13T15:08:17Z</time>
      </trkpt>
      <trkpt lat="48.6168" lon="1.94032">
        <ele>182.79</ele>
        <time>2018-01-13T15:08:20Z</time>
      </trkpt>
      <trkpt lat="48.61679" lon="1.94034">
        <ele>182.79</ele>
        <time>2018-01-13T15:08:22Z</time>
      </trkpt>
      <trkpt lat="48.61673" lon="1.94047">
        <ele>182.31</ele>
        <time>2018-01-13T15:08:30Z</time>
      </trkpt>
      <trkpt lat="48.61673" lon="1.9405">
        <ele>182.31</ele>
        <time>2018-01-13T15:08:32Z</time>
      </trkpt>
      <trkpt lat="48.61673" lon="1.94056">
        <ele>182.31</ele>
        <time>2018-01-13T15:08:37Z</time>
      </trkpt>
      <trkpt lat="48.61672" lon="1.94057">
        <ele>182.31</ele>
        <time>2018-01-13T15:08:38Z</time>
      </trkpt>
      <trkpt lat="48.61666" lon="1.94066">
        <ele>182.79</ele>
        <time>2018-01-13T15:08:46Z</time>
      </trkpt>
      <trkpt lat="48.61661" lon="1.94073">
        <ele>182.79</ele>
        <time>2018-01-13T15:08:53Z</time>
      </trkpt>
      <trkpt lat="48.61657" lon="1.94084">
        <ele>183.27</ele>
        <time>2018-01-13T15:09:00Z</time>
      </trkpt>
      <trkpt lat="48.61653" lon="1.94094">
        <ele>183.27</ele>
        <time>2018-01-13T15:09:07Z</time>
      </trkpt>
      <trkpt lat="48.61648" lon="1.94106">
        <ele>183.75</ele>
        <time>2018-01-13T15:09:14Z</time>
      </trkpt>
      <trkpt lat="48.61643" lon="1.9411">
        <ele>183.27</ele>
        <time>2018-01-13T15:09:20Z</time>
      </trkpt>
      <trkpt lat="48.61641" lon="1.94117">
        <ele>183.27</ele>
        <time>2018-01-13T15:09:27Z</time>
      </trkpt>
      <trkpt lat="48.61639" lon="1.94118">
        <ele>183.27</ele>
        <time>2018-01-13T15:09:37Z</time>
      </trkpt>
      <trkpt lat="48.61637" lon="1.94121">
        <ele>183.27</ele>
        <time>2018-01-13T15:09:45Z</time>
      </trkpt>
      <trkpt lat="48.61637" lon="1.94123">
        <ele>183.27</ele>
        <time>2018-01-13T15:09:57Z</time>
      </trkpt>
      <trkpt lat="48.61637" lon="1.94123">
        <ele>183.27</ele>
        <time>2018-01-13T15:10:08Z</time>
      </trkpt>
      <trkpt lat="48.61636" lon="1.94123">
        <ele>182.79</ele>
        <time>2018-01-13T15:10:17Z</time>
      </trkpt>
      <trkpt lat="48.61636" lon="1.94124">
        <ele>182.79</ele>
        <time>2018-01-13T15:10:26Z</time>
      </trkpt>
      <trkpt lat="48.61636" lon="1.94123">
        <ele>182.79</ele>
        <time>2018-01-13T15:10:42Z</time>
      </trkpt>
      <trkpt lat="48.61636" lon="1.94123">
        <ele>182.79</ele>
        <time>2018-01-13T15:10:52Z</time>
      </trkpt>
      <trkpt lat="48.61636" lon="1.94124">
        <ele>182.79</ele>
        <time>2018-01-13T15:11:06Z</time>
      </trkpt>
      <trkpt lat="48.61636" lon="1.94125">
        <ele>182.31</ele>
        <time>2018-01-13T15:11:20Z</time>
      </trkpt>
      <trkpt lat="48.61637" lon="1.94129">
        <ele>182.31</ele>
        <time>2018-01-13T15:11:35Z</time>
      </trkpt>
      <trkpt lat="48.61636" lon="1.94132">
        <ele>182.31</ele>
        <time>2018-01-13T15:11:53Z</time>
      </trkpt>
      <trkpt lat="48.61636" lon="1.94131">
        <ele>182.31</ele>
        <time>2018-01-13T15:12:05Z</time>
      </trkpt>
      <trkpt lat="48.61637" lon="1.94132">
        <ele>182.31</ele>
        <time>2018-01-13T15:12:15Z</time>
      </trkpt>
      <trkpt lat="48.61637" lon="1.94131">
        <ele>181.83</ele>
        <time>2018-01-13T15:12:26Z</time>
      </trkpt>
      <trkpt lat="48.61636" lon="1.94132">
        <ele>181.83</ele>
        <time>2018-01-13T15:12:37Z</time>
      </trkpt>
      <trkpt lat="48.61636" lon="1.94131">
        <ele>181.83</ele>
        <time>2018-01-13T15:12:51Z</time>
      </trkpt>
      <trkpt lat="48.61636" lon="1.94131">
        <ele>181.83</ele>
        <time>2018-01-13T15:13:02Z</time>
      </trkpt>
      <trkpt lat="48.61636" lon="1.94131">
        <ele>181.35</ele>
        <time>2018-01-13T15:13:15Z</time>
      </trkpt>
      <trkpt lat="48.61636" lon="1.94131">
        <ele>181.35</ele>
        <time>2018-01-13T15:13:27Z</time>
      </trkpt>
      <trkpt lat="48.61635" lon="1.9413">
        <ele>181.35</ele>
        <time>2018-01-13T15:13:40Z</time>
      </trkpt>
      <trkpt lat="48.61636" lon="1.94129">
        <ele>180.87</ele>
        <time>2018-01-13T15:13:52Z</time>
      </trkpt>
      <trkpt lat="48.61636" lon="1.94128">
        <ele>180.87</ele>
        <time>2018-01-13T15:14:01Z</time>
      </trkpt>
      <trkpt lat="48.61634" lon="1.9413">
        <ele>181.35</ele>
        <time>2018-01-13T15:14:07Z</time>
      </trkpt>
      <trkpt lat="48.6163" lon="1.94138">
        <ele>181.35</ele>
        <time>2018-01-13T15:14:16Z</time>
      </trkpt>
      <trkpt lat="48.61627" lon="1.94146">
        <ele>180.87</ele>
        <time>2018-01-13T15:14:23Z</time>
      </trkpt>
      <trkpt lat="48.61625" lon="1.94156">
        <ele>180.87</ele>
        <time>2018-01-13T15:14:30Z</time>
      </trkpt>
      <trkpt lat="48.61622" lon="1.9416">
        <ele>180.87</ele>
        <time>2018-01-13T15:14:34Z</time>
      </trkpt>
      <trkpt lat="48.61619" lon="1.94168">
        <ele>181.35</ele>
        <time>2018-01-13T15:14:39Z</time>
      </trkpt>
      <trkpt lat="48.61614" lon="1.94176">
        <ele>180.87</ele>
        <time>2018-01-13T15:14:46Z</time>
      </trkpt>
      <trkpt lat="48.61612" lon="1.94184">
        <ele>180.87</ele>
        <time>2018-01-13T15:14:52Z</time>
      </trkpt>
      <trkpt lat="48.6161" lon="1.94192">
        <ele>180.87</ele>
        <time>2018-01-13T15:14:58Z</time>
      </trkpt>
      <trkpt lat="48.61606" lon="1.94197">
        <ele>180.87</ele>
        <time>2018-01-13T15:15:02Z</time>
      </trkpt>
      <trkpt lat="48.61601" lon="1.94209">
        <ele>180.87</ele>
        <time>2018-01-13T15:15:08Z</time>
      </trkpt>
      <trkpt lat="48.61598" lon="1.94216">
        <ele>180.38</ele>
        <time>2018-01-13T15:15:13Z</time>
      </trkpt>
      <trkpt lat="48.61593" lon="1.94224">
        <ele>180.38</ele>
        <time>2018-01-13T15:15:20Z</time>
      </trkpt>
      <trkpt lat="48.61589" lon="1.94231">
        <ele>179.9</ele>
        <time>2018-01-13T15:15:28Z</time>
      </trkpt>
      <trkpt lat="48.6158" lon="1.94243">
        <ele>179.9</ele>
        <time>2018-01-13T15:15:35Z</time>
      </trkpt>
      <trkpt lat="48.61578" lon="1.94252">
        <ele>179.42</ele>
        <time>2018-01-13T15:15:41Z</time>
      </trkpt>
      <trkpt lat="48.61577" lon="1.94255">
        <ele>179.42</ele>
        <time>2018-01-13T15:15:44Z</time>
      </trkpt>
      <trkpt lat="48.61567" lon="1.94262">
        <ele>178.94</ele>
        <time>2018-01-13T15:15:50Z</time>
      </trkpt>
      <trkpt lat="48.61566" lon="1.94263">
        <ele>178.94</ele>
        <time>2018-01-13T15:15:51Z</time>
      </trkpt>
      <trkpt lat="48.61557" lon="1.94276">
        <ele>177.98</ele>
        <time>2018-01-13T15:16:00Z</time>
      </trkpt>
      <trkpt lat="48.61556" lon="1.94278">
        <ele>177.98</ele>
        <time>2018-01-13T15:16:01Z</time>
      </trkpt>
      <trkpt lat="48.61552" lon="1.94285">
        <ele>177.5</ele>
        <time>2018-01-13T15:16:07Z</time>
      </trkpt>
      <trkpt lat="48.61546" lon="1.94298">
        <ele>176.54</ele>
        <time>2018-01-13T15:16:15Z</time>
      </trkpt>
      <trkpt lat="48.61541" lon="1.94303">
        <ele>175.58</ele>
        <time>2018-01-13T15:16:22Z</time>
      </trkpt>
      <trkpt lat="48.6154" lon="1.9431">
        <ele>174.62</ele>
        <time>2018-01-13T15:16:28Z</time>
      </trkpt>
      <trkpt lat="48.61539" lon="1.94311">
        <ele>174.62</ele>
        <time>2018-01-13T15:16:29Z</time>
      </trkpt>
      <trkpt lat="48.61537" lon="1.94318">
        <ele>173.17</ele>
        <time>2018-01-13T15:16:34Z</time>
      </trkpt>
      <trkpt lat="48.61535" lon="1.94326">
        <ele>173.17</ele>
        <time>2018-01-13T15:16:38Z</time>
      </trkpt>
      <trkpt lat="48.6153" lon="1.94337">
        <ele>171.25</ele>
        <time>2018-01-13T15:16:46Z</time>
      </trkpt>
      <trkpt lat="48.61527" lon="1.94345">
        <ele>170.77</ele>
        <time>2018-01-13T15:16:53Z</time>
      </trkpt>
      <trkpt lat="48.61522" lon="1.94356">
        <ele>169.33</ele>
        <time>2018-01-13T15:17:02Z</time>
      </trkpt>
      <trkpt lat="48.61519" lon="1.94359">
        <ele>168.85</ele>
        <time>2018-01-13T15:17:10Z</time>
      </trkpt>
      <trkpt lat="48.61518" lon="1.94369">
        <ele>168.37</ele>
        <time>2018-01-13T15:17:17Z</time>
      </trkpt>
      <trkpt lat="48.61517" lon="1.94373">
        <ele>168.85</ele>
        <time>2018-01-13T15:17:22Z</time>
      </trkpt>
      <trkpt lat="48.61516" lon="1.94376">
        <ele>168.37</ele>
        <time>2018-01-13T15:17:29Z</time>
      </trkpt>
      <trkpt lat="48.61513" lon="1.94379">
        <ele>167.89</ele>
        <time>2018-01-13T15:17:32Z</time>
      </trkpt>
      <trkpt lat="48.61511" lon="1.94383">
        <ele>167.89</ele>
        <time>2018-01-13T15:17:34Z</time>
      </trkpt>
      <trkpt lat="48.61506" lon="1.94397">
        <ele>166.93</ele>
        <time>2018-01-13T15:17:41Z</time>
      </trkpt>
      <trkpt lat="48.61504" lon="1.94399">
        <ele>165.96</ele>
        <time>2018-01-13T15:17:47Z</time>
      </trkpt>
      <trkpt lat="48.61501" lon="1.94408">
        <ele>165</ele>
        <time>2018-01-13T15:17:54Z</time>
      </trkpt>
      <trkpt lat="48.61498" lon="1.94416">
        <ele>164.52</ele>
        <time>2018-01-13T15:17:59Z</time>
      </trkpt>
      <trkpt lat="48.61497" lon="1.94424">
        <ele>164.52</ele>
        <time>2018-01-13T15:18:04Z</time>
      </trkpt>
      <trkpt lat="48.61494" lon="1.9444">
        <ele>164.04</ele>
        <time>2018-01-13T15:18:10Z</time>
      </trkpt>
      <trkpt lat="48.61494" lon="1.9444">
        <ele>164.04</ele>
        <time>2018-01-13T15:18:12Z</time>
      </trkpt>
      <trkpt lat="48.61491" lon="1.94448">
        <ele>163.56</ele>
        <time>2018-01-13T15:18:18Z</time>
      </trkpt>
      <trkpt lat="48.61488" lon="1.9445">
        <ele>163.56</ele>
        <time>2018-01-13T15:18:25Z</time>
      </trkpt>
      <trkpt lat="48.61483" lon="1.94458">
        <ele>163.56</ele>
        <time>2018-01-13T15:18:30Z</time>
      </trkpt>
      <trkpt lat="48.61477" lon="1.94466">
        <ele>163.08</ele>
        <time>2018-01-13T15:18:36Z</time>
      </trkpt>
      <trkpt lat="48.61471" lon="1.94476">
        <ele>163.08</ele>
        <time>2018-01-13T15:18:42Z</time>
      </trkpt>
      <trkpt lat="48.61466" lon="1.94485">
        <ele>162.6</ele>
        <time>2018-01-13T15:18:50Z</time>
      </trkpt>
      <trkpt lat="48.61464" lon="1.94489">
        <ele>162.6</ele>
        <time>2018-01-13T15:18:53Z</time>
      </trkpt>
      <trkpt lat="48.61457" lon="1.94495">
        <ele>162.12</ele>
        <time>2018-01-13T15:19:01Z</time>
      </trkpt>
      <trkpt lat="48.61455" lon="1.94499">
        <ele>162.12</ele>
        <time>2018-01-13T15:19:04Z</time>
      </trkpt>
      <trkpt lat="48.6145" lon="1.94508">
        <ele>162.12</ele>
        <time>2018-01-13T15:19:10Z</time>
      </trkpt>
      <trkpt lat="48.61448" lon="1.94519">
        <ele>162.12</ele>
        <time>2018-01-13T15:19:15Z</time>
      </trkpt>
      <trkpt lat="48.61441" lon="1.94526">
        <ele>162.12</ele>
        <time>2018-01-13T15:19:21Z</time>
      </trkpt>
      <trkpt lat="48.6144" lon="1.94527">
        <ele>162.12</ele>
        <time>2018-01-13T15:19:22Z</time>
      </trkpt>
      <trkpt lat="48.61435" lon="1.94534">
        <ele>162.12</ele>
        <time>2018-01-13T15:19:28Z</time>
      </trkpt>
      <trkpt lat="48.61429" lon="1.94543">
        <ele>162.12</ele>
        <time>2018-01-13T15:19:33Z</time>
      </trkpt>
      <trkpt lat="48.61427" lon="1.94549">
        <ele>162.6</ele>
        <time>2018-01-13T15:19:36Z</time>
      </trkpt>
      <trkpt lat="48.61422" lon="1.94568">
        <ele>162.6</ele>
        <time>2018-01-13T15:19:43Z</time>
      </trkpt>
      <trkpt lat="48.6142" lon="1.94577">
        <ele>163.08</ele>
        <time>2018-01-13T15:19:49Z</time>
      </trkpt>
      <trkpt lat="48.61418" lon="1.94583">
        <ele>163.08</ele>
        <time>2018-01-13T15:19:55Z</time>
      </trkpt>
      <trkpt lat="48.61407" lon="1.9459">
        <ele>163.08</ele>
        <time>2018-01-13T15:20:00Z</time>
      </trkpt>
      <trkpt lat="48.61401" lon="1.94598">
        <ele>163.08</ele>
        <time>2018-01-13T15:20:07Z</time>
      </trkpt>
      <trkpt lat="48.61403" lon="1.94608">
        <ele>162.6</ele>
        <time>2018-01-13T15:20:15Z</time>
      </trkpt>
      <trkpt lat="48.61403" lon="1.94609">
        <ele>162.6</ele>
        <time>2018-01-13T15:20:20Z</time>
      </trkpt>
      <trkpt lat="48.61403" lon="1.9461">
        <ele>162.12</ele>
        <time>2018-01-13T15:20:30Z</time>
      </trkpt>
      <trkpt lat="48.61403" lon="1.94611">
        <ele>162.6</ele>
        <time>2018-01-13T15:20:44Z</time>
      </trkpt>
      <trkpt lat="48.61403" lon="1.94613">
        <ele>162.12</ele>
        <time>2018-01-13T15:20:57Z</time>
      </trkpt>
      <trkpt lat="48.61404" lon="1.94616">
        <ele>162.12</ele>
        <time>2018-01-13T15:21:08Z</time>
      </trkpt>
      <trkpt lat="48.61404" lon="1.94618">
        <ele>161.64</ele>
        <time>2018-01-13T15:21:17Z</time>
      </trkpt>
      <trkpt lat="48.61404" lon="1.94618">
        <ele>162.12</ele>
        <time>2018-01-13T15:21:23Z</time>
      </trkpt>
      <trkpt lat="48.61404" lon="1.94618">
        <ele>162.12</ele>
        <time>2018-01-13T15:21:32Z</time>
      </trkpt>
      <trkpt lat="48.61403" lon="1.94619">
        <ele>162.12</ele>
        <time>2018-01-13T15:21:42Z</time>
      </trkpt>
      <trkpt lat="48.61403" lon="1.94618">
        <ele>162.12</ele>
        <time>2018-01-13T15:21:55Z</time>
      </trkpt>
      <trkpt lat="48.61403" lon="1.94618">
        <ele>161.64</ele>
        <time>2018-01-13T15:22:05Z</time>
      </trkpt>
      <trkpt lat="48.61404" lon="1.94618">
        <ele>161.64</ele>
        <time>2018-01-13T15:22:17Z</time>
      </trkpt>
      <trkpt lat="48.61404" lon="1.94618">
        <ele>161.64</ele>
        <time>2018-01-13T15:22:32Z</time>
      </trkpt>
      <trkpt lat="48.61404" lon="1.94617">
        <ele>161.64</ele>
        <time>2018-01-13T15:22:45Z</time>
      </trkpt>
      <trkpt lat="48.61405" lon="1.94617">
        <ele>161.64</ele>
        <time>2018-01-13T15:22:57Z</time>
      </trkpt>
      <trkpt lat="48.61403" lon="1.94621">
        <ele>161.16</ele>
        <time>2018-01-13T15:23:04Z</time>
      </trkpt>
      <trkpt lat="48.61402" lon="1.94622">
        <ele>161.16</ele>
        <time>2018-01-13T15:23:06Z</time>
      </trkpt>
      <trkpt lat="48.61401" lon="1.94624">
        <ele>161.64</ele>
        <time>2018-01-13T15:23:08Z</time>
      </trkpt>
      <trkpt lat="48.61398" lon="1.94626">
        <ele>161.16</ele>
        <time>2018-01-13T15:23:12Z</time>
      </trkpt>
      <trkpt lat="48.61393" lon="1.94635">
        <ele>161.16</ele>
        <time>2018-01-13T15:23:19Z</time>
      </trkpt>
      <trkpt lat="48.61388" lon="1.94642">
        <ele>160.68</ele>
        <time>2018-01-13T15:23:26Z</time>
      </trkpt>
      <trkpt lat="48.61384" lon="1.94652">
        <ele>159.72</ele>
        <time>2018-01-13T15:23:32Z</time>
      </trkpt>
      <trkpt lat="48.61384" lon="1.9466">
        <ele>159.72</ele>
        <time>2018-01-13T15:23:36Z</time>
      </trkpt>
      <trkpt lat="48.61381" lon="1.94669">
        <ele>158.75</ele>
        <time>2018-01-13T15:23:43Z</time>
      </trkpt>
      <trkpt lat="48.61379" lon="1.94675">
        <ele>158.27</ele>
        <time>2018-01-13T15:23:49Z</time>
      </trkpt>
      <trkpt lat="48.61374" lon="1.94687">
        <ele>157.79</ele>
        <time>2018-01-13T15:23:59Z</time>
      </trkpt>
      <trkpt lat="48.61372" lon="1.9469">
        <ele>157.79</ele>
        <time>2018-01-13T15:24:02Z</time>
      </trkpt>
      <trkpt lat="48.61372" lon="1.94695">
        <ele>157.31</ele>
        <time>2018-01-13T15:24:05Z</time>
      </trkpt>
      <trkpt lat="48.61368" lon="1.94706">
        <ele>156.83</ele>
        <time>2018-01-13T15:24:12Z</time>
      </trkpt>
      <trkpt lat="48.61365" lon="1.94717">
        <ele>155.87</ele>
        <time>2018-01-13T15:24:19Z</time>
      </trkpt>
      <trkpt lat="48.61364" lon="1.94723">
        <ele>155.87</ele>
        <time>2018-01-13T15:24:22Z</time>
      </trkpt>
      <trkpt lat="48.6136" lon="1.94739">
        <ele>154.43</ele>
        <time>2018-01-13T15:24:31Z</time>
      </trkpt>
      <trkpt lat="48.61359" lon="1.94747">
        <ele>153.47</ele>
        <time>2018-01-13T15:24:37Z</time>
      </trkpt>
      <trkpt lat="48.61358" lon="1.94748">
        <ele>153.47</ele>
        <time>2018-01-13T15:24:38Z</time>
      </trkpt>
      <trkpt lat="48.61354" lon="1.94752">
        <ele>152.51</ele>
        <time>2018-01-13T15:24:41Z</time>
      </trkpt>
      <trkpt lat="48.6135" lon="1.94756">
        <ele>152.03</ele>
        <time>2018-01-13T15:24:46Z</time>
      </trkpt>
      <trkpt lat="48.61345" lon="1.94764">
        <ele>152.03</ele>
        <time>2018-01-13T15:24:50Z</time>
      </trkpt>
      <trkpt lat="48.61342" lon="1.94769">
        <ele>150.58</ele>
        <time>2018-01-13T15:24:53Z</time>
      </trkpt>
      <trkpt lat="48.61338" lon="1.94773">
        <ele>149.62</ele>
        <time>2018-01-13T15:24:59Z</time>
      </trkpt>
      <trkpt lat="48.61335" lon="1.94782">
        <ele>148.66</ele>
        <time>2018-01-13T15:25:06Z</time>
      </trkpt>
      <trkpt lat="48.61333" lon="1.94789">
        <ele>148.18</ele>
        <time>2018-01-13T15:25:11Z</time>
      </trkpt>
      <trkpt lat="48.61331" lon="1.94796">
        <ele>147.7</ele>
        <time>2018-01-13T15:25:14Z</time>
      </trkpt>
      <trkpt lat="48.61328" lon="1.94802">
        <ele>147.7</ele>
        <time>2018-01-13T15:25:17Z</time>
      </trkpt>
      <trkpt lat="48.61324" lon="1.94807">
        <ele>147.7</ele>
        <time>2018-01-13T15:25:22Z</time>
      </trkpt>
      <trkpt lat="48.61323" lon="1.94811">
        <ele>147.7</ele>
        <time>2018-01-13T15:25:24Z</time>
      </trkpt>
      <trkpt lat="48.61321" lon="1.94822">
        <ele>147.22</ele>
        <time>2018-01-13T15:25:30Z</time>
      </trkpt>
      <trkpt lat="48.61317" lon="1.94833">
        <ele>147.22</ele>
        <time>2018-01-13T15:25:36Z</time>
      </trkpt>
      <trkpt lat="48.61315" lon="1.94837">
        <ele>147.22</ele>
        <time>2018-01-13T15:25:39Z</time>
      </trkpt>
      <trkpt lat="48.61315" lon="1.94847">
        <ele>147.22</ele>
        <time>2018-01-13T15:25:44Z</time>
      </trkpt>
      <trkpt lat="48.61316" lon="1.94863">
        <ele>147.7</ele>
        <time>2018-01-13T15:25:51Z</time>
      </trkpt>
      <trkpt lat="48.61313" lon="1.94874">
        <ele>147.7</ele>
        <time>2018-01-13T15:25:57Z</time>
      </trkpt>
      <trkpt lat="48.61314" lon="1.94876">
        <ele>147.7</ele>
        <time>2018-01-13T15:25:59Z</time>
      </trkpt>
      <trkpt lat="48.61313" lon="1.94884">
        <ele>148.18</ele>
        <time>2018-01-13T15:26:03Z</time>
      </trkpt>
      <trkpt lat="48.61311" lon="1.94901">
        <ele>148.18</ele>
        <time>2018-01-13T15:26:11Z</time>
      </trkpt>
      <trkpt lat="48.61311" lon="1.94903">
        <ele>148.18</ele>
        <time>2018-01-13T15:26:12Z</time>
      </trkpt>
      <trkpt lat="48.61309" lon="1.94909">
        <ele>148.18</ele>
        <time>2018-01-13T15:26:15Z</time>
      </trkpt>
      <trkpt lat="48.61312" lon="1.94922">
        <ele>148.18</ele>
        <time>2018-01-13T15:26:22Z</time>
      </trkpt>
      <trkpt lat="48.61313" lon="1.94931">
        <ele>147.7</ele>
        <time>2018-01-13T15:26:27Z</time>
      </trkpt>
      <trkpt lat="48.61312" lon="1.94937">
        <ele>147.7</ele>
        <time>2018-01-13T15:26:30Z</time>
      </trkpt>
      <trkpt lat="48.61313" lon="1.94941">
        <ele>147.22</ele>
        <time>2018-01-13T15:26:32Z</time>
      </trkpt>
      <trkpt lat="48.61312" lon="1.94949">
        <ele>146.74</ele>
        <time>2018-01-13T15:26:37Z</time>
      </trkpt>
      <trkpt lat="48.6131" lon="1.94958">
        <ele>146.26</ele>
        <time>2018-01-13T15:26:41Z</time>
      </trkpt>
      <trkpt lat="48.61307" lon="1.9497">
        <ele>145.78</ele>
        <time>2018-01-13T15:26:49Z</time>
      </trkpt>
      <trkpt lat="48.61305" lon="1.94985">
        <ele>145.3</ele>
        <time>2018-01-13T15:26:57Z</time>
      </trkpt>
      <trkpt lat="48.61303" lon="1.94999">
        <ele>145.3</ele>
        <time>2018-01-13T15:27:04Z</time>
      </trkpt>
      <trkpt lat="48.61302" lon="1.95007">
        <ele>145.3</ele>
        <time>2018-01-13T15:27:10Z</time>
      </trkpt>
      <trkpt lat="48.613" lon="1.95025">
        <ele>145.3</ele>
        <time>2018-01-13T15:27:17Z</time>
      </trkpt>
      <trkpt lat="48.61301" lon="1.95041">
        <ele>144.82</ele>
        <time>2018-01-13T15:27:24Z</time>
      </trkpt>
      <trkpt lat="48.61301" lon="1.95043">
        <ele>144.82</ele>
        <time>2018-01-13T15:27:25Z</time>
      </trkpt>
      <trkpt lat="48.61298" lon="1.95063">
        <ele>144.34</ele>
        <time>2018-01-13T15:27:34Z</time>
      </trkpt>
      <trkpt lat="48.61297" lon="1.95077">
        <ele>144.34</ele>
        <time>2018-01-13T15:27:41Z</time>
      </trkpt>
      <trkpt lat="48.61296" lon="1.95085">
        <ele>143.85</ele>
        <time>2018-01-13T15:27:45Z</time>
      </trkpt>
      <trkpt lat="48.61296" lon="1.95089">
        <ele>143.85</ele>
        <time>2018-01-13T15:27:47Z</time>
      </trkpt>
      <trkpt lat="48.61294" lon="1.95101">
        <ele>143.37</ele>
        <time>2018-01-13T15:27:54Z</time>
      </trkpt>
      <trkpt lat="48.61294" lon="1.95104">
        <ele>143.37</ele>
        <time>2018-01-13T15:27:56Z</time>
      </trkpt>
      <trkpt lat="48.61293" lon="1.95112">
        <ele>142.89</ele>
        <time>2018-01-13T15:28:01Z</time>
      </trkpt>
      <trkpt lat="48.6129" lon="1.95125">
        <ele>142.89</ele>
        <time>2018-01-13T15:28:07Z</time>
      </trkpt>
      <trkpt lat="48.61288" lon="1.95135">
        <ele>142.41</ele>
        <time>2018-01-13T15:28:12Z</time>
      </trkpt>
      <trkpt lat="48.61287" lon="1.95138">
        <ele>142.41</ele>
        <time>2018-01-13T15:28:14Z</time>
      </trkpt>
      <trkpt lat="48.61285" lon="1.95142">
        <ele>142.41</ele>
        <time>2018-01-13T15:28:16Z</time>
      </trkpt>
      <trkpt lat="48.61282" lon="1.95153">
        <ele>142.41</ele>
        <time>2018-01-13T15:28:22Z</time>
      </trkpt>
      <trkpt lat="48.61281" lon="1.95157">
        <ele>141.93</ele>
        <time>2018-01-13T15:28:25Z</time>
      </trkpt>
      <trkpt lat="48.6128" lon="1.95161">
        <ele>141.93</ele>
        <time>2018-01-13T15:28:27Z</time>
      </trkpt>
      <trkpt lat="48.61276" lon="1.95175">
        <ele>141.93</ele>
        <time>2018-01-13T15:28:35Z</time>
      </trkpt>
      <trkpt lat="48.61274" lon="1.95187">
        <ele>141.45</ele>
        <time>2018-01-13T15:28:42Z</time>
      </trkpt>
      <trkpt lat="48.61272" lon="1.95202">
        <ele>141.45</ele>
        <time>2018-01-13T15:28:49Z</time>
      </trkpt>
      <trkpt lat="48.61272" lon="1.95205">
        <ele>141.45</ele>
        <time>2018-01-13T15:28:51Z</time>
      </trkpt>
      <trkpt lat="48.61271" lon="1.95215">
        <ele>141.45</ele>
        <time>2018-01-13T15:28:56Z</time>
      </trkpt>
      <trkpt lat="48.61267" lon="1.95227">
        <ele>140.97</ele>
        <time>2018-01-13T15:29:02Z</time>
      </trkpt>
      <trkpt lat="48.61267" lon="1.95237">
        <ele>140.97</ele>
        <time>2018-01-13T15:29:08Z</time>
      </trkpt>
      <trkpt lat="48.61266" lon="1.95245">
        <ele>140.97</ele>
        <time>2018-01-13T15:29:13Z</time>
      </trkpt>
      <trkpt lat="48.61262" lon="1.95257">
        <ele>140.49</ele>
        <time>2018-01-13T15:29:19Z</time>
      </trkpt>
      <trkpt lat="48.61262" lon="1.95259">
        <ele>140.97</ele>
        <time>2018-01-13T15:29:21Z</time>
      </trkpt>
      <trkpt lat="48.61261" lon="1.95268">
        <ele>140.97</ele>
        <time>2018-01-13T15:29:25Z</time>
      </trkpt>
      <trkpt lat="48.61259" lon="1.95281">
        <ele>140.49</ele>
        <time>2018-01-13T15:29:32Z</time>
      </trkpt>
      <trkpt lat="48.61258" lon="1.95284">
        <ele>140.49</ele>
        <time>2018-01-13T15:29:35Z</time>
      </trkpt>
      <trkpt lat="48.61258" lon="1.95292">
        <ele>140.49</ele>
        <time>2018-01-13T15:29:38Z</time>
      </trkpt>
      <trkpt lat="48.61258" lon="1.95299">
        <ele>140.49</ele>
        <time>2018-01-13T15:29:42Z</time>
      </trkpt>
      <trkpt lat="48.61259" lon="1.95306">
        <ele>140.97</ele>
        <time>2018-01-13T15:29:46Z</time>
      </trkpt>
      <trkpt lat="48.6126" lon="1.9531">
        <ele>140.97</ele>
        <time>2018-01-13T15:29:48Z</time>
      </trkpt>
      <trkpt lat="48.61262" lon="1.95325">
        <ele>140.97</ele>
        <time>2018-01-13T15:29:54Z</time>
      </trkpt>
      <trkpt lat="48.61261" lon="1.95334">
        <ele>140.49</ele>
        <time>2018-01-13T15:29:57Z</time>
      </trkpt>
      <trkpt lat="48.61263" lon="1.95352">
        <ele>140.49</ele>
        <time>2018-01-13T15:30:04Z</time>
      </trkpt>
      <trkpt lat="48.61263" lon="1.95354">
        <ele>140.01</ele>
        <time>2018-01-13T15:30:05Z</time>
      </trkpt>
      <trkpt lat="48.61263" lon="1.95362">
        <ele>140.01</ele>
        <time>2018-01-13T15:30:10Z</time>
      </trkpt>
      <trkpt lat="48.61259" lon="1.95373">
        <ele>140.01</ele>
        <time>2018-01-13T15:30:16Z</time>
      </trkpt>
      <trkpt lat="48.61256" lon="1.95375">
        <ele>140.01</ele>
        <time>2018-01-13T15:30:18Z</time>
      </trkpt>
      <trkpt lat="48.61255" lon="1.95383">
        <ele>140.01</ele>
        <time>2018-01-13T15:30:24Z</time>
      </trkpt>
      <trkpt lat="48.61253" lon="1.95386">
        <ele>140.01</ele>
        <time>2018-01-13T15:30:26Z</time>
      </trkpt>
      <trkpt lat="48.6125" lon="1.95395">
        <ele>140.01</ele>
        <time>2018-01-13T15:30:33Z</time>
      </trkpt>
      <trkpt lat="48.61249" lon="1.95403">
        <ele>140.01</ele>
        <time>2018-01-13T15:30:37Z</time>
      </trkpt>
      <trkpt lat="48.61243" lon="1.95416">
        <ele>139.53</ele>
        <time>2018-01-13T15:30:44Z</time>
      </trkpt>
      <trkpt lat="48.61244" lon="1.9542">
        <ele>139.53</ele>
        <time>2018-01-13T15:30:46Z</time>
      </trkpt>
      <trkpt lat="48.61244" lon="1.95431">
        <ele>139.05</ele>
        <time>2018-01-13T15:30:53Z</time>
      </trkpt>
      <trkpt lat="48.61247" lon="1.95445">
        <ele>139.05</ele>
        <time>2018-01-13T15:30:59Z</time>
      </trkpt>
      <trkpt lat="48.61247" lon="1.9546">
        <ele>138.57</ele>
        <time>2018-01-13T15:31:05Z</time>
      </trkpt>
      <trkpt lat="48.61247" lon="1.95471">
        <ele>138.09</ele>
        <time>2018-01-13T15:31:11Z</time>
      </trkpt>
      <trkpt lat="48.61245" lon="1.9548">
        <ele>137.61</ele>
        <time>2018-01-13T15:31:17Z</time>
      </trkpt>
      <trkpt lat="48.61242" lon="1.95491">
        <ele>137.13</ele>
        <time>2018-01-13T15:31:22Z</time>
      </trkpt>
      <trkpt lat="48.6124" lon="1.95505">
        <ele>137.13</ele>
        <time>2018-01-13T15:31:28Z</time>
      </trkpt>
      <trkpt lat="48.61238" lon="1.95513">
        <ele>137.13</ele>
        <time>2018-01-13T15:31:32Z</time>
      </trkpt>
      <trkpt lat="48.61239" lon="1.95526">
        <ele>137.13</ele>
        <time>2018-01-13T15:31:39Z</time>
      </trkpt>
      <trkpt lat="48.61238" lon="1.95529">
        <ele>136.64</ele>
        <time>2018-01-13T15:31:41Z</time>
      </trkpt>
      <trkpt lat="48.61237" lon="1.95532">
        <ele>136.64</ele>
        <time>2018-01-13T15:31:43Z</time>
      </trkpt>
      <trkpt lat="48.61236" lon="1.95547">
        <ele>136.64</ele>
        <time>2018-01-13T15:31:49Z</time>
      </trkpt>
      <trkpt lat="48.61234" lon="1.95556">
        <ele>136.64</ele>
        <time>2018-01-13T15:31:53Z</time>
      </trkpt>
      <trkpt lat="48.61233" lon="1.95571">
        <ele>136.16</ele>
        <time>2018-01-13T15:31:59Z</time>
      </trkpt>
      <trkpt lat="48.61234" lon="1.95579">
        <ele>136.16</ele>
        <time>2018-01-13T15:32:03Z</time>
      </trkpt>
      <trkpt lat="48.61232" lon="1.95584">
        <ele>136.16</ele>
        <time>2018-01-13T15:32:06Z</time>
      </trkpt>
      <trkpt lat="48.6123" lon="1.95599">
        <ele>135.68</ele>
        <time>2018-01-13T15:32:15Z</time>
      </trkpt>
      <trkpt lat="48.61226" lon="1.95606">
        <ele>135.68</ele>
        <time>2018-01-13T15:32:23Z</time>
      </trkpt>
      <trkpt lat="48.61224" lon="1.95614">
        <ele>135.68</ele>
        <time>2018-01-13T15:32:28Z</time>
      </trkpt>
      <trkpt lat="48.61224" lon="1.95626">
        <ele>135.2</ele>
        <time>2018-01-13T15:32:33Z</time>
      </trkpt>
      <trkpt lat="48.61222" lon="1.95639">
        <ele>134.72</ele>
        <time>2018-01-13T15:32:39Z</time>
      </trkpt>
      <trkpt lat="48.61222" lon="1.95642">
        <ele>134.72</ele>
        <time>2018-01-13T15:32:41Z</time>
      </trkpt>
      <trkpt lat="48.61219" lon="1.95657">
        <ele>134.24</ele>
        <time>2018-01-13T15:32:48Z</time>
      </trkpt>
      <trkpt lat="48.61221" lon="1.95678">
        <ele>134.72</ele>
        <time>2018-01-13T15:32:56Z</time>
      </trkpt>
      <trkpt lat="48.61221" lon="1.9568">
        <ele>134.24</ele>
        <time>2018-01-13T15:32:57Z</time>
      </trkpt>
      <trkpt lat="48.6122" lon="1.95689">
        <ele>134.24</ele>
        <time>2018-01-13T15:33:01Z</time>
      </trkpt>
      <trkpt lat="48.61219" lon="1.95694">
        <ele>133.76</ele>
        <time>2018-01-13T15:33:04Z</time>
      </trkpt>
      <trkpt lat="48.61218" lon="1.95706">
        <ele>133.28</ele>
        <time>2018-01-13T15:33:10Z</time>
      </trkpt>
      <trkpt lat="48.61218" lon="1.95715">
        <ele>133.28</ele>
        <time>2018-01-13T15:33:15Z</time>
      </trkpt>
      <trkpt lat="48.6122" lon="1.95727">
        <ele>132.8</ele>
        <time>2018-01-13T15:33:23Z</time>
      </trkpt>
      <trkpt lat="48.61221" lon="1.95732">
        <ele>132.8</ele>
        <time>2018-01-13T15:33:29Z</time>
      </trkpt>
      <trkpt lat="48.61222" lon="1.95735">
        <ele>132.8</ele>
        <time>2018-01-13T15:33:36Z</time>
      </trkpt>
      <trkpt lat="48.61221" lon="1.95736">
        <ele>132.32</ele>
        <time>2018-01-13T15:33:38Z</time>
      </trkpt>
      <trkpt lat="48.61219" lon="1.95741">
        <ele>132.32</ele>
        <time>2018-01-13T15:33:41Z</time>
      </trkpt>
      <trkpt lat="48.61218" lon="1.95742">
        <ele>132.32</ele>
        <time>2018-01-13T15:33:43Z</time>
      </trkpt>
      <trkpt lat="48.61215" lon="1.95753">
        <ele>131.84</ele>
        <time>2018-01-13T15:33:50Z</time>
      </trkpt>
      <trkpt lat="48.61212" lon="1.95766">
        <ele>131.84</ele>
        <time>2018-01-13T15:33:58Z</time>
      </trkpt>
      <trkpt lat="48.6121" lon="1.95774">
        <ele>131.84</ele>
        <time>2018-01-13T15:34:02Z</time>
      </trkpt>
      <trkpt lat="48.6121" lon="1.95778">
        <ele>131.36</ele>
        <time>2018-01-13T15:34:04Z</time>
      </trkpt>
      <trkpt lat="48.61207" lon="1.95786">
        <ele>131.36</ele>
        <time>2018-01-13T15:34:09Z</time>
      </trkpt>
      <trkpt lat="48.61207" lon="1.95798">
        <ele>130.88</ele>
        <time>2018-01-13T15:34:15Z</time>
      </trkpt>
      <trkpt lat="48.61207" lon="1.95806">
        <ele>130.88</ele>
        <time>2018-01-13T15:34:18Z</time>
      </trkpt>
      <trkpt lat="48.61208" lon="1.95822">
        <ele>130.4</ele>
        <time>2018-01-13T15:34:25Z</time>
      </trkpt>
      <trkpt lat="48.61209" lon="1.95835">
        <ele>130.4</ele>
        <time>2018-01-13T15:34:31Z</time>
      </trkpt>
      <trkpt lat="48.61209" lon="1.95841">
        <ele>129.92</ele>
        <time>2018-01-13T15:34:35Z</time>
      </trkpt>
      <trkpt lat="48.61205" lon="1.95851">
        <ele>129.92</ele>
        <time>2018-01-13T15:34:41Z</time>
      </trkpt>
      <trkpt lat="48.61208" lon="1.95862">
        <ele>129.43</ele>
        <time>2018-01-13T15:34:47Z</time>
      </trkpt>
      <trkpt lat="48.61209" lon="1.9587">
        <ele>129.43</ele>
        <time>2018-01-13T15:34:52Z</time>
      </trkpt>
      <trkpt lat="48.61209" lon="1.95877">
        <ele>129.43</ele>
        <time>2018-01-13T15:34:57Z</time>
      </trkpt>
      <trkpt lat="48.61209" lon="1.95884">
        <ele>128.95</ele>
        <time>2018-01-13T15:35:01Z</time>
      </trkpt>
      <trkpt lat="48.61207" lon="1.95899">
        <ele>128.47</ele>
        <time>2018-01-13T15:35:08Z</time>
      </trkpt>
      <trkpt lat="48.61207" lon="1.95902">
        <ele>128.47</ele>
        <time>2018-01-13T15:35:09Z</time>
      </trkpt>
      <trkpt lat="48.61209" lon="1.95909">
        <ele>128.47</ele>
        <time>2018-01-13T15:35:15Z</time>
      </trkpt>
      <trkpt lat="48.61209" lon="1.95917">
        <ele>128.47</ele>
        <time>2018-01-13T15:35:19Z</time>
      </trkpt>
      <trkpt lat="48.61212" lon="1.95924">
        <ele>128.47</ele>
        <time>2018-01-13T15:35:22Z</time>
      </trkpt>
      <trkpt lat="48.61215" lon="1.95934">
        <ele>127.99</ele>
        <time>2018-01-13T15:35:28Z</time>
      </trkpt>
      <trkpt lat="48.61215" lon="1.95938">
        <ele>127.99</ele>
        <time>2018-01-13T15:35:30Z</time>
      </trkpt>
      <trkpt lat="48.6122" lon="1.95947">
        <ele>127.99</ele>
        <time>2018-01-13T15:35:34Z</time>
      </trkpt>
      <trkpt lat="48.61221" lon="1.95958">
        <ele>127.51</ele>
        <time>2018-01-13T15:35:41Z</time>
      </trkpt>
      <trkpt lat="48.61224" lon="1.95967">
        <ele>127.51</ele>
        <time>2018-01-13T15:35:46Z</time>
      </trkpt>
      <trkpt lat="48.61225" lon="1.95976">
        <ele>127.03</ele>
        <time>2018-01-13T15:35:51Z</time>
      </trkpt>
      <trkpt lat="48.61225" lon="1.95984">
        <ele>126.55</ele>
        <time>2018-01-13T15:35:57Z</time>
      </trkpt>
      <trkpt lat="48.61225" lon="1.95987">
        <ele>126.55</ele>
        <time>2018-01-13T15:35:59Z</time>
      </trkpt>
      <trkpt lat="48.61223" lon="1.95995">
        <ele>126.55</ele>
        <time>2018-01-13T15:36:03Z</time>
      </trkpt>
      <trkpt lat="48.61219" lon="1.96002">
        <ele>126.55</ele>
        <time>2018-01-13T15:36:07Z</time>
      </trkpt>
      <trkpt lat="48.61217" lon="1.96017">
        <ele>126.55</ele>
        <time>2018-01-13T15:36:14Z</time>
      </trkpt>
      <trkpt lat="48.61214" lon="1.96023">
        <ele>126.07</ele>
        <time>2018-01-13T15:36:18Z</time>
      </trkpt>
      <trkpt lat="48.61213" lon="1.96032">
        <ele>125.59</ele>
        <time>2018-01-13T15:36:24Z</time>
      </trkpt>
      <trkpt lat="48.61215" lon="1.9604">
        <ele>126.07</ele>
        <time>2018-01-13T15:36:28Z</time>
      </trkpt>
      <trkpt lat="48.61214" lon="1.96046">
        <ele>125.59</ele>
        <time>2018-01-13T15:36:31Z</time>
      </trkpt>
      <trkpt lat="48.61214" lon="1.96051">
        <ele>125.59</ele>
        <time>2018-01-13T15:36:34Z</time>
      </trkpt>
      <trkpt lat="48.61214" lon="1.96058">
        <ele>125.59</ele>
        <time>2018-01-13T15:36:37Z</time>
      </trkpt>
      <trkpt lat="48.61214" lon="1.96064">
        <ele>125.11</ele>
        <time>2018-01-13T15:36:42Z</time>
      </trkpt>
      <trkpt lat="48.61214" lon="1.96072">
        <ele>125.11</ele>
        <time>2018-01-13T15:36:50Z</time>
      </trkpt>
      <trkpt lat="48.61216" lon="1.96075">
        <ele>125.11</ele>
        <time>2018-01-13T15:36:55Z</time>
      </trkpt>
      <trkpt lat="48.61216" lon="1.96083">
        <ele>125.11</ele>
        <time>2018-01-13T15:37:00Z</time>
      </trkpt>
      <trkpt lat="48.61217" lon="1.96094">
        <ele>124.63</ele>
        <time>2018-01-13T15:37:06Z</time>
      </trkpt>
      <trkpt lat="48.61222" lon="1.96108">
        <ele>124.63</ele>
        <time>2018-01-13T15:37:13Z</time>
      </trkpt>
      <trkpt lat="48.61222" lon="1.96123">
        <ele>124.63</ele>
        <time>2018-01-13T15:37:21Z</time>
      </trkpt>
      <trkpt lat="48.61222" lon="1.96124">
        <ele>124.63</ele>
        <time>2018-01-13T15:37:22Z</time>
      </trkpt>
      <trkpt lat="48.61219" lon="1.96134">
        <ele>124.15</ele>
        <time>2018-01-13T15:37:27Z</time>
      </trkpt>
      <trkpt lat="48.61217" lon="1.96144">
        <ele>124.15</ele>
        <time>2018-01-13T15:37:32Z</time>
      </trkpt>
      <trkpt lat="48.61213" lon="1.96151">
        <ele>124.15</ele>
        <time>2018-01-13T15:37:38Z</time>
      </trkpt>
      <trkpt lat="48.61208" lon="1.96155">
        <ele>123.67</ele>
        <time>2018-01-13T15:37:42Z</time>
      </trkpt>
      <trkpt lat="48.61202" lon="1.96157">
        <ele>123.67</ele>
        <time>2018-01-13T15:37:46Z</time>
      </trkpt>
      <trkpt lat="48.61195" lon="1.96161">
        <ele>123.67</ele>
        <time>2018-01-13T15:37:52Z</time>
      </trkpt>
      <trkpt lat="48.61194" lon="1.96165">
        <ele>123.67</ele>
        <time>2018-01-13T15:37:58Z</time>
      </trkpt>
      <trkpt lat="48.61196" lon="1.96173">
        <ele>123.67</ele>
        <time>2018-01-13T15:38:11Z</time>
      </trkpt>
      <trkpt lat="48.61194" lon="1.96174">
        <ele>123.67</ele>
        <time>2018-01-13T15:38:16Z</time>
      </trkpt>
      <trkpt lat="48.61191" lon="1.96178">
        <ele>123.19</ele>
        <time>2018-01-13T15:38:22Z</time>
      </trkpt>
      <trkpt lat="48.61187" lon="1.9618">
        <ele>123.19</ele>
        <time>2018-01-13T15:38:28Z</time>
      </trkpt>
      <trkpt lat="48.61182" lon="1.96184">
        <ele>123.19</ele>
        <time>2018-01-13T15:38:35Z</time>
      </trkpt>
      <trkpt lat="48.61177" lon="1.9619">
        <ele>123.19</ele>
        <time>2018-01-13T15:38:41Z</time>
      </trkpt>
      <trkpt lat="48.61174" lon="1.96195">
        <ele>123.19</ele>
        <time>2018-01-13T15:38:50Z</time>
      </trkpt>
      <trkpt lat="48.61173" lon="1.96199">
        <ele>122.71</ele>
        <time>2018-01-13T15:39:00Z</time>
      </trkpt>
      <trkpt lat="48.61172" lon="1.96198">
        <ele>123.19</ele>
        <time>2018-01-13T15:39:08Z</time>
      </trkpt>
      <trkpt lat="48.61172" lon="1.96198">
        <ele>123.19</ele>
        <time>2018-01-13T15:39:20Z</time>
      </trkpt>
      <trkpt lat="48.61172" lon="1.96197">
        <ele>123.19</ele>
        <time>2018-01-13T15:39:30Z</time>
      </trkpt>
      <trkpt lat="48.61171" lon="1.96197">
        <ele>122.71</ele>
        <time>2018-01-13T15:39:34Z</time>
      </trkpt>
      <trkpt lat="48.61168" lon="1.96201">
        <ele>122.71</ele>
        <time>2018-01-13T15:39:40Z</time>
      </trkpt>
      <trkpt lat="48.61166" lon="1.96205">
        <ele>122.71</ele>
        <time>2018-01-13T15:39:43Z</time>
      </trkpt>
      <trkpt lat="48.61165" lon="1.96207">
        <ele>122.71</ele>
        <time>2018-01-13T15:39:45Z</time>
      </trkpt>
      <trkpt lat="48.61164" lon="1.96213">
        <ele>122.71</ele>
        <time>2018-01-13T15:39:50Z</time>
      </trkpt>
      <trkpt lat="48.61163" lon="1.96219">
        <ele>122.71</ele>
        <time>2018-01-13T15:39:54Z</time>
      </trkpt>
      <trkpt lat="48.6116" lon="1.96223">
        <ele>122.71</ele>
        <time>2018-01-13T15:39:59Z</time>
      </trkpt>
      <trkpt lat="48.61161" lon="1.96229">
        <ele>122.71</ele>
        <time>2018-01-13T15:40:04Z</time>
      </trkpt>
      <trkpt lat="48.6116" lon="1.96236">
        <ele>122.71</ele>
        <time>2018-01-13T15:40:08Z</time>
      </trkpt>
      <trkpt lat="48.61159" lon="1.96239">
        <ele>122.71</ele>
        <time>2018-01-13T15:40:10Z</time>
      </trkpt>
      <trkpt lat="48.61153" lon="1.96251">
        <ele>122.71</ele>
        <time>2018-01-13T15:40:18Z</time>
      </trkpt>
      <trkpt lat="48.61151" lon="1.96258">
        <ele>122.71</ele>
        <time>2018-01-13T15:40:24Z</time>
      </trkpt>
      <trkpt lat="48.61146" lon="1.96267">
        <ele>122.71</ele>
        <time>2018-01-13T15:40:31Z</time>
      </trkpt>
      <trkpt lat="48.61145" lon="1.96268">
        <ele>122.71</ele>
        <time>2018-01-13T15:40:32Z</time>
      </trkpt>
      <trkpt lat="48.61143" lon="1.96274">
        <ele>122.71</ele>
        <time>2018-01-13T15:40:36Z</time>
      </trkpt>
      <trkpt lat="48.61138" lon="1.96286">
        <ele>122.71</ele>
        <time>2018-01-13T15:40:43Z</time>
      </trkpt>
      <trkpt lat="48.61136" lon="1.96293">
        <ele>122.71</ele>
        <time>2018-01-13T15:40:48Z</time>
      </trkpt>
      <trkpt lat="48.61136" lon="1.96297">
        <ele>122.22</ele>
        <time>2018-01-13T15:40:50Z</time>
      </trkpt>
      <trkpt lat="48.61136" lon="1.9631">
        <ele>122.71</ele>
        <time>2018-01-13T15:40:57Z</time>
      </trkpt>
      <trkpt lat="48.61136" lon="1.96313">
        <ele>122.71</ele>
        <time>2018-01-13T15:40:59Z</time>
      </trkpt>
      <trkpt lat="48.61135" lon="1.96325">
        <ele>122.71</ele>
        <time>2018-01-13T15:41:06Z</time>
      </trkpt>
      <trkpt lat="48.61135" lon="1.9633">
        <ele>122.71</ele>
        <time>2018-01-13T15:41:09Z</time>
      </trkpt>
      <trkpt lat="48.61134" lon="1.96336">
        <ele>122.71</ele>
        <time>2018-01-13T15:41:12Z</time>
      </trkpt>
      <trkpt lat="48.61134" lon="1.96341">
        <ele>122.71</ele>
        <time>2018-01-13T15:41:15Z</time>
      </trkpt>
      <trkpt lat="48.61135" lon="1.96345">
        <ele>122.22</ele>
        <time>2018-01-13T15:41:17Z</time>
      </trkpt>
      <trkpt lat="48.61132" lon="1.96355">
        <ele>122.22</ele>
        <time>2018-01-13T15:41:24Z</time>
      </trkpt>
      <trkpt lat="48.6113" lon="1.96362">
        <ele>122.22</ele>
        <time>2018-01-13T15:41:29Z</time>
      </trkpt>
      <trkpt lat="48.61129" lon="1.96367">
        <ele>122.71</ele>
        <time>2018-01-13T15:41:33Z</time>
      </trkpt>
      <trkpt lat="48.61126" lon="1.96372">
        <ele>122.71</ele>
        <time>2018-01-13T15:41:37Z</time>
      </trkpt>
      <trkpt lat="48.61122" lon="1.96382">
        <ele>122.71</ele>
        <time>2018-01-13T15:41:45Z</time>
      </trkpt>
      <trkpt lat="48.61122" lon="1.96393">
        <ele>122.71</ele>
        <time>2018-01-13T15:41:52Z</time>
      </trkpt>
      <trkpt lat="48.61123" lon="1.96407">
        <ele>123.19</ele>
        <time>2018-01-13T15:42:00Z</time>
      </trkpt>
      <trkpt lat="48.61123" lon="1.96411">
        <ele>123.19</ele>
        <time>2018-01-13T15:42:02Z</time>
      </trkpt>
      <trkpt lat="48.61122" lon="1.96425">
        <ele>123.67</ele>
        <time>2018-01-13T15:42:10Z</time>
      </trkpt>
      <trkpt lat="48.61121" lon="1.96429">
        <ele>123.67</ele>
        <time>2018-01-13T15:42:13Z</time>
      </trkpt>
      <trkpt lat="48.61118" lon="1.96442">
        <ele>123.67</ele>
        <time>2018-01-13T15:42:21Z</time>
      </trkpt>
      <trkpt lat="48.61116" lon="1.96451">
        <ele>123.67</ele>
        <time>2018-01-13T15:42:27Z</time>
      </trkpt>
      <trkpt lat="48.61115" lon="1.96455">
        <ele>123.67</ele>
        <time>2018-01-13T15:42:30Z</time>
      </trkpt>
      <trkpt lat="48.61109" lon="1.96466">
        <ele>123.67</ele>
        <time>2018-01-13T15:42:37Z</time>
      </trkpt>
      <trkpt lat="48.61108" lon="1.96468">
        <ele>123.67</ele>
        <time>2018-01-13T15:42:39Z</time>
      </trkpt>
      <trkpt lat="48.61107" lon="1.96477">
        <ele>124.15</ele>
        <time>2018-01-13T15:42:45Z</time>
      </trkpt>
      <trkpt lat="48.61105" lon="1.96482">
        <ele>124.15</ele>
        <time>2018-01-13T15:42:47Z</time>
      </trkpt>
      <trkpt lat="48.61104" lon="1.96493">
        <ele>124.15</ele>
        <time>2018-01-13T15:42:53Z</time>
      </trkpt>
      <trkpt lat="48.61105" lon="1.96503">
        <ele>124.15</ele>
        <time>2018-01-13T15:42:58Z</time>
      </trkpt>
      <trkpt lat="48.61104" lon="1.9651">
        <ele>124.15</ele>
        <time>2018-01-13T15:43:03Z</time>
      </trkpt>
      <trkpt lat="48.61101" lon="1.96521">
        <ele>124.15</ele>
        <time>2018-01-13T15:43:11Z</time>
      </trkpt>
      <trkpt lat="48.61097" lon="1.9653">
        <ele>124.63</ele>
        <time>2018-01-13T15:43:17Z</time>
      </trkpt>
      <trkpt lat="48.61094" lon="1.96536">
        <ele>124.63</ele>
        <time>2018-01-13T15:43:22Z</time>
      </trkpt>
      <trkpt lat="48.61092" lon="1.96547">
        <ele>125.11</ele>
        <time>2018-01-13T15:43:30Z</time>
      </trkpt>
      <trkpt lat="48.61091" lon="1.96552">
        <ele>124.63</ele>
        <time>2018-01-13T15:43:34Z</time>
      </trkpt>
      <trkpt lat="48.61089" lon="1.96561">
        <ele>125.11</ele>
        <time>2018-01-13T15:43:39Z</time>
      </trkpt>
      <trkpt lat="48.61088" lon="1.96565">
        <ele>125.11</ele>
        <time>2018-01-13T15:43:42Z</time>
      </trkpt>
      <trkpt lat="48.61086" lon="1.96572">
        <ele>125.11</ele>
        <time>2018-01-13T15:43:45Z</time>
      </trkpt>
      <trkpt lat="48.61083" lon="1.96581">
        <ele>125.11</ele>
        <time>2018-01-13T15:43:49Z</time>
      </trkpt>
      <trkpt lat="48.61081" lon="1.96587">
        <ele>125.11</ele>
        <time>2018-01-13T15:43:53Z</time>
      </trkpt>
      <trkpt lat="48.61081" lon="1.96598">
        <ele>125.59</ele>
        <time>2018-01-13T15:43:58Z</time>
      </trkpt>
      <trkpt lat="48.61079" lon="1.96603">
        <ele>125.59</ele>
        <time>2018-01-13T15:44:01Z</time>
      </trkpt>
      <trkpt lat="48.61078" lon="1.96615">
        <ele>125.59</ele>
        <time>2018-01-13T15:44:07Z</time>
      </trkpt>
      <trkpt lat="48.61075" lon="1.96625">
        <ele>125.59</ele>
        <time>2018-01-13T15:44:12Z</time>
      </trkpt>
      <trkpt lat="48.61073" lon="1.96633">
        <ele>125.59</ele>
        <time>2018-01-13T15:44:18Z</time>
      </trkpt>
      <trkpt lat="48.61071" lon="1.96637">
        <ele>125.59</ele>
        <time>2018-01-13T15:44:21Z</time>
      </trkpt>
      <trkpt lat="48.61069" lon="1.96642">
        <ele>125.59</ele>
        <time>2018-01-13T15:44:27Z</time>
      </trkpt>
      <trkpt lat="48.61068" lon="1.96652">
        <ele>125.59</ele>
        <time>2018-01-13T15:44:33Z</time>
      </trkpt>
      <trkpt lat="48.61066" lon="1.96661">
        <ele>125.59</ele>
        <time>2018-01-13T15:44:40Z</time>
      </trkpt>
      <trkpt lat="48.61065" lon="1.96665">
        <ele>125.59</ele>
        <time>2018-01-13T15:44:43Z</time>
      </trkpt>
      <trkpt lat="48.6106" lon="1.9668">
        <ele>125.59</ele>
        <time>2018-01-13T15:44:50Z</time>
      </trkpt>
      <trkpt lat="48.61059" lon="1.96691">
        <ele>125.59</ele>
        <time>2018-01-13T15:44:55Z</time>
      </trkpt>
      <trkpt lat="48.61057" lon="1.96695">
        <ele>125.59</ele>
        <time>2018-01-13T15:44:57Z</time>
      </trkpt>
      <trkpt lat="48.61053" lon="1.96701">
        <ele>125.59</ele>
        <time>2018-01-13T15:45:02Z</time>
      </trkpt>
      <trkpt lat="48.61053" lon="1.96704">
        <ele>125.59</ele>
        <time>2018-01-13T15:45:04Z</time>
      </trkpt>
      <trkpt lat="48.61051" lon="1.96711">
        <ele>125.59</ele>
        <time>2018-01-13T15:45:10Z</time>
      </trkpt>
      <trkpt lat="48.6105" lon="1.96719">
        <ele>125.59</ele>
        <time>2018-01-13T15:45:16Z</time>
      </trkpt>
      <trkpt lat="48.61049" lon="1.96723">
        <ele>125.59</ele>
        <time>2018-01-13T15:45:18Z</time>
      </trkpt>
      <trkpt lat="48.61047" lon="1.96729">
        <ele>125.59</ele>
        <time>2018-01-13T15:45:21Z</time>
      </trkpt>
      <trkpt lat="48.61045" lon="1.96748">
        <ele>125.59</ele>
        <time>2018-01-13T15:45:28Z</time>
      </trkpt>
      <trkpt lat="48.61044" lon="1.96751">
        <ele>125.59</ele>
        <time>2018-01-13T15:45:30Z</time>
      </trkpt>
      <trkpt lat="48.6104" lon="1.96764">
        <ele>126.07</ele>
        <time>2018-01-13T15:45:37Z</time>
      </trkpt>
      <trkpt lat="48.61037" lon="1.96775">
        <ele>125.59</ele>
        <time>2018-01-13T15:45:43Z</time>
      </trkpt>
      <trkpt lat="48.61037" lon="1.96792">
        <ele>125.59</ele>
        <time>2018-01-13T15:45:53Z</time>
      </trkpt>
      <trkpt lat="48.61037" lon="1.96805">
        <ele>125.59</ele>
        <time>2018-01-13T15:45:59Z</time>
      </trkpt>
      <trkpt lat="48.61035" lon="1.96813">
        <ele>125.59</ele>
        <time>2018-01-13T15:46:04Z</time>
      </trkpt>
      <trkpt lat="48.61034" lon="1.96818">
        <ele>125.59</ele>
        <time>2018-01-13T15:46:07Z</time>
      </trkpt>
      <trkpt lat="48.61034" lon="1.96821">
        <ele>125.59</ele>
        <time>2018-01-13T15:46:09Z</time>
      </trkpt>
      <trkpt lat="48.61031" lon="1.96828">
        <ele>125.59</ele>
        <time>2018-01-13T15:46:14Z</time>
      </trkpt>
      <trkpt lat="48.61029" lon="1.96835">
        <ele>125.59</ele>
        <time>2018-01-13T15:46:19Z</time>
      </trkpt>
      <trkpt lat="48.61028" lon="1.96837">
        <ele>125.59</ele>
        <time>2018-01-13T15:46:22Z</time>
      </trkpt>
      <trkpt lat="48.61024" lon="1.96849">
        <ele>125.59</ele>
        <time>2018-01-13T15:46:29Z</time>
      </trkpt>
      <trkpt lat="48.61021" lon="1.96861">
        <ele>125.59</ele>
        <time>2018-01-13T15:46:36Z</time>
      </trkpt>
      <trkpt lat="48.61017" lon="1.96873">
        <ele>125.59</ele>
        <time>2018-01-13T15:46:43Z</time>
      </trkpt>
      <trkpt lat="48.61014" lon="1.9688">
        <ele>125.59</ele>
        <time>2018-01-13T15:46:49Z</time>
      </trkpt>
      <trkpt lat="48.61011" lon="1.9689">
        <ele>125.59</ele>
        <time>2018-01-13T15:46:55Z</time>
      </trkpt>
      <trkpt lat="48.61007" lon="1.96909">
        <ele>125.59</ele>
        <time>2018-01-13T15:47:03Z</time>
      </trkpt>
      <trkpt lat="48.61006" lon="1.96913">
        <ele>125.59</ele>
        <time>2018-01-13T15:47:05Z</time>
      </trkpt>
      <trkpt lat="48.61002" lon="1.96925">
        <ele>125.59</ele>
        <time>2018-01-13T15:47:11Z</time>
      </trkpt>
      <trkpt lat="48.61002" lon="1.96926">
        <ele>125.59</ele>
        <time>2018-01-13T15:47:12Z</time>
      </trkpt>
      <trkpt lat="48.61" lon="1.96934">
        <ele>125.59</ele>
        <time>2018-01-13T15:47:16Z</time>
      </trkpt>
      <trkpt lat="48.60994" lon="1.96951">
        <ele>125.11</ele>
        <time>2018-01-13T15:47:25Z</time>
      </trkpt>
      <trkpt lat="48.60994" lon="1.96962">
        <ele>125.59</ele>
        <time>2018-01-13T15:47:32Z</time>
      </trkpt>
      <trkpt lat="48.60991" lon="1.9697">
        <ele>125.59</ele>
        <time>2018-01-13T15:47:36Z</time>
      </trkpt>
      <trkpt lat="48.60989" lon="1.96976">
        <ele>125.59</ele>
        <time>2018-01-13T15:47:40Z</time>
      </trkpt>
      <trkpt lat="48.60987" lon="1.96986">
        <ele>125.11</ele>
        <time>2018-01-13T15:47:45Z</time>
      </trkpt>
      <trkpt lat="48.60986" lon="1.96996">
        <ele>125.11</ele>
        <time>2018-01-13T15:47:51Z</time>
      </trkpt>
      <trkpt lat="48.60984" lon="1.97004">
        <ele>125.11</ele>
        <time>2018-01-13T15:47:55Z</time>
      </trkpt>
      <trkpt lat="48.60983" lon="1.97013">
        <ele>125.11</ele>
        <time>2018-01-13T15:48:00Z</time>
      </trkpt>
      <trkpt lat="48.60983" lon="1.97017">
        <ele>125.59</ele>
        <time>2018-01-13T15:48:02Z</time>
      </trkpt>
      <trkpt lat="48.60982" lon="1.97025">
        <ele>125.11</ele>
        <time>2018-01-13T15:48:06Z</time>
      </trkpt>
      <trkpt lat="48.60982" lon="1.97035">
        <ele>125.11</ele>
        <time>2018-01-13T15:48:11Z</time>
      </trkpt>
      <trkpt lat="48.60983" lon="1.97049">
        <ele>125.11</ele>
        <time>2018-01-13T15:48:18Z</time>
      </trkpt>
      <trkpt lat="48.60985" lon="1.97064">
        <ele>124.63</ele>
        <time>2018-01-13T15:48:25Z</time>
      </trkpt>
      <trkpt lat="48.60986" lon="1.97078">
        <ele>124.63</ele>
        <time>2018-01-13T15:48:33Z</time>
      </trkpt>
      <trkpt lat="48.60987" lon="1.97082">
        <ele>124.63</ele>
        <time>2018-01-13T15:48:35Z</time>
      </trkpt>
      <trkpt lat="48.60988" lon="1.97097">
        <ele>124.15</ele>
        <time>2018-01-13T15:48:44Z</time>
      </trkpt>
      <trkpt lat="48.60991" lon="1.97112">
        <ele>125.11</ele>
        <time>2018-01-13T15:48:52Z</time>
      </trkpt>
      <trkpt lat="48.60991" lon="1.97118">
        <ele>124.15</ele>
        <time>2018-01-13T15:48:56Z</time>
      </trkpt>
      <trkpt lat="48.60993" lon="1.97131">
        <ele>124.15</ele>
        <time>2018-01-13T15:49:03Z</time>
      </trkpt>
      <trkpt lat="48.60993" lon="1.97133">
        <ele>124.15</ele>
        <time>2018-01-13T15:49:04Z</time>
      </trkpt>
      <trkpt lat="48.60993" lon="1.97136">
        <ele>124.15</ele>
        <time>2018-01-13T15:49:06Z</time>
      </trkpt>
      <trkpt lat="48.60994" lon="1.9714">
        <ele>124.15</ele>
        <time>2018-01-13T15:49:09Z</time>
      </trkpt>
      <trkpt lat="48.60997" lon="1.97148">
        <ele>123.67</ele>
        <time>2018-01-13T15:49:14Z</time>
      </trkpt>
      <trkpt lat="48.60999" lon="1.97156">
        <ele>124.15</ele>
        <time>2018-01-13T15:49:21Z</time>
      </trkpt>
      <trkpt lat="48.61001" lon="1.97157">
        <ele>123.67</ele>
        <time>2018-01-13T15:49:27Z</time>
      </trkpt>
      <trkpt lat="48.61001" lon="1.97158">
        <ele>124.15</ele>
        <time>2018-01-13T15:49:29Z</time>
      </trkpt>
      <trkpt lat="48.61" lon="1.97163">
        <ele>124.15</ele>
        <time>2018-01-13T15:49:34Z</time>
      </trkpt>
      <trkpt lat="48.61001" lon="1.97169">
        <ele>123.67</ele>
        <time>2018-01-13T15:49:37Z</time>
      </trkpt>
      <trkpt lat="48.61005" lon="1.97179">
        <ele>123.67</ele>
        <time>2018-01-13T15:49:45Z</time>
      </trkpt>
      <trkpt lat="48.61004" lon="1.97185">
        <ele>123.67</ele>
        <time>2018-01-13T15:49:49Z</time>
      </trkpt>
      <trkpt lat="48.60999" lon="1.97192">
        <ele>123.67</ele>
        <time>2018-01-13T15:49:56Z</time>
      </trkpt>
      <trkpt lat="48.60991" lon="1.97201">
        <ele>123.67</ele>
        <time>2018-01-13T15:50:04Z</time>
      </trkpt>
      <trkpt lat="48.60988" lon="1.97205">
        <ele>123.67</ele>
        <time>2018-01-13T15:50:07Z</time>
      </trkpt>
      <trkpt lat="48.60981" lon="1.97212">
        <ele>123.67</ele>
        <time>2018-01-13T15:50:15Z</time>
      </trkpt>
      <trkpt lat="48.6098" lon="1.97213">
        <ele>123.67</ele>
        <time>2018-01-13T15:50:16Z</time>
      </trkpt>
      <trkpt lat="48.60975" lon="1.97221">
        <ele>123.67</ele>
        <time>2018-01-13T15:50:23Z</time>
      </trkpt>
      <trkpt lat="48.60967" lon="1.97228">
        <ele>123.67</ele>
        <time>2018-01-13T15:50:31Z</time>
      </trkpt>
      <trkpt lat="48.60956" lon="1.97234">
        <ele>123.67</ele>
        <time>2018-01-13T15:50:39Z</time>
      </trkpt>
      <trkpt lat="48.60945" lon="1.97243">
        <ele>123.67</ele>
        <time>2018-01-13T15:50:50Z</time>
      </trkpt>
      <trkpt lat="48.60935" lon="1.97251">
        <ele>123.67</ele>
        <time>2018-01-13T15:50:59Z</time>
      </trkpt>
      <trkpt lat="48.60926" lon="1.97259">
        <ele>123.67</ele>
        <time>2018-01-13T15:51:08Z</time>
      </trkpt>
      <trkpt lat="48.60917" lon="1.9727">
        <ele>123.67</ele>
        <time>2018-01-13T15:51:17Z</time>
      </trkpt>
      <trkpt lat="48.60912" lon="1.97276">
        <ele>123.19</ele>
        <time>2018-01-13T15:51:23Z</time>
      </trkpt>
      <trkpt lat="48.60908" lon="1.9728">
        <ele>123.19</ele>
        <time>2018-01-13T15:51:32Z</time>
      </trkpt>
      <trkpt lat="48.60908" lon="1.9728">
        <ele>123.19</ele>
        <time>2018-01-13T15:51:37Z</time>
      </trkpt>
      <trkpt lat="48.60907" lon="1.97281">
        <ele>123.19</ele>
        <time>2018-01-13T15:51:47Z</time>
      </trkpt>
      <trkpt lat="48.60901" lon="1.97289">
        <ele>123.19</ele>
        <time>2018-01-13T15:51:55Z</time>
      </trkpt>
      <trkpt lat="48.60898" lon="1.97294">
        <ele>123.19</ele>
        <time>2018-01-13T15:52:00Z</time>
      </trkpt>
      <trkpt lat="48.60897" lon="1.97297">
        <ele>123.19</ele>
        <time>2018-01-13T15:52:03Z</time>
      </trkpt>
      <trkpt lat="48.60891" lon="1.97306">
        <ele>123.67</ele>
        <time>2018-01-13T15:52:13Z</time>
      </trkpt>
      <trkpt lat="48.6089" lon="1.97307">
        <ele>123.19</ele>
        <time>2018-01-13T15:52:19Z</time>
      </trkpt>
      <trkpt lat="48.60891" lon="1.97307">
        <ele>122.71</ele>
        <time>2018-01-13T15:52:28Z</time>
      </trkpt>
      <trkpt lat="48.60892" lon="1.97307">
        <ele>122.71</ele>
        <time>2018-01-13T15:52:37Z</time>
      </trkpt>
      <trkpt lat="48.6089" lon="1.9731">
        <ele>122.71</ele>
        <time>2018-01-13T15:52:43Z</time>
      </trkpt>
      <trkpt lat="48.60889" lon="1.9731">
        <ele>122.71</ele>
        <time>2018-01-13T15:52:48Z</time>
      </trkpt>
      <trkpt lat="48.60889" lon="1.97313">
        <ele>122.71</ele>
        <time>2018-01-13T15:52:54Z</time>
      </trkpt>
      <trkpt lat="48.60885" lon="1.9732">
        <ele>122.71</ele>
        <time>2018-01-13T15:53:00Z</time>
      </trkpt>
      <trkpt lat="48.60879" lon="1.9733">
        <ele>122.71</ele>
        <time>2018-01-13T15:53:07Z</time>
      </trkpt>
      <trkpt lat="48.60875" lon="1.97334">
        <ele>122.71</ele>
        <time>2018-01-13T15:53:11Z</time>
      </trkpt>
      <trkpt lat="48.60866" lon="1.97348">
        <ele>122.71</ele>
        <time>2018-01-13T15:53:21Z</time>
      </trkpt>
      <trkpt lat="48.6086" lon="1.97359">
        <ele>122.71</ele>
        <time>2018-01-13T15:53:29Z</time>
      </trkpt>
      <trkpt lat="48.60854" lon="1.97368">
        <ele>122.22</ele>
        <time>2018-01-13T15:53:36Z</time>
      </trkpt>
      <trkpt lat="48.60842" lon="1.9738">
        <ele>122.71</ele>
        <time>2018-01-13T15:53:46Z</time>
      </trkpt>
      <trkpt lat="48.60834" lon="1.97392">
        <ele>122.22</ele>
        <time>2018-01-13T15:53:54Z</time>
      </trkpt>
      <trkpt lat="48.60826" lon="1.974">
        <ele>122.71</ele>
        <time>2018-01-13T15:54:01Z</time>
      </trkpt>
      <trkpt lat="48.60819" lon="1.97406">
        <ele>122.71</ele>
        <time>2018-01-13T15:54:08Z</time>
      </trkpt>
      <trkpt lat="48.60812" lon="1.97413">
        <ele>122.71</ele>
        <time>2018-01-13T15:54:15Z</time>
      </trkpt>
      <trkpt lat="48.60808" lon="1.97417">
        <ele>122.71</ele>
        <time>2018-01-13T15:54:21Z</time>
      </trkpt>
      <trkpt lat="48.60803" lon="1.97426">
        <ele>122.71</ele>
        <time>2018-01-13T15:54:28Z</time>
      </trkpt>
      <trkpt lat="48.60797" lon="1.97433">
        <ele>123.19</ele>
        <time>2018-01-13T15:54:36Z</time>
      </trkpt>
    </trkseg>
  </trk>
</gpx>